<?xml version="1.0" encoding="UTF-8" ?>
<gpx version="1.1" 
creator="Memory-Map 6.4.3.1278 https://memory-map.com"
 xmlns:xsi="http://www.w3.org/2001/XMLSchema-instance"
 xmlns="http://www.topografix.com/GPX/1/1"
 xmlns:xstyle="http://www.topografix.com/GPX/gpx_style/0/2"
 xmlns:xgarmin="http://www.garmin.com/xmlschemas/GpxExtensions/v3"
 xsi:schemaLocation="http://www.topografix.com/GPX/1/1 http://www.topografix.com/GPX/1/1/gpx.xsd http://www.topografix.com/GPX/gpx_style/0/2 http://www.topografix.com/GPX/gpx_style/0/2/gpx_style.xsd http://www.garmin.com/xmlschemas/GpxExtensions/v3 https://www8.garmin.com/xmlschemas/GpxExtensionsv3.xsd">
<trk>
<name>1452 Le Monné</name>
<src>mmid:5BFAC55330FCBFE5</src>
<type>Track</type>
<extensions> <xstyle:line>
<xstyle:color>ff8000</xstyle:color>
<xstyle:opacity>1.0</xstyle:opacity>
<xstyle:width>2.0</xstyle:width>
<xstyle:pattern>Solid</xstyle:pattern>
</xstyle:line></extensions>
<trkseg>
<trkpt lat="43.0546620000" lon="0.1348750000"><ele>764</ele><time>2026-03-21T07:05:01Z</time></trkpt>
<trkpt lat="43.0546750000" lon="0.1348920000"><ele>763</ele><time>2026-03-21T07:05:11Z</time></trkpt>
<trkpt lat="43.0546950000" lon="0.1348970000"><ele>763</ele><time>2026-03-21T07:05:41Z</time></trkpt>
<trkpt lat="43.0547170000" lon="0.1349070000"><ele>763</ele><time>2026-03-21T07:05:43Z</time></trkpt>
<trkpt lat="43.0547400000" lon="0.1349270000"><ele>763</ele><time>2026-03-21T07:05:45Z</time></trkpt>
<trkpt lat="43.0547480000" lon="0.1349530000"><ele>763</ele><time>2026-03-21T07:05:47Z</time></trkpt>
<trkpt lat="43.0547370000" lon="0.1349780000"><ele>763</ele><time>2026-03-21T07:05:51Z</time></trkpt>
<trkpt lat="43.0547150000" lon="0.1349820000"><ele>763</ele><time>2026-03-21T07:05:54Z</time></trkpt>
<trkpt lat="43.0546970000" lon="0.1349770000"><ele>763</ele><time>2026-03-21T07:05:55Z</time></trkpt>
<trkpt lat="43.0546770000" lon="0.1349670000"><ele>764</ele><time>2026-03-21T07:05:59Z</time></trkpt>
<trkpt lat="43.0546500000" lon="0.1349420000"><ele>764</ele><time>2026-03-21T07:06:17Z</time></trkpt>
<trkpt lat="43.0546250000" lon="0.1349370000"><ele>764</ele><time>2026-03-21T07:06:20Z</time></trkpt>
<trkpt lat="43.0545920000" lon="0.1349220000"><ele>764</ele><time>2026-03-21T07:06:22Z</time></trkpt>
<trkpt lat="43.0545720000" lon="0.1349170000"><ele>764</ele><time>2026-03-21T07:06:23Z</time></trkpt>
<trkpt lat="43.0545550000" lon="0.1349070000"><ele>764</ele><time>2026-03-21T07:06:24Z</time></trkpt>
<trkpt lat="43.0545320000" lon="0.1348920000"><ele>765</ele><time>2026-03-21T07:06:26Z</time></trkpt>
<trkpt lat="43.0545220000" lon="0.1348720000"><ele>765</ele><time>2026-03-21T07:06:39Z</time></trkpt>
<trkpt lat="43.0545050000" lon="0.1348620000"><ele>765</ele><time>2026-03-21T07:06:41Z</time></trkpt>
<trkpt lat="43.0544870000" lon="0.1348550000"><ele>765</ele><time>2026-03-21T07:06:43Z</time></trkpt>
<trkpt lat="43.0544670000" lon="0.1348470000"><ele>766</ele><time>2026-03-21T07:06:45Z</time></trkpt>
<trkpt lat="43.0544450000" lon="0.1348420000"><ele>766</ele><time>2026-03-21T07:06:47Z</time></trkpt>
<trkpt lat="43.0544270000" lon="0.1348370000"><ele>766</ele><time>2026-03-21T07:06:49Z</time></trkpt>
<trkpt lat="43.0544020000" lon="0.1348350000"><ele>766</ele><time>2026-03-21T07:06:52Z</time></trkpt>
<trkpt lat="43.0543820000" lon="0.1348270000"><ele>766</ele><time>2026-03-21T07:06:54Z</time></trkpt>
<trkpt lat="43.0543620000" lon="0.1348170000"><ele>766</ele><time>2026-03-21T07:06:56Z</time></trkpt>
<trkpt lat="43.0543450000" lon="0.1348050000"><ele>766</ele><time>2026-03-21T07:06:58Z</time></trkpt>
<trkpt lat="43.0543300000" lon="0.1347880000"><ele>766</ele><time>2026-03-21T07:07:00Z</time></trkpt>
<trkpt lat="43.0543120000" lon="0.1347750000"><ele>767</ele><time>2026-03-21T07:07:02Z</time></trkpt>
<trkpt lat="43.0542950000" lon="0.1347570000"><ele>767</ele><time>2026-03-21T07:07:04Z</time></trkpt>
<trkpt lat="43.0542720000" lon="0.1347520000"><ele>767</ele><time>2026-03-21T07:07:06Z</time></trkpt>
<trkpt lat="43.0542520000" lon="0.1347420000"><ele>767</ele><time>2026-03-21T07:07:08Z</time></trkpt>
<trkpt lat="43.0542270000" lon="0.1347300000"><ele>767</ele><time>2026-03-21T07:07:10Z</time></trkpt>
<trkpt lat="43.0542070000" lon="0.1347100000"><ele>768</ele><time>2026-03-21T07:07:12Z</time></trkpt>
<trkpt lat="43.0541870000" lon="0.1346970000"><ele>768</ele><time>2026-03-21T07:07:14Z</time></trkpt>
<trkpt lat="43.0541720000" lon="0.1346820000"><ele>768</ele><time>2026-03-21T07:07:16Z</time></trkpt>
<trkpt lat="43.0541550000" lon="0.1346720000"><ele>768</ele><time>2026-03-21T07:07:18Z</time></trkpt>
<trkpt lat="43.0541320000" lon="0.1346620000"><ele>768</ele><time>2026-03-21T07:07:21Z</time></trkpt>
<trkpt lat="43.0541120000" lon="0.1346420000"><ele>769</ele><time>2026-03-21T07:07:25Z</time></trkpt>
<trkpt lat="43.0540950000" lon="0.1346220000"><ele>769</ele><time>2026-03-21T07:07:28Z</time></trkpt>
<trkpt lat="43.0540820000" lon="0.1346000000"><ele>769</ele><time>2026-03-21T07:07:30Z</time></trkpt>
<trkpt lat="43.0540770000" lon="0.1345720000"><ele>769</ele><time>2026-03-21T07:07:32Z</time></trkpt>
<trkpt lat="43.0540730000" lon="0.1345420000"><ele>769</ele><time>2026-03-21T07:07:34Z</time></trkpt>
<trkpt lat="43.0540700000" lon="0.1345170000"><ele>769</ele><time>2026-03-21T07:07:36Z</time></trkpt>
<trkpt lat="43.0540700000" lon="0.1344870000"><ele>769</ele><time>2026-03-21T07:07:38Z</time></trkpt>
<trkpt lat="43.0540620000" lon="0.1344600000"><ele>769</ele><time>2026-03-21T07:07:40Z</time></trkpt>
<trkpt lat="43.0540570000" lon="0.1344270000"><ele>769</ele><time>2026-03-21T07:07:42Z</time></trkpt>
<trkpt lat="43.0540470000" lon="0.1343930000"><ele>769</ele><time>2026-03-21T07:07:45Z</time></trkpt>
<trkpt lat="43.0540350000" lon="0.1343720000"><ele>768</ele><time>2026-03-21T07:07:47Z</time></trkpt>
<trkpt lat="43.0540200000" lon="0.1343450000"><ele>768</ele><time>2026-03-21T07:07:49Z</time></trkpt>
<trkpt lat="43.0540070000" lon="0.1343220000"><ele>768</ele><time>2026-03-21T07:07:51Z</time></trkpt>
<trkpt lat="43.0539950000" lon="0.1343020000"><ele>768</ele><time>2026-03-21T07:07:53Z</time></trkpt>
<trkpt lat="43.0539750000" lon="0.1342800000"><ele>768</ele><time>2026-03-21T07:07:55Z</time></trkpt>
<trkpt lat="43.0539650000" lon="0.1342470000"><ele>768</ele><time>2026-03-21T07:07:57Z</time></trkpt>
<trkpt lat="43.0539520000" lon="0.1342200000"><ele>768</ele><time>2026-03-21T07:07:59Z</time></trkpt>
<trkpt lat="43.0539370000" lon="0.1341870000"><ele>768</ele><time>2026-03-21T07:08:01Z</time></trkpt>
<trkpt lat="43.0539250000" lon="0.1341620000"><ele>768</ele><time>2026-03-21T07:08:03Z</time></trkpt>
<trkpt lat="43.0539250000" lon="0.1341320000"><ele>768</ele><time>2026-03-21T07:08:05Z</time></trkpt>
<trkpt lat="43.0539250000" lon="0.1340970000"><ele>768</ele><time>2026-03-21T07:08:07Z</time></trkpt>
<trkpt lat="43.0539170000" lon="0.1340700000"><ele>768</ele><time>2026-03-21T07:08:09Z</time></trkpt>
<trkpt lat="43.0539100000" lon="0.1340320000"><ele>768</ele><time>2026-03-21T07:08:11Z</time></trkpt>
<trkpt lat="43.0538970000" lon="0.1340020000"><ele>768</ele><time>2026-03-21T07:08:13Z</time></trkpt>
<trkpt lat="43.0538850000" lon="0.1339750000"><ele>767</ele><time>2026-03-21T07:08:15Z</time></trkpt>
<trkpt lat="43.0538670000" lon="0.1339520000"><ele>767</ele><time>2026-03-21T07:08:17Z</time></trkpt>
<trkpt lat="43.0538600000" lon="0.1339170000"><ele>768</ele><time>2026-03-21T07:08:20Z</time></trkpt>
<trkpt lat="43.0538570000" lon="0.1338900000"><ele>768</ele><time>2026-03-21T07:08:22Z</time></trkpt>
<trkpt lat="43.0538470000" lon="0.1338620000"><ele>768</ele><time>2026-03-21T07:08:24Z</time></trkpt>
<trkpt lat="43.0538370000" lon="0.1338320000"><ele>768</ele><time>2026-03-21T07:08:26Z</time></trkpt>
<trkpt lat="43.0538300000" lon="0.1338020000"><ele>767</ele><time>2026-03-21T07:08:28Z</time></trkpt>
<trkpt lat="43.0538320000" lon="0.1337720000"><ele>767</ele><time>2026-03-21T07:08:30Z</time></trkpt>
<trkpt lat="43.0538200000" lon="0.1337420000"><ele>767</ele><time>2026-03-21T07:08:32Z</time></trkpt>
<trkpt lat="43.0538070000" lon="0.1337170000"><ele>767</ele><time>2026-03-21T07:08:34Z</time></trkpt>
<trkpt lat="43.0537920000" lon="0.1336900000"><ele>768</ele><time>2026-03-21T07:08:36Z</time></trkpt>
<trkpt lat="43.0537820000" lon="0.1336520000"><ele>768</ele><time>2026-03-21T07:08:38Z</time></trkpt>
<trkpt lat="43.0537620000" lon="0.1336270000"><ele>768</ele><time>2026-03-21T07:08:40Z</time></trkpt>
<trkpt lat="43.0537520000" lon="0.1336050000"><ele>768</ele><time>2026-03-21T07:08:42Z</time></trkpt>
<trkpt lat="43.0537370000" lon="0.1335800000"><ele>768</ele><time>2026-03-21T07:08:44Z</time></trkpt>
<trkpt lat="43.0537250000" lon="0.1335520000"><ele>768</ele><time>2026-03-21T07:08:46Z</time></trkpt>
<trkpt lat="43.0537200000" lon="0.1335250000"><ele>768</ele><time>2026-03-21T07:08:48Z</time></trkpt>
<trkpt lat="43.0537050000" lon="0.1334970000"><ele>768</ele><time>2026-03-21T07:08:50Z</time></trkpt>
<trkpt lat="43.0536870000" lon="0.1334770000"><ele>767</ele><time>2026-03-21T07:08:52Z</time></trkpt>
<trkpt lat="43.0536750000" lon="0.1334370000"><ele>767</ele><time>2026-03-21T07:08:55Z</time></trkpt>
<trkpt lat="43.0536650000" lon="0.1334120000"><ele>767</ele><time>2026-03-21T07:08:57Z</time></trkpt>
<trkpt lat="43.0536570000" lon="0.1333870000"><ele>767</ele><time>2026-03-21T07:08:59Z</time></trkpt>
<trkpt lat="43.0536670000" lon="0.1333470000"><ele>767</ele><time>2026-03-21T07:09:01Z</time></trkpt>
<trkpt lat="43.0536700000" lon="0.1333220000"><ele>767</ele><time>2026-03-21T07:09:03Z</time></trkpt>
<trkpt lat="43.0536650000" lon="0.1332920000"><ele>767</ele><time>2026-03-21T07:09:05Z</time></trkpt>
<trkpt lat="43.0536520000" lon="0.1332570000"><ele>767</ele><time>2026-03-21T07:09:07Z</time></trkpt>
<trkpt lat="43.0536470000" lon="0.1332320000"><ele>767</ele><time>2026-03-21T07:09:09Z</time></trkpt>
<trkpt lat="43.0536350000" lon="0.1332070000"><ele>767</ele><time>2026-03-21T07:09:11Z</time></trkpt>
<trkpt lat="43.0536350000" lon="0.1331670000"><ele>768</ele><time>2026-03-21T07:09:22Z</time></trkpt>
<trkpt lat="43.0536230000" lon="0.1331450000"><ele>768</ele><time>2026-03-21T07:09:47Z</time></trkpt>
<trkpt lat="43.0536100000" lon="0.1331050000"><ele>768</ele><time>2026-03-21T07:09:49Z</time></trkpt>
<trkpt lat="43.0536020000" lon="0.1330720000"><ele>768</ele><time>2026-03-21T07:09:51Z</time></trkpt>
<trkpt lat="43.0535970000" lon="0.1330380000"><ele>768</ele><time>2026-03-21T07:09:53Z</time></trkpt>
<trkpt lat="43.0535820000" lon="0.1330080000"><ele>768</ele><time>2026-03-21T07:09:55Z</time></trkpt>
<trkpt lat="43.0535750000" lon="0.1329830000"><ele>768</ele><time>2026-03-21T07:09:58Z</time></trkpt>
<trkpt lat="43.0535870000" lon="0.1330020000"><ele>768</ele><time>2026-03-21T07:10:02Z</time></trkpt>
<trkpt lat="43.0535850000" lon="0.1329720000"><ele>768</ele><time>2026-03-21T07:10:05Z</time></trkpt>
<trkpt lat="43.0535620000" lon="0.1329370000"><ele>768</ele><time>2026-03-21T07:10:07Z</time></trkpt>
<trkpt lat="43.0535470000" lon="0.1329150000"><ele>768</ele><time>2026-03-21T07:10:09Z</time></trkpt>
<trkpt lat="43.0535250000" lon="0.1328920000"><ele>768</ele><time>2026-03-21T07:10:11Z</time></trkpt>
<trkpt lat="43.0535070000" lon="0.1328670000"><ele>768</ele><time>2026-03-21T07:10:13Z</time></trkpt>
<trkpt lat="43.0534920000" lon="0.1328350000"><ele>768</ele><time>2026-03-21T07:10:15Z</time></trkpt>
<trkpt lat="43.0534820000" lon="0.1328070000"><ele>768</ele><time>2026-03-21T07:10:16Z</time></trkpt>
<trkpt lat="43.0534650000" lon="0.1327800000"><ele>768</ele><time>2026-03-21T07:10:18Z</time></trkpt>
<trkpt lat="43.0534350000" lon="0.1327570000"><ele>768</ele><time>2026-03-21T07:10:20Z</time></trkpt>
<trkpt lat="43.0534220000" lon="0.1327370000"><ele>768</ele><time>2026-03-21T07:10:22Z</time></trkpt>
<trkpt lat="43.0534020000" lon="0.1327130000"><ele>767</ele><time>2026-03-21T07:10:25Z</time></trkpt>
<trkpt lat="43.0533900000" lon="0.1326950000"><ele>767</ele><time>2026-03-21T07:10:27Z</time></trkpt>
<trkpt lat="43.0533750000" lon="0.1326650000"><ele>767</ele><time>2026-03-21T07:10:30Z</time></trkpt>
<trkpt lat="43.0533570000" lon="0.1326370000"><ele>767</ele><time>2026-03-21T07:10:32Z</time></trkpt>
<trkpt lat="43.0533400000" lon="0.1326100000"><ele>767</ele><time>2026-03-21T07:10:34Z</time></trkpt>
<trkpt lat="43.0533220000" lon="0.1325850000"><ele>767</ele><time>2026-03-21T07:10:36Z</time></trkpt>
<trkpt lat="43.0533020000" lon="0.1325600000"><ele>767</ele><time>2026-03-21T07:10:38Z</time></trkpt>
<trkpt lat="43.0532850000" lon="0.1325500000"><ele>767</ele><time>2026-03-21T07:10:40Z</time></trkpt>
<trkpt lat="43.0532570000" lon="0.1325300000"><ele>767</ele><time>2026-03-21T07:10:42Z</time></trkpt>
<trkpt lat="43.0532370000" lon="0.1325020000"><ele>767</ele><time>2026-03-21T07:10:44Z</time></trkpt>
<trkpt lat="43.0532170000" lon="0.1324900000"><ele>767</ele><time>2026-03-21T07:10:45Z</time></trkpt>
<trkpt lat="43.0532050000" lon="0.1324720000"><ele>767</ele><time>2026-03-21T07:10:46Z</time></trkpt>
<trkpt lat="43.0531870000" lon="0.1324620000"><ele>767</ele><time>2026-03-21T07:10:47Z</time></trkpt>
<trkpt lat="43.0531670000" lon="0.1324450000"><ele>767</ele><time>2026-03-21T07:10:49Z</time></trkpt>
<trkpt lat="43.0531450000" lon="0.1324320000"><ele>766</ele><time>2026-03-21T07:10:51Z</time></trkpt>
<trkpt lat="43.0531300000" lon="0.1324150000"><ele>766</ele><time>2026-03-21T07:10:54Z</time></trkpt>
<trkpt lat="43.0531070000" lon="0.1324120000"><ele>766</ele><time>2026-03-21T07:10:57Z</time></trkpt>
<trkpt lat="43.0530870000" lon="0.1324070000"><ele>766</ele><time>2026-03-21T07:10:58Z</time></trkpt>
<trkpt lat="43.0530650000" lon="0.1323950000"><ele>766</ele><time>2026-03-21T07:11:00Z</time></trkpt>
<trkpt lat="43.0530400000" lon="0.1323800000"><ele>765</ele><time>2026-03-21T07:11:04Z</time></trkpt>
<trkpt lat="43.0530120000" lon="0.1323650000"><ele>765</ele><time>2026-03-21T07:11:06Z</time></trkpt>
<trkpt lat="43.0529820000" lon="0.1323720000"><ele>765</ele><time>2026-03-21T07:11:07Z</time></trkpt>
<trkpt lat="43.0529500000" lon="0.1323670000"><ele>765</ele><time>2026-03-21T07:11:09Z</time></trkpt>
<trkpt lat="43.0529300000" lon="0.1323680000"><ele>765</ele><time>2026-03-21T07:11:10Z</time></trkpt>
<trkpt lat="43.0529100000" lon="0.1323600000"><ele>765</ele><time>2026-03-21T07:11:12Z</time></trkpt>
<trkpt lat="43.0528870000" lon="0.1323420000"><ele>764</ele><time>2026-03-21T07:11:14Z</time></trkpt>
<trkpt lat="43.0528670000" lon="0.1323220000"><ele>764</ele><time>2026-03-21T07:11:16Z</time></trkpt>
<trkpt lat="43.0528420000" lon="0.1322980000"><ele>764</ele><time>2026-03-21T07:11:19Z</time></trkpt>
<trkpt lat="43.0528220000" lon="0.1322820000"><ele>764</ele><time>2026-03-21T07:11:21Z</time></trkpt>
<trkpt lat="43.0528000000" lon="0.1322700000"><ele>763</ele><time>2026-03-21T07:11:24Z</time></trkpt>
<trkpt lat="43.0527720000" lon="0.1322570000"><ele>763</ele><time>2026-03-21T07:11:26Z</time></trkpt>
<trkpt lat="43.0527470000" lon="0.1322470000"><ele>763</ele><time>2026-03-21T07:11:28Z</time></trkpt>
<trkpt lat="43.0527220000" lon="0.1322350000"><ele>763</ele><time>2026-03-21T07:11:30Z</time></trkpt>
<trkpt lat="43.0526970000" lon="0.1322120000"><ele>763</ele><time>2026-03-21T07:11:32Z</time></trkpt>
<trkpt lat="43.0526700000" lon="0.1322000000"><ele>763</ele><time>2026-03-21T07:11:34Z</time></trkpt>
<trkpt lat="43.0526420000" lon="0.1321870000"><ele>763</ele><time>2026-03-21T07:11:37Z</time></trkpt>
<trkpt lat="43.0526120000" lon="0.1321670000"><ele>762</ele><time>2026-03-21T07:11:39Z</time></trkpt>
<trkpt lat="43.0525900000" lon="0.1321620000"><ele>762</ele><time>2026-03-21T07:11:41Z</time></trkpt>
<trkpt lat="43.0525670000" lon="0.1321470000"><ele>762</ele><time>2026-03-21T07:11:43Z</time></trkpt>
<trkpt lat="43.0525500000" lon="0.1321350000"><ele>762</ele><time>2026-03-21T07:11:45Z</time></trkpt>
<trkpt lat="43.0525270000" lon="0.1321170000"><ele>762</ele><time>2026-03-21T07:11:47Z</time></trkpt>
<trkpt lat="43.0524920000" lon="0.1321100000"><ele>762</ele><time>2026-03-21T07:11:49Z</time></trkpt>
<trkpt lat="43.0524670000" lon="0.1320970000"><ele>762</ele><time>2026-03-21T07:11:51Z</time></trkpt>
<trkpt lat="43.0524370000" lon="0.1320920000"><ele>762</ele><time>2026-03-21T07:11:53Z</time></trkpt>
<trkpt lat="43.0524120000" lon="0.1320820000"><ele>762</ele><time>2026-03-21T07:11:55Z</time></trkpt>
<trkpt lat="43.0523950000" lon="0.1320700000"><ele>761</ele><time>2026-03-21T07:11:57Z</time></trkpt>
<trkpt lat="43.0523770000" lon="0.1320600000"><ele>761</ele><time>2026-03-21T07:11:59Z</time></trkpt>
<trkpt lat="43.0523570000" lon="0.1320500000"><ele>761</ele><time>2026-03-21T07:12:01Z</time></trkpt>
<trkpt lat="43.0523400000" lon="0.1320300000"><ele>761</ele><time>2026-03-21T07:12:03Z</time></trkpt>
<trkpt lat="43.0523170000" lon="0.1320170000"><ele>761</ele><time>2026-03-21T07:12:05Z</time></trkpt>
<trkpt lat="43.0523000000" lon="0.1319970000"><ele>761</ele><time>2026-03-21T07:12:07Z</time></trkpt>
<trkpt lat="43.0522770000" lon="0.1319770000"><ele>761</ele><time>2026-03-21T07:12:09Z</time></trkpt>
<trkpt lat="43.0522570000" lon="0.1319620000"><ele>760</ele><time>2026-03-21T07:12:11Z</time></trkpt>
<trkpt lat="43.0522450000" lon="0.1319420000"><ele>760</ele><time>2026-03-21T07:12:13Z</time></trkpt>
<trkpt lat="43.0522300000" lon="0.1319170000"><ele>760</ele><time>2026-03-21T07:12:15Z</time></trkpt>
<trkpt lat="43.0522170000" lon="0.1318920000"><ele>760</ele><time>2026-03-21T07:12:17Z</time></trkpt>
<trkpt lat="43.0522170000" lon="0.1318570000"><ele>760</ele><time>2026-03-21T07:12:19Z</time></trkpt>
<trkpt lat="43.0522050000" lon="0.1318300000"><ele>760</ele><time>2026-03-21T07:12:21Z</time></trkpt>
<trkpt lat="43.0521870000" lon="0.1318070000"><ele>760</ele><time>2026-03-21T07:12:23Z</time></trkpt>
<trkpt lat="43.0521670000" lon="0.1317800000"><ele>759</ele><time>2026-03-21T07:12:25Z</time></trkpt>
<trkpt lat="43.0521400000" lon="0.1317580000"><ele>759</ele><time>2026-03-21T07:12:27Z</time></trkpt>
<trkpt lat="43.0521170000" lon="0.1317420000"><ele>759</ele><time>2026-03-21T07:12:29Z</time></trkpt>
<trkpt lat="43.0520970000" lon="0.1317170000"><ele>759</ele><time>2026-03-21T07:12:31Z</time></trkpt>
<trkpt lat="43.0520870000" lon="0.1316950000"><ele>759</ele><time>2026-03-21T07:12:32Z</time></trkpt>
<trkpt lat="43.0520720000" lon="0.1316720000"><ele>759</ele><time>2026-03-21T07:12:34Z</time></trkpt>
<trkpt lat="43.0520570000" lon="0.1316480000"><ele>759</ele><time>2026-03-21T07:12:36Z</time></trkpt>
<trkpt lat="43.0520420000" lon="0.1316270000"><ele>759</ele><time>2026-03-21T07:12:38Z</time></trkpt>
<trkpt lat="43.0520250000" lon="0.1316020000"><ele>758</ele><time>2026-03-21T07:12:40Z</time></trkpt>
<trkpt lat="43.0520050000" lon="0.1315820000"><ele>758</ele><time>2026-03-21T07:12:42Z</time></trkpt>
<trkpt lat="43.0519870000" lon="0.1315650000"><ele>758</ele><time>2026-03-21T07:12:44Z</time></trkpt>
<trkpt lat="43.0519700000" lon="0.1315420000"><ele>758</ele><time>2026-03-21T07:12:46Z</time></trkpt>
<trkpt lat="43.0519450000" lon="0.1315200000"><ele>758</ele><time>2026-03-21T07:12:49Z</time></trkpt>
<trkpt lat="43.0519270000" lon="0.1314970000"><ele>758</ele><time>2026-03-21T07:12:51Z</time></trkpt>
<trkpt lat="43.0519120000" lon="0.1314750000"><ele>758</ele><time>2026-03-21T07:12:53Z</time></trkpt>
<trkpt lat="43.0518970000" lon="0.1314500000"><ele>757</ele><time>2026-03-21T07:12:55Z</time></trkpt>
<trkpt lat="43.0518780000" lon="0.1314320000"><ele>757</ele><time>2026-03-21T07:12:57Z</time></trkpt>
<trkpt lat="43.0518650000" lon="0.1314100000"><ele>757</ele><time>2026-03-21T07:12:59Z</time></trkpt>
<trkpt lat="43.0518500000" lon="0.1313870000"><ele>757</ele><time>2026-03-21T07:13:01Z</time></trkpt>
<trkpt lat="43.0518300000" lon="0.1313720000"><ele>757</ele><time>2026-03-21T07:13:03Z</time></trkpt>
<trkpt lat="43.0518070000" lon="0.1313620000"><ele>757</ele><time>2026-03-21T07:13:05Z</time></trkpt>
<trkpt lat="43.0517900000" lon="0.1313470000"><ele>757</ele><time>2026-03-21T07:13:07Z</time></trkpt>
<trkpt lat="43.0517670000" lon="0.1313400000"><ele>757</ele><time>2026-03-21T07:13:09Z</time></trkpt>
<trkpt lat="43.0517450000" lon="0.1313270000"><ele>756</ele><time>2026-03-21T07:13:11Z</time></trkpt>
<trkpt lat="43.0517220000" lon="0.1313170000"><ele>756</ele><time>2026-03-21T07:13:13Z</time></trkpt>
<trkpt lat="43.0516970000" lon="0.1313070000"><ele>756</ele><time>2026-03-21T07:13:15Z</time></trkpt>
<trkpt lat="43.0516750000" lon="0.1312970000"><ele>756</ele><time>2026-03-21T07:13:17Z</time></trkpt>
<trkpt lat="43.0516520000" lon="0.1312900000"><ele>756</ele><time>2026-03-21T07:13:19Z</time></trkpt>
<trkpt lat="43.0516270000" lon="0.1312850000"><ele>756</ele><time>2026-03-21T07:13:21Z</time></trkpt>
<trkpt lat="43.0516020000" lon="0.1312870000"><ele>756</ele><time>2026-03-21T07:13:23Z</time></trkpt>
<trkpt lat="43.0515750000" lon="0.1312870000"><ele>756</ele><time>2026-03-21T07:13:25Z</time></trkpt>
<trkpt lat="43.0515470000" lon="0.1312970000"><ele>755</ele><time>2026-03-21T07:13:27Z</time></trkpt>
<trkpt lat="43.0515250000" lon="0.1312900000"><ele>755</ele><time>2026-03-21T07:13:29Z</time></trkpt>
<trkpt lat="43.0515050000" lon="0.1312870000"><ele>755</ele><time>2026-03-21T07:13:31Z</time></trkpt>
<trkpt lat="43.0514850000" lon="0.1312820000"><ele>755</ele><time>2026-03-21T07:13:33Z</time></trkpt>
<trkpt lat="43.0514620000" lon="0.1312770000"><ele>755</ele><time>2026-03-21T07:13:35Z</time></trkpt>
<trkpt lat="43.0514400000" lon="0.1312670000"><ele>755</ele><time>2026-03-21T07:13:37Z</time></trkpt>
<trkpt lat="43.0514120000" lon="0.1312670000"><ele>754</ele><time>2026-03-21T07:13:39Z</time></trkpt>
<trkpt lat="43.0513870000" lon="0.1312870000"><ele>754</ele><time>2026-03-21T07:13:41Z</time></trkpt>
<trkpt lat="43.0513620000" lon="0.1313170000"><ele>754</ele><time>2026-03-21T07:13:43Z</time></trkpt>
<trkpt lat="43.0513420000" lon="0.1313320000"><ele>754</ele><time>2026-03-21T07:13:45Z</time></trkpt>
<trkpt lat="43.0513220000" lon="0.1313480000"><ele>754</ele><time>2026-03-21T07:13:47Z</time></trkpt>
<trkpt lat="43.0513050000" lon="0.1313620000"><ele>754</ele><time>2026-03-21T07:13:49Z</time></trkpt>
<trkpt lat="43.0512850000" lon="0.1313770000"><ele>754</ele><time>2026-03-21T07:13:51Z</time></trkpt>
<trkpt lat="43.0512620000" lon="0.1313900000"><ele>754</ele><time>2026-03-21T07:13:53Z</time></trkpt>
<trkpt lat="43.0512420000" lon="0.1313970000"><ele>754</ele><time>2026-03-21T07:13:55Z</time></trkpt>
<trkpt lat="43.0512200000" lon="0.1314020000"><ele>753</ele><time>2026-03-21T07:13:57Z</time></trkpt>
<trkpt lat="43.0511920000" lon="0.1314170000"><ele>753</ele><time>2026-03-21T07:14:00Z</time></trkpt>
<trkpt lat="43.0511670000" lon="0.1314200000"><ele>753</ele><time>2026-03-21T07:14:02Z</time></trkpt>
<trkpt lat="43.0511420000" lon="0.1314020000"><ele>753</ele><time>2026-03-21T07:14:04Z</time></trkpt>
<trkpt lat="43.0511120000" lon="0.1314050000"><ele>753</ele><time>2026-03-21T07:14:06Z</time></trkpt>
<trkpt lat="43.0510900000" lon="0.1313900000"><ele>753</ele><time>2026-03-21T07:14:08Z</time></trkpt>
<trkpt lat="43.0510750000" lon="0.1313720000"><ele>753</ele><time>2026-03-21T07:14:10Z</time></trkpt>
<trkpt lat="43.0510520000" lon="0.1313570000"><ele>753</ele><time>2026-03-21T07:14:12Z</time></trkpt>
<trkpt lat="43.0510320000" lon="0.1313420000"><ele>753</ele><time>2026-03-21T07:14:14Z</time></trkpt>
<trkpt lat="43.0510100000" lon="0.1313300000"><ele>753</ele><time>2026-03-21T07:14:16Z</time></trkpt>
<trkpt lat="43.0509900000" lon="0.1313170000"><ele>752</ele><time>2026-03-21T07:14:18Z</time></trkpt>
<trkpt lat="43.0509670000" lon="0.1313070000"><ele>752</ele><time>2026-03-21T07:14:20Z</time></trkpt>
<trkpt lat="43.0509470000" lon="0.1312970000"><ele>752</ele><time>2026-03-21T07:14:22Z</time></trkpt>
<trkpt lat="43.0509220000" lon="0.1312870000"><ele>752</ele><time>2026-03-21T07:14:24Z</time></trkpt>
<trkpt lat="43.0508970000" lon="0.1312770000"><ele>752</ele><time>2026-03-21T07:14:26Z</time></trkpt>
<trkpt lat="43.0508750000" lon="0.1312700000"><ele>752</ele><time>2026-03-21T07:14:28Z</time></trkpt>
<trkpt lat="43.0508450000" lon="0.1312720000"><ele>752</ele><time>2026-03-21T07:14:30Z</time></trkpt>
<trkpt lat="43.0508170000" lon="0.1312900000"><ele>752</ele><time>2026-03-21T07:14:32Z</time></trkpt>
<trkpt lat="43.0507920000" lon="0.1313070000"><ele>752</ele><time>2026-03-21T07:14:34Z</time></trkpt>
<trkpt lat="43.0507720000" lon="0.1313270000"><ele>752</ele><time>2026-03-21T07:14:36Z</time></trkpt>
<trkpt lat="43.0507520000" lon="0.1313430000"><ele>752</ele><time>2026-03-21T07:14:38Z</time></trkpt>
<trkpt lat="43.0507370000" lon="0.1313720000"><ele>752</ele><time>2026-03-21T07:14:40Z</time></trkpt>
<trkpt lat="43.0507220000" lon="0.1313920000"><ele>752</ele><time>2026-03-21T07:14:42Z</time></trkpt>
<trkpt lat="43.0507070000" lon="0.1314170000"><ele>752</ele><time>2026-03-21T07:14:44Z</time></trkpt>
<trkpt lat="43.0506920000" lon="0.1314400000"><ele>752</ele><time>2026-03-21T07:14:46Z</time></trkpt>
<trkpt lat="43.0506950000" lon="0.1314770000"><ele>752</ele><time>2026-03-21T07:14:48Z</time></trkpt>
<trkpt lat="43.0506870000" lon="0.1315000000"><ele>752</ele><time>2026-03-21T07:14:50Z</time></trkpt>
<trkpt lat="43.0506720000" lon="0.1315170000"><ele>752</ele><time>2026-03-21T07:14:52Z</time></trkpt>
<trkpt lat="43.0506520000" lon="0.1315220000"><ele>752</ele><time>2026-03-21T07:14:54Z</time></trkpt>
<trkpt lat="43.0506250000" lon="0.1315350000"><ele>751</ele><time>2026-03-21T07:14:56Z</time></trkpt>
<trkpt lat="43.0506070000" lon="0.1315470000"><ele>752</ele><time>2026-03-21T07:14:57Z</time></trkpt>
<trkpt lat="43.0505770000" lon="0.1315720000"><ele>752</ele><time>2026-03-21T07:14:59Z</time></trkpt>
<trkpt lat="43.0505570000" lon="0.1315800000"><ele>752</ele><time>2026-03-21T07:15:00Z</time></trkpt>
<trkpt lat="43.0505350000" lon="0.1315970000"><ele>752</ele><time>2026-03-21T07:15:02Z</time></trkpt>
<trkpt lat="43.0505100000" lon="0.1316100000"><ele>752</ele><time>2026-03-21T07:15:04Z</time></trkpt>
<trkpt lat="43.0504800000" lon="0.1316370000"><ele>752</ele><time>2026-03-21T07:15:06Z</time></trkpt>
<trkpt lat="43.0504570000" lon="0.1316570000"><ele>752</ele><time>2026-03-21T07:15:08Z</time></trkpt>
<trkpt lat="43.0504320000" lon="0.1316720000"><ele>752</ele><time>2026-03-21T07:15:10Z</time></trkpt>
<trkpt lat="43.0504070000" lon="0.1316850000"><ele>752</ele><time>2026-03-21T07:15:12Z</time></trkpt>
<trkpt lat="43.0503820000" lon="0.1316950000"><ele>752</ele><time>2026-03-21T07:15:14Z</time></trkpt>
<trkpt lat="43.0503620000" lon="0.1317100000"><ele>752</ele><time>2026-03-21T07:15:16Z</time></trkpt>
<trkpt lat="43.0503370000" lon="0.1317170000"><ele>752</ele><time>2026-03-21T07:15:18Z</time></trkpt>
<trkpt lat="43.0503170000" lon="0.1317270000"><ele>752</ele><time>2026-03-21T07:15:20Z</time></trkpt>
<trkpt lat="43.0502950000" lon="0.1317380000"><ele>752</ele><time>2026-03-21T07:15:22Z</time></trkpt>
<trkpt lat="43.0502880000" lon="0.1317120000"><ele>752</ele><time>2026-03-21T07:15:26Z</time></trkpt>
<trkpt lat="43.0502670000" lon="0.1317420000"><ele>752</ele><time>2026-03-21T07:15:41Z</time></trkpt>
<trkpt lat="43.0502370000" lon="0.1317630000"><ele>752</ele><time>2026-03-21T07:15:43Z</time></trkpt>
<trkpt lat="43.0502070000" lon="0.1317770000"><ele>751</ele><time>2026-03-21T07:15:45Z</time></trkpt>
<trkpt lat="43.0501800000" lon="0.1317970000"><ele>751</ele><time>2026-03-21T07:15:47Z</time></trkpt>
<trkpt lat="43.0501570000" lon="0.1318120000"><ele>751</ele><time>2026-03-21T07:15:49Z</time></trkpt>
<trkpt lat="43.0501330000" lon="0.1318270000"><ele>751</ele><time>2026-03-21T07:15:51Z</time></trkpt>
<trkpt lat="43.0501170000" lon="0.1318300000"><ele>751</ele><time>2026-03-21T07:15:53Z</time></trkpt>
<trkpt lat="43.0500920000" lon="0.1318420000"><ele>751</ele><time>2026-03-21T07:15:55Z</time></trkpt>
<trkpt lat="43.0500670000" lon="0.1318520000"><ele>751</ele><time>2026-03-21T07:15:57Z</time></trkpt>
<trkpt lat="43.0500450000" lon="0.1318570000"><ele>751</ele><time>2026-03-21T07:15:59Z</time></trkpt>
<trkpt lat="43.0500220000" lon="0.1318670000"><ele>751</ele><time>2026-03-21T07:16:01Z</time></trkpt>
<trkpt lat="43.0500050000" lon="0.1318770000"><ele>751</ele><time>2026-03-21T07:16:03Z</time></trkpt>
<trkpt lat="43.0499780000" lon="0.1318920000"><ele>751</ele><time>2026-03-21T07:16:05Z</time></trkpt>
<trkpt lat="43.0499470000" lon="0.1319020000"><ele>751</ele><time>2026-03-21T07:16:07Z</time></trkpt>
<trkpt lat="43.0499120000" lon="0.1319100000"><ele>751</ele><time>2026-03-21T07:16:09Z</time></trkpt>
<trkpt lat="43.0498950000" lon="0.1319070000"><ele>751</ele><time>2026-03-21T07:16:10Z</time></trkpt>
<trkpt lat="43.0498650000" lon="0.1319070000"><ele>751</ele><time>2026-03-21T07:16:12Z</time></trkpt>
<trkpt lat="43.0498370000" lon="0.1319100000"><ele>751</ele><time>2026-03-21T07:16:14Z</time></trkpt>
<trkpt lat="43.0498120000" lon="0.1319120000"><ele>751</ele><time>2026-03-21T07:16:16Z</time></trkpt>
<trkpt lat="43.0497870000" lon="0.1319120000"><ele>751</ele><time>2026-03-21T07:16:18Z</time></trkpt>
<trkpt lat="43.0497650000" lon="0.1319070000"><ele>751</ele><time>2026-03-21T07:16:20Z</time></trkpt>
<trkpt lat="43.0497420000" lon="0.1319020000"><ele>751</ele><time>2026-03-21T07:16:22Z</time></trkpt>
<trkpt lat="43.0497170000" lon="0.1318980000"><ele>751</ele><time>2026-03-21T07:16:24Z</time></trkpt>
<trkpt lat="43.0496920000" lon="0.1318970000"><ele>751</ele><time>2026-03-21T07:16:26Z</time></trkpt>
<trkpt lat="43.0496670000" lon="0.1318970000"><ele>751</ele><time>2026-03-21T07:16:28Z</time></trkpt>
<trkpt lat="43.0496400000" lon="0.1318920000"><ele>751</ele><time>2026-03-21T07:16:30Z</time></trkpt>
<trkpt lat="43.0496120000" lon="0.1318920000"><ele>751</ele><time>2026-03-21T07:16:32Z</time></trkpt>
<trkpt lat="43.0495850000" lon="0.1318870000"><ele>751</ele><time>2026-03-21T07:16:34Z</time></trkpt>
<trkpt lat="43.0495570000" lon="0.1318820000"><ele>751</ele><time>2026-03-21T07:16:36Z</time></trkpt>
<trkpt lat="43.0495350000" lon="0.1318780000"><ele>751</ele><time>2026-03-21T07:16:38Z</time></trkpt>
<trkpt lat="43.0495120000" lon="0.1318730000"><ele>751</ele><time>2026-03-21T07:16:40Z</time></trkpt>
<trkpt lat="43.0494870000" lon="0.1318680000"><ele>751</ele><time>2026-03-21T07:16:42Z</time></trkpt>
<trkpt lat="43.0494650000" lon="0.1318620000"><ele>751</ele><time>2026-03-21T07:16:44Z</time></trkpt>
<trkpt lat="43.0494420000" lon="0.1318570000"><ele>751</ele><time>2026-03-21T07:16:46Z</time></trkpt>
<trkpt lat="43.0494170000" lon="0.1318450000"><ele>751</ele><time>2026-03-21T07:16:48Z</time></trkpt>
<trkpt lat="43.0493950000" lon="0.1318370000"><ele>751</ele><time>2026-03-21T07:16:50Z</time></trkpt>
<trkpt lat="43.0493720000" lon="0.1318300000"><ele>751</ele><time>2026-03-21T07:16:52Z</time></trkpt>
<trkpt lat="43.0493500000" lon="0.1318220000"><ele>751</ele><time>2026-03-21T07:16:54Z</time></trkpt>
<trkpt lat="43.0493270000" lon="0.1318220000"><ele>751</ele><time>2026-03-21T07:16:56Z</time></trkpt>
<trkpt lat="43.0493030000" lon="0.1318200000"><ele>751</ele><time>2026-03-21T07:16:58Z</time></trkpt>
<trkpt lat="43.0492820000" lon="0.1318220000"><ele>751</ele><time>2026-03-21T07:17:00Z</time></trkpt>
<trkpt lat="43.0492600000" lon="0.1318270000"><ele>751</ele><time>2026-03-21T07:17:02Z</time></trkpt>
<trkpt lat="43.0492370000" lon="0.1318320000"><ele>751</ele><time>2026-03-21T07:17:04Z</time></trkpt>
<trkpt lat="43.0492150000" lon="0.1318400000"><ele>751</ele><time>2026-03-21T07:17:06Z</time></trkpt>
<trkpt lat="43.0491950000" lon="0.1318500000"><ele>751</ele><time>2026-03-21T07:17:18Z</time></trkpt>
<trkpt lat="43.0491670000" lon="0.1318780000"><ele>751</ele><time>2026-03-21T07:17:20Z</time></trkpt>
<trkpt lat="43.0491520000" lon="0.1319020000"><ele>751</ele><time>2026-03-21T07:17:21Z</time></trkpt>
<trkpt lat="43.0491320000" lon="0.1319320000"><ele>751</ele><time>2026-03-21T07:17:23Z</time></trkpt>
<trkpt lat="43.0491170000" lon="0.1319650000"><ele>751</ele><time>2026-03-21T07:17:25Z</time></trkpt>
<trkpt lat="43.0491020000" lon="0.1319870000"><ele>751</ele><time>2026-03-21T07:17:27Z</time></trkpt>
<trkpt lat="43.0490920000" lon="0.1320080000"><ele>751</ele><time>2026-03-21T07:17:29Z</time></trkpt>
<trkpt lat="43.0490820000" lon="0.1320320000"><ele>751</ele><time>2026-03-21T07:17:31Z</time></trkpt>
<trkpt lat="43.0490670000" lon="0.1320570000"><ele>751</ele><time>2026-03-21T07:17:33Z</time></trkpt>
<trkpt lat="43.0490470000" lon="0.1320870000"><ele>751</ele><time>2026-03-21T07:17:35Z</time></trkpt>
<trkpt lat="43.0490320000" lon="0.1321200000"><ele>752</ele><time>2026-03-21T07:17:37Z</time></trkpt>
<trkpt lat="43.0490170000" lon="0.1321470000"><ele>752</ele><time>2026-03-21T07:17:39Z</time></trkpt>
<trkpt lat="43.0490020000" lon="0.1321720000"><ele>752</ele><time>2026-03-21T07:17:41Z</time></trkpt>
<trkpt lat="43.0489850000" lon="0.1322000000"><ele>752</ele><time>2026-03-21T07:17:43Z</time></trkpt>
<trkpt lat="43.0489620000" lon="0.1322270000"><ele>752</ele><time>2026-03-21T07:17:45Z</time></trkpt>
<trkpt lat="43.0489470000" lon="0.1322570000"><ele>752</ele><time>2026-03-21T07:17:47Z</time></trkpt>
<trkpt lat="43.0489320000" lon="0.1322820000"><ele>752</ele><time>2026-03-21T07:17:49Z</time></trkpt>
<trkpt lat="43.0489120000" lon="0.1323020000"><ele>753</ele><time>2026-03-21T07:17:51Z</time></trkpt>
<trkpt lat="43.0488950000" lon="0.1323250000"><ele>753</ele><time>2026-03-21T07:17:53Z</time></trkpt>
<trkpt lat="43.0488800000" lon="0.1323470000"><ele>753</ele><time>2026-03-21T07:17:55Z</time></trkpt>
<trkpt lat="43.0488600000" lon="0.1323680000"><ele>753</ele><time>2026-03-21T07:17:57Z</time></trkpt>
<trkpt lat="43.0488370000" lon="0.1323950000"><ele>753</ele><time>2026-03-21T07:17:59Z</time></trkpt>
<trkpt lat="43.0488170000" lon="0.1324170000"><ele>753</ele><time>2026-03-21T07:18:01Z</time></trkpt>
<trkpt lat="43.0487970000" lon="0.1324320000"><ele>754</ele><time>2026-03-21T07:18:03Z</time></trkpt>
<trkpt lat="43.0487770000" lon="0.1324450000"><ele>754</ele><time>2026-03-21T07:18:05Z</time></trkpt>
<trkpt lat="43.0487600000" lon="0.1324580000"><ele>754</ele><time>2026-03-21T07:18:07Z</time></trkpt>
<trkpt lat="43.0487450000" lon="0.1324770000"><ele>754</ele><time>2026-03-21T07:18:09Z</time></trkpt>
<trkpt lat="43.0487270000" lon="0.1325000000"><ele>754</ele><time>2026-03-21T07:18:11Z</time></trkpt>
<trkpt lat="43.0487070000" lon="0.1325150000"><ele>754</ele><time>2026-03-21T07:18:13Z</time></trkpt>
<trkpt lat="43.0486870000" lon="0.1325320000"><ele>754</ele><time>2026-03-21T07:18:15Z</time></trkpt>
<trkpt lat="43.0486720000" lon="0.1325520000"><ele>755</ele><time>2026-03-21T07:18:17Z</time></trkpt>
<trkpt lat="43.0486470000" lon="0.1325620000"><ele>755</ele><time>2026-03-21T07:18:19Z</time></trkpt>
<trkpt lat="43.0486270000" lon="0.1325630000"><ele>755</ele><time>2026-03-21T07:18:21Z</time></trkpt>
<trkpt lat="43.0486070000" lon="0.1325670000"><ele>755</ele><time>2026-03-21T07:18:23Z</time></trkpt>
<trkpt lat="43.0485870000" lon="0.1325820000"><ele>755</ele><time>2026-03-21T07:18:25Z</time></trkpt>
<trkpt lat="43.0485670000" lon="0.1325920000"><ele>756</ele><time>2026-03-21T07:18:27Z</time></trkpt>
<trkpt lat="43.0485470000" lon="0.1326020000"><ele>756</ele><time>2026-03-21T07:18:29Z</time></trkpt>
<trkpt lat="43.0485220000" lon="0.1326120000"><ele>756</ele><time>2026-03-21T07:18:31Z</time></trkpt>
<trkpt lat="43.0484920000" lon="0.1326270000"><ele>756</ele><time>2026-03-21T07:18:33Z</time></trkpt>
<trkpt lat="43.0484670000" lon="0.1326320000"><ele>756</ele><time>2026-03-21T07:18:35Z</time></trkpt>
<trkpt lat="43.0484400000" lon="0.1326470000"><ele>756</ele><time>2026-03-21T07:18:37Z</time></trkpt>
<trkpt lat="43.0484170000" lon="0.1326620000"><ele>757</ele><time>2026-03-21T07:18:39Z</time></trkpt>
<trkpt lat="43.0483970000" lon="0.1326770000"><ele>757</ele><time>2026-03-21T07:18:41Z</time></trkpt>
<trkpt lat="43.0483770000" lon="0.1326820000"><ele>757</ele><time>2026-03-21T07:18:43Z</time></trkpt>
<trkpt lat="43.0483570000" lon="0.1326820000"><ele>757</ele><time>2026-03-21T07:18:45Z</time></trkpt>
<trkpt lat="43.0483370000" lon="0.1326900000"><ele>757</ele><time>2026-03-21T07:18:47Z</time></trkpt>
<trkpt lat="43.0483150000" lon="0.1326920000"><ele>757</ele><time>2026-03-21T07:18:49Z</time></trkpt>
<trkpt lat="43.0482920000" lon="0.1326870000"><ele>758</ele><time>2026-03-21T07:18:51Z</time></trkpt>
<trkpt lat="43.0482720000" lon="0.1326970000"><ele>758</ele><time>2026-03-21T07:18:53Z</time></trkpt>
<trkpt lat="43.0482500000" lon="0.1327070000"><ele>758</ele><time>2026-03-21T07:18:55Z</time></trkpt>
<trkpt lat="43.0482320000" lon="0.1327130000"><ele>758</ele><time>2026-03-21T07:18:57Z</time></trkpt>
<trkpt lat="43.0482120000" lon="0.1327220000"><ele>758</ele><time>2026-03-21T07:18:59Z</time></trkpt>
<trkpt lat="43.0481920000" lon="0.1327330000"><ele>758</ele><time>2026-03-21T07:19:01Z</time></trkpt>
<trkpt lat="43.0481670000" lon="0.1327470000"><ele>758</ele><time>2026-03-21T07:19:03Z</time></trkpt>
<trkpt lat="43.0481470000" lon="0.1327470000"><ele>759</ele><time>2026-03-21T07:19:05Z</time></trkpt>
<trkpt lat="43.0481300000" lon="0.1327520000"><ele>759</ele><time>2026-03-21T07:19:07Z</time></trkpt>
<trkpt lat="43.0481100000" lon="0.1327670000"><ele>759</ele><time>2026-03-21T07:19:09Z</time></trkpt>
<trkpt lat="43.0480870000" lon="0.1327720000"><ele>759</ele><time>2026-03-21T07:19:12Z</time></trkpt>
<trkpt lat="43.0480670000" lon="0.1327870000"><ele>759</ele><time>2026-03-21T07:19:14Z</time></trkpt>
<trkpt lat="43.0480470000" lon="0.1328070000"><ele>759</ele><time>2026-03-21T07:19:16Z</time></trkpt>
<trkpt lat="43.0480270000" lon="0.1328150000"><ele>760</ele><time>2026-03-21T07:19:18Z</time></trkpt>
<trkpt lat="43.0480070000" lon="0.1328270000"><ele>760</ele><time>2026-03-21T07:19:20Z</time></trkpt>
<trkpt lat="43.0479820000" lon="0.1328420000"><ele>760</ele><time>2026-03-21T07:19:23Z</time></trkpt>
<trkpt lat="43.0479570000" lon="0.1328520000"><ele>760</ele><time>2026-03-21T07:19:26Z</time></trkpt>
<trkpt lat="43.0479420000" lon="0.1328620000"><ele>760</ele><time>2026-03-21T07:19:28Z</time></trkpt>
<trkpt lat="43.0479270000" lon="0.1328820000"><ele>760</ele><time>2026-03-21T07:19:30Z</time></trkpt>
<trkpt lat="43.0479070000" lon="0.1328970000"><ele>761</ele><time>2026-03-21T07:19:32Z</time></trkpt>
<trkpt lat="43.0478900000" lon="0.1329070000"><ele>761</ele><time>2026-03-21T07:19:34Z</time></trkpt>
<trkpt lat="43.0478720000" lon="0.1329300000"><ele>761</ele><time>2026-03-21T07:19:37Z</time></trkpt>
<trkpt lat="43.0478570000" lon="0.1329470000"><ele>761</ele><time>2026-03-21T07:19:39Z</time></trkpt>
<trkpt lat="43.0478420000" lon="0.1329650000"><ele>762</ele><time>2026-03-21T07:19:41Z</time></trkpt>
<trkpt lat="43.0478250000" lon="0.1329770000"><ele>762</ele><time>2026-03-21T07:19:43Z</time></trkpt>
<trkpt lat="43.0478100000" lon="0.1330120000"><ele>762</ele><time>2026-03-21T07:19:45Z</time></trkpt>
<trkpt lat="43.0477950000" lon="0.1330420000"><ele>762</ele><time>2026-03-21T07:19:47Z</time></trkpt>
<trkpt lat="43.0477700000" lon="0.1330520000"><ele>763</ele><time>2026-03-21T07:19:50Z</time></trkpt>
<trkpt lat="43.0477520000" lon="0.1330800000"><ele>763</ele><time>2026-03-21T07:19:53Z</time></trkpt>
<trkpt lat="43.0477370000" lon="0.1330970000"><ele>763</ele><time>2026-03-21T07:19:55Z</time></trkpt>
<trkpt lat="43.0477220000" lon="0.1331170000"><ele>763</ele><time>2026-03-21T07:19:57Z</time></trkpt>
<trkpt lat="43.0477120000" lon="0.1331400000"><ele>763</ele><time>2026-03-21T07:19:59Z</time></trkpt>
<trkpt lat="43.0476920000" lon="0.1331600000"><ele>763</ele><time>2026-03-21T07:20:01Z</time></trkpt>
<trkpt lat="43.0476800000" lon="0.1331800000"><ele>764</ele><time>2026-03-21T07:20:03Z</time></trkpt>
<trkpt lat="43.0476620000" lon="0.1332000000"><ele>764</ele><time>2026-03-21T07:20:05Z</time></trkpt>
<trkpt lat="43.0476470000" lon="0.1332220000"><ele>764</ele><time>2026-03-21T07:20:07Z</time></trkpt>
<trkpt lat="43.0476270000" lon="0.1332400000"><ele>764</ele><time>2026-03-21T07:20:09Z</time></trkpt>
<trkpt lat="43.0476070000" lon="0.1332620000"><ele>764</ele><time>2026-03-21T07:20:11Z</time></trkpt>
<trkpt lat="43.0475870000" lon="0.1332820000"><ele>764</ele><time>2026-03-21T07:20:13Z</time></trkpt>
<trkpt lat="43.0475650000" lon="0.1332970000"><ele>764</ele><time>2026-03-21T07:20:15Z</time></trkpt>
<trkpt lat="43.0475450000" lon="0.1333120000"><ele>764</ele><time>2026-03-21T07:20:17Z</time></trkpt>
<trkpt lat="43.0475170000" lon="0.1333250000"><ele>765</ele><time>2026-03-21T07:20:20Z</time></trkpt>
<trkpt lat="43.0474970000" lon="0.1333370000"><ele>765</ele><time>2026-03-21T07:20:22Z</time></trkpt>
<trkpt lat="43.0474800000" lon="0.1333550000"><ele>765</ele><time>2026-03-21T07:20:24Z</time></trkpt>
<trkpt lat="43.0474600000" lon="0.1333770000"><ele>765</ele><time>2026-03-21T07:20:26Z</time></trkpt>
<trkpt lat="43.0474400000" lon="0.1333870000"><ele>765</ele><time>2026-03-21T07:20:28Z</time></trkpt>
<trkpt lat="43.0474220000" lon="0.1334020000"><ele>765</ele><time>2026-03-21T07:20:30Z</time></trkpt>
<trkpt lat="43.0474000000" lon="0.1334200000"><ele>765</ele><time>2026-03-21T07:20:32Z</time></trkpt>
<trkpt lat="43.0473820000" lon="0.1334230000"><ele>765</ele><time>2026-03-21T07:20:34Z</time></trkpt>
<trkpt lat="43.0473570000" lon="0.1334350000"><ele>765</ele><time>2026-03-21T07:20:36Z</time></trkpt>
<trkpt lat="43.0473370000" lon="0.1334370000"><ele>765</ele><time>2026-03-21T07:20:38Z</time></trkpt>
<trkpt lat="43.0473150000" lon="0.1334450000"><ele>766</ele><time>2026-03-21T07:20:40Z</time></trkpt>
<trkpt lat="43.0472970000" lon="0.1334520000"><ele>766</ele><time>2026-03-21T07:20:42Z</time></trkpt>
<trkpt lat="43.0472770000" lon="0.1334670000"><ele>766</ele><time>2026-03-21T07:20:44Z</time></trkpt>
<trkpt lat="43.0472600000" lon="0.1334770000"><ele>766</ele><time>2026-03-21T07:20:46Z</time></trkpt>
<trkpt lat="43.0472400000" lon="0.1334870000"><ele>766</ele><time>2026-03-21T07:20:48Z</time></trkpt>
<trkpt lat="43.0472170000" lon="0.1334870000"><ele>767</ele><time>2026-03-21T07:20:51Z</time></trkpt>
<trkpt lat="43.0471970000" lon="0.1334950000"><ele>767</ele><time>2026-03-21T07:20:53Z</time></trkpt>
<trkpt lat="43.0471720000" lon="0.1335020000"><ele>767</ele><time>2026-03-21T07:20:56Z</time></trkpt>
<trkpt lat="43.0471470000" lon="0.1335200000"><ele>767</ele><time>2026-03-21T07:20:58Z</time></trkpt>
<trkpt lat="43.0471170000" lon="0.1335370000"><ele>767</ele><time>2026-03-21T07:21:00Z</time></trkpt>
<trkpt lat="43.0470850000" lon="0.1335500000"><ele>768</ele><time>2026-03-21T07:21:02Z</time></trkpt>
<trkpt lat="43.0470620000" lon="0.1335470000"><ele>768</ele><time>2026-03-21T07:21:04Z</time></trkpt>
<trkpt lat="43.0470420000" lon="0.1335520000"><ele>768</ele><time>2026-03-21T07:21:06Z</time></trkpt>
<trkpt lat="43.0470200000" lon="0.1335620000"><ele>768</ele><time>2026-03-21T07:21:08Z</time></trkpt>
<trkpt lat="43.0470000000" lon="0.1335670000"><ele>768</ele><time>2026-03-21T07:21:10Z</time></trkpt>
<trkpt lat="43.0469800000" lon="0.1335620000"><ele>768</ele><time>2026-03-21T07:21:12Z</time></trkpt>
<trkpt lat="43.0469570000" lon="0.1335570000"><ele>768</ele><time>2026-03-21T07:21:14Z</time></trkpt>
<trkpt lat="43.0469270000" lon="0.1335470000"><ele>769</ele><time>2026-03-21T07:21:16Z</time></trkpt>
<trkpt lat="43.0469070000" lon="0.1335570000"><ele>769</ele><time>2026-03-21T07:21:18Z</time></trkpt>
<trkpt lat="43.0468900000" lon="0.1335620000"><ele>769</ele><time>2026-03-21T07:21:20Z</time></trkpt>
<trkpt lat="43.0468670000" lon="0.1335670000"><ele>769</ele><time>2026-03-21T07:21:23Z</time></trkpt>
<trkpt lat="43.0468450000" lon="0.1335670000"><ele>769</ele><time>2026-03-21T07:21:25Z</time></trkpt>
<trkpt lat="43.0468150000" lon="0.1335680000"><ele>769</ele><time>2026-03-21T07:21:28Z</time></trkpt>
<trkpt lat="43.0467870000" lon="0.1335820000"><ele>769</ele><time>2026-03-21T07:21:30Z</time></trkpt>
<trkpt lat="43.0467570000" lon="0.1335920000"><ele>769</ele><time>2026-03-21T07:21:32Z</time></trkpt>
<trkpt lat="43.0467370000" lon="0.1335870000"><ele>770</ele><time>2026-03-21T07:21:34Z</time></trkpt>
<trkpt lat="43.0467100000" lon="0.1335800000"><ele>770</ele><time>2026-03-21T07:21:37Z</time></trkpt>
<trkpt lat="43.0466800000" lon="0.1335720000"><ele>770</ele><time>2026-03-21T07:21:40Z</time></trkpt>
<trkpt lat="43.0466570000" lon="0.1335800000"><ele>770</ele><time>2026-03-21T07:21:42Z</time></trkpt>
<trkpt lat="43.0466320000" lon="0.1335770000"><ele>770</ele><time>2026-03-21T07:21:44Z</time></trkpt>
<trkpt lat="43.0466120000" lon="0.1335720000"><ele>770</ele><time>2026-03-21T07:21:46Z</time></trkpt>
<trkpt lat="43.0465920000" lon="0.1335680000"><ele>771</ele><time>2026-03-21T07:21:48Z</time></trkpt>
<trkpt lat="43.0465720000" lon="0.1335720000"><ele>771</ele><time>2026-03-21T07:21:50Z</time></trkpt>
<trkpt lat="43.0465500000" lon="0.1335820000"><ele>771</ele><time>2026-03-21T07:21:52Z</time></trkpt>
<trkpt lat="43.0465220000" lon="0.1335770000"><ele>771</ele><time>2026-03-21T07:21:55Z</time></trkpt>
<trkpt lat="43.0465020000" lon="0.1335800000"><ele>771</ele><time>2026-03-21T07:21:57Z</time></trkpt>
<trkpt lat="43.0464820000" lon="0.1335770000"><ele>772</ele><time>2026-03-21T07:21:59Z</time></trkpt>
<trkpt lat="43.0464620000" lon="0.1335720000"><ele>772</ele><time>2026-03-21T07:22:01Z</time></trkpt>
<trkpt lat="43.0464370000" lon="0.1335670000"><ele>772</ele><time>2026-03-21T07:22:04Z</time></trkpt>
<trkpt lat="43.0464120000" lon="0.1335630000"><ele>772</ele><time>2026-03-21T07:22:06Z</time></trkpt>
<trkpt lat="43.0463920000" lon="0.1335630000"><ele>772</ele><time>2026-03-21T07:22:08Z</time></trkpt>
<trkpt lat="43.0463750000" lon="0.1335670000"><ele>773</ele><time>2026-03-21T07:22:10Z</time></trkpt>
<trkpt lat="43.0463420000" lon="0.1335750000"><ele>773</ele><time>2026-03-21T07:22:12Z</time></trkpt>
<trkpt lat="43.0463150000" lon="0.1335820000"><ele>773</ele><time>2026-03-21T07:22:14Z</time></trkpt>
<trkpt lat="43.0462920000" lon="0.1335770000"><ele>773</ele><time>2026-03-21T07:22:16Z</time></trkpt>
<trkpt lat="43.0462720000" lon="0.1335800000"><ele>773</ele><time>2026-03-21T07:22:18Z</time></trkpt>
<trkpt lat="43.0462520000" lon="0.1335820000"><ele>774</ele><time>2026-03-21T07:22:21Z</time></trkpt>
<trkpt lat="43.0462270000" lon="0.1335820000"><ele>774</ele><time>2026-03-21T07:22:24Z</time></trkpt>
<trkpt lat="43.0462070000" lon="0.1335850000"><ele>774</ele><time>2026-03-21T07:22:26Z</time></trkpt>
<trkpt lat="43.0461900000" lon="0.1335880000"><ele>774</ele><time>2026-03-21T07:22:28Z</time></trkpt>
<trkpt lat="43.0461720000" lon="0.1336020000"><ele>774</ele><time>2026-03-21T07:22:30Z</time></trkpt>
<trkpt lat="43.0461470000" lon="0.1336170000"><ele>775</ele><time>2026-03-21T07:22:33Z</time></trkpt>
<trkpt lat="43.0461250000" lon="0.1336170000"><ele>775</ele><time>2026-03-21T07:22:36Z</time></trkpt>
<trkpt lat="43.0461050000" lon="0.1336270000"><ele>775</ele><time>2026-03-21T07:22:39Z</time></trkpt>
<trkpt lat="43.0460820000" lon="0.1336400000"><ele>776</ele><time>2026-03-21T07:22:42Z</time></trkpt>
<trkpt lat="43.0460620000" lon="0.1336670000"><ele>776</ele><time>2026-03-21T07:22:44Z</time></trkpt>
<trkpt lat="43.0460420000" lon="0.1336770000"><ele>776</ele><time>2026-03-21T07:22:46Z</time></trkpt>
<trkpt lat="43.0460170000" lon="0.1336900000"><ele>776</ele><time>2026-03-21T07:22:48Z</time></trkpt>
<trkpt lat="43.0459970000" lon="0.1336920000"><ele>776</ele><time>2026-03-21T07:22:50Z</time></trkpt>
<trkpt lat="43.0459770000" lon="0.1337020000"><ele>777</ele><time>2026-03-21T07:22:52Z</time></trkpt>
<trkpt lat="43.0459520000" lon="0.1337120000"><ele>777</ele><time>2026-03-21T07:22:54Z</time></trkpt>
<trkpt lat="43.0459320000" lon="0.1337120000"><ele>777</ele><time>2026-03-21T07:22:56Z</time></trkpt>
<trkpt lat="43.0459120000" lon="0.1337150000"><ele>777</ele><time>2026-03-21T07:22:58Z</time></trkpt>
<trkpt lat="43.0458870000" lon="0.1337170000"><ele>777</ele><time>2026-03-21T07:23:00Z</time></trkpt>
<trkpt lat="43.0458650000" lon="0.1337220000"><ele>778</ele><time>2026-03-21T07:23:02Z</time></trkpt>
<trkpt lat="43.0458470000" lon="0.1337320000"><ele>778</ele><time>2026-03-21T07:23:04Z</time></trkpt>
<trkpt lat="43.0458270000" lon="0.1337370000"><ele>778</ele><time>2026-03-21T07:23:06Z</time></trkpt>
<trkpt lat="43.0458100000" lon="0.1337370000"><ele>778</ele><time>2026-03-21T07:23:08Z</time></trkpt>
<trkpt lat="43.0457850000" lon="0.1337550000"><ele>778</ele><time>2026-03-21T07:23:10Z</time></trkpt>
<trkpt lat="43.0457670000" lon="0.1337620000"><ele>778</ele><time>2026-03-21T07:23:13Z</time></trkpt>
<trkpt lat="43.0457470000" lon="0.1337620000"><ele>778</ele><time>2026-03-21T07:23:15Z</time></trkpt>
<trkpt lat="43.0457200000" lon="0.1337550000"><ele>779</ele><time>2026-03-21T07:23:17Z</time></trkpt>
<trkpt lat="43.0457000000" lon="0.1337500000"><ele>779</ele><time>2026-03-21T07:23:19Z</time></trkpt>
<trkpt lat="43.0456750000" lon="0.1337470000"><ele>779</ele><time>2026-03-21T07:23:21Z</time></trkpt>
<trkpt lat="43.0456550000" lon="0.1337420000"><ele>779</ele><time>2026-03-21T07:23:23Z</time></trkpt>
<trkpt lat="43.0456350000" lon="0.1337320000"><ele>779</ele><time>2026-03-21T07:23:26Z</time></trkpt>
<trkpt lat="43.0456120000" lon="0.1337320000"><ele>779</ele><time>2026-03-21T07:23:29Z</time></trkpt>
<trkpt lat="43.0455950000" lon="0.1337280000"><ele>779</ele><time>2026-03-21T07:23:31Z</time></trkpt>
<trkpt lat="43.0455670000" lon="0.1337270000"><ele>780</ele><time>2026-03-21T07:23:33Z</time></trkpt>
<trkpt lat="43.0455420000" lon="0.1337250000"><ele>780</ele><time>2026-03-21T07:23:35Z</time></trkpt>
<trkpt lat="43.0455100000" lon="0.1337250000"><ele>780</ele><time>2026-03-21T07:23:37Z</time></trkpt>
<trkpt lat="43.0454850000" lon="0.1337120000"><ele>780</ele><time>2026-03-21T07:23:39Z</time></trkpt>
<trkpt lat="43.0454650000" lon="0.1337070000"><ele>780</ele><time>2026-03-21T07:23:41Z</time></trkpt>
<trkpt lat="43.0454370000" lon="0.1337070000"><ele>780</ele><time>2026-03-21T07:23:43Z</time></trkpt>
<trkpt lat="43.0454120000" lon="0.1337030000"><ele>780</ele><time>2026-03-21T07:23:45Z</time></trkpt>
<trkpt lat="43.0453920000" lon="0.1336970000"><ele>781</ele><time>2026-03-21T07:23:47Z</time></trkpt>
<trkpt lat="43.0453700000" lon="0.1336870000"><ele>781</ele><time>2026-03-21T07:23:49Z</time></trkpt>
<trkpt lat="43.0453470000" lon="0.1336820000"><ele>781</ele><time>2026-03-21T07:23:51Z</time></trkpt>
<trkpt lat="43.0453250000" lon="0.1336820000"><ele>781</ele><time>2026-03-21T07:23:53Z</time></trkpt>
<trkpt lat="43.0453070000" lon="0.1336770000"><ele>781</ele><time>2026-03-21T07:23:55Z</time></trkpt>
<trkpt lat="43.0452820000" lon="0.1336720000"><ele>781</ele><time>2026-03-21T07:23:58Z</time></trkpt>
<trkpt lat="43.0452570000" lon="0.1336600000"><ele>782</ele><time>2026-03-21T07:24:00Z</time></trkpt>
<trkpt lat="43.0452370000" lon="0.1336500000"><ele>782</ele><time>2026-03-21T07:24:02Z</time></trkpt>
<trkpt lat="43.0452170000" lon="0.1336370000"><ele>782</ele><time>2026-03-21T07:24:04Z</time></trkpt>
<trkpt lat="43.0452000000" lon="0.1336320000"><ele>782</ele><time>2026-03-21T07:24:06Z</time></trkpt>
<trkpt lat="43.0451820000" lon="0.1336300000"><ele>782</ele><time>2026-03-21T07:24:08Z</time></trkpt>
<trkpt lat="43.0451620000" lon="0.1336250000"><ele>782</ele><time>2026-03-21T07:24:10Z</time></trkpt>
<trkpt lat="43.0451420000" lon="0.1336250000"><ele>783</ele><time>2026-03-21T07:24:12Z</time></trkpt>
<trkpt lat="43.0451200000" lon="0.1336270000"><ele>783</ele><time>2026-03-21T07:24:14Z</time></trkpt>
<trkpt lat="43.0451000000" lon="0.1336370000"><ele>783</ele><time>2026-03-21T07:24:16Z</time></trkpt>
<trkpt lat="43.0450820000" lon="0.1336570000"><ele>783</ele><time>2026-03-21T07:24:18Z</time></trkpt>
<trkpt lat="43.0450620000" lon="0.1336770000"><ele>783</ele><time>2026-03-21T07:24:20Z</time></trkpt>
<trkpt lat="43.0450420000" lon="0.1336870000"><ele>783</ele><time>2026-03-21T07:24:22Z</time></trkpt>
<trkpt lat="43.0450200000" lon="0.1336820000"><ele>783</ele><time>2026-03-21T07:24:24Z</time></trkpt>
<trkpt lat="43.0450020000" lon="0.1336780000"><ele>783</ele><time>2026-03-21T07:24:26Z</time></trkpt>
<trkpt lat="43.0449820000" lon="0.1336730000"><ele>784</ele><time>2026-03-21T07:24:28Z</time></trkpt>
<trkpt lat="43.0449620000" lon="0.1336700000"><ele>784</ele><time>2026-03-21T07:24:30Z</time></trkpt>
<trkpt lat="43.0449420000" lon="0.1336720000"><ele>784</ele><time>2026-03-21T07:24:33Z</time></trkpt>
<trkpt lat="43.0449270000" lon="0.1336920000"><ele>784</ele><time>2026-03-21T07:24:35Z</time></trkpt>
<trkpt lat="43.0449050000" lon="0.1337120000"><ele>784</ele><time>2026-03-21T07:24:38Z</time></trkpt>
<trkpt lat="43.0448950000" lon="0.1337420000"><ele>785</ele><time>2026-03-21T07:24:39Z</time></trkpt>
<trkpt lat="43.0448770000" lon="0.1337670000"><ele>785</ele><time>2026-03-21T07:24:41Z</time></trkpt>
<trkpt lat="43.0448620000" lon="0.1337820000"><ele>785</ele><time>2026-03-21T07:24:43Z</time></trkpt>
<trkpt lat="43.0448370000" lon="0.1337770000"><ele>785</ele><time>2026-03-21T07:24:45Z</time></trkpt>
<trkpt lat="43.0448120000" lon="0.1337850000"><ele>785</ele><time>2026-03-21T07:24:47Z</time></trkpt>
<trkpt lat="43.0447950000" lon="0.1337850000"><ele>785</ele><time>2026-03-21T07:24:48Z</time></trkpt>
<trkpt lat="43.0447720000" lon="0.1337920000"><ele>785</ele><time>2026-03-21T07:24:49Z</time></trkpt>
<trkpt lat="43.0447420000" lon="0.1338070000"><ele>785</ele><time>2026-03-21T07:24:51Z</time></trkpt>
<trkpt lat="43.0447220000" lon="0.1338100000"><ele>785</ele><time>2026-03-21T07:24:53Z</time></trkpt>
<trkpt lat="43.0446970000" lon="0.1338230000"><ele>786</ele><time>2026-03-21T07:24:55Z</time></trkpt>
<trkpt lat="43.0446770000" lon="0.1338420000"><ele>786</ele><time>2026-03-21T07:24:57Z</time></trkpt>
<trkpt lat="43.0446570000" lon="0.1338420000"><ele>786</ele><time>2026-03-21T07:24:59Z</time></trkpt>
<trkpt lat="43.0446320000" lon="0.1338320000"><ele>786</ele><time>2026-03-21T07:25:01Z</time></trkpt>
<trkpt lat="43.0446070000" lon="0.1338270000"><ele>786</ele><time>2026-03-21T07:25:04Z</time></trkpt>
<trkpt lat="43.0445870000" lon="0.1338170000"><ele>787</ele><time>2026-03-21T07:25:06Z</time></trkpt>
<trkpt lat="43.0445670000" lon="0.1338130000"><ele>787</ele><time>2026-03-21T07:25:08Z</time></trkpt>
<trkpt lat="43.0445470000" lon="0.1338020000"><ele>787</ele><time>2026-03-21T07:25:10Z</time></trkpt>
<trkpt lat="43.0445270000" lon="0.1337950000"><ele>787</ele><time>2026-03-21T07:25:12Z</time></trkpt>
<trkpt lat="43.0445070000" lon="0.1337870000"><ele>787</ele><time>2026-03-21T07:25:14Z</time></trkpt>
<trkpt lat="43.0444900000" lon="0.1337770000"><ele>787</ele><time>2026-03-21T07:25:16Z</time></trkpt>
<trkpt lat="43.0444720000" lon="0.1337670000"><ele>787</ele><time>2026-03-21T07:25:18Z</time></trkpt>
<trkpt lat="43.0444520000" lon="0.1337470000"><ele>788</ele><time>2026-03-21T07:25:20Z</time></trkpt>
<trkpt lat="43.0444270000" lon="0.1337620000"><ele>788</ele><time>2026-03-21T07:25:22Z</time></trkpt>
<trkpt lat="43.0444050000" lon="0.1337570000"><ele>788</ele><time>2026-03-21T07:25:24Z</time></trkpt>
<trkpt lat="43.0443820000" lon="0.1337570000"><ele>788</ele><time>2026-03-21T07:25:26Z</time></trkpt>
<trkpt lat="43.0443620000" lon="0.1337620000"><ele>788</ele><time>2026-03-21T07:25:28Z</time></trkpt>
<trkpt lat="43.0443370000" lon="0.1337620000"><ele>788</ele><time>2026-03-21T07:25:30Z</time></trkpt>
<trkpt lat="43.0443200000" lon="0.1337500000"><ele>788</ele><time>2026-03-21T07:25:32Z</time></trkpt>
<trkpt lat="43.0443070000" lon="0.1337320000"><ele>789</ele><time>2026-03-21T07:25:34Z</time></trkpt>
<trkpt lat="43.0442900000" lon="0.1337220000"><ele>789</ele><time>2026-03-21T07:25:36Z</time></trkpt>
<trkpt lat="43.0442620000" lon="0.1337070000"><ele>789</ele><time>2026-03-21T07:25:39Z</time></trkpt>
<trkpt lat="43.0442420000" lon="0.1337070000"><ele>789</ele><time>2026-03-21T07:25:41Z</time></trkpt>
<trkpt lat="43.0442220000" lon="0.1337000000"><ele>790</ele><time>2026-03-21T07:25:43Z</time></trkpt>
<trkpt lat="43.0441970000" lon="0.1336900000"><ele>790</ele><time>2026-03-21T07:25:45Z</time></trkpt>
<trkpt lat="43.0441750000" lon="0.1336820000"><ele>790</ele><time>2026-03-21T07:25:47Z</time></trkpt>
<trkpt lat="43.0441520000" lon="0.1336770000"><ele>790</ele><time>2026-03-21T07:25:49Z</time></trkpt>
<trkpt lat="43.0441300000" lon="0.1336670000"><ele>790</ele><time>2026-03-21T07:25:51Z</time></trkpt>
<trkpt lat="43.0441120000" lon="0.1336620000"><ele>790</ele><time>2026-03-21T07:25:53Z</time></trkpt>
<trkpt lat="43.0440920000" lon="0.1336570000"><ele>790</ele><time>2026-03-21T07:25:55Z</time></trkpt>
<trkpt lat="43.0440650000" lon="0.1336500000"><ele>790</ele><time>2026-03-21T07:25:58Z</time></trkpt>
<trkpt lat="43.0440350000" lon="0.1336450000"><ele>791</ele><time>2026-03-21T07:26:00Z</time></trkpt>
<trkpt lat="43.0440120000" lon="0.1336350000"><ele>791</ele><time>2026-03-21T07:26:02Z</time></trkpt>
<trkpt lat="43.0439870000" lon="0.1336220000"><ele>791</ele><time>2026-03-21T07:26:04Z</time></trkpt>
<trkpt lat="43.0439720000" lon="0.1336120000"><ele>791</ele><time>2026-03-21T07:26:06Z</time></trkpt>
<trkpt lat="43.0439420000" lon="0.1336050000"><ele>791</ele><time>2026-03-21T07:26:09Z</time></trkpt>
<trkpt lat="43.0439170000" lon="0.1335920000"><ele>791</ele><time>2026-03-21T07:26:12Z</time></trkpt>
<trkpt lat="43.0439020000" lon="0.1335820000"><ele>791</ele><time>2026-03-21T07:26:14Z</time></trkpt>
<trkpt lat="43.0438820000" lon="0.1335720000"><ele>792</ele><time>2026-03-21T07:26:16Z</time></trkpt>
<trkpt lat="43.0438620000" lon="0.1335620000"><ele>792</ele><time>2026-03-21T07:26:18Z</time></trkpt>
<trkpt lat="43.0438420000" lon="0.1335570000"><ele>792</ele><time>2026-03-21T07:26:20Z</time></trkpt>
<trkpt lat="43.0438270000" lon="0.1335470000"><ele>792</ele><time>2026-03-21T07:26:22Z</time></trkpt>
<trkpt lat="43.0438100000" lon="0.1335370000"><ele>792</ele><time>2026-03-21T07:26:24Z</time></trkpt>
<trkpt lat="43.0437920000" lon="0.1335270000"><ele>793</ele><time>2026-03-21T07:26:26Z</time></trkpt>
<trkpt lat="43.0437770000" lon="0.1335100000"><ele>793</ele><time>2026-03-21T07:26:28Z</time></trkpt>
<trkpt lat="43.0437550000" lon="0.1335020000"><ele>793</ele><time>2026-03-21T07:26:30Z</time></trkpt>
<trkpt lat="43.0437350000" lon="0.1334870000"><ele>793</ele><time>2026-03-21T07:26:32Z</time></trkpt>
<trkpt lat="43.0437120000" lon="0.1334770000"><ele>793</ele><time>2026-03-21T07:26:34Z</time></trkpt>
<trkpt lat="43.0436880000" lon="0.1334670000"><ele>794</ele><time>2026-03-21T07:26:36Z</time></trkpt>
<trkpt lat="43.0436650000" lon="0.1334670000"><ele>794</ele><time>2026-03-21T07:26:38Z</time></trkpt>
<trkpt lat="43.0436450000" lon="0.1334530000"><ele>794</ele><time>2026-03-21T07:26:40Z</time></trkpt>
<trkpt lat="43.0436250000" lon="0.1334320000"><ele>794</ele><time>2026-03-21T07:26:43Z</time></trkpt>
<trkpt lat="43.0436120000" lon="0.1334120000"><ele>794</ele><time>2026-03-21T07:26:45Z</time></trkpt>
<trkpt lat="43.0435920000" lon="0.1333870000"><ele>795</ele><time>2026-03-21T07:26:47Z</time></trkpt>
<trkpt lat="43.0435770000" lon="0.1333720000"><ele>795</ele><time>2026-03-21T07:26:49Z</time></trkpt>
<trkpt lat="43.0435570000" lon="0.1333570000"><ele>795</ele><time>2026-03-21T07:26:51Z</time></trkpt>
<trkpt lat="43.0435420000" lon="0.1333370000"><ele>795</ele><time>2026-03-21T07:26:53Z</time></trkpt>
<trkpt lat="43.0435300000" lon="0.1333170000"><ele>795</ele><time>2026-03-21T07:26:55Z</time></trkpt>
<trkpt lat="43.0435070000" lon="0.1333000000"><ele>795</ele><time>2026-03-21T07:26:57Z</time></trkpt>
<trkpt lat="43.0434950000" lon="0.1332770000"><ele>796</ele><time>2026-03-21T07:26:59Z</time></trkpt>
<trkpt lat="43.0434820000" lon="0.1332420000"><ele>796</ele><time>2026-03-21T07:27:02Z</time></trkpt>
<trkpt lat="43.0434700000" lon="0.1332150000"><ele>796</ele><time>2026-03-21T07:27:04Z</time></trkpt>
<trkpt lat="43.0434620000" lon="0.1331870000"><ele>796</ele><time>2026-03-21T07:27:06Z</time></trkpt>
<trkpt lat="43.0434570000" lon="0.1331620000"><ele>796</ele><time>2026-03-21T07:27:09Z</time></trkpt>
<trkpt lat="43.0434420000" lon="0.1331050000"><ele>796</ele><time>2026-03-21T07:27:29Z</time></trkpt>
<trkpt lat="43.0434470000" lon="0.1330720000"><ele>796</ele><time>2026-03-21T07:27:31Z</time></trkpt>
<trkpt lat="43.0434630000" lon="0.1330370000"><ele>796</ele><time>2026-03-21T07:27:33Z</time></trkpt>
<trkpt lat="43.0434820000" lon="0.1330220000"><ele>796</ele><time>2026-03-21T07:27:35Z</time></trkpt>
<trkpt lat="43.0435020000" lon="0.1330050000"><ele>796</ele><time>2026-03-21T07:27:37Z</time></trkpt>
<trkpt lat="43.0435170000" lon="0.1329870000"><ele>796</ele><time>2026-03-21T07:27:39Z</time></trkpt>
<trkpt lat="43.0435350000" lon="0.1329620000"><ele>796</ele><time>2026-03-21T07:27:41Z</time></trkpt>
<trkpt lat="43.0435520000" lon="0.1329470000"><ele>797</ele><time>2026-03-21T07:27:43Z</time></trkpt>
<trkpt lat="43.0435720000" lon="0.1329420000"><ele>797</ele><time>2026-03-21T07:27:45Z</time></trkpt>
<trkpt lat="43.0436070000" lon="0.1329350000"><ele>797</ele><time>2026-03-21T07:27:47Z</time></trkpt>
<trkpt lat="43.0436300000" lon="0.1329270000"><ele>797</ele><time>2026-03-21T07:27:48Z</time></trkpt>
<trkpt lat="43.0436600000" lon="0.1329120000"><ele>797</ele><time>2026-03-21T07:27:50Z</time></trkpt>
<trkpt lat="43.0436850000" lon="0.1329020000"><ele>797</ele><time>2026-03-21T07:27:52Z</time></trkpt>
<trkpt lat="43.0437120000" lon="0.1329020000"><ele>798</ele><time>2026-03-21T07:27:54Z</time></trkpt>
<trkpt lat="43.0437370000" lon="0.1329020000"><ele>798</ele><time>2026-03-21T07:27:56Z</time></trkpt>
<trkpt lat="43.0437570000" lon="0.1329070000"><ele>798</ele><time>2026-03-21T07:27:58Z</time></trkpt>
<trkpt lat="43.0437770000" lon="0.1329100000"><ele>798</ele><time>2026-03-21T07:28:00Z</time></trkpt>
<trkpt lat="43.0437970000" lon="0.1329200000"><ele>798</ele><time>2026-03-21T07:28:02Z</time></trkpt>
<trkpt lat="43.0438220000" lon="0.1329170000"><ele>798</ele><time>2026-03-21T07:28:04Z</time></trkpt>
<trkpt lat="43.0438430000" lon="0.1329200000"><ele>798</ele><time>2026-03-21T07:28:06Z</time></trkpt>
<trkpt lat="43.0438670000" lon="0.1329270000"><ele>798</ele><time>2026-03-21T07:28:08Z</time></trkpt>
<trkpt lat="43.0438970000" lon="0.1329320000"><ele>798</ele><time>2026-03-21T07:28:10Z</time></trkpt>
<trkpt lat="43.0439250000" lon="0.1329420000"><ele>798</ele><time>2026-03-21T07:28:12Z</time></trkpt>
<trkpt lat="43.0439470000" lon="0.1329620000"><ele>798</ele><time>2026-03-21T07:28:14Z</time></trkpt>
<trkpt lat="43.0439720000" lon="0.1329620000"><ele>798</ele><time>2026-03-21T07:28:16Z</time></trkpt>
<trkpt lat="43.0440020000" lon="0.1329620000"><ele>798</ele><time>2026-03-21T07:28:18Z</time></trkpt>
<trkpt lat="43.0440270000" lon="0.1329650000"><ele>798</ele><time>2026-03-21T07:28:20Z</time></trkpt>
<trkpt lat="43.0440470000" lon="0.1329650000"><ele>799</ele><time>2026-03-21T07:28:22Z</time></trkpt>
<trkpt lat="43.0440680000" lon="0.1329700000"><ele>799</ele><time>2026-03-21T07:28:24Z</time></trkpt>
<trkpt lat="43.0440920000" lon="0.1329700000"><ele>799</ele><time>2026-03-21T07:28:26Z</time></trkpt>
<trkpt lat="43.0441170000" lon="0.1329750000"><ele>799</ele><time>2026-03-21T07:28:28Z</time></trkpt>
<trkpt lat="43.0441420000" lon="0.1329720000"><ele>799</ele><time>2026-03-21T07:28:30Z</time></trkpt>
<trkpt lat="43.0441620000" lon="0.1329820000"><ele>799</ele><time>2026-03-21T07:28:32Z</time></trkpt>
<trkpt lat="43.0441870000" lon="0.1329780000"><ele>799</ele><time>2026-03-21T07:28:34Z</time></trkpt>
<trkpt lat="43.0442070000" lon="0.1329770000"><ele>799</ele><time>2026-03-21T07:28:36Z</time></trkpt>
<trkpt lat="43.0442230000" lon="0.1329880000"><ele>800</ele><time>2026-03-21T07:28:38Z</time></trkpt>
<trkpt lat="43.0442470000" lon="0.1329870000"><ele>800</ele><time>2026-03-21T07:28:40Z</time></trkpt>
<trkpt lat="43.0442670000" lon="0.1329880000"><ele>800</ele><time>2026-03-21T07:28:42Z</time></trkpt>
<trkpt lat="43.0442870000" lon="0.1329880000"><ele>800</ele><time>2026-03-21T07:28:44Z</time></trkpt>
<trkpt lat="43.0443120000" lon="0.1329780000"><ele>800</ele><time>2026-03-21T07:28:46Z</time></trkpt>
<trkpt lat="43.0443370000" lon="0.1329620000"><ele>800</ele><time>2026-03-21T07:28:48Z</time></trkpt>
<trkpt lat="43.0443570000" lon="0.1329570000"><ele>800</ele><time>2026-03-21T07:28:50Z</time></trkpt>
<trkpt lat="43.0443820000" lon="0.1329420000"><ele>800</ele><time>2026-03-21T07:28:52Z</time></trkpt>
<trkpt lat="43.0444020000" lon="0.1329220000"><ele>800</ele><time>2026-03-21T07:28:54Z</time></trkpt>
<trkpt lat="43.0444270000" lon="0.1329120000"><ele>800</ele><time>2026-03-21T07:28:56Z</time></trkpt>
<trkpt lat="43.0444480000" lon="0.1328870000"><ele>800</ele><time>2026-03-21T07:28:58Z</time></trkpt>
<trkpt lat="43.0444720000" lon="0.1328670000"><ele>800</ele><time>2026-03-21T07:29:00Z</time></trkpt>
<trkpt lat="43.0444900000" lon="0.1328430000"><ele>801</ele><time>2026-03-21T07:29:02Z</time></trkpt>
<trkpt lat="43.0445100000" lon="0.1328220000"><ele>801</ele><time>2026-03-21T07:29:04Z</time></trkpt>
<trkpt lat="43.0445270000" lon="0.1328020000"><ele>801</ele><time>2026-03-21T07:29:06Z</time></trkpt>
<trkpt lat="43.0445420000" lon="0.1327820000"><ele>801</ele><time>2026-03-21T07:29:08Z</time></trkpt>
<trkpt lat="43.0445650000" lon="0.1327620000"><ele>801</ele><time>2026-03-21T07:29:11Z</time></trkpt>
<trkpt lat="43.0445850000" lon="0.1327500000"><ele>801</ele><time>2026-03-21T07:29:13Z</time></trkpt>
<trkpt lat="43.0446030000" lon="0.1327250000"><ele>801</ele><time>2026-03-21T07:29:15Z</time></trkpt>
<trkpt lat="43.0446220000" lon="0.1326970000"><ele>801</ele><time>2026-03-21T07:29:17Z</time></trkpt>
<trkpt lat="43.0446420000" lon="0.1326820000"><ele>801</ele><time>2026-03-21T07:29:19Z</time></trkpt>
<trkpt lat="43.0446600000" lon="0.1326620000"><ele>801</ele><time>2026-03-21T07:29:21Z</time></trkpt>
<trkpt lat="43.0446770000" lon="0.1326400000"><ele>801</ele><time>2026-03-21T07:29:23Z</time></trkpt>
<trkpt lat="43.0446920000" lon="0.1326170000"><ele>802</ele><time>2026-03-21T07:29:25Z</time></trkpt>
<trkpt lat="43.0447070000" lon="0.1325970000"><ele>802</ele><time>2026-03-21T07:29:27Z</time></trkpt>
<trkpt lat="43.0447270000" lon="0.1325900000"><ele>802</ele><time>2026-03-21T07:29:30Z</time></trkpt>
<trkpt lat="43.0447470000" lon="0.1325770000"><ele>802</ele><time>2026-03-21T07:29:32Z</time></trkpt>
<trkpt lat="43.0447620000" lon="0.1325600000"><ele>802</ele><time>2026-03-21T07:29:34Z</time></trkpt>
<trkpt lat="43.0447870000" lon="0.1325250000"><ele>802</ele><time>2026-03-21T07:29:36Z</time></trkpt>
<trkpt lat="43.0448000000" lon="0.1325070000"><ele>802</ele><time>2026-03-21T07:29:37Z</time></trkpt>
<trkpt lat="43.0448170000" lon="0.1324950000"><ele>802</ele><time>2026-03-21T07:29:38Z</time></trkpt>
<trkpt lat="43.0448350000" lon="0.1324970000"><ele>802</ele><time>2026-03-21T07:29:40Z</time></trkpt>
<trkpt lat="43.0448400000" lon="0.1325220000"><ele>803</ele><time>2026-03-21T07:29:44Z</time></trkpt>
<trkpt lat="43.0448600000" lon="0.1325270000"><ele>802</ele><time>2026-03-21T07:29:50Z</time></trkpt>
<trkpt lat="43.0448870000" lon="0.1325170000"><ele>803</ele><time>2026-03-21T07:29:52Z</time></trkpt>
<trkpt lat="43.0449020000" lon="0.1324770000"><ele>803</ele><time>2026-03-21T07:29:55Z</time></trkpt>
<trkpt lat="43.0449170000" lon="0.1324500000"><ele>803</ele><time>2026-03-21T07:29:57Z</time></trkpt>
<trkpt lat="43.0449300000" lon="0.1324270000"><ele>803</ele><time>2026-03-21T07:29:59Z</time></trkpt>
<trkpt lat="43.0449400000" lon="0.1324020000"><ele>803</ele><time>2026-03-21T07:30:01Z</time></trkpt>
<trkpt lat="43.0449370000" lon="0.1323720000"><ele>803</ele><time>2026-03-21T07:30:04Z</time></trkpt>
<trkpt lat="43.0449420000" lon="0.1323470000"><ele>803</ele><time>2026-03-21T07:30:06Z</time></trkpt>
<trkpt lat="43.0449370000" lon="0.1323170000"><ele>803</ele><time>2026-03-21T07:30:08Z</time></trkpt>
<trkpt lat="43.0449470000" lon="0.1322920000"><ele>803</ele><time>2026-03-21T07:30:10Z</time></trkpt>
<trkpt lat="43.0449520000" lon="0.1322570000"><ele>803</ele><time>2026-03-21T07:30:12Z</time></trkpt>
<trkpt lat="43.0449620000" lon="0.1322220000"><ele>803</ele><time>2026-03-21T07:30:14Z</time></trkpt>
<trkpt lat="43.0449720000" lon="0.1321970000"><ele>803</ele><time>2026-03-21T07:30:16Z</time></trkpt>
<trkpt lat="43.0449720000" lon="0.1321580000"><ele>804</ele><time>2026-03-21T07:30:18Z</time></trkpt>
<trkpt lat="43.0449830000" lon="0.1321320000"><ele>804</ele><time>2026-03-21T07:30:20Z</time></trkpt>
<trkpt lat="43.0450070000" lon="0.1321070000"><ele>804</ele><time>2026-03-21T07:30:22Z</time></trkpt>
<trkpt lat="43.0450170000" lon="0.1320820000"><ele>804</ele><time>2026-03-21T07:30:24Z</time></trkpt>
<trkpt lat="43.0450320000" lon="0.1320470000"><ele>804</ele><time>2026-03-21T07:30:27Z</time></trkpt>
<trkpt lat="43.0450470000" lon="0.1320250000"><ele>804</ele><time>2026-03-21T07:30:29Z</time></trkpt>
<trkpt lat="43.0450620000" lon="0.1320120000"><ele>804</ele><time>2026-03-21T07:30:31Z</time></trkpt>
<trkpt lat="43.0450620000" lon="0.1319720000"><ele>804</ele><time>2026-03-21T07:30:34Z</time></trkpt>
<trkpt lat="43.0450800000" lon="0.1319620000"><ele>804</ele><time>2026-03-21T07:30:37Z</time></trkpt>
<trkpt lat="43.0451050000" lon="0.1319600000"><ele>804</ele><time>2026-03-21T07:30:39Z</time></trkpt>
<trkpt lat="43.0451320000" lon="0.1319620000"><ele>804</ele><time>2026-03-21T07:30:41Z</time></trkpt>
<trkpt lat="43.0451620000" lon="0.1319650000"><ele>804</ele><time>2026-03-21T07:30:43Z</time></trkpt>
<trkpt lat="43.0451870000" lon="0.1319770000"><ele>804</ele><time>2026-03-21T07:30:46Z</time></trkpt>
<trkpt lat="43.0452070000" lon="0.1319800000"><ele>804</ele><time>2026-03-21T07:30:47Z</time></trkpt>
<trkpt lat="43.0452270000" lon="0.1319800000"><ele>804</ele><time>2026-03-21T07:30:48Z</time></trkpt>
<trkpt lat="43.0452550000" lon="0.1319920000"><ele>804</ele><time>2026-03-21T07:30:50Z</time></trkpt>
<trkpt lat="43.0452770000" lon="0.1320020000"><ele>804</ele><time>2026-03-21T07:30:51Z</time></trkpt>
<trkpt lat="43.0453000000" lon="0.1320070000"><ele>804</ele><time>2026-03-21T07:30:52Z</time></trkpt>
<trkpt lat="43.0453300000" lon="0.1320170000"><ele>805</ele><time>2026-03-21T07:30:54Z</time></trkpt>
<trkpt lat="43.0453550000" lon="0.1320320000"><ele>805</ele><time>2026-03-21T07:30:56Z</time></trkpt>
<trkpt lat="43.0453770000" lon="0.1320430000"><ele>805</ele><time>2026-03-21T07:30:58Z</time></trkpt>
<trkpt lat="43.0454000000" lon="0.1320520000"><ele>805</ele><time>2026-03-21T07:31:00Z</time></trkpt>
<trkpt lat="43.0454270000" lon="0.1320570000"><ele>805</ele><time>2026-03-21T07:31:02Z</time></trkpt>
<trkpt lat="43.0454600000" lon="0.1320570000"><ele>805</ele><time>2026-03-21T07:31:04Z</time></trkpt>
<trkpt lat="43.0454850000" lon="0.1320570000"><ele>805</ele><time>2026-03-21T07:31:06Z</time></trkpt>
<trkpt lat="43.0455120000" lon="0.1320620000"><ele>805</ele><time>2026-03-21T07:31:08Z</time></trkpt>
<trkpt lat="43.0455370000" lon="0.1320670000"><ele>805</ele><time>2026-03-21T07:31:10Z</time></trkpt>
<trkpt lat="43.0455620000" lon="0.1320670000"><ele>805</ele><time>2026-03-21T07:31:12Z</time></trkpt>
<trkpt lat="43.0455870000" lon="0.1320670000"><ele>805</ele><time>2026-03-21T07:31:14Z</time></trkpt>
<trkpt lat="43.0456070000" lon="0.1320620000"><ele>805</ele><time>2026-03-21T07:31:16Z</time></trkpt>
<trkpt lat="43.0456250000" lon="0.1320620000"><ele>805</ele><time>2026-03-21T07:31:18Z</time></trkpt>
<trkpt lat="43.0456470000" lon="0.1320600000"><ele>806</ele><time>2026-03-21T07:31:20Z</time></trkpt>
<trkpt lat="43.0456670000" lon="0.1320520000"><ele>806</ele><time>2026-03-21T07:31:22Z</time></trkpt>
<trkpt lat="43.0456920000" lon="0.1320420000"><ele>806</ele><time>2026-03-21T07:31:24Z</time></trkpt>
<trkpt lat="43.0457150000" lon="0.1320320000"><ele>806</ele><time>2026-03-21T07:31:26Z</time></trkpt>
<trkpt lat="43.0457420000" lon="0.1320250000"><ele>806</ele><time>2026-03-21T07:31:28Z</time></trkpt>
<trkpt lat="43.0457670000" lon="0.1320270000"><ele>806</ele><time>2026-03-21T07:31:30Z</time></trkpt>
<trkpt lat="43.0457920000" lon="0.1320220000"><ele>806</ele><time>2026-03-21T07:31:32Z</time></trkpt>
<trkpt lat="43.0458100000" lon="0.1320250000"><ele>806</ele><time>2026-03-21T07:31:34Z</time></trkpt>
<trkpt lat="43.0458300000" lon="0.1320220000"><ele>806</ele><time>2026-03-21T07:31:36Z</time></trkpt>
<trkpt lat="43.0458570000" lon="0.1320270000"><ele>806</ele><time>2026-03-21T07:31:38Z</time></trkpt>
<trkpt lat="43.0458870000" lon="0.1320370000"><ele>807</ele><time>2026-03-21T07:31:40Z</time></trkpt>
<trkpt lat="43.0459070000" lon="0.1320520000"><ele>807</ele><time>2026-03-21T07:31:42Z</time></trkpt>
<trkpt lat="43.0459270000" lon="0.1320670000"><ele>807</ele><time>2026-03-21T07:31:44Z</time></trkpt>
<trkpt lat="43.0459470000" lon="0.1320720000"><ele>807</ele><time>2026-03-21T07:31:46Z</time></trkpt>
<trkpt lat="43.0459670000" lon="0.1320770000"><ele>807</ele><time>2026-03-21T07:31:48Z</time></trkpt>
<trkpt lat="43.0459920000" lon="0.1320620000"><ele>807</ele><time>2026-03-21T07:31:50Z</time></trkpt>
<trkpt lat="43.0460220000" lon="0.1320520000"><ele>808</ele><time>2026-03-21T07:31:52Z</time></trkpt>
<trkpt lat="43.0460450000" lon="0.1320420000"><ele>808</ele><time>2026-03-21T07:31:54Z</time></trkpt>
<trkpt lat="43.0460620000" lon="0.1320670000"><ele>808</ele><time>2026-03-21T07:31:56Z</time></trkpt>
<trkpt lat="43.0460900000" lon="0.1320420000"><ele>808</ele><time>2026-03-21T07:31:59Z</time></trkpt>
<trkpt lat="43.0461050000" lon="0.1320250000"><ele>808</ele><time>2026-03-21T07:32:01Z</time></trkpt>
<trkpt lat="43.0461220000" lon="0.1320130000"><ele>808</ele><time>2026-03-21T07:32:03Z</time></trkpt>
<trkpt lat="43.0461420000" lon="0.1319950000"><ele>808</ele><time>2026-03-21T07:32:05Z</time></trkpt>
<trkpt lat="43.0461620000" lon="0.1319720000"><ele>808</ele><time>2026-03-21T07:32:07Z</time></trkpt>
<trkpt lat="43.0461870000" lon="0.1319470000"><ele>809</ele><time>2026-03-21T07:32:09Z</time></trkpt>
<trkpt lat="43.0462000000" lon="0.1319270000"><ele>809</ele><time>2026-03-21T07:32:12Z</time></trkpt>
<trkpt lat="43.0462250000" lon="0.1319070000"><ele>809</ele><time>2026-03-21T07:32:15Z</time></trkpt>
<trkpt lat="43.0462520000" lon="0.1318970000"><ele>809</ele><time>2026-03-21T07:32:17Z</time></trkpt>
<trkpt lat="43.0462720000" lon="0.1318870000"><ele>809</ele><time>2026-03-21T07:32:19Z</time></trkpt>
<trkpt lat="43.0462920000" lon="0.1318820000"><ele>810</ele><time>2026-03-21T07:32:21Z</time></trkpt>
<trkpt lat="43.0462800000" lon="0.1319030000"><ele>810</ele><time>2026-03-21T07:32:27Z</time></trkpt>
<trkpt lat="43.0462820000" lon="0.1318770000"><ele>810</ele><time>2026-03-21T07:32:47Z</time></trkpt>
<trkpt lat="43.0463020000" lon="0.1318770000"><ele>810</ele><time>2026-03-21T07:32:49Z</time></trkpt>
<trkpt lat="43.0463320000" lon="0.1318730000"><ele>810</ele><time>2026-03-21T07:32:51Z</time></trkpt>
<trkpt lat="43.0463620000" lon="0.1318620000"><ele>810</ele><time>2026-03-21T07:32:53Z</time></trkpt>
<trkpt lat="43.0463770000" lon="0.1318470000"><ele>810</ele><time>2026-03-21T07:32:55Z</time></trkpt>
<trkpt lat="43.0464000000" lon="0.1318400000"><ele>810</ele><time>2026-03-21T07:32:57Z</time></trkpt>
<trkpt lat="43.0464270000" lon="0.1318400000"><ele>810</ele><time>2026-03-21T07:32:59Z</time></trkpt>
<trkpt lat="43.0464520000" lon="0.1318500000"><ele>810</ele><time>2026-03-21T07:33:01Z</time></trkpt>
<trkpt lat="43.0464770000" lon="0.1318470000"><ele>810</ele><time>2026-03-21T07:33:03Z</time></trkpt>
<trkpt lat="43.0464950000" lon="0.1318350000"><ele>810</ele><time>2026-03-21T07:33:05Z</time></trkpt>
<trkpt lat="43.0465200000" lon="0.1318250000"><ele>810</ele><time>2026-03-21T07:33:07Z</time></trkpt>
<trkpt lat="43.0465470000" lon="0.1318070000"><ele>810</ele><time>2026-03-21T07:33:09Z</time></trkpt>
<trkpt lat="43.0465670000" lon="0.1317920000"><ele>810</ele><time>2026-03-21T07:33:11Z</time></trkpt>
<trkpt lat="43.0465870000" lon="0.1317700000"><ele>810</ele><time>2026-03-21T07:33:13Z</time></trkpt>
<trkpt lat="43.0466020000" lon="0.1317520000"><ele>810</ele><time>2026-03-21T07:33:15Z</time></trkpt>
<trkpt lat="43.0466170000" lon="0.1317220000"><ele>810</ele><time>2026-03-21T07:33:17Z</time></trkpt>
<trkpt lat="43.0466350000" lon="0.1317020000"><ele>810</ele><time>2026-03-21T07:33:20Z</time></trkpt>
<trkpt lat="43.0466520000" lon="0.1316720000"><ele>811</ele><time>2026-03-21T07:33:23Z</time></trkpt>
<trkpt lat="43.0466670000" lon="0.1316470000"><ele>811</ele><time>2026-03-21T07:33:25Z</time></trkpt>
<trkpt lat="43.0466820000" lon="0.1316220000"><ele>811</ele><time>2026-03-21T07:33:27Z</time></trkpt>
<trkpt lat="43.0467020000" lon="0.1315970000"><ele>811</ele><time>2026-03-21T07:33:29Z</time></trkpt>
<trkpt lat="43.0467170000" lon="0.1315750000"><ele>811</ele><time>2026-03-21T07:33:31Z</time></trkpt>
<trkpt lat="43.0467420000" lon="0.1315500000"><ele>811</ele><time>2026-03-21T07:33:33Z</time></trkpt>
<trkpt lat="43.0467670000" lon="0.1315220000"><ele>812</ele><time>2026-03-21T07:33:35Z</time></trkpt>
<trkpt lat="43.0467870000" lon="0.1315050000"><ele>812</ele><time>2026-03-21T07:33:37Z</time></trkpt>
<trkpt lat="43.0467970000" lon="0.1314830000"><ele>812</ele><time>2026-03-21T07:33:39Z</time></trkpt>
<trkpt lat="43.0468150000" lon="0.1314700000"><ele>812</ele><time>2026-03-21T07:33:41Z</time></trkpt>
<trkpt lat="43.0468320000" lon="0.1314470000"><ele>812</ele><time>2026-03-21T07:33:43Z</time></trkpt>
<trkpt lat="43.0468470000" lon="0.1314250000"><ele>812</ele><time>2026-03-21T07:33:46Z</time></trkpt>
<trkpt lat="43.0468650000" lon="0.1313820000"><ele>813</ele><time>2026-03-21T07:33:49Z</time></trkpt>
<trkpt lat="43.0468770000" lon="0.1313570000"><ele>813</ele><time>2026-03-21T07:33:51Z</time></trkpt>
<trkpt lat="43.0468920000" lon="0.1313370000"><ele>813</ele><time>2026-03-21T07:33:53Z</time></trkpt>
<trkpt lat="43.0469050000" lon="0.1313170000"><ele>813</ele><time>2026-03-21T07:33:55Z</time></trkpt>
<trkpt lat="43.0469250000" lon="0.1312970000"><ele>813</ele><time>2026-03-21T07:33:57Z</time></trkpt>
<trkpt lat="43.0469370000" lon="0.1312800000"><ele>814</ele><time>2026-03-21T07:33:59Z</time></trkpt>
<trkpt lat="43.0469520000" lon="0.1312570000"><ele>814</ele><time>2026-03-21T07:34:01Z</time></trkpt>
<trkpt lat="43.0469700000" lon="0.1312300000"><ele>814</ele><time>2026-03-21T07:34:04Z</time></trkpt>
<trkpt lat="43.0469800000" lon="0.1312030000"><ele>814</ele><time>2026-03-21T07:34:06Z</time></trkpt>
<trkpt lat="43.0470020000" lon="0.1311920000"><ele>814</ele><time>2026-03-21T07:34:09Z</time></trkpt>
<trkpt lat="43.0470170000" lon="0.1311700000"><ele>814</ele><time>2026-03-21T07:34:12Z</time></trkpt>
<trkpt lat="43.0470320000" lon="0.1311550000"><ele>814</ele><time>2026-03-21T07:34:14Z</time></trkpt>
<trkpt lat="43.0470520000" lon="0.1311450000"><ele>815</ele><time>2026-03-21T07:34:16Z</time></trkpt>
<trkpt lat="43.0470720000" lon="0.1311320000"><ele>815</ele><time>2026-03-21T07:34:18Z</time></trkpt>
<trkpt lat="43.0470920000" lon="0.1311170000"><ele>815</ele><time>2026-03-21T07:34:20Z</time></trkpt>
<trkpt lat="43.0471170000" lon="0.1311070000"><ele>815</ele><time>2026-03-21T07:34:22Z</time></trkpt>
<trkpt lat="43.0471420000" lon="0.1311100000"><ele>815</ele><time>2026-03-21T07:34:24Z</time></trkpt>
<trkpt lat="43.0471650000" lon="0.1310870000"><ele>815</ele><time>2026-03-21T07:34:26Z</time></trkpt>
<trkpt lat="43.0471770000" lon="0.1310620000"><ele>815</ele><time>2026-03-21T07:34:28Z</time></trkpt>
<trkpt lat="43.0471920000" lon="0.1310350000"><ele>816</ele><time>2026-03-21T07:34:30Z</time></trkpt>
<trkpt lat="43.0472120000" lon="0.1310250000"><ele>816</ele><time>2026-03-21T07:34:32Z</time></trkpt>
<trkpt lat="43.0472270000" lon="0.1310070000"><ele>816</ele><time>2026-03-21T07:34:34Z</time></trkpt>
<trkpt lat="43.0472450000" lon="0.1309870000"><ele>816</ele><time>2026-03-21T07:34:36Z</time></trkpt>
<trkpt lat="43.0472550000" lon="0.1309570000"><ele>816</ele><time>2026-03-21T07:34:38Z</time></trkpt>
<trkpt lat="43.0472620000" lon="0.1309250000"><ele>816</ele><time>2026-03-21T07:34:40Z</time></trkpt>
<trkpt lat="43.0472820000" lon="0.1309070000"><ele>817</ele><time>2026-03-21T07:34:42Z</time></trkpt>
<trkpt lat="43.0473070000" lon="0.1308870000"><ele>817</ele><time>2026-03-21T07:34:44Z</time></trkpt>
<trkpt lat="43.0473200000" lon="0.1308650000"><ele>817</ele><time>2026-03-21T07:34:45Z</time></trkpt>
<trkpt lat="43.0473370000" lon="0.1308470000"><ele>817</ele><time>2026-03-21T07:34:48Z</time></trkpt>
<trkpt lat="43.0473470000" lon="0.1308220000"><ele>817</ele><time>2026-03-21T07:34:50Z</time></trkpt>
<trkpt lat="43.0473650000" lon="0.1308020000"><ele>817</ele><time>2026-03-21T07:34:53Z</time></trkpt>
<trkpt lat="43.0473820000" lon="0.1307770000"><ele>818</ele><time>2026-03-21T07:34:56Z</time></trkpt>
<trkpt lat="43.0473920000" lon="0.1307520000"><ele>818</ele><time>2026-03-21T07:34:59Z</time></trkpt>
<trkpt lat="43.0474000000" lon="0.1307220000"><ele>818</ele><time>2026-03-21T07:35:02Z</time></trkpt>
<trkpt lat="43.0474100000" lon="0.1307020000"><ele>818</ele><time>2026-03-21T07:35:04Z</time></trkpt>
<trkpt lat="43.0474220000" lon="0.1306780000"><ele>819</ele><time>2026-03-21T07:35:06Z</time></trkpt>
<trkpt lat="43.0474370000" lon="0.1306570000"><ele>819</ele><time>2026-03-21T07:35:08Z</time></trkpt>
<trkpt lat="43.0474500000" lon="0.1306220000"><ele>819</ele><time>2026-03-21T07:35:10Z</time></trkpt>
<trkpt lat="43.0474520000" lon="0.1305870000"><ele>819</ele><time>2026-03-21T07:35:13Z</time></trkpt>
<trkpt lat="43.0474720000" lon="0.1305570000"><ele>819</ele><time>2026-03-21T07:35:16Z</time></trkpt>
<trkpt lat="43.0474900000" lon="0.1305370000"><ele>820</ele><time>2026-03-21T07:35:19Z</time></trkpt>
<trkpt lat="43.0475050000" lon="0.1305220000"><ele>820</ele><time>2026-03-21T07:35:21Z</time></trkpt>
<trkpt lat="43.0475250000" lon="0.1305070000"><ele>820</ele><time>2026-03-21T07:35:23Z</time></trkpt>
<trkpt lat="43.0475550000" lon="0.1305020000"><ele>820</ele><time>2026-03-21T07:35:25Z</time></trkpt>
<trkpt lat="43.0475770000" lon="0.1305020000"><ele>820</ele><time>2026-03-21T07:35:27Z</time></trkpt>
<trkpt lat="43.0475970000" lon="0.1304880000"><ele>821</ele><time>2026-03-21T07:35:29Z</time></trkpt>
<trkpt lat="43.0476100000" lon="0.1304720000"><ele>821</ele><time>2026-03-21T07:35:31Z</time></trkpt>
<trkpt lat="43.0476220000" lon="0.1304520000"><ele>821</ele><time>2026-03-21T07:35:33Z</time></trkpt>
<trkpt lat="43.0476350000" lon="0.1304370000"><ele>821</ele><time>2026-03-21T07:35:35Z</time></trkpt>
<trkpt lat="43.0476520000" lon="0.1304150000"><ele>822</ele><time>2026-03-21T07:35:38Z</time></trkpt>
<trkpt lat="43.0476670000" lon="0.1303970000"><ele>822</ele><time>2026-03-21T07:35:40Z</time></trkpt>
<trkpt lat="43.0476750000" lon="0.1303670000"><ele>822</ele><time>2026-03-21T07:35:43Z</time></trkpt>
<trkpt lat="43.0476870000" lon="0.1303420000"><ele>822</ele><time>2026-03-21T07:35:46Z</time></trkpt>
<trkpt lat="43.0477050000" lon="0.1303270000"><ele>822</ele><time>2026-03-21T07:35:48Z</time></trkpt>
<trkpt lat="43.0477350000" lon="0.1303070000"><ele>822</ele><time>2026-03-21T07:35:50Z</time></trkpt>
<trkpt lat="43.0477600000" lon="0.1302920000"><ele>823</ele><time>2026-03-21T07:35:52Z</time></trkpt>
<trkpt lat="43.0477820000" lon="0.1302820000"><ele>823</ele><time>2026-03-21T07:35:54Z</time></trkpt>
<trkpt lat="43.0477970000" lon="0.1302720000"><ele>823</ele><time>2026-03-21T07:35:55Z</time></trkpt>
<trkpt lat="43.0478150000" lon="0.1302550000"><ele>823</ele><time>2026-03-21T07:35:56Z</time></trkpt>
<trkpt lat="43.0478370000" lon="0.1302380000"><ele>823</ele><time>2026-03-21T07:35:57Z</time></trkpt>
<trkpt lat="43.0478530000" lon="0.1302250000"><ele>823</ele><time>2026-03-21T07:35:58Z</time></trkpt>
<trkpt lat="43.0478870000" lon="0.1302120000"><ele>824</ele><time>2026-03-21T07:36:00Z</time></trkpt>
<trkpt lat="43.0479100000" lon="0.1301970000"><ele>824</ele><time>2026-03-21T07:36:02Z</time></trkpt>
<trkpt lat="43.0479220000" lon="0.1301800000"><ele>824</ele><time>2026-03-21T07:36:05Z</time></trkpt>
<trkpt lat="43.0479350000" lon="0.1301520000"><ele>824</ele><time>2026-03-21T07:36:08Z</time></trkpt>
<trkpt lat="43.0479420000" lon="0.1301270000"><ele>825</ele><time>2026-03-21T07:36:12Z</time></trkpt>
<trkpt lat="43.0479420000" lon="0.1301020000"><ele>825</ele><time>2026-03-21T07:36:14Z</time></trkpt>
<trkpt lat="43.0479320000" lon="0.1300570000"><ele>825</ele><time>2026-03-21T07:36:18Z</time></trkpt>
<trkpt lat="43.0479220000" lon="0.1300300000"><ele>826</ele><time>2026-03-21T07:36:20Z</time></trkpt>
<trkpt lat="43.0479150000" lon="0.1300020000"><ele>826</ele><time>2026-03-21T07:36:23Z</time></trkpt>
<trkpt lat="43.0479170000" lon="0.1299750000"><ele>826</ele><time>2026-03-21T07:36:26Z</time></trkpt>
<trkpt lat="43.0479120000" lon="0.1299470000"><ele>826</ele><time>2026-03-21T07:36:28Z</time></trkpt>
<trkpt lat="43.0479270000" lon="0.1299250000"><ele>827</ele><time>2026-03-21T07:36:30Z</time></trkpt>
<trkpt lat="43.0479250000" lon="0.1298950000"><ele>827</ele><time>2026-03-21T07:36:33Z</time></trkpt>
<trkpt lat="43.0479150000" lon="0.1298620000"><ele>827</ele><time>2026-03-21T07:36:35Z</time></trkpt>
<trkpt lat="43.0478970000" lon="0.1298270000"><ele>827</ele><time>2026-03-21T07:36:37Z</time></trkpt>
<trkpt lat="43.0478920000" lon="0.1297970000"><ele>827</ele><time>2026-03-21T07:36:39Z</time></trkpt>
<trkpt lat="43.0479020000" lon="0.1297720000"><ele>828</ele><time>2026-03-21T07:36:42Z</time></trkpt>
<trkpt lat="43.0479020000" lon="0.1297450000"><ele>828</ele><time>2026-03-21T07:36:44Z</time></trkpt>
<trkpt lat="43.0479120000" lon="0.1297220000"><ele>828</ele><time>2026-03-21T07:36:47Z</time></trkpt>
<trkpt lat="43.0479170000" lon="0.1296950000"><ele>828</ele><time>2026-03-21T07:36:49Z</time></trkpt>
<trkpt lat="43.0479300000" lon="0.1296620000"><ele>829</ele><time>2026-03-21T07:36:53Z</time></trkpt>
<trkpt lat="43.0479320000" lon="0.1296320000"><ele>829</ele><time>2026-03-21T07:36:58Z</time></trkpt>
<trkpt lat="43.0479220000" lon="0.1296120000"><ele>830</ele><time>2026-03-21T07:37:03Z</time></trkpt>
<trkpt lat="43.0479350000" lon="0.1295820000"><ele>830</ele><time>2026-03-21T07:37:05Z</time></trkpt>
<trkpt lat="43.0479450000" lon="0.1296100000"><ele>830</ele><time>2026-03-21T07:37:10Z</time></trkpt>
<trkpt lat="43.0479450000" lon="0.1296370000"><ele>830</ele><time>2026-03-21T07:37:14Z</time></trkpt>
<trkpt lat="43.0479750000" lon="0.1296470000"><ele>830</ele><time>2026-03-21T07:37:17Z</time></trkpt>
<trkpt lat="43.0480000000" lon="0.1296520000"><ele>830</ele><time>2026-03-21T07:37:18Z</time></trkpt>
<trkpt lat="43.0480270000" lon="0.1296520000"><ele>830</ele><time>2026-03-21T07:37:19Z</time></trkpt>
<trkpt lat="43.0480470000" lon="0.1296420000"><ele>830</ele><time>2026-03-21T07:37:20Z</time></trkpt>
<trkpt lat="43.0480700000" lon="0.1296070000"><ele>830</ele><time>2026-03-21T07:37:22Z</time></trkpt>
<trkpt lat="43.0480820000" lon="0.1295820000"><ele>831</ele><time>2026-03-21T07:37:23Z</time></trkpt>
<trkpt lat="43.0480970000" lon="0.1295620000"><ele>831</ele><time>2026-03-21T07:37:25Z</time></trkpt>
<trkpt lat="43.0481200000" lon="0.1295350000"><ele>831</ele><time>2026-03-21T07:37:27Z</time></trkpt>
<trkpt lat="43.0481520000" lon="0.1295220000"><ele>831</ele><time>2026-03-21T07:37:29Z</time></trkpt>
<trkpt lat="43.0481630000" lon="0.1294970000"><ele>831</ele><time>2026-03-21T07:37:32Z</time></trkpt>
<trkpt lat="43.0481770000" lon="0.1294720000"><ele>832</ele><time>2026-03-21T07:37:35Z</time></trkpt>
<trkpt lat="43.0481920000" lon="0.1294570000"><ele>832</ele><time>2026-03-21T07:37:37Z</time></trkpt>
<trkpt lat="43.0482120000" lon="0.1294370000"><ele>832</ele><time>2026-03-21T07:37:40Z</time></trkpt>
<trkpt lat="43.0482300000" lon="0.1294170000"><ele>832</ele><time>2026-03-21T07:37:43Z</time></trkpt>
<trkpt lat="43.0482420000" lon="0.1293870000"><ele>832</ele><time>2026-03-21T07:37:45Z</time></trkpt>
<trkpt lat="43.0482570000" lon="0.1293700000"><ele>833</ele><time>2026-03-21T07:37:47Z</time></trkpt>
<trkpt lat="43.0482720000" lon="0.1293550000"><ele>833</ele><time>2026-03-21T07:37:49Z</time></trkpt>
<trkpt lat="43.0482920000" lon="0.1293350000"><ele>833</ele><time>2026-03-21T07:37:51Z</time></trkpt>
<trkpt lat="43.0483170000" lon="0.1293120000"><ele>833</ele><time>2026-03-21T07:37:53Z</time></trkpt>
<trkpt lat="43.0483370000" lon="0.1292950000"><ele>834</ele><time>2026-03-21T07:37:55Z</time></trkpt>
<trkpt lat="43.0483550000" lon="0.1292770000"><ele>834</ele><time>2026-03-21T07:37:57Z</time></trkpt>
<trkpt lat="43.0483670000" lon="0.1292470000"><ele>834</ele><time>2026-03-21T07:38:00Z</time></trkpt>
<trkpt lat="43.0483770000" lon="0.1292220000"><ele>835</ele><time>2026-03-21T07:38:02Z</time></trkpt>
<trkpt lat="43.0483820000" lon="0.1291970000"><ele>835</ele><time>2026-03-21T07:38:04Z</time></trkpt>
<trkpt lat="43.0483920000" lon="0.1291720000"><ele>835</ele><time>2026-03-21T07:38:06Z</time></trkpt>
<trkpt lat="43.0484050000" lon="0.1291470000"><ele>835</ele><time>2026-03-21T07:38:08Z</time></trkpt>
<trkpt lat="43.0484070000" lon="0.1291150000"><ele>836</ele><time>2026-03-21T07:38:11Z</time></trkpt>
<trkpt lat="43.0484100000" lon="0.1290820000"><ele>836</ele><time>2026-03-21T07:38:14Z</time></trkpt>
<trkpt lat="43.0484270000" lon="0.1290620000"><ele>836</ele><time>2026-03-21T07:38:18Z</time></trkpt>
<trkpt lat="43.0484470000" lon="0.1290470000"><ele>836</ele><time>2026-03-21T07:38:20Z</time></trkpt>
<trkpt lat="43.0484650000" lon="0.1290320000"><ele>836</ele><time>2026-03-21T07:38:22Z</time></trkpt>
<trkpt lat="43.0484850000" lon="0.1290120000"><ele>837</ele><time>2026-03-21T07:38:24Z</time></trkpt>
<trkpt lat="43.0485050000" lon="0.1289970000"><ele>837</ele><time>2026-03-21T07:38:27Z</time></trkpt>
<trkpt lat="43.0485220000" lon="0.1289620000"><ele>837</ele><time>2026-03-21T07:38:30Z</time></trkpt>
<trkpt lat="43.0485350000" lon="0.1289370000"><ele>838</ele><time>2026-03-21T07:38:32Z</time></trkpt>
<trkpt lat="43.0485470000" lon="0.1289120000"><ele>838</ele><time>2026-03-21T07:38:34Z</time></trkpt>
<trkpt lat="43.0485600000" lon="0.1288920000"><ele>838</ele><time>2026-03-21T07:38:36Z</time></trkpt>
<trkpt lat="43.0485720000" lon="0.1288730000"><ele>838</ele><time>2026-03-21T07:38:40Z</time></trkpt>
<trkpt lat="43.0485920000" lon="0.1288620000"><ele>839</ele><time>2026-03-21T07:38:43Z</time></trkpt>
<trkpt lat="43.0486130000" lon="0.1288770000"><ele>839</ele><time>2026-03-21T07:38:56Z</time></trkpt>
<trkpt lat="43.0486420000" lon="0.1288900000"><ele>839</ele><time>2026-03-21T07:38:58Z</time></trkpt>
<trkpt lat="43.0486620000" lon="0.1288950000"><ele>839</ele><time>2026-03-21T07:38:59Z</time></trkpt>
<trkpt lat="43.0486820000" lon="0.1288950000"><ele>839</ele><time>2026-03-21T07:39:00Z</time></trkpt>
<trkpt lat="43.0487120000" lon="0.1288820000"><ele>839</ele><time>2026-03-21T07:39:02Z</time></trkpt>
<trkpt lat="43.0487270000" lon="0.1288620000"><ele>840</ele><time>2026-03-21T07:39:04Z</time></trkpt>
<trkpt lat="43.0487470000" lon="0.1288520000"><ele>840</ele><time>2026-03-21T07:39:06Z</time></trkpt>
<trkpt lat="43.0487670000" lon="0.1288370000"><ele>840</ele><time>2026-03-21T07:39:08Z</time></trkpt>
<trkpt lat="43.0487920000" lon="0.1288270000"><ele>840</ele><time>2026-03-21T07:39:10Z</time></trkpt>
<trkpt lat="43.0488150000" lon="0.1288070000"><ele>841</ele><time>2026-03-21T07:39:13Z</time></trkpt>
<trkpt lat="43.0488270000" lon="0.1287900000"><ele>841</ele><time>2026-03-21T07:39:15Z</time></trkpt>
<trkpt lat="43.0488470000" lon="0.1287770000"><ele>841</ele><time>2026-03-21T07:39:17Z</time></trkpt>
<trkpt lat="43.0488620000" lon="0.1287670000"><ele>841</ele><time>2026-03-21T07:39:19Z</time></trkpt>
<trkpt lat="43.0488850000" lon="0.1287520000"><ele>842</ele><time>2026-03-21T07:39:22Z</time></trkpt>
<trkpt lat="43.0489070000" lon="0.1287450000"><ele>842</ele><time>2026-03-21T07:39:25Z</time></trkpt>
<trkpt lat="43.0489270000" lon="0.1287300000"><ele>842</ele><time>2026-03-21T07:39:28Z</time></trkpt>
<trkpt lat="43.0489420000" lon="0.1287120000"><ele>842</ele><time>2026-03-21T07:39:30Z</time></trkpt>
<trkpt lat="43.0489600000" lon="0.1286920000"><ele>843</ele><time>2026-03-21T07:39:33Z</time></trkpt>
<trkpt lat="43.0489800000" lon="0.1286700000"><ele>843</ele><time>2026-03-21T07:39:36Z</time></trkpt>
<trkpt lat="43.0489870000" lon="0.1286370000"><ele>844</ele><time>2026-03-21T07:39:39Z</time></trkpt>
<trkpt lat="43.0489970000" lon="0.1286050000"><ele>844</ele><time>2026-03-21T07:39:42Z</time></trkpt>
<trkpt lat="43.0489930000" lon="0.1285800000"><ele>844</ele><time>2026-03-21T07:39:45Z</time></trkpt>
<trkpt lat="43.0490120000" lon="0.1285720000"><ele>845</ele><time>2026-03-21T07:39:55Z</time></trkpt>
<trkpt lat="43.0490320000" lon="0.1285620000"><ele>845</ele><time>2026-03-21T07:39:57Z</time></trkpt>
<trkpt lat="43.0490370000" lon="0.1285320000"><ele>845</ele><time>2026-03-21T07:40:00Z</time></trkpt>
<trkpt lat="43.0490220000" lon="0.1284920000"><ele>845</ele><time>2026-03-21T07:40:03Z</time></trkpt>
<trkpt lat="43.0490120000" lon="0.1284620000"><ele>845</ele><time>2026-03-21T07:40:05Z</time></trkpt>
<trkpt lat="43.0490120000" lon="0.1284370000"><ele>845</ele><time>2026-03-21T07:40:07Z</time></trkpt>
<trkpt lat="43.0490050000" lon="0.1284070000"><ele>846</ele><time>2026-03-21T07:40:10Z</time></trkpt>
<trkpt lat="43.0490000000" lon="0.1283770000"><ele>846</ele><time>2026-03-21T07:40:13Z</time></trkpt>
<trkpt lat="43.0490120000" lon="0.1283600000"><ele>846</ele><time>2026-03-21T07:40:16Z</time></trkpt>
<trkpt lat="43.0490270000" lon="0.1283370000"><ele>846</ele><time>2026-03-21T07:40:18Z</time></trkpt>
<trkpt lat="43.0490270000" lon="0.1283070000"><ele>847</ele><time>2026-03-21T07:40:21Z</time></trkpt>
<trkpt lat="43.0490150000" lon="0.1282870000"><ele>847</ele><time>2026-03-21T07:40:22Z</time></trkpt>
<trkpt lat="43.0490150000" lon="0.1282470000"><ele>847</ele><time>2026-03-21T07:40:25Z</time></trkpt>
<trkpt lat="43.0490000000" lon="0.1282270000"><ele>847</ele><time>2026-03-21T07:40:27Z</time></trkpt>
<trkpt lat="43.0490100000" lon="0.1282020000"><ele>847</ele><time>2026-03-21T07:40:29Z</time></trkpt>
<trkpt lat="43.0490170000" lon="0.1281770000"><ele>848</ele><time>2026-03-21T07:40:31Z</time></trkpt>
<trkpt lat="43.0490270000" lon="0.1281520000"><ele>848</ele><time>2026-03-21T07:40:33Z</time></trkpt>
<trkpt lat="43.0490300000" lon="0.1281200000"><ele>848</ele><time>2026-03-21T07:40:35Z</time></trkpt>
<trkpt lat="43.0490320000" lon="0.1280870000"><ele>848</ele><time>2026-03-21T07:40:38Z</time></trkpt>
<trkpt lat="43.0490320000" lon="0.1280620000"><ele>849</ele><time>2026-03-21T07:40:40Z</time></trkpt>
<trkpt lat="43.0490220000" lon="0.1280350000"><ele>849</ele><time>2026-03-21T07:40:42Z</time></trkpt>
<trkpt lat="43.0490070000" lon="0.1280020000"><ele>849</ele><time>2026-03-21T07:40:45Z</time></trkpt>
<trkpt lat="43.0490000000" lon="0.1279670000"><ele>850</ele><time>2026-03-21T07:40:48Z</time></trkpt>
<trkpt lat="43.0490000000" lon="0.1279400000"><ele>850</ele><time>2026-03-21T07:40:50Z</time></trkpt>
<trkpt lat="43.0490120000" lon="0.1279170000"><ele>850</ele><time>2026-03-21T07:40:52Z</time></trkpt>
<trkpt lat="43.0490320000" lon="0.1278920000"><ele>850</ele><time>2026-03-21T07:40:54Z</time></trkpt>
<trkpt lat="43.0490420000" lon="0.1278530000"><ele>851</ele><time>2026-03-21T07:40:56Z</time></trkpt>
<trkpt lat="43.0490470000" lon="0.1278300000"><ele>851</ele><time>2026-03-21T07:40:58Z</time></trkpt>
<trkpt lat="43.0490670000" lon="0.1278020000"><ele>851</ele><time>2026-03-21T07:41:00Z</time></trkpt>
<trkpt lat="43.0490820000" lon="0.1277800000"><ele>852</ele><time>2026-03-21T07:41:03Z</time></trkpt>
<trkpt lat="43.0490920000" lon="0.1277550000"><ele>852</ele><time>2026-03-21T07:41:05Z</time></trkpt>
<trkpt lat="43.0490870000" lon="0.1277220000"><ele>852</ele><time>2026-03-21T07:41:08Z</time></trkpt>
<trkpt lat="43.0490850000" lon="0.1276920000"><ele>852</ele><time>2026-03-21T07:41:10Z</time></trkpt>
<trkpt lat="43.0490780000" lon="0.1276620000"><ele>852</ele><time>2026-03-21T07:41:12Z</time></trkpt>
<trkpt lat="43.0490620000" lon="0.1276320000"><ele>853</ele><time>2026-03-21T07:41:14Z</time></trkpt>
<trkpt lat="43.0490550000" lon="0.1276070000"><ele>853</ele><time>2026-03-21T07:41:16Z</time></trkpt>
<trkpt lat="43.0490420000" lon="0.1275770000"><ele>853</ele><time>2026-03-21T07:41:19Z</time></trkpt>
<trkpt lat="43.0490270000" lon="0.1275570000"><ele>853</ele><time>2026-03-21T07:41:21Z</time></trkpt>
<trkpt lat="43.0490120000" lon="0.1275350000"><ele>854</ele><time>2026-03-21T07:41:23Z</time></trkpt>
<trkpt lat="43.0490070000" lon="0.1275070000"><ele>854</ele><time>2026-03-21T07:41:25Z</time></trkpt>
<trkpt lat="43.0490070000" lon="0.1274820000"><ele>854</ele><time>2026-03-21T07:41:27Z</time></trkpt>
<trkpt lat="43.0490220000" lon="0.1274570000"><ele>854</ele><time>2026-03-21T07:41:29Z</time></trkpt>
<trkpt lat="43.0490450000" lon="0.1274320000"><ele>854</ele><time>2026-03-21T07:41:31Z</time></trkpt>
<trkpt lat="43.0490600000" lon="0.1274170000"><ele>855</ele><time>2026-03-21T07:41:33Z</time></trkpt>
<trkpt lat="43.0490650000" lon="0.1273920000"><ele>855</ele><time>2026-03-21T07:41:35Z</time></trkpt>
<trkpt lat="43.0490620000" lon="0.1273670000"><ele>855</ele><time>2026-03-21T07:41:37Z</time></trkpt>
<trkpt lat="43.0490780000" lon="0.1273420000"><ele>855</ele><time>2026-03-21T07:41:40Z</time></trkpt>
<trkpt lat="43.0490970000" lon="0.1273180000"><ele>856</ele><time>2026-03-21T07:41:42Z</time></trkpt>
<trkpt lat="43.0491100000" lon="0.1272980000"><ele>856</ele><time>2026-03-21T07:41:44Z</time></trkpt>
<trkpt lat="43.0491070000" lon="0.1272650000"><ele>856</ele><time>2026-03-21T07:41:48Z</time></trkpt>
<trkpt lat="43.0491100000" lon="0.1272320000"><ele>857</ele><time>2026-03-21T07:41:50Z</time></trkpt>
<trkpt lat="43.0491020000" lon="0.1271970000"><ele>857</ele><time>2026-03-21T07:41:52Z</time></trkpt>
<trkpt lat="43.0491020000" lon="0.1271670000"><ele>857</ele><time>2026-03-21T07:41:54Z</time></trkpt>
<trkpt lat="43.0491100000" lon="0.1271450000"><ele>857</ele><time>2026-03-21T07:41:56Z</time></trkpt>
<trkpt lat="43.0491450000" lon="0.1271200000"><ele>857</ele><time>2026-03-21T07:41:58Z</time></trkpt>
<trkpt lat="43.0491670000" lon="0.1271070000"><ele>857</ele><time>2026-03-21T07:42:01Z</time></trkpt>
<trkpt lat="43.0491820000" lon="0.1270870000"><ele>858</ele><time>2026-03-21T07:42:03Z</time></trkpt>
<trkpt lat="43.0491850000" lon="0.1270570000"><ele>858</ele><time>2026-03-21T07:42:05Z</time></trkpt>
<trkpt lat="43.0491950000" lon="0.1270370000"><ele>858</ele><time>2026-03-21T07:42:07Z</time></trkpt>
<trkpt lat="43.0492120000" lon="0.1270100000"><ele>858</ele><time>2026-03-21T07:42:10Z</time></trkpt>
<trkpt lat="43.0492170000" lon="0.1269770000"><ele>859</ele><time>2026-03-21T07:42:13Z</time></trkpt>
<trkpt lat="43.0492400000" lon="0.1269520000"><ele>859</ele><time>2026-03-21T07:42:17Z</time></trkpt>
<trkpt lat="43.0492520000" lon="0.1269280000"><ele>859</ele><time>2026-03-21T07:42:19Z</time></trkpt>
<trkpt lat="43.0492520000" lon="0.1269020000"><ele>859</ele><time>2026-03-21T07:42:21Z</time></trkpt>
<trkpt lat="43.0492550000" lon="0.1268770000"><ele>859</ele><time>2026-03-21T07:42:23Z</time></trkpt>
<trkpt lat="43.0492520000" lon="0.1268470000"><ele>859</ele><time>2026-03-21T07:42:25Z</time></trkpt>
<trkpt lat="43.0492520000" lon="0.1268220000"><ele>860</ele><time>2026-03-21T07:42:27Z</time></trkpt>
<trkpt lat="43.0492520000" lon="0.1267970000"><ele>860</ele><time>2026-03-21T07:42:29Z</time></trkpt>
<trkpt lat="43.0492470000" lon="0.1267720000"><ele>860</ele><time>2026-03-21T07:42:31Z</time></trkpt>
<trkpt lat="43.0492470000" lon="0.1267380000"><ele>861</ele><time>2026-03-21T07:42:34Z</time></trkpt>
<trkpt lat="43.0492420000" lon="0.1267120000"><ele>861</ele><time>2026-03-21T07:42:37Z</time></trkpt>
<trkpt lat="43.0492470000" lon="0.1266770000"><ele>861</ele><time>2026-03-21T07:42:40Z</time></trkpt>
<trkpt lat="43.0492550000" lon="0.1266520000"><ele>862</ele><time>2026-03-21T07:42:43Z</time></trkpt>
<trkpt lat="43.0492500000" lon="0.1266270000"><ele>862</ele><time>2026-03-21T07:42:46Z</time></trkpt>
<trkpt lat="43.0492500000" lon="0.1265970000"><ele>862</ele><time>2026-03-21T07:42:49Z</time></trkpt>
<trkpt lat="43.0492470000" lon="0.1265670000"><ele>862</ele><time>2026-03-21T07:42:51Z</time></trkpt>
<trkpt lat="43.0492500000" lon="0.1265420000"><ele>863</ele><time>2026-03-21T07:42:53Z</time></trkpt>
<trkpt lat="43.0492370000" lon="0.1265170000"><ele>863</ele><time>2026-03-21T07:42:56Z</time></trkpt>
<trkpt lat="43.0492270000" lon="0.1264920000"><ele>863</ele><time>2026-03-21T07:42:59Z</time></trkpt>
<trkpt lat="43.0492350000" lon="0.1264680000"><ele>864</ele><time>2026-03-21T07:43:01Z</time></trkpt>
<trkpt lat="43.0492550000" lon="0.1264470000"><ele>864</ele><time>2026-03-21T07:43:04Z</time></trkpt>
<trkpt lat="43.0492720000" lon="0.1264270000"><ele>864</ele><time>2026-03-21T07:43:06Z</time></trkpt>
<trkpt lat="43.0492770000" lon="0.1264020000"><ele>864</ele><time>2026-03-21T07:43:08Z</time></trkpt>
<trkpt lat="43.0492720000" lon="0.1263770000"><ele>865</ele><time>2026-03-21T07:43:10Z</time></trkpt>
<trkpt lat="43.0492700000" lon="0.1263480000"><ele>865</ele><time>2026-03-21T07:43:12Z</time></trkpt>
<trkpt lat="43.0492600000" lon="0.1263170000"><ele>865</ele><time>2026-03-21T07:43:15Z</time></trkpt>
<trkpt lat="43.0492550000" lon="0.1262920000"><ele>865</ele><time>2026-03-21T07:43:17Z</time></trkpt>
<trkpt lat="43.0492500000" lon="0.1262550000"><ele>866</ele><time>2026-03-21T07:43:20Z</time></trkpt>
<trkpt lat="43.0492470000" lon="0.1262170000"><ele>866</ele><time>2026-03-21T07:43:23Z</time></trkpt>
<trkpt lat="43.0492370000" lon="0.1261930000"><ele>866</ele><time>2026-03-21T07:43:25Z</time></trkpt>
<trkpt lat="43.0492320000" lon="0.1261700000"><ele>867</ele><time>2026-03-21T07:43:27Z</time></trkpt>
<trkpt lat="43.0492350000" lon="0.1261400000"><ele>867</ele><time>2026-03-21T07:43:29Z</time></trkpt>
<trkpt lat="43.0492350000" lon="0.1261120000"><ele>867</ele><time>2026-03-21T07:43:31Z</time></trkpt>
<trkpt lat="43.0492370000" lon="0.1260800000"><ele>867</ele><time>2026-03-21T07:43:34Z</time></trkpt>
<trkpt lat="43.0492370000" lon="0.1260530000"><ele>867</ele><time>2026-03-21T07:43:36Z</time></trkpt>
<trkpt lat="43.0492420000" lon="0.1260220000"><ele>868</ele><time>2026-03-21T07:43:39Z</time></trkpt>
<trkpt lat="43.0492520000" lon="0.1259970000"><ele>868</ele><time>2026-03-21T07:43:41Z</time></trkpt>
<trkpt lat="43.0492600000" lon="0.1259670000"><ele>868</ele><time>2026-03-21T07:43:43Z</time></trkpt>
<trkpt lat="43.0492700000" lon="0.1259380000"><ele>868</ele><time>2026-03-21T07:43:45Z</time></trkpt>
<trkpt lat="43.0492800000" lon="0.1259120000"><ele>868</ele><time>2026-03-21T07:43:47Z</time></trkpt>
<trkpt lat="43.0492870000" lon="0.1258870000"><ele>869</ele><time>2026-03-21T07:43:49Z</time></trkpt>
<trkpt lat="43.0492870000" lon="0.1258620000"><ele>869</ele><time>2026-03-21T07:43:51Z</time></trkpt>
<trkpt lat="43.0492920000" lon="0.1258350000"><ele>869</ele><time>2026-03-21T07:43:53Z</time></trkpt>
<trkpt lat="43.0492970000" lon="0.1258070000"><ele>869</ele><time>2026-03-21T07:43:55Z</time></trkpt>
<trkpt lat="43.0493070000" lon="0.1257770000"><ele>870</ele><time>2026-03-21T07:43:58Z</time></trkpt>
<trkpt lat="43.0493170000" lon="0.1257420000"><ele>870</ele><time>2026-03-21T07:44:01Z</time></trkpt>
<trkpt lat="43.0493270000" lon="0.1257200000"><ele>870</ele><time>2026-03-21T07:44:03Z</time></trkpt>
<trkpt lat="43.0493420000" lon="0.1256950000"><ele>870</ele><time>2026-03-21T07:44:06Z</time></trkpt>
<trkpt lat="43.0493600000" lon="0.1256780000"><ele>870</ele><time>2026-03-21T07:44:08Z</time></trkpt>
<trkpt lat="43.0493770000" lon="0.1256620000"><ele>871</ele><time>2026-03-21T07:44:10Z</time></trkpt>
<trkpt lat="43.0494020000" lon="0.1256420000"><ele>871</ele><time>2026-03-21T07:44:12Z</time></trkpt>
<trkpt lat="43.0494170000" lon="0.1256230000"><ele>871</ele><time>2026-03-21T07:44:14Z</time></trkpt>
<trkpt lat="43.0494200000" lon="0.1256000000"><ele>871</ele><time>2026-03-21T07:44:16Z</time></trkpt>
<trkpt lat="43.0494120000" lon="0.1255720000"><ele>872</ele><time>2026-03-21T07:44:19Z</time></trkpt>
<trkpt lat="43.0494050000" lon="0.1255370000"><ele>872</ele><time>2026-03-21T07:44:22Z</time></trkpt>
<trkpt lat="43.0494000000" lon="0.1255100000"><ele>872</ele><time>2026-03-21T07:44:24Z</time></trkpt>
<trkpt lat="43.0493770000" lon="0.1254920000"><ele>873</ele><time>2026-03-21T07:44:28Z</time></trkpt>
<trkpt lat="43.0493520000" lon="0.1254800000"><ele>873</ele><time>2026-03-21T07:45:22Z</time></trkpt>
<trkpt lat="43.0493320000" lon="0.1254570000"><ele>873</ele><time>2026-03-21T07:45:24Z</time></trkpt>
<trkpt lat="43.0493270000" lon="0.1254300000"><ele>873</ele><time>2026-03-21T07:45:27Z</time></trkpt>
<trkpt lat="43.0493220000" lon="0.1254030000"><ele>873</ele><time>2026-03-21T07:45:30Z</time></trkpt>
<trkpt lat="43.0493170000" lon="0.1253670000"><ele>874</ele><time>2026-03-21T07:45:32Z</time></trkpt>
<trkpt lat="43.0493030000" lon="0.1253350000"><ele>874</ele><time>2026-03-21T07:45:34Z</time></trkpt>
<trkpt lat="43.0492970000" lon="0.1253000000"><ele>874</ele><time>2026-03-21T07:45:36Z</time></trkpt>
<trkpt lat="43.0492970000" lon="0.1252620000"><ele>875</ele><time>2026-03-21T07:45:38Z</time></trkpt>
<trkpt lat="43.0492970000" lon="0.1252370000"><ele>875</ele><time>2026-03-21T07:45:40Z</time></trkpt>
<trkpt lat="43.0492970000" lon="0.1252070000"><ele>875</ele><time>2026-03-21T07:45:42Z</time></trkpt>
<trkpt lat="43.0492870000" lon="0.1251820000"><ele>875</ele><time>2026-03-21T07:45:44Z</time></trkpt>
<trkpt lat="43.0492800000" lon="0.1251520000"><ele>876</ele><time>2026-03-21T07:45:46Z</time></trkpt>
<trkpt lat="43.0492770000" lon="0.1251220000"><ele>876</ele><time>2026-03-21T07:45:48Z</time></trkpt>
<trkpt lat="43.0492900000" lon="0.1250920000"><ele>876</ele><time>2026-03-21T07:45:50Z</time></trkpt>
<trkpt lat="43.0493020000" lon="0.1250670000"><ele>876</ele><time>2026-03-21T07:45:52Z</time></trkpt>
<trkpt lat="43.0492970000" lon="0.1250370000"><ele>877</ele><time>2026-03-21T07:45:54Z</time></trkpt>
<trkpt lat="43.0492920000" lon="0.1250100000"><ele>877</ele><time>2026-03-21T07:45:56Z</time></trkpt>
<trkpt lat="43.0492820000" lon="0.1249820000"><ele>877</ele><time>2026-03-21T07:45:58Z</time></trkpt>
<trkpt lat="43.0492720000" lon="0.1249570000"><ele>877</ele><time>2026-03-21T07:46:00Z</time></trkpt>
<trkpt lat="43.0492670000" lon="0.1249270000"><ele>878</ele><time>2026-03-21T07:46:02Z</time></trkpt>
<trkpt lat="43.0492600000" lon="0.1249020000"><ele>878</ele><time>2026-03-21T07:46:04Z</time></trkpt>
<trkpt lat="43.0492520000" lon="0.1248670000"><ele>878</ele><time>2026-03-21T07:46:07Z</time></trkpt>
<trkpt lat="43.0492470000" lon="0.1248320000"><ele>879</ele><time>2026-03-21T07:46:10Z</time></trkpt>
<trkpt lat="43.0492370000" lon="0.1248100000"><ele>879</ele><time>2026-03-21T07:46:12Z</time></trkpt>
<trkpt lat="43.0492320000" lon="0.1247820000"><ele>879</ele><time>2026-03-21T07:46:14Z</time></trkpt>
<trkpt lat="43.0492270000" lon="0.1247570000"><ele>879</ele><time>2026-03-21T07:46:16Z</time></trkpt>
<trkpt lat="43.0492170000" lon="0.1247270000"><ele>879</ele><time>2026-03-21T07:46:18Z</time></trkpt>
<trkpt lat="43.0492120000" lon="0.1246970000"><ele>880</ele><time>2026-03-21T07:46:20Z</time></trkpt>
<trkpt lat="43.0492220000" lon="0.1246700000"><ele>880</ele><time>2026-03-21T07:46:22Z</time></trkpt>
<trkpt lat="43.0492180000" lon="0.1246450000"><ele>880</ele><time>2026-03-21T07:46:24Z</time></trkpt>
<trkpt lat="43.0492170000" lon="0.1246170000"><ele>880</ele><time>2026-03-21T07:46:26Z</time></trkpt>
<trkpt lat="43.0492070000" lon="0.1245930000"><ele>881</ele><time>2026-03-21T07:46:28Z</time></trkpt>
<trkpt lat="43.0491920000" lon="0.1245620000"><ele>881</ele><time>2026-03-21T07:46:31Z</time></trkpt>
<trkpt lat="43.0491900000" lon="0.1245320000"><ele>881</ele><time>2026-03-21T07:46:34Z</time></trkpt>
<trkpt lat="43.0491920000" lon="0.1245050000"><ele>882</ele><time>2026-03-21T07:46:37Z</time></trkpt>
<trkpt lat="43.0491920000" lon="0.1244780000"><ele>882</ele><time>2026-03-21T07:46:40Z</time></trkpt>
<trkpt lat="43.0491800000" lon="0.1244570000"><ele>882</ele><time>2026-03-21T07:46:42Z</time></trkpt>
<trkpt lat="43.0491620000" lon="0.1244350000"><ele>882</ele><time>2026-03-21T07:46:44Z</time></trkpt>
<trkpt lat="43.0491520000" lon="0.1244100000"><ele>883</ele><time>2026-03-21T07:46:46Z</time></trkpt>
<trkpt lat="43.0491420000" lon="0.1243820000"><ele>883</ele><time>2026-03-21T07:46:48Z</time></trkpt>
<trkpt lat="43.0491270000" lon="0.1243550000"><ele>883</ele><time>2026-03-21T07:46:50Z</time></trkpt>
<trkpt lat="43.0491070000" lon="0.1243320000"><ele>884</ele><time>2026-03-21T07:46:52Z</time></trkpt>
<trkpt lat="43.0491070000" lon="0.1243000000"><ele>884</ele><time>2026-03-21T07:46:55Z</time></trkpt>
<trkpt lat="43.0491050000" lon="0.1242720000"><ele>884</ele><time>2026-03-21T07:46:57Z</time></trkpt>
<trkpt lat="43.0491050000" lon="0.1242320000"><ele>884</ele><time>2026-03-21T07:46:59Z</time></trkpt>
<trkpt lat="43.0491150000" lon="0.1242000000"><ele>884</ele><time>2026-03-21T07:47:01Z</time></trkpt>
<trkpt lat="43.0491200000" lon="0.1241700000"><ele>885</ele><time>2026-03-21T07:47:04Z</time></trkpt>
<trkpt lat="43.0491100000" lon="0.1241370000"><ele>885</ele><time>2026-03-21T07:47:08Z</time></trkpt>
<trkpt lat="43.0491000000" lon="0.1241120000"><ele>886</ele><time>2026-03-21T07:47:10Z</time></trkpt>
<trkpt lat="43.0490900000" lon="0.1240820000"><ele>886</ele><time>2026-03-21T07:47:13Z</time></trkpt>
<trkpt lat="43.0490770000" lon="0.1240500000"><ele>886</ele><time>2026-03-21T07:47:16Z</time></trkpt>
<trkpt lat="43.0490670000" lon="0.1240170000"><ele>887</ele><time>2026-03-21T07:47:19Z</time></trkpt>
<trkpt lat="43.0490570000" lon="0.1239900000"><ele>887</ele><time>2026-03-21T07:47:22Z</time></trkpt>
<trkpt lat="43.0490600000" lon="0.1239570000"><ele>887</ele><time>2026-03-21T07:47:25Z</time></trkpt>
<trkpt lat="43.0490420000" lon="0.1239470000"><ele>888</ele><time>2026-03-21T07:47:28Z</time></trkpt>
<trkpt lat="43.0490270000" lon="0.1239170000"><ele>888</ele><time>2026-03-21T07:47:31Z</time></trkpt>
<trkpt lat="43.0490220000" lon="0.1238850000"><ele>889</ele><time>2026-03-21T07:47:34Z</time></trkpt>
<trkpt lat="43.0490170000" lon="0.1238600000"><ele>889</ele><time>2026-03-21T07:47:36Z</time></trkpt>
<trkpt lat="43.0490020000" lon="0.1238320000"><ele>889</ele><time>2026-03-21T07:47:39Z</time></trkpt>
<trkpt lat="43.0489870000" lon="0.1238020000"><ele>889</ele><time>2026-03-21T07:47:42Z</time></trkpt>
<trkpt lat="43.0489800000" lon="0.1237750000"><ele>890</ele><time>2026-03-21T07:47:44Z</time></trkpt>
<trkpt lat="43.0489620000" lon="0.1237550000"><ele>891</ele><time>2026-03-21T07:47:51Z</time></trkpt>
<trkpt lat="43.0489570000" lon="0.1237220000"><ele>891</ele><time>2026-03-21T07:47:53Z</time></trkpt>
<trkpt lat="43.0489320000" lon="0.1237000000"><ele>891</ele><time>2026-03-21T07:48:19Z</time></trkpt>
<trkpt lat="43.0489050000" lon="0.1236700000"><ele>891</ele><time>2026-03-21T07:48:21Z</time></trkpt>
<trkpt lat="43.0488820000" lon="0.1236350000"><ele>891</ele><time>2026-03-21T07:48:23Z</time></trkpt>
<trkpt lat="43.0488670000" lon="0.1236050000"><ele>891</ele><time>2026-03-21T07:48:24Z</time></trkpt>
<trkpt lat="43.0488520000" lon="0.1235750000"><ele>891</ele><time>2026-03-21T07:48:26Z</time></trkpt>
<trkpt lat="43.0488370000" lon="0.1235450000"><ele>892</ele><time>2026-03-21T07:48:30Z</time></trkpt>
<trkpt lat="43.0488270000" lon="0.1235170000"><ele>892</ele><time>2026-03-21T07:48:34Z</time></trkpt>
<trkpt lat="43.0488100000" lon="0.1234970000"><ele>892</ele><time>2026-03-21T07:48:37Z</time></trkpt>
<trkpt lat="43.0487920000" lon="0.1234920000"><ele>892</ele><time>2026-03-21T07:48:39Z</time></trkpt>
<trkpt lat="43.0487720000" lon="0.1234830000"><ele>893</ele><time>2026-03-21T07:48:41Z</time></trkpt>
<trkpt lat="43.0487520000" lon="0.1234820000"><ele>893</ele><time>2026-03-21T07:48:43Z</time></trkpt>
<trkpt lat="43.0487370000" lon="0.1234650000"><ele>893</ele><time>2026-03-21T07:48:45Z</time></trkpt>
<trkpt lat="43.0487220000" lon="0.1234380000"><ele>893</ele><time>2026-03-21T07:48:47Z</time></trkpt>
<trkpt lat="43.0487070000" lon="0.1234130000"><ele>893</ele><time>2026-03-21T07:48:49Z</time></trkpt>
<trkpt lat="43.0486870000" lon="0.1234020000"><ele>893</ele><time>2026-03-21T07:48:51Z</time></trkpt>
<trkpt lat="43.0486620000" lon="0.1233870000"><ele>894</ele><time>2026-03-21T07:48:53Z</time></trkpt>
<trkpt lat="43.0486420000" lon="0.1233750000"><ele>894</ele><time>2026-03-21T07:48:55Z</time></trkpt>
<trkpt lat="43.0486250000" lon="0.1233650000"><ele>894</ele><time>2026-03-21T07:48:57Z</time></trkpt>
<trkpt lat="43.0486020000" lon="0.1233570000"><ele>894</ele><time>2026-03-21T07:48:59Z</time></trkpt>
<trkpt lat="43.0485820000" lon="0.1233620000"><ele>895</ele><time>2026-03-21T07:49:01Z</time></trkpt>
<trkpt lat="43.0485570000" lon="0.1233550000"><ele>895</ele><time>2026-03-21T07:49:03Z</time></trkpt>
<trkpt lat="43.0485370000" lon="0.1233550000"><ele>895</ele><time>2026-03-21T07:49:05Z</time></trkpt>
<trkpt lat="43.0485170000" lon="0.1233600000"><ele>895</ele><time>2026-03-21T07:49:07Z</time></trkpt>
<trkpt lat="43.0484950000" lon="0.1233520000"><ele>895</ele><time>2026-03-21T07:49:09Z</time></trkpt>
<trkpt lat="43.0484670000" lon="0.1233420000"><ele>896</ele><time>2026-03-21T07:49:11Z</time></trkpt>
<trkpt lat="43.0484520000" lon="0.1233320000"><ele>896</ele><time>2026-03-21T07:49:13Z</time></trkpt>
<trkpt lat="43.0484320000" lon="0.1233250000"><ele>896</ele><time>2026-03-21T07:49:15Z</time></trkpt>
<trkpt lat="43.0484120000" lon="0.1233270000"><ele>896</ele><time>2026-03-21T07:49:17Z</time></trkpt>
<trkpt lat="43.0483950000" lon="0.1233120000"><ele>897</ele><time>2026-03-21T07:49:19Z</time></trkpt>
<trkpt lat="43.0483720000" lon="0.1232950000"><ele>897</ele><time>2026-03-21T07:49:22Z</time></trkpt>
<trkpt lat="43.0483470000" lon="0.1233150000"><ele>897</ele><time>2026-03-21T07:49:26Z</time></trkpt>
<trkpt lat="43.0483250000" lon="0.1233220000"><ele>897</ele><time>2026-03-21T07:49:28Z</time></trkpt>
<trkpt lat="43.0483070000" lon="0.1233070000"><ele>898</ele><time>2026-03-21T07:49:30Z</time></trkpt>
<trkpt lat="43.0482820000" lon="0.1232870000"><ele>898</ele><time>2026-03-21T07:49:32Z</time></trkpt>
<trkpt lat="43.0482650000" lon="0.1232780000"><ele>898</ele><time>2026-03-21T07:49:33Z</time></trkpt>
<trkpt lat="43.0482400000" lon="0.1232570000"><ele>898</ele><time>2026-03-21T07:49:35Z</time></trkpt>
<trkpt lat="43.0482170000" lon="0.1232350000"><ele>898</ele><time>2026-03-21T07:49:37Z</time></trkpt>
<trkpt lat="43.0481950000" lon="0.1232220000"><ele>898</ele><time>2026-03-21T07:49:39Z</time></trkpt>
<trkpt lat="43.0481770000" lon="0.1232120000"><ele>898</ele><time>2026-03-21T07:49:41Z</time></trkpt>
<trkpt lat="43.0481570000" lon="0.1231850000"><ele>898</ele><time>2026-03-21T07:49:44Z</time></trkpt>
<trkpt lat="43.0481450000" lon="0.1231620000"><ele>899</ele><time>2026-03-21T07:49:46Z</time></trkpt>
<trkpt lat="43.0481320000" lon="0.1231420000"><ele>899</ele><time>2026-03-21T07:49:48Z</time></trkpt>
<trkpt lat="43.0481270000" lon="0.1231170000"><ele>899</ele><time>2026-03-21T07:49:50Z</time></trkpt>
<trkpt lat="43.0481120000" lon="0.1230930000"><ele>899</ele><time>2026-03-21T07:49:52Z</time></trkpt>
<trkpt lat="43.0480920000" lon="0.1230670000"><ele>899</ele><time>2026-03-21T07:49:55Z</time></trkpt>
<trkpt lat="43.0480770000" lon="0.1230470000"><ele>900</ele><time>2026-03-21T07:49:58Z</time></trkpt>
<trkpt lat="43.0480700000" lon="0.1230200000"><ele>900</ele><time>2026-03-21T07:50:00Z</time></trkpt>
<trkpt lat="43.0480550000" lon="0.1230020000"><ele>900</ele><time>2026-03-21T07:50:02Z</time></trkpt>
<trkpt lat="43.0480300000" lon="0.1229970000"><ele>900</ele><time>2026-03-21T07:50:04Z</time></trkpt>
<trkpt lat="43.0480080000" lon="0.1229720000"><ele>900</ele><time>2026-03-21T07:50:06Z</time></trkpt>
<trkpt lat="43.0480070000" lon="0.1229450000"><ele>900</ele><time>2026-03-21T07:50:08Z</time></trkpt>
<trkpt lat="43.0480020000" lon="0.1229200000"><ele>901</ele><time>2026-03-21T07:50:11Z</time></trkpt>
<trkpt lat="43.0479850000" lon="0.1229070000"><ele>901</ele><time>2026-03-21T07:50:13Z</time></trkpt>
<trkpt lat="43.0479600000" lon="0.1228900000"><ele>901</ele><time>2026-03-21T07:50:15Z</time></trkpt>
<trkpt lat="43.0479380000" lon="0.1228620000"><ele>901</ele><time>2026-03-21T07:50:17Z</time></trkpt>
<trkpt lat="43.0479250000" lon="0.1228350000"><ele>901</ele><time>2026-03-21T07:50:19Z</time></trkpt>
<trkpt lat="43.0478970000" lon="0.1228120000"><ele>902</ele><time>2026-03-21T07:50:21Z</time></trkpt>
<trkpt lat="43.0478700000" lon="0.1227970000"><ele>902</ele><time>2026-03-21T07:50:23Z</time></trkpt>
<trkpt lat="43.0478450000" lon="0.1227820000"><ele>902</ele><time>2026-03-21T07:50:25Z</time></trkpt>
<trkpt lat="43.0478250000" lon="0.1227750000"><ele>902</ele><time>2026-03-21T07:50:26Z</time></trkpt>
<trkpt lat="43.0478070000" lon="0.1227420000"><ele>902</ele><time>2026-03-21T07:50:28Z</time></trkpt>
<trkpt lat="43.0477970000" lon="0.1227170000"><ele>902</ele><time>2026-03-21T07:50:30Z</time></trkpt>
<trkpt lat="43.0477830000" lon="0.1226970000"><ele>902</ele><time>2026-03-21T07:50:32Z</time></trkpt>
<trkpt lat="43.0477650000" lon="0.1226770000"><ele>903</ele><time>2026-03-21T07:50:34Z</time></trkpt>
<trkpt lat="43.0477500000" lon="0.1226570000"><ele>903</ele><time>2026-03-21T07:50:36Z</time></trkpt>
<trkpt lat="43.0477470000" lon="0.1226300000"><ele>903</ele><time>2026-03-21T07:50:39Z</time></trkpt>
<trkpt lat="43.0477320000" lon="0.1225970000"><ele>903</ele><time>2026-03-21T07:50:42Z</time></trkpt>
<trkpt lat="43.0477050000" lon="0.1225520000"><ele>903</ele><time>2026-03-21T07:50:44Z</time></trkpt>
<trkpt lat="43.0476900000" lon="0.1225270000"><ele>903</ele><time>2026-03-21T07:50:46Z</time></trkpt>
<trkpt lat="43.0476870000" lon="0.1225020000"><ele>904</ele><time>2026-03-21T07:50:48Z</time></trkpt>
<trkpt lat="43.0476820000" lon="0.1224720000"><ele>904</ele><time>2026-03-21T07:50:51Z</time></trkpt>
<trkpt lat="43.0476700000" lon="0.1224570000"><ele>904</ele><time>2026-03-21T07:50:53Z</time></trkpt>
<trkpt lat="43.0476550000" lon="0.1224320000"><ele>905</ele><time>2026-03-21T07:50:57Z</time></trkpt>
<trkpt lat="43.0476420000" lon="0.1224050000"><ele>905</ele><time>2026-03-21T07:50:59Z</time></trkpt>
<trkpt lat="43.0476270000" lon="0.1223770000"><ele>905</ele><time>2026-03-21T07:51:01Z</time></trkpt>
<trkpt lat="43.0476150000" lon="0.1223520000"><ele>905</ele><time>2026-03-21T07:51:03Z</time></trkpt>
<trkpt lat="43.0476070000" lon="0.1223170000"><ele>905</ele><time>2026-03-21T07:51:05Z</time></trkpt>
<trkpt lat="43.0475920000" lon="0.1222920000"><ele>905</ele><time>2026-03-21T07:51:08Z</time></trkpt>
<trkpt lat="43.0475820000" lon="0.1222670000"><ele>906</ele><time>2026-03-21T07:51:10Z</time></trkpt>
<trkpt lat="43.0475670000" lon="0.1222450000"><ele>906</ele><time>2026-03-21T07:51:12Z</time></trkpt>
<trkpt lat="43.0475470000" lon="0.1222300000"><ele>906</ele><time>2026-03-21T07:51:14Z</time></trkpt>
<trkpt lat="43.0475250000" lon="0.1222150000"><ele>906</ele><time>2026-03-21T07:51:17Z</time></trkpt>
<trkpt lat="43.0475120000" lon="0.1221920000"><ele>906</ele><time>2026-03-21T07:51:19Z</time></trkpt>
<trkpt lat="43.0474950000" lon="0.1221770000"><ele>907</ele><time>2026-03-21T07:51:22Z</time></trkpt>
<trkpt lat="43.0474850000" lon="0.1221520000"><ele>907</ele><time>2026-03-21T07:51:24Z</time></trkpt>
<trkpt lat="43.0474720000" lon="0.1221320000"><ele>907</ele><time>2026-03-21T07:51:26Z</time></trkpt>
<trkpt lat="43.0474550000" lon="0.1221200000"><ele>907</ele><time>2026-03-21T07:51:28Z</time></trkpt>
<trkpt lat="43.0474400000" lon="0.1220970000"><ele>907</ele><time>2026-03-21T07:51:30Z</time></trkpt>
<trkpt lat="43.0474250000" lon="0.1220670000"><ele>907</ele><time>2026-03-21T07:51:32Z</time></trkpt>
<trkpt lat="43.0474220000" lon="0.1220370000"><ele>908</ele><time>2026-03-21T07:51:35Z</time></trkpt>
<trkpt lat="43.0474070000" lon="0.1220070000"><ele>908</ele><time>2026-03-21T07:51:38Z</time></trkpt>
<trkpt lat="43.0474000000" lon="0.1219820000"><ele>908</ele><time>2026-03-21T07:51:39Z</time></trkpt>
<trkpt lat="43.0473920000" lon="0.1219580000"><ele>908</ele><time>2026-03-21T07:51:40Z</time></trkpt>
<trkpt lat="43.0473720000" lon="0.1219420000"><ele>908</ele><time>2026-03-21T07:51:42Z</time></trkpt>
<trkpt lat="43.0473600000" lon="0.1219200000"><ele>908</ele><time>2026-03-21T07:51:45Z</time></trkpt>
<trkpt lat="43.0473570000" lon="0.1218920000"><ele>908</ele><time>2026-03-21T07:51:47Z</time></trkpt>
<trkpt lat="43.0473320000" lon="0.1218620000"><ele>909</ele><time>2026-03-21T07:51:50Z</time></trkpt>
<trkpt lat="43.0473120000" lon="0.1218470000"><ele>909</ele><time>2026-03-21T07:51:52Z</time></trkpt>
<trkpt lat="43.0472950000" lon="0.1218180000"><ele>909</ele><time>2026-03-21T07:51:54Z</time></trkpt>
<trkpt lat="43.0472900000" lon="0.1217950000"><ele>909</ele><time>2026-03-21T07:51:56Z</time></trkpt>
<trkpt lat="43.0472920000" lon="0.1217670000"><ele>910</ele><time>2026-03-21T07:51:58Z</time></trkpt>
<trkpt lat="43.0472920000" lon="0.1217420000"><ele>910</ele><time>2026-03-21T07:52:00Z</time></trkpt>
<trkpt lat="43.0472920000" lon="0.1217120000"><ele>910</ele><time>2026-03-21T07:52:02Z</time></trkpt>
<trkpt lat="43.0473020000" lon="0.1216920000"><ele>910</ele><time>2026-03-21T07:52:03Z</time></trkpt>
<trkpt lat="43.0473020000" lon="0.1216500000"><ele>910</ele><time>2026-03-21T07:52:06Z</time></trkpt>
<trkpt lat="43.0473070000" lon="0.1216130000"><ele>910</ele><time>2026-03-21T07:52:08Z</time></trkpt>
<trkpt lat="43.0473220000" lon="0.1215800000"><ele>911</ele><time>2026-03-21T07:52:10Z</time></trkpt>
<trkpt lat="43.0473370000" lon="0.1215570000"><ele>911</ele><time>2026-03-21T07:52:12Z</time></trkpt>
<trkpt lat="43.0473550000" lon="0.1215300000"><ele>911</ele><time>2026-03-21T07:52:14Z</time></trkpt>
<trkpt lat="43.0473650000" lon="0.1215070000"><ele>911</ele><time>2026-03-21T07:52:16Z</time></trkpt>
<trkpt lat="43.0473770000" lon="0.1214870000"><ele>911</ele><time>2026-03-21T07:52:18Z</time></trkpt>
<trkpt lat="43.0473950000" lon="0.1214650000"><ele>911</ele><time>2026-03-21T07:52:20Z</time></trkpt>
<trkpt lat="43.0474020000" lon="0.1214270000"><ele>911</ele><time>2026-03-21T07:52:22Z</time></trkpt>
<trkpt lat="43.0474150000" lon="0.1213850000"><ele>911</ele><time>2026-03-21T07:52:24Z</time></trkpt>
<trkpt lat="43.0474170000" lon="0.1213580000"><ele>911</ele><time>2026-03-21T07:52:25Z</time></trkpt>
<trkpt lat="43.0474270000" lon="0.1213170000"><ele>912</ele><time>2026-03-21T07:52:27Z</time></trkpt>
<trkpt lat="43.0474350000" lon="0.1212920000"><ele>912</ele><time>2026-03-21T07:52:28Z</time></trkpt>
<trkpt lat="43.0474420000" lon="0.1212520000"><ele>912</ele><time>2026-03-21T07:52:30Z</time></trkpt>
<trkpt lat="43.0474470000" lon="0.1212180000"><ele>912</ele><time>2026-03-21T07:52:32Z</time></trkpt>
<trkpt lat="43.0474570000" lon="0.1211920000"><ele>912</ele><time>2026-03-21T07:52:34Z</time></trkpt>
<trkpt lat="43.0474670000" lon="0.1211670000"><ele>912</ele><time>2026-03-21T07:52:36Z</time></trkpt>
<trkpt lat="43.0474870000" lon="0.1211450000"><ele>913</ele><time>2026-03-21T07:52:39Z</time></trkpt>
<trkpt lat="43.0474970000" lon="0.1211170000"><ele>913</ele><time>2026-03-21T07:52:41Z</time></trkpt>
<trkpt lat="43.0475070000" lon="0.1210870000"><ele>913</ele><time>2026-03-21T07:52:43Z</time></trkpt>
<trkpt lat="43.0475270000" lon="0.1210620000"><ele>913</ele><time>2026-03-21T07:52:45Z</time></trkpt>
<trkpt lat="43.0475370000" lon="0.1210270000"><ele>914</ele><time>2026-03-21T07:52:48Z</time></trkpt>
<trkpt lat="43.0475620000" lon="0.1210150000"><ele>914</ele><time>2026-03-21T07:52:50Z</time></trkpt>
<trkpt lat="43.0475750000" lon="0.1209920000"><ele>914</ele><time>2026-03-21T07:52:52Z</time></trkpt>
<trkpt lat="43.0475870000" lon="0.1209720000"><ele>914</ele><time>2026-03-21T07:52:54Z</time></trkpt>
<trkpt lat="43.0475970000" lon="0.1209420000"><ele>914</ele><time>2026-03-21T07:52:56Z</time></trkpt>
<trkpt lat="43.0476020000" lon="0.1209120000"><ele>914</ele><time>2026-03-21T07:52:58Z</time></trkpt>
<trkpt lat="43.0476220000" lon="0.1208900000"><ele>915</ele><time>2026-03-21T07:53:00Z</time></trkpt>
<trkpt lat="43.0476320000" lon="0.1208670000"><ele>915</ele><time>2026-03-21T07:53:02Z</time></trkpt>
<trkpt lat="43.0476420000" lon="0.1208420000"><ele>915</ele><time>2026-03-21T07:53:04Z</time></trkpt>
<trkpt lat="43.0476600000" lon="0.1208150000"><ele>915</ele><time>2026-03-21T07:53:07Z</time></trkpt>
<trkpt lat="43.0476670000" lon="0.1207820000"><ele>915</ele><time>2026-03-21T07:53:10Z</time></trkpt>
<trkpt lat="43.0476770000" lon="0.1207600000"><ele>915</ele><time>2026-03-21T07:53:12Z</time></trkpt>
<trkpt lat="43.0476820000" lon="0.1207300000"><ele>915</ele><time>2026-03-21T07:53:14Z</time></trkpt>
<trkpt lat="43.0476900000" lon="0.1207050000"><ele>916</ele><time>2026-03-21T07:53:17Z</time></trkpt>
<trkpt lat="43.0476970000" lon="0.1206750000"><ele>916</ele><time>2026-03-21T07:53:19Z</time></trkpt>
<trkpt lat="43.0477020000" lon="0.1206420000"><ele>916</ele><time>2026-03-21T07:53:21Z</time></trkpt>
<trkpt lat="43.0477130000" lon="0.1206170000"><ele>916</ele><time>2026-03-21T07:53:23Z</time></trkpt>
<trkpt lat="43.0477170000" lon="0.1205900000"><ele>916</ele><time>2026-03-21T07:53:26Z</time></trkpt>
<trkpt lat="43.0477070000" lon="0.1205670000"><ele>917</ele><time>2026-03-21T07:53:28Z</time></trkpt>
<trkpt lat="43.0477050000" lon="0.1205420000"><ele>917</ele><time>2026-03-21T07:53:30Z</time></trkpt>
<trkpt lat="43.0477020000" lon="0.1205070000"><ele>917</ele><time>2026-03-21T07:53:32Z</time></trkpt>
<trkpt lat="43.0477020000" lon="0.1204770000"><ele>917</ele><time>2026-03-21T07:53:34Z</time></trkpt>
<trkpt lat="43.0477000000" lon="0.1204420000"><ele>918</ele><time>2026-03-21T07:53:36Z</time></trkpt>
<trkpt lat="43.0477000000" lon="0.1204020000"><ele>918</ele><time>2026-03-21T07:53:38Z</time></trkpt>
<trkpt lat="43.0476970000" lon="0.1203670000"><ele>918</ele><time>2026-03-21T07:53:40Z</time></trkpt>
<trkpt lat="43.0477170000" lon="0.1203320000"><ele>918</ele><time>2026-03-21T07:53:42Z</time></trkpt>
<trkpt lat="43.0477270000" lon="0.1203000000"><ele>918</ele><time>2026-03-21T07:53:44Z</time></trkpt>
<trkpt lat="43.0477320000" lon="0.1202670000"><ele>919</ele><time>2026-03-21T07:53:46Z</time></trkpt>
<trkpt lat="43.0477370000" lon="0.1202300000"><ele>919</ele><time>2026-03-21T07:53:48Z</time></trkpt>
<trkpt lat="43.0477420000" lon="0.1202020000"><ele>919</ele><time>2026-03-21T07:53:51Z</time></trkpt>
<trkpt lat="43.0477470000" lon="0.1201750000"><ele>919</ele><time>2026-03-21T07:53:53Z</time></trkpt>
<trkpt lat="43.0477520000" lon="0.1201450000"><ele>919</ele><time>2026-03-21T07:53:57Z</time></trkpt>
<trkpt lat="43.0477570000" lon="0.1201200000"><ele>920</ele><time>2026-03-21T07:53:59Z</time></trkpt>
<trkpt lat="43.0477820000" lon="0.1201070000"><ele>920</ele><time>2026-03-21T07:54:01Z</time></trkpt>
<trkpt lat="43.0477950000" lon="0.1200830000"><ele>920</ele><time>2026-03-21T07:54:03Z</time></trkpt>
<trkpt lat="43.0478120000" lon="0.1200550000"><ele>920</ele><time>2026-03-21T07:54:06Z</time></trkpt>
<trkpt lat="43.0478020000" lon="0.1200270000"><ele>920</ele><time>2026-03-21T07:54:08Z</time></trkpt>
<trkpt lat="43.0478120000" lon="0.1200020000"><ele>920</ele><time>2026-03-21T07:54:10Z</time></trkpt>
<trkpt lat="43.0478220000" lon="0.1199720000"><ele>920</ele><time>2026-03-21T07:54:12Z</time></trkpt>
<trkpt lat="43.0478220000" lon="0.1199420000"><ele>921</ele><time>2026-03-21T07:54:15Z</time></trkpt>
<trkpt lat="43.0478270000" lon="0.1199170000"><ele>921</ele><time>2026-03-21T07:54:17Z</time></trkpt>
<trkpt lat="43.0478220000" lon="0.1198870000"><ele>921</ele><time>2026-03-21T07:54:19Z</time></trkpt>
<trkpt lat="43.0478150000" lon="0.1198620000"><ele>921</ele><time>2026-03-21T07:54:22Z</time></trkpt>
<trkpt lat="43.0478250000" lon="0.1198270000"><ele>921</ele><time>2026-03-21T07:54:25Z</time></trkpt>
<trkpt lat="43.0478370000" lon="0.1197950000"><ele>922</ele><time>2026-03-21T07:54:27Z</time></trkpt>
<trkpt lat="43.0478470000" lon="0.1197600000"><ele>922</ele><time>2026-03-21T07:54:29Z</time></trkpt>
<trkpt lat="43.0478700000" lon="0.1197330000"><ele>922</ele><time>2026-03-21T07:54:31Z</time></trkpt>
<trkpt lat="43.0478900000" lon="0.1197120000"><ele>922</ele><time>2026-03-21T07:54:33Z</time></trkpt>
<trkpt lat="43.0479020000" lon="0.1196870000"><ele>922</ele><time>2026-03-21T07:54:35Z</time></trkpt>
<trkpt lat="43.0479120000" lon="0.1196620000"><ele>922</ele><time>2026-03-21T07:54:37Z</time></trkpt>
<trkpt lat="43.0479220000" lon="0.1196270000"><ele>923</ele><time>2026-03-21T07:54:40Z</time></trkpt>
<trkpt lat="43.0479320000" lon="0.1196070000"><ele>923</ele><time>2026-03-21T07:54:42Z</time></trkpt>
<trkpt lat="43.0479420000" lon="0.1195820000"><ele>923</ele><time>2026-03-21T07:54:44Z</time></trkpt>
<trkpt lat="43.0479550000" lon="0.1195530000"><ele>923</ele><time>2026-03-21T07:54:47Z</time></trkpt>
<trkpt lat="43.0479670000" lon="0.1195280000"><ele>924</ele><time>2026-03-21T07:54:49Z</time></trkpt>
<trkpt lat="43.0479720000" lon="0.1195050000"><ele>924</ele><time>2026-03-21T07:54:51Z</time></trkpt>
<trkpt lat="43.0479770000" lon="0.1194820000"><ele>924</ele><time>2026-03-21T07:54:53Z</time></trkpt>
<trkpt lat="43.0479870000" lon="0.1194470000"><ele>924</ele><time>2026-03-21T07:54:56Z</time></trkpt>
<trkpt lat="43.0479970000" lon="0.1194170000"><ele>924</ele><time>2026-03-21T07:54:58Z</time></trkpt>
<trkpt lat="43.0480120000" lon="0.1193970000"><ele>924</ele><time>2026-03-21T07:55:00Z</time></trkpt>
<trkpt lat="43.0480270000" lon="0.1193720000"><ele>924</ele><time>2026-03-21T07:55:02Z</time></trkpt>
<trkpt lat="43.0480420000" lon="0.1193470000"><ele>925</ele><time>2026-03-21T07:55:04Z</time></trkpt>
<trkpt lat="43.0480520000" lon="0.1193180000"><ele>925</ele><time>2026-03-21T07:55:06Z</time></trkpt>
<trkpt lat="43.0480500000" lon="0.1192870000"><ele>925</ele><time>2026-03-21T07:55:08Z</time></trkpt>
<trkpt lat="43.0480520000" lon="0.1192530000"><ele>925</ele><time>2026-03-21T07:55:10Z</time></trkpt>
<trkpt lat="43.0480550000" lon="0.1192220000"><ele>925</ele><time>2026-03-21T07:55:12Z</time></trkpt>
<trkpt lat="43.0480820000" lon="0.1192200000"><ele>925</ele><time>2026-03-21T07:55:13Z</time></trkpt>
<trkpt lat="43.0480920000" lon="0.1191920000"><ele>925</ele><time>2026-03-21T07:55:15Z</time></trkpt>
<trkpt lat="43.0481020000" lon="0.1191620000"><ele>926</ele><time>2026-03-21T07:55:18Z</time></trkpt>
<trkpt lat="43.0481120000" lon="0.1191420000"><ele>926</ele><time>2026-03-21T07:55:21Z</time></trkpt>
<trkpt lat="43.0481200000" lon="0.1191170000"><ele>926</ele><time>2026-03-21T07:55:23Z</time></trkpt>
<trkpt lat="43.0481350000" lon="0.1190770000"><ele>926</ele><time>2026-03-21T07:55:25Z</time></trkpt>
<trkpt lat="43.0481420000" lon="0.1190470000"><ele>926</ele><time>2026-03-21T07:55:26Z</time></trkpt>
<trkpt lat="43.0481570000" lon="0.1190200000"><ele>927</ele><time>2026-03-21T07:55:28Z</time></trkpt>
<trkpt lat="43.0481870000" lon="0.1190070000"><ele>927</ele><time>2026-03-21T07:55:31Z</time></trkpt>
<trkpt lat="43.0482100000" lon="0.1189770000"><ele>927</ele><time>2026-03-21T07:55:33Z</time></trkpt>
<trkpt lat="43.0482270000" lon="0.1189450000"><ele>927</ele><time>2026-03-21T07:55:35Z</time></trkpt>
<trkpt lat="43.0482420000" lon="0.1189270000"><ele>927</ele><time>2026-03-21T07:55:36Z</time></trkpt>
<trkpt lat="43.0482570000" lon="0.1189070000"><ele>927</ele><time>2026-03-21T07:55:37Z</time></trkpt>
<trkpt lat="43.0482770000" lon="0.1188950000"><ele>927</ele><time>2026-03-21T07:55:38Z</time></trkpt>
<trkpt lat="43.0482870000" lon="0.1188750000"><ele>928</ele><time>2026-03-21T07:55:40Z</time></trkpt>
<trkpt lat="43.0483070000" lon="0.1188470000"><ele>928</ele><time>2026-03-21T07:55:42Z</time></trkpt>
<trkpt lat="43.0483270000" lon="0.1188300000"><ele>928</ele><time>2026-03-21T07:55:45Z</time></trkpt>
<trkpt lat="43.0483370000" lon="0.1188070000"><ele>928</ele><time>2026-03-21T07:55:49Z</time></trkpt>
<trkpt lat="43.0483520000" lon="0.1187770000"><ele>929</ele><time>2026-03-21T07:55:52Z</time></trkpt>
<trkpt lat="43.0483600000" lon="0.1187520000"><ele>929</ele><time>2026-03-21T07:55:54Z</time></trkpt>
<trkpt lat="43.0483700000" lon="0.1187270000"><ele>929</ele><time>2026-03-21T07:55:56Z</time></trkpt>
<trkpt lat="43.0483720000" lon="0.1187020000"><ele>929</ele><time>2026-03-21T07:55:58Z</time></trkpt>
<trkpt lat="43.0483700000" lon="0.1186720000"><ele>929</ele><time>2026-03-21T07:56:01Z</time></trkpt>
<trkpt lat="43.0483670000" lon="0.1186450000"><ele>930</ele><time>2026-03-21T07:56:03Z</time></trkpt>
<trkpt lat="43.0483720000" lon="0.1186170000"><ele>930</ele><time>2026-03-21T07:56:05Z</time></trkpt>
<trkpt lat="43.0483750000" lon="0.1185900000"><ele>930</ele><time>2026-03-21T07:56:07Z</time></trkpt>
<trkpt lat="43.0483720000" lon="0.1185650000"><ele>930</ele><time>2026-03-21T07:56:10Z</time></trkpt>
<trkpt lat="43.0483720000" lon="0.1185370000"><ele>931</ele><time>2026-03-21T07:56:38Z</time></trkpt>
<trkpt lat="43.0483770000" lon="0.1184820000"><ele>931</ele><time>2026-03-21T07:56:40Z</time></trkpt>
<trkpt lat="43.0483770000" lon="0.1184500000"><ele>931</ele><time>2026-03-21T07:56:41Z</time></trkpt>
<trkpt lat="43.0483720000" lon="0.1184220000"><ele>931</ele><time>2026-03-21T07:56:42Z</time></trkpt>
<trkpt lat="43.0483650000" lon="0.1183900000"><ele>931</ele><time>2026-03-21T07:56:44Z</time></trkpt>
<trkpt lat="43.0483670000" lon="0.1183550000"><ele>931</ele><time>2026-03-21T07:56:47Z</time></trkpt>
<trkpt lat="43.0483670000" lon="0.1183270000"><ele>932</ele><time>2026-03-21T07:56:50Z</time></trkpt>
<trkpt lat="43.0483470000" lon="0.1183150000"><ele>932</ele><time>2026-03-21T07:56:53Z</time></trkpt>
<trkpt lat="43.0483300000" lon="0.1182920000"><ele>932</ele><time>2026-03-21T07:56:55Z</time></trkpt>
<trkpt lat="43.0483170000" lon="0.1182720000"><ele>932</ele><time>2026-03-21T07:56:57Z</time></trkpt>
<trkpt lat="43.0483020000" lon="0.1182450000"><ele>932</ele><time>2026-03-21T07:56:59Z</time></trkpt>
<trkpt lat="43.0482900000" lon="0.1182220000"><ele>932</ele><time>2026-03-21T07:57:01Z</time></trkpt>
<trkpt lat="43.0482750000" lon="0.1181970000"><ele>933</ele><time>2026-03-21T07:57:03Z</time></trkpt>
<trkpt lat="43.0482600000" lon="0.1181770000"><ele>933</ele><time>2026-03-21T07:57:05Z</time></trkpt>
<trkpt lat="43.0482420000" lon="0.1181470000"><ele>933</ele><time>2026-03-21T07:57:07Z</time></trkpt>
<trkpt lat="43.0482220000" lon="0.1181270000"><ele>933</ele><time>2026-03-21T07:57:09Z</time></trkpt>
<trkpt lat="43.0482070000" lon="0.1181020000"><ele>933</ele><time>2026-03-21T07:57:11Z</time></trkpt>
<trkpt lat="43.0481870000" lon="0.1180730000"><ele>933</ele><time>2026-03-21T07:57:13Z</time></trkpt>
<trkpt lat="43.0481770000" lon="0.1180520000"><ele>933</ele><time>2026-03-21T07:57:15Z</time></trkpt>
<trkpt lat="43.0481620000" lon="0.1180320000"><ele>933</ele><time>2026-03-21T07:57:17Z</time></trkpt>
<trkpt lat="43.0481450000" lon="0.1180120000"><ele>933</ele><time>2026-03-21T07:57:19Z</time></trkpt>
<trkpt lat="43.0481270000" lon="0.1179850000"><ele>933</ele><time>2026-03-21T07:57:21Z</time></trkpt>
<trkpt lat="43.0481100000" lon="0.1179520000"><ele>933</ele><time>2026-03-21T07:57:23Z</time></trkpt>
<trkpt lat="43.0480950000" lon="0.1179170000"><ele>933</ele><time>2026-03-21T07:57:25Z</time></trkpt>
<trkpt lat="43.0480820000" lon="0.1178870000"><ele>933</ele><time>2026-03-21T07:57:27Z</time></trkpt>
<trkpt lat="43.0480770000" lon="0.1178570000"><ele>934</ele><time>2026-03-21T07:57:29Z</time></trkpt>
<trkpt lat="43.0480620000" lon="0.1178320000"><ele>934</ele><time>2026-03-21T07:57:31Z</time></trkpt>
<trkpt lat="43.0480520000" lon="0.1178020000"><ele>934</ele><time>2026-03-21T07:57:33Z</time></trkpt>
<trkpt lat="43.0480450000" lon="0.1177720000"><ele>934</ele><time>2026-03-21T07:57:35Z</time></trkpt>
<trkpt lat="43.0480320000" lon="0.1177480000"><ele>934</ele><time>2026-03-21T07:57:37Z</time></trkpt>
<trkpt lat="43.0480200000" lon="0.1177220000"><ele>934</ele><time>2026-03-21T07:57:39Z</time></trkpt>
<trkpt lat="43.0480020000" lon="0.1176970000"><ele>934</ele><time>2026-03-21T07:57:41Z</time></trkpt>
<trkpt lat="43.0479870000" lon="0.1176750000"><ele>935</ele><time>2026-03-21T07:57:43Z</time></trkpt>
<trkpt lat="43.0479700000" lon="0.1176570000"><ele>935</ele><time>2026-03-21T07:57:45Z</time></trkpt>
<trkpt lat="43.0479570000" lon="0.1176350000"><ele>935</ele><time>2026-03-21T07:57:47Z</time></trkpt>
<trkpt lat="43.0479420000" lon="0.1176070000"><ele>935</ele><time>2026-03-21T07:57:49Z</time></trkpt>
<trkpt lat="43.0479320000" lon="0.1175820000"><ele>935</ele><time>2026-03-21T07:57:51Z</time></trkpt>
<trkpt lat="43.0479200000" lon="0.1175570000"><ele>935</ele><time>2026-03-21T07:57:53Z</time></trkpt>
<trkpt lat="43.0479120000" lon="0.1175300000"><ele>935</ele><time>2026-03-21T07:57:55Z</time></trkpt>
<trkpt lat="43.0479020000" lon="0.1175020000"><ele>936</ele><time>2026-03-21T07:57:57Z</time></trkpt>
<trkpt lat="43.0478950000" lon="0.1174730000"><ele>936</ele><time>2026-03-21T07:57:59Z</time></trkpt>
<trkpt lat="43.0478870000" lon="0.1174430000"><ele>936</ele><time>2026-03-21T07:58:01Z</time></trkpt>
<trkpt lat="43.0478770000" lon="0.1174150000"><ele>936</ele><time>2026-03-21T07:58:03Z</time></trkpt>
<trkpt lat="43.0478670000" lon="0.1173770000"><ele>936</ele><time>2026-03-21T07:58:05Z</time></trkpt>
<trkpt lat="43.0478620000" lon="0.1173520000"><ele>936</ele><time>2026-03-21T07:58:06Z</time></trkpt>
<trkpt lat="43.0478570000" lon="0.1173170000"><ele>936</ele><time>2026-03-21T07:58:08Z</time></trkpt>
<trkpt lat="43.0478530000" lon="0.1172870000"><ele>936</ele><time>2026-03-21T07:58:10Z</time></trkpt>
<trkpt lat="43.0478400000" lon="0.1172720000"><ele>937</ele><time>2026-03-21T07:58:33Z</time></trkpt>
<trkpt lat="43.0478220000" lon="0.1172570000"><ele>937</ele><time>2026-03-21T07:58:35Z</time></trkpt>
<trkpt lat="43.0478020000" lon="0.1172420000"><ele>937</ele><time>2026-03-21T07:58:38Z</time></trkpt>
<trkpt lat="43.0477900000" lon="0.1172170000"><ele>937</ele><time>2026-03-21T07:58:41Z</time></trkpt>
<trkpt lat="43.0477770000" lon="0.1171800000"><ele>938</ele><time>2026-03-21T07:58:44Z</time></trkpt>
<trkpt lat="43.0477620000" lon="0.1171600000"><ele>938</ele><time>2026-03-21T07:58:50Z</time></trkpt>
<trkpt lat="43.0477520000" lon="0.1171850000"><ele>938</ele><time>2026-03-21T07:59:24Z</time></trkpt>
<trkpt lat="43.0477420000" lon="0.1172070000"><ele>938</ele><time>2026-03-21T07:59:25Z</time></trkpt>
<trkpt lat="43.0477350000" lon="0.1172300000"><ele>938</ele><time>2026-03-21T07:59:26Z</time></trkpt>
<trkpt lat="43.0477220000" lon="0.1172670000"><ele>938</ele><time>2026-03-21T07:59:28Z</time></trkpt>
<trkpt lat="43.0477050000" lon="0.1172620000"><ele>938</ele><time>2026-03-21T07:59:44Z</time></trkpt>
<trkpt lat="43.0476870000" lon="0.1172770000"><ele>938</ele><time>2026-03-21T07:59:46Z</time></trkpt>
<trkpt lat="43.0476700000" lon="0.1173000000"><ele>938</ele><time>2026-03-21T07:59:48Z</time></trkpt>
<trkpt lat="43.0476700000" lon="0.1173270000"><ele>939</ele><time>2026-03-21T07:59:51Z</time></trkpt>
<trkpt lat="43.0476470000" lon="0.1173220000"><ele>939</ele><time>2026-03-21T07:59:54Z</time></trkpt>
<trkpt lat="43.0476250000" lon="0.1173170000"><ele>939</ele><time>2026-03-21T07:59:56Z</time></trkpt>
<trkpt lat="43.0476000000" lon="0.1173170000"><ele>939</ele><time>2026-03-21T07:59:59Z</time></trkpt>
<trkpt lat="43.0475770000" lon="0.1173270000"><ele>939</ele><time>2026-03-21T08:00:02Z</time></trkpt>
<trkpt lat="43.0475520000" lon="0.1173370000"><ele>939</ele><time>2026-03-21T08:00:05Z</time></trkpt>
<trkpt lat="43.0475300000" lon="0.1173470000"><ele>940</ele><time>2026-03-21T08:00:19Z</time></trkpt>
<trkpt lat="43.0475120000" lon="0.1173700000"><ele>940</ele><time>2026-03-21T08:00:21Z</time></trkpt>
<trkpt lat="43.0474870000" lon="0.1173870000"><ele>940</ele><time>2026-03-21T08:00:23Z</time></trkpt>
<trkpt lat="43.0474570000" lon="0.1173970000"><ele>940</ele><time>2026-03-21T08:00:25Z</time></trkpt>
<trkpt lat="43.0474350000" lon="0.1174020000"><ele>940</ele><time>2026-03-21T08:00:27Z</time></trkpt>
<trkpt lat="43.0474120000" lon="0.1174150000"><ele>940</ele><time>2026-03-21T08:00:29Z</time></trkpt>
<trkpt lat="43.0473950000" lon="0.1174220000"><ele>940</ele><time>2026-03-21T08:00:31Z</time></trkpt>
<trkpt lat="43.0473720000" lon="0.1174250000"><ele>941</ele><time>2026-03-21T08:00:33Z</time></trkpt>
<trkpt lat="43.0473500000" lon="0.1174300000"><ele>941</ele><time>2026-03-21T08:00:35Z</time></trkpt>
<trkpt lat="43.0473320000" lon="0.1174420000"><ele>940</ele><time>2026-03-21T08:00:37Z</time></trkpt>
<trkpt lat="43.0473120000" lon="0.1174550000"><ele>941</ele><time>2026-03-21T08:00:39Z</time></trkpt>
<trkpt lat="43.0472900000" lon="0.1174620000"><ele>941</ele><time>2026-03-21T08:00:41Z</time></trkpt>
<trkpt lat="43.0472670000" lon="0.1174650000"><ele>941</ele><time>2026-03-21T08:00:43Z</time></trkpt>
<trkpt lat="43.0472480000" lon="0.1174700000"><ele>941</ele><time>2026-03-21T08:00:45Z</time></trkpt>
<trkpt lat="43.0472270000" lon="0.1174820000"><ele>941</ele><time>2026-03-21T08:00:47Z</time></trkpt>
<trkpt lat="43.0472070000" lon="0.1174870000"><ele>942</ele><time>2026-03-21T08:00:49Z</time></trkpt>
<trkpt lat="43.0471850000" lon="0.1174920000"><ele>942</ele><time>2026-03-21T08:00:51Z</time></trkpt>
<trkpt lat="43.0471650000" lon="0.1175000000"><ele>942</ele><time>2026-03-21T08:00:53Z</time></trkpt>
<trkpt lat="43.0471400000" lon="0.1175100000"><ele>942</ele><time>2026-03-21T08:00:55Z</time></trkpt>
<trkpt lat="43.0471150000" lon="0.1175220000"><ele>942</ele><time>2026-03-21T08:00:57Z</time></trkpt>
<trkpt lat="43.0470970000" lon="0.1175320000"><ele>942</ele><time>2026-03-21T08:00:59Z</time></trkpt>
<trkpt lat="43.0470750000" lon="0.1175320000"><ele>942</ele><time>2026-03-21T08:01:01Z</time></trkpt>
<trkpt lat="43.0470550000" lon="0.1175320000"><ele>942</ele><time>2026-03-21T08:01:03Z</time></trkpt>
<trkpt lat="43.0470300000" lon="0.1175420000"><ele>942</ele><time>2026-03-21T08:01:05Z</time></trkpt>
<trkpt lat="43.0470070000" lon="0.1175470000"><ele>942</ele><time>2026-03-21T08:01:07Z</time></trkpt>
<trkpt lat="43.0469850000" lon="0.1175520000"><ele>943</ele><time>2026-03-21T08:01:09Z</time></trkpt>
<trkpt lat="43.0469650000" lon="0.1175520000"><ele>943</ele><time>2026-03-21T08:01:11Z</time></trkpt>
<trkpt lat="43.0469450000" lon="0.1175470000"><ele>943</ele><time>2026-03-21T08:01:13Z</time></trkpt>
<trkpt lat="43.0469200000" lon="0.1175420000"><ele>943</ele><time>2026-03-21T08:01:15Z</time></trkpt>
<trkpt lat="43.0468950000" lon="0.1175430000"><ele>943</ele><time>2026-03-21T08:01:17Z</time></trkpt>
<trkpt lat="43.0469100000" lon="0.1175220000"><ele>943</ele><time>2026-03-21T08:01:20Z</time></trkpt>
<trkpt lat="43.0468870000" lon="0.1175120000"><ele>943</ele><time>2026-03-21T08:01:41Z</time></trkpt>
<trkpt lat="43.0468550000" lon="0.1175100000"><ele>944</ele><time>2026-03-21T08:01:43Z</time></trkpt>
<trkpt lat="43.0468370000" lon="0.1175100000"><ele>944</ele><time>2026-03-21T08:01:44Z</time></trkpt>
<trkpt lat="43.0468100000" lon="0.1175100000"><ele>944</ele><time>2026-03-21T08:01:46Z</time></trkpt>
<trkpt lat="43.0467820000" lon="0.1175120000"><ele>944</ele><time>2026-03-21T08:01:48Z</time></trkpt>
<trkpt lat="43.0467520000" lon="0.1175170000"><ele>944</ele><time>2026-03-21T08:01:50Z</time></trkpt>
<trkpt lat="43.0467270000" lon="0.1175180000"><ele>944</ele><time>2026-03-21T08:01:52Z</time></trkpt>
<trkpt lat="43.0467020000" lon="0.1175170000"><ele>944</ele><time>2026-03-21T08:01:54Z</time></trkpt>
<trkpt lat="43.0466750000" lon="0.1175100000"><ele>945</ele><time>2026-03-21T08:01:56Z</time></trkpt>
<trkpt lat="43.0466550000" lon="0.1175020000"><ele>945</ele><time>2026-03-21T08:01:58Z</time></trkpt>
<trkpt lat="43.0466370000" lon="0.1174920000"><ele>945</ele><time>2026-03-21T08:02:00Z</time></trkpt>
<trkpt lat="43.0466150000" lon="0.1174870000"><ele>945</ele><time>2026-03-21T08:02:02Z</time></trkpt>
<trkpt lat="43.0465920000" lon="0.1174820000"><ele>945</ele><time>2026-03-21T08:02:04Z</time></trkpt>
<trkpt lat="43.0465720000" lon="0.1174720000"><ele>945</ele><time>2026-03-21T08:02:06Z</time></trkpt>
<trkpt lat="43.0465520000" lon="0.1174720000"><ele>946</ele><time>2026-03-21T08:02:08Z</time></trkpt>
<trkpt lat="43.0465300000" lon="0.1174700000"><ele>946</ele><time>2026-03-21T08:02:10Z</time></trkpt>
<trkpt lat="43.0465120000" lon="0.1174670000"><ele>946</ele><time>2026-03-21T08:02:12Z</time></trkpt>
<trkpt lat="43.0464900000" lon="0.1174650000"><ele>946</ele><time>2026-03-21T08:02:15Z</time></trkpt>
<trkpt lat="43.0464700000" lon="0.1174600000"><ele>946</ele><time>2026-03-21T08:02:17Z</time></trkpt>
<trkpt lat="43.0464450000" lon="0.1174520000"><ele>946</ele><time>2026-03-21T08:02:19Z</time></trkpt>
<trkpt lat="43.0464180000" lon="0.1174370000"><ele>947</ele><time>2026-03-21T08:02:21Z</time></trkpt>
<trkpt lat="43.0464020000" lon="0.1174150000"><ele>947</ele><time>2026-03-21T08:02:22Z</time></trkpt>
<trkpt lat="43.0463720000" lon="0.1174000000"><ele>947</ele><time>2026-03-21T08:02:24Z</time></trkpt>
<trkpt lat="43.0463520000" lon="0.1173900000"><ele>947</ele><time>2026-03-21T08:02:27Z</time></trkpt>
<trkpt lat="43.0463320000" lon="0.1174030000"><ele>947</ele><time>2026-03-21T08:02:29Z</time></trkpt>
<trkpt lat="43.0463120000" lon="0.1174120000"><ele>947</ele><time>2026-03-21T08:02:31Z</time></trkpt>
<trkpt lat="43.0462920000" lon="0.1174220000"><ele>948</ele><time>2026-03-21T08:02:33Z</time></trkpt>
<trkpt lat="43.0462720000" lon="0.1174170000"><ele>948</ele><time>2026-03-21T08:02:35Z</time></trkpt>
<trkpt lat="43.0462470000" lon="0.1174150000"><ele>948</ele><time>2026-03-21T08:02:37Z</time></trkpt>
<trkpt lat="43.0462250000" lon="0.1174170000"><ele>948</ele><time>2026-03-21T08:02:39Z</time></trkpt>
<trkpt lat="43.0462000000" lon="0.1174200000"><ele>948</ele><time>2026-03-21T08:02:41Z</time></trkpt>
<trkpt lat="43.0461800000" lon="0.1174270000"><ele>948</ele><time>2026-03-21T08:02:43Z</time></trkpt>
<trkpt lat="43.0461600000" lon="0.1174370000"><ele>948</ele><time>2026-03-21T08:02:45Z</time></trkpt>
<trkpt lat="43.0461370000" lon="0.1174420000"><ele>949</ele><time>2026-03-21T08:02:47Z</time></trkpt>
<trkpt lat="43.0461120000" lon="0.1174520000"><ele>949</ele><time>2026-03-21T08:02:49Z</time></trkpt>
<trkpt lat="43.0460870000" lon="0.1174620000"><ele>949</ele><time>2026-03-21T08:02:51Z</time></trkpt>
<trkpt lat="43.0460650000" lon="0.1174770000"><ele>949</ele><time>2026-03-21T08:02:53Z</time></trkpt>
<trkpt lat="43.0460320000" lon="0.1174720000"><ele>949</ele><time>2026-03-21T08:02:55Z</time></trkpt>
<trkpt lat="43.0460070000" lon="0.1174670000"><ele>949</ele><time>2026-03-21T08:02:57Z</time></trkpt>
<trkpt lat="43.0459900000" lon="0.1174700000"><ele>949</ele><time>2026-03-21T08:02:59Z</time></trkpt>
<trkpt lat="43.0459770000" lon="0.1174970000"><ele>950</ele><time>2026-03-21T08:03:03Z</time></trkpt>
<trkpt lat="43.0459520000" lon="0.1175100000"><ele>950</ele><time>2026-03-21T08:03:05Z</time></trkpt>
<trkpt lat="43.0459370000" lon="0.1175250000"><ele>950</ele><time>2026-03-21T08:03:06Z</time></trkpt>
<trkpt lat="43.0459100000" lon="0.1175370000"><ele>950</ele><time>2026-03-21T08:03:08Z</time></trkpt>
<trkpt lat="43.0458830000" lon="0.1175370000"><ele>950</ele><time>2026-03-21T08:03:09Z</time></trkpt>
<trkpt lat="43.0458620000" lon="0.1175470000"><ele>950</ele><time>2026-03-21T08:03:11Z</time></trkpt>
<trkpt lat="43.0458400000" lon="0.1175620000"><ele>950</ele><time>2026-03-21T08:03:13Z</time></trkpt>
<trkpt lat="43.0458220000" lon="0.1175830000"><ele>951</ele><time>2026-03-21T08:03:16Z</time></trkpt>
<trkpt lat="43.0458070000" lon="0.1176020000"><ele>951</ele><time>2026-03-21T08:03:18Z</time></trkpt>
<trkpt lat="43.0457870000" lon="0.1176200000"><ele>951</ele><time>2026-03-21T08:03:21Z</time></trkpt>
<trkpt lat="43.0457720000" lon="0.1176370000"><ele>951</ele><time>2026-03-21T08:03:23Z</time></trkpt>
<trkpt lat="43.0457550000" lon="0.1176520000"><ele>952</ele><time>2026-03-21T08:03:25Z</time></trkpt>
<trkpt lat="43.0457370000" lon="0.1176670000"><ele>952</ele><time>2026-03-21T08:03:27Z</time></trkpt>
<trkpt lat="43.0457150000" lon="0.1176900000"><ele>952</ele><time>2026-03-21T08:03:30Z</time></trkpt>
<trkpt lat="43.0457000000" lon="0.1177070000"><ele>952</ele><time>2026-03-21T08:03:32Z</time></trkpt>
<trkpt lat="43.0456900000" lon="0.1177370000"><ele>952</ele><time>2026-03-21T08:03:35Z</time></trkpt>
<trkpt lat="43.0456770000" lon="0.1177650000"><ele>953</ele><time>2026-03-21T08:03:38Z</time></trkpt>
<trkpt lat="43.0456700000" lon="0.1177920000"><ele>953</ele><time>2026-03-21T08:03:41Z</time></trkpt>
<trkpt lat="43.0456620000" lon="0.1178170000"><ele>953</ele><time>2026-03-21T08:03:43Z</time></trkpt>
<trkpt lat="43.0456520000" lon="0.1178470000"><ele>953</ele><time>2026-03-21T08:03:45Z</time></trkpt>
<trkpt lat="43.0456520000" lon="0.1178750000"><ele>953</ele><time>2026-03-21T08:03:47Z</time></trkpt>
<trkpt lat="43.0456400000" lon="0.1179050000"><ele>953</ele><time>2026-03-21T08:03:49Z</time></trkpt>
<trkpt lat="43.0456370000" lon="0.1179280000"><ele>954</ele><time>2026-03-21T08:03:51Z</time></trkpt>
<trkpt lat="43.0456300000" lon="0.1179570000"><ele>954</ele><time>2026-03-21T08:03:53Z</time></trkpt>
<trkpt lat="43.0456220000" lon="0.1179920000"><ele>954</ele><time>2026-03-21T08:03:56Z</time></trkpt>
<trkpt lat="43.0456250000" lon="0.1180170000"><ele>954</ele><time>2026-03-21T08:03:58Z</time></trkpt>
<trkpt lat="43.0456200000" lon="0.1180450000"><ele>954</ele><time>2026-03-21T08:04:00Z</time></trkpt>
<trkpt lat="43.0456070000" lon="0.1180680000"><ele>954</ele><time>2026-03-21T08:04:02Z</time></trkpt>
<trkpt lat="43.0456000000" lon="0.1181120000"><ele>954</ele><time>2026-03-21T08:04:05Z</time></trkpt>
<trkpt lat="43.0455920000" lon="0.1181420000"><ele>955</ele><time>2026-03-21T08:04:07Z</time></trkpt>
<trkpt lat="43.0455820000" lon="0.1181750000"><ele>955</ele><time>2026-03-21T08:04:09Z</time></trkpt>
<trkpt lat="43.0455720000" lon="0.1181970000"><ele>955</ele><time>2026-03-21T08:04:11Z</time></trkpt>
<trkpt lat="43.0455600000" lon="0.1182220000"><ele>955</ele><time>2026-03-21T08:04:13Z</time></trkpt>
<trkpt lat="43.0455450000" lon="0.1182450000"><ele>955</ele><time>2026-03-21T08:04:15Z</time></trkpt>
<trkpt lat="43.0455320000" lon="0.1182700000"><ele>955</ele><time>2026-03-21T08:04:17Z</time></trkpt>
<trkpt lat="43.0455170000" lon="0.1182970000"><ele>956</ele><time>2026-03-21T08:04:46Z</time></trkpt>
<trkpt lat="43.0454950000" lon="0.1183320000"><ele>956</ele><time>2026-03-21T08:04:48Z</time></trkpt>
<trkpt lat="43.0454820000" lon="0.1183570000"><ele>956</ele><time>2026-03-21T08:04:49Z</time></trkpt>
<trkpt lat="43.0454720000" lon="0.1183820000"><ele>956</ele><time>2026-03-21T08:04:50Z</time></trkpt>
<trkpt lat="43.0454620000" lon="0.1184070000"><ele>956</ele><time>2026-03-21T08:04:51Z</time></trkpt>
<trkpt lat="43.0454470000" lon="0.1184470000"><ele>957</ele><time>2026-03-21T08:04:53Z</time></trkpt>
<trkpt lat="43.0454300000" lon="0.1184700000"><ele>957</ele><time>2026-03-21T08:04:55Z</time></trkpt>
<trkpt lat="43.0454070000" lon="0.1185000000"><ele>957</ele><time>2026-03-21T08:04:57Z</time></trkpt>
<trkpt lat="43.0453820000" lon="0.1185130000"><ele>957</ele><time>2026-03-21T08:05:00Z</time></trkpt>
<trkpt lat="43.0453620000" lon="0.1185320000"><ele>957</ele><time>2026-03-21T08:05:02Z</time></trkpt>
<trkpt lat="43.0453400000" lon="0.1185520000"><ele>957</ele><time>2026-03-21T08:05:04Z</time></trkpt>
<trkpt lat="43.0453250000" lon="0.1185720000"><ele>957</ele><time>2026-03-21T08:05:06Z</time></trkpt>
<trkpt lat="43.0453120000" lon="0.1185920000"><ele>957</ele><time>2026-03-21T08:05:08Z</time></trkpt>
<trkpt lat="43.0452970000" lon="0.1186170000"><ele>958</ele><time>2026-03-21T08:05:10Z</time></trkpt>
<trkpt lat="43.0452820000" lon="0.1186520000"><ele>958</ele><time>2026-03-21T08:05:12Z</time></trkpt>
<trkpt lat="43.0452670000" lon="0.1186720000"><ele>958</ele><time>2026-03-21T08:05:14Z</time></trkpt>
<trkpt lat="43.0452470000" lon="0.1186970000"><ele>958</ele><time>2026-03-21T08:05:16Z</time></trkpt>
<trkpt lat="43.0452300000" lon="0.1187200000"><ele>958</ele><time>2026-03-21T08:05:18Z</time></trkpt>
<trkpt lat="43.0452120000" lon="0.1187420000"><ele>958</ele><time>2026-03-21T08:05:20Z</time></trkpt>
<trkpt lat="43.0451900000" lon="0.1187600000"><ele>959</ele><time>2026-03-21T08:05:22Z</time></trkpt>
<trkpt lat="43.0451700000" lon="0.1187620000"><ele>959</ele><time>2026-03-21T08:05:24Z</time></trkpt>
<trkpt lat="43.0451520000" lon="0.1187820000"><ele>959</ele><time>2026-03-21T08:05:26Z</time></trkpt>
<trkpt lat="43.0451300000" lon="0.1188050000"><ele>959</ele><time>2026-03-21T08:05:28Z</time></trkpt>
<trkpt lat="43.0451100000" lon="0.1188220000"><ele>959</ele><time>2026-03-21T08:05:30Z</time></trkpt>
<trkpt lat="43.0450920000" lon="0.1188330000"><ele>960</ele><time>2026-03-21T08:05:32Z</time></trkpt>
<trkpt lat="43.0450750000" lon="0.1188520000"><ele>960</ele><time>2026-03-21T08:05:34Z</time></trkpt>
<trkpt lat="43.0450620000" lon="0.1188670000"><ele>960</ele><time>2026-03-21T08:05:36Z</time></trkpt>
<trkpt lat="43.0450470000" lon="0.1188870000"><ele>960</ele><time>2026-03-21T08:05:38Z</time></trkpt>
<trkpt lat="43.0450150000" lon="0.1188850000"><ele>960</ele><time>2026-03-21T08:05:39Z</time></trkpt>
<trkpt lat="43.0449950000" lon="0.1188870000"><ele>960</ele><time>2026-03-21T08:05:40Z</time></trkpt>
<trkpt lat="43.0449750000" lon="0.1188950000"><ele>960</ele><time>2026-03-21T08:05:41Z</time></trkpt>
<trkpt lat="43.0449470000" lon="0.1189100000"><ele>961</ele><time>2026-03-21T08:05:43Z</time></trkpt>
<trkpt lat="43.0449300000" lon="0.1189220000"><ele>961</ele><time>2026-03-21T08:05:45Z</time></trkpt>
<trkpt lat="43.0449100000" lon="0.1189320000"><ele>961</ele><time>2026-03-21T08:05:47Z</time></trkpt>
<trkpt lat="43.0448900000" lon="0.1189520000"><ele>961</ele><time>2026-03-21T08:05:49Z</time></trkpt>
<trkpt lat="43.0448670000" lon="0.1189650000"><ele>961</ele><time>2026-03-21T08:05:51Z</time></trkpt>
<trkpt lat="43.0448470000" lon="0.1189770000"><ele>962</ele><time>2026-03-21T08:05:53Z</time></trkpt>
<trkpt lat="43.0448220000" lon="0.1190020000"><ele>962</ele><time>2026-03-21T08:05:55Z</time></trkpt>
<trkpt lat="43.0448070000" lon="0.1190250000"><ele>962</ele><time>2026-03-21T08:05:57Z</time></trkpt>
<trkpt lat="43.0447870000" lon="0.1190470000"><ele>962</ele><time>2026-03-21T08:05:59Z</time></trkpt>
<trkpt lat="43.0447720000" lon="0.1190720000"><ele>962</ele><time>2026-03-21T08:06:01Z</time></trkpt>
<trkpt lat="43.0447580000" lon="0.1190920000"><ele>962</ele><time>2026-03-21T08:06:03Z</time></trkpt>
<trkpt lat="43.0447470000" lon="0.1191220000"><ele>963</ele><time>2026-03-21T08:06:06Z</time></trkpt>
<trkpt lat="43.0447270000" lon="0.1191370000"><ele>963</ele><time>2026-03-21T08:06:08Z</time></trkpt>
<trkpt lat="43.0447020000" lon="0.1191520000"><ele>963</ele><time>2026-03-21T08:06:11Z</time></trkpt>
<trkpt lat="43.0446820000" lon="0.1191820000"><ele>963</ele><time>2026-03-21T08:06:13Z</time></trkpt>
<trkpt lat="43.0446650000" lon="0.1191970000"><ele>963</ele><time>2026-03-21T08:06:15Z</time></trkpt>
<trkpt lat="43.0446520000" lon="0.1192220000"><ele>964</ele><time>2026-03-21T08:06:17Z</time></trkpt>
<trkpt lat="43.0446450000" lon="0.1192480000"><ele>964</ele><time>2026-03-21T08:06:19Z</time></trkpt>
<trkpt lat="43.0446320000" lon="0.1192720000"><ele>964</ele><time>2026-03-21T08:06:21Z</time></trkpt>
<trkpt lat="43.0446170000" lon="0.1192970000"><ele>964</ele><time>2026-03-21T08:06:24Z</time></trkpt>
<trkpt lat="43.0446030000" lon="0.1193150000"><ele>964</ele><time>2026-03-21T08:06:26Z</time></trkpt>
<trkpt lat="43.0445900000" lon="0.1193350000"><ele>964</ele><time>2026-03-21T08:06:28Z</time></trkpt>
<trkpt lat="43.0445700000" lon="0.1193450000"><ele>964</ele><time>2026-03-21T08:06:30Z</time></trkpt>
<trkpt lat="43.0445470000" lon="0.1193670000"><ele>964</ele><time>2026-03-21T08:06:33Z</time></trkpt>
<trkpt lat="43.0445370000" lon="0.1193920000"><ele>965</ele><time>2026-03-21T08:06:35Z</time></trkpt>
<trkpt lat="43.0445220000" lon="0.1194100000"><ele>965</ele><time>2026-03-21T08:06:37Z</time></trkpt>
<trkpt lat="43.0445070000" lon="0.1194300000"><ele>965</ele><time>2026-03-21T08:06:39Z</time></trkpt>
<trkpt lat="43.0444920000" lon="0.1194570000"><ele>965</ele><time>2026-03-21T08:06:41Z</time></trkpt>
<trkpt lat="43.0444750000" lon="0.1194750000"><ele>966</ele><time>2026-03-21T08:06:43Z</time></trkpt>
<trkpt lat="43.0444570000" lon="0.1194970000"><ele>966</ele><time>2026-03-21T08:06:45Z</time></trkpt>
<trkpt lat="43.0444450000" lon="0.1195220000"><ele>966</ele><time>2026-03-21T08:06:47Z</time></trkpt>
<trkpt lat="43.0444300000" lon="0.1195420000"><ele>966</ele><time>2026-03-21T08:06:49Z</time></trkpt>
<trkpt lat="43.0444120000" lon="0.1195600000"><ele>966</ele><time>2026-03-21T08:06:51Z</time></trkpt>
<trkpt lat="43.0443950000" lon="0.1195800000"><ele>966</ele><time>2026-03-21T08:06:53Z</time></trkpt>
<trkpt lat="43.0443820000" lon="0.1196020000"><ele>966</ele><time>2026-03-21T08:06:55Z</time></trkpt>
<trkpt lat="43.0443670000" lon="0.1196220000"><ele>966</ele><time>2026-03-21T08:06:57Z</time></trkpt>
<trkpt lat="43.0443470000" lon="0.1196370000"><ele>967</ele><time>2026-03-21T08:06:59Z</time></trkpt>
<trkpt lat="43.0443350000" lon="0.1196550000"><ele>967</ele><time>2026-03-21T08:07:01Z</time></trkpt>
<trkpt lat="43.0443120000" lon="0.1196680000"><ele>967</ele><time>2026-03-21T08:07:04Z</time></trkpt>
<trkpt lat="43.0442870000" lon="0.1196870000"><ele>967</ele><time>2026-03-21T08:07:06Z</time></trkpt>
<trkpt lat="43.0442620000" lon="0.1197020000"><ele>967</ele><time>2026-03-21T08:07:09Z</time></trkpt>
<trkpt lat="43.0442320000" lon="0.1197020000"><ele>968</ele><time>2026-03-21T08:07:11Z</time></trkpt>
<trkpt lat="43.0442120000" lon="0.1197020000"><ele>968</ele><time>2026-03-21T08:07:12Z</time></trkpt>
<trkpt lat="43.0441850000" lon="0.1196970000"><ele>968</ele><time>2026-03-21T08:07:13Z</time></trkpt>
<trkpt lat="43.0441670000" lon="0.1197070000"><ele>968</ele><time>2026-03-21T08:07:14Z</time></trkpt>
<trkpt lat="43.0441420000" lon="0.1197050000"><ele>968</ele><time>2026-03-21T08:07:16Z</time></trkpt>
<trkpt lat="43.0441120000" lon="0.1197070000"><ele>968</ele><time>2026-03-21T08:07:18Z</time></trkpt>
<trkpt lat="43.0440850000" lon="0.1196900000"><ele>968</ele><time>2026-03-21T08:07:20Z</time></trkpt>
<trkpt lat="43.0440550000" lon="0.1196820000"><ele>969</ele><time>2026-03-21T08:07:22Z</time></trkpt>
<trkpt lat="43.0440370000" lon="0.1196680000"><ele>969</ele><time>2026-03-21T08:07:24Z</time></trkpt>
<trkpt lat="43.0440150000" lon="0.1196620000"><ele>969</ele><time>2026-03-21T08:07:27Z</time></trkpt>
<trkpt lat="43.0440020000" lon="0.1196370000"><ele>969</ele><time>2026-03-21T08:07:30Z</time></trkpt>
<trkpt lat="43.0439820000" lon="0.1196170000"><ele>970</ele><time>2026-03-21T08:07:32Z</time></trkpt>
<trkpt lat="43.0439700000" lon="0.1195950000"><ele>970</ele><time>2026-03-21T08:07:34Z</time></trkpt>
<trkpt lat="43.0439570000" lon="0.1195620000"><ele>970</ele><time>2026-03-21T08:07:37Z</time></trkpt>
<trkpt lat="43.0439370000" lon="0.1195370000"><ele>970</ele><time>2026-03-21T08:07:39Z</time></trkpt>
<trkpt lat="43.0439220000" lon="0.1195170000"><ele>970</ele><time>2026-03-21T08:07:40Z</time></trkpt>
<trkpt lat="43.0439020000" lon="0.1194900000"><ele>970</ele><time>2026-03-21T08:07:42Z</time></trkpt>
<trkpt lat="43.0438870000" lon="0.1194620000"><ele>971</ele><time>2026-03-21T08:07:44Z</time></trkpt>
<trkpt lat="43.0438720000" lon="0.1194350000"><ele>971</ele><time>2026-03-21T08:07:45Z</time></trkpt>
<trkpt lat="43.0438600000" lon="0.1194120000"><ele>971</ele><time>2026-03-21T08:07:46Z</time></trkpt>
<trkpt lat="43.0438500000" lon="0.1193920000"><ele>971</ele><time>2026-03-21T08:07:47Z</time></trkpt>
<trkpt lat="43.0438370000" lon="0.1193670000"><ele>971</ele><time>2026-03-21T08:07:48Z</time></trkpt>
<trkpt lat="43.0438220000" lon="0.1193470000"><ele>971</ele><time>2026-03-21T08:07:50Z</time></trkpt>
<trkpt lat="43.0438020000" lon="0.1193170000"><ele>971</ele><time>2026-03-21T08:07:52Z</time></trkpt>
<trkpt lat="43.0437900000" lon="0.1192950000"><ele>971</ele><time>2026-03-21T08:07:53Z</time></trkpt>
<trkpt lat="43.0437720000" lon="0.1192770000"><ele>971</ele><time>2026-03-21T08:07:54Z</time></trkpt>
<trkpt lat="43.0437420000" lon="0.1192570000"><ele>971</ele><time>2026-03-21T08:07:56Z</time></trkpt>
<trkpt lat="43.0437420000" lon="0.1192320000"><ele>971</ele><time>2026-03-21T08:07:58Z</time></trkpt>
<trkpt lat="43.0437320000" lon="0.1192070000"><ele>972</ele><time>2026-03-21T08:08:00Z</time></trkpt>
<trkpt lat="43.0437250000" lon="0.1191770000"><ele>972</ele><time>2026-03-21T08:08:02Z</time></trkpt>
<trkpt lat="43.0437170000" lon="0.1191470000"><ele>972</ele><time>2026-03-21T08:08:04Z</time></trkpt>
<trkpt lat="43.0437020000" lon="0.1191270000"><ele>972</ele><time>2026-03-21T08:08:06Z</time></trkpt>
<trkpt lat="43.0436850000" lon="0.1191120000"><ele>972</ele><time>2026-03-21T08:08:08Z</time></trkpt>
<trkpt lat="43.0436670000" lon="0.1190870000"><ele>973</ele><time>2026-03-21T08:08:10Z</time></trkpt>
<trkpt lat="43.0436570000" lon="0.1190550000"><ele>973</ele><time>2026-03-21T08:08:12Z</time></trkpt>
<trkpt lat="43.0436470000" lon="0.1190320000"><ele>973</ele><time>2026-03-21T08:08:14Z</time></trkpt>
<trkpt lat="43.0436370000" lon="0.1190050000"><ele>973</ele><time>2026-03-21T08:08:16Z</time></trkpt>
<trkpt lat="43.0436320000" lon="0.1189720000"><ele>973</ele><time>2026-03-21T08:08:19Z</time></trkpt>
<trkpt lat="43.0436320000" lon="0.1189450000"><ele>973</ele><time>2026-03-21T08:08:21Z</time></trkpt>
<trkpt lat="43.0436220000" lon="0.1189220000"><ele>974</ele><time>2026-03-21T08:08:23Z</time></trkpt>
<trkpt lat="43.0436020000" lon="0.1188920000"><ele>974</ele><time>2026-03-21T08:08:25Z</time></trkpt>
<trkpt lat="43.0435870000" lon="0.1188720000"><ele>974</ele><time>2026-03-21T08:08:27Z</time></trkpt>
<trkpt lat="43.0435700000" lon="0.1188520000"><ele>974</ele><time>2026-03-21T08:08:29Z</time></trkpt>
<trkpt lat="43.0435520000" lon="0.1188330000"><ele>974</ele><time>2026-03-21T08:08:31Z</time></trkpt>
<trkpt lat="43.0435400000" lon="0.1188150000"><ele>974</ele><time>2026-03-21T08:08:33Z</time></trkpt>
<trkpt lat="43.0435320000" lon="0.1187870000"><ele>974</ele><time>2026-03-21T08:08:35Z</time></trkpt>
<trkpt lat="43.0435520000" lon="0.1187470000"><ele>975</ele><time>2026-03-21T08:08:37Z</time></trkpt>
<trkpt lat="43.0435870000" lon="0.1187220000"><ele>975</ele><time>2026-03-21T08:08:38Z</time></trkpt>
<trkpt lat="43.0436050000" lon="0.1187070000"><ele>975</ele><time>2026-03-21T08:08:39Z</time></trkpt>
<trkpt lat="43.0436250000" lon="0.1186970000"><ele>975</ele><time>2026-03-21T08:08:40Z</time></trkpt>
<trkpt lat="43.0436050000" lon="0.1186870000"><ele>975</ele><time>2026-03-21T08:08:59Z</time></trkpt>
<trkpt lat="43.0435850000" lon="0.1186650000"><ele>975</ele><time>2026-03-21T08:09:01Z</time></trkpt>
<trkpt lat="43.0435620000" lon="0.1186370000"><ele>975</ele><time>2026-03-21T08:09:03Z</time></trkpt>
<trkpt lat="43.0435520000" lon="0.1186020000"><ele>976</ele><time>2026-03-21T08:09:05Z</time></trkpt>
<trkpt lat="43.0435370000" lon="0.1185750000"><ele>976</ele><time>2026-03-21T08:09:07Z</time></trkpt>
<trkpt lat="43.0435170000" lon="0.1185470000"><ele>976</ele><time>2026-03-21T08:09:09Z</time></trkpt>
<trkpt lat="43.0434970000" lon="0.1185220000"><ele>976</ele><time>2026-03-21T08:09:11Z</time></trkpt>
<trkpt lat="43.0434920000" lon="0.1184970000"><ele>976</ele><time>2026-03-21T08:09:13Z</time></trkpt>
<trkpt lat="43.0434820000" lon="0.1184720000"><ele>976</ele><time>2026-03-21T08:09:15Z</time></trkpt>
<trkpt lat="43.0434900000" lon="0.1184370000"><ele>976</ele><time>2026-03-21T08:09:17Z</time></trkpt>
<trkpt lat="43.0434870000" lon="0.1184020000"><ele>977</ele><time>2026-03-21T08:09:19Z</time></trkpt>
<trkpt lat="43.0434820000" lon="0.1183700000"><ele>977</ele><time>2026-03-21T08:09:21Z</time></trkpt>
<trkpt lat="43.0434750000" lon="0.1183420000"><ele>977</ele><time>2026-03-21T08:09:23Z</time></trkpt>
<trkpt lat="43.0434670000" lon="0.1183170000"><ele>977</ele><time>2026-03-21T08:09:25Z</time></trkpt>
<trkpt lat="43.0434600000" lon="0.1182870000"><ele>977</ele><time>2026-03-21T08:09:27Z</time></trkpt>
<trkpt lat="43.0434570000" lon="0.1182570000"><ele>977</ele><time>2026-03-21T08:09:29Z</time></trkpt>
<trkpt lat="43.0434600000" lon="0.1182320000"><ele>977</ele><time>2026-03-21T08:09:31Z</time></trkpt>
<trkpt lat="43.0434600000" lon="0.1182050000"><ele>978</ele><time>2026-03-21T08:09:33Z</time></trkpt>
<trkpt lat="43.0434570000" lon="0.1181770000"><ele>978</ele><time>2026-03-21T08:09:35Z</time></trkpt>
<trkpt lat="43.0434470000" lon="0.1181430000"><ele>978</ele><time>2026-03-21T08:09:37Z</time></trkpt>
<trkpt lat="43.0434420000" lon="0.1181170000"><ele>978</ele><time>2026-03-21T08:09:39Z</time></trkpt>
<trkpt lat="43.0434400000" lon="0.1180870000"><ele>978</ele><time>2026-03-21T08:09:41Z</time></trkpt>
<trkpt lat="43.0434300000" lon="0.1180620000"><ele>978</ele><time>2026-03-21T08:09:43Z</time></trkpt>
<trkpt lat="43.0434100000" lon="0.1180370000"><ele>979</ele><time>2026-03-21T08:09:45Z</time></trkpt>
<trkpt lat="43.0433870000" lon="0.1180100000"><ele>979</ele><time>2026-03-21T08:09:47Z</time></trkpt>
<trkpt lat="43.0433920000" lon="0.1179770000"><ele>979</ele><time>2026-03-21T08:09:49Z</time></trkpt>
<trkpt lat="43.0433920000" lon="0.1179500000"><ele>979</ele><time>2026-03-21T08:09:51Z</time></trkpt>
<trkpt lat="43.0433870000" lon="0.1179150000"><ele>979</ele><time>2026-03-21T08:09:53Z</time></trkpt>
<trkpt lat="43.0433770000" lon="0.1178850000"><ele>979</ele><time>2026-03-21T08:09:55Z</time></trkpt>
<trkpt lat="43.0433670000" lon="0.1178600000"><ele>980</ele><time>2026-03-21T08:09:57Z</time></trkpt>
<trkpt lat="43.0433620000" lon="0.1178220000"><ele>980</ele><time>2026-03-21T08:10:00Z</time></trkpt>
<trkpt lat="43.0433620000" lon="0.1177850000"><ele>980</ele><time>2026-03-21T08:10:02Z</time></trkpt>
<trkpt lat="43.0433570000" lon="0.1177600000"><ele>980</ele><time>2026-03-21T08:10:04Z</time></trkpt>
<trkpt lat="43.0433500000" lon="0.1177370000"><ele>980</ele><time>2026-03-21T08:10:06Z</time></trkpt>
<trkpt lat="43.0433400000" lon="0.1177070000"><ele>980</ele><time>2026-03-21T08:10:08Z</time></trkpt>
<trkpt lat="43.0433320000" lon="0.1176700000"><ele>980</ele><time>2026-03-21T08:10:10Z</time></trkpt>
<trkpt lat="43.0433270000" lon="0.1176420000"><ele>980</ele><time>2026-03-21T08:10:12Z</time></trkpt>
<trkpt lat="43.0433220000" lon="0.1176120000"><ele>981</ele><time>2026-03-21T08:10:14Z</time></trkpt>
<trkpt lat="43.0433120000" lon="0.1175880000"><ele>981</ele><time>2026-03-21T08:10:16Z</time></trkpt>
<trkpt lat="43.0432970000" lon="0.1175650000"><ele>981</ele><time>2026-03-21T08:10:18Z</time></trkpt>
<trkpt lat="43.0432820000" lon="0.1175430000"><ele>981</ele><time>2026-03-21T08:10:20Z</time></trkpt>
<trkpt lat="43.0432770000" lon="0.1175170000"><ele>981</ele><time>2026-03-21T08:10:22Z</time></trkpt>
<trkpt lat="43.0432650000" lon="0.1174970000"><ele>981</ele><time>2026-03-21T08:10:24Z</time></trkpt>
<trkpt lat="43.0432420000" lon="0.1174720000"><ele>981</ele><time>2026-03-21T08:10:26Z</time></trkpt>
<trkpt lat="43.0432300000" lon="0.1174430000"><ele>982</ele><time>2026-03-21T08:10:28Z</time></trkpt>
<trkpt lat="43.0432120000" lon="0.1174170000"><ele>982</ele><time>2026-03-21T08:10:30Z</time></trkpt>
<trkpt lat="43.0431970000" lon="0.1173920000"><ele>982</ele><time>2026-03-21T08:10:32Z</time></trkpt>
<trkpt lat="43.0431770000" lon="0.1173620000"><ele>982</ele><time>2026-03-21T08:10:34Z</time></trkpt>
<trkpt lat="43.0431650000" lon="0.1173300000"><ele>982</ele><time>2026-03-21T08:10:36Z</time></trkpt>
<trkpt lat="43.0431700000" lon="0.1172970000"><ele>983</ele><time>2026-03-21T08:10:38Z</time></trkpt>
<trkpt lat="43.0431620000" lon="0.1172700000"><ele>983</ele><time>2026-03-21T08:10:40Z</time></trkpt>
<trkpt lat="43.0431520000" lon="0.1172370000"><ele>983</ele><time>2026-03-21T08:10:43Z</time></trkpt>
<trkpt lat="43.0431420000" lon="0.1172020000"><ele>983</ele><time>2026-03-21T08:10:46Z</time></trkpt>
<trkpt lat="43.0431320000" lon="0.1171770000"><ele>983</ele><time>2026-03-21T08:10:48Z</time></trkpt>
<trkpt lat="43.0431250000" lon="0.1171420000"><ele>983</ele><time>2026-03-21T08:10:50Z</time></trkpt>
<trkpt lat="43.0431170000" lon="0.1171170000"><ele>984</ele><time>2026-03-21T08:10:52Z</time></trkpt>
<trkpt lat="43.0431100000" lon="0.1170820000"><ele>984</ele><time>2026-03-21T08:10:54Z</time></trkpt>
<trkpt lat="43.0431020000" lon="0.1170570000"><ele>984</ele><time>2026-03-21T08:10:56Z</time></trkpt>
<trkpt lat="43.0430950000" lon="0.1170320000"><ele>984</ele><time>2026-03-21T08:10:58Z</time></trkpt>
<trkpt lat="43.0430920000" lon="0.1170020000"><ele>984</ele><time>2026-03-21T08:11:00Z</time></trkpt>
<trkpt lat="43.0430820000" lon="0.1169770000"><ele>984</ele><time>2026-03-21T08:11:02Z</time></trkpt>
<trkpt lat="43.0430720000" lon="0.1169370000"><ele>985</ele><time>2026-03-21T08:11:05Z</time></trkpt>
<trkpt lat="43.0430650000" lon="0.1169120000"><ele>985</ele><time>2026-03-21T08:11:07Z</time></trkpt>
<trkpt lat="43.0430470000" lon="0.1168880000"><ele>985</ele><time>2026-03-21T08:11:09Z</time></trkpt>
<trkpt lat="43.0430320000" lon="0.1168620000"><ele>985</ele><time>2026-03-21T08:11:11Z</time></trkpt>
<trkpt lat="43.0430220000" lon="0.1168350000"><ele>985</ele><time>2026-03-21T08:11:13Z</time></trkpt>
<trkpt lat="43.0430000000" lon="0.1168070000"><ele>985</ele><time>2026-03-21T08:11:15Z</time></trkpt>
<trkpt lat="43.0429770000" lon="0.1167770000"><ele>986</ele><time>2026-03-21T08:11:17Z</time></trkpt>
<trkpt lat="43.0429600000" lon="0.1167500000"><ele>986</ele><time>2026-03-21T08:11:19Z</time></trkpt>
<trkpt lat="43.0429450000" lon="0.1167220000"><ele>986</ele><time>2026-03-21T08:11:21Z</time></trkpt>
<trkpt lat="43.0429280000" lon="0.1166950000"><ele>986</ele><time>2026-03-21T08:11:23Z</time></trkpt>
<trkpt lat="43.0429170000" lon="0.1166720000"><ele>986</ele><time>2026-03-21T08:11:25Z</time></trkpt>
<trkpt lat="43.0429020000" lon="0.1166550000"><ele>986</ele><time>2026-03-21T08:11:27Z</time></trkpt>
<trkpt lat="43.0428920000" lon="0.1166350000"><ele>986</ele><time>2026-03-21T08:11:29Z</time></trkpt>
<trkpt lat="43.0428820000" lon="0.1166120000"><ele>987</ele><time>2026-03-21T08:11:31Z</time></trkpt>
<trkpt lat="43.0428670000" lon="0.1165920000"><ele>987</ele><time>2026-03-21T08:11:33Z</time></trkpt>
<trkpt lat="43.0428470000" lon="0.1165670000"><ele>987</ele><time>2026-03-21T08:11:36Z</time></trkpt>
<trkpt lat="43.0428320000" lon="0.1165350000"><ele>987</ele><time>2026-03-21T08:11:39Z</time></trkpt>
<trkpt lat="43.0428200000" lon="0.1165070000"><ele>987</ele><time>2026-03-21T08:11:42Z</time></trkpt>
<trkpt lat="43.0428000000" lon="0.1164820000"><ele>987</ele><time>2026-03-21T08:11:44Z</time></trkpt>
<trkpt lat="43.0427820000" lon="0.1164720000"><ele>988</ele><time>2026-03-21T08:11:45Z</time></trkpt>
<trkpt lat="43.0427650000" lon="0.1164500000"><ele>988</ele><time>2026-03-21T08:11:47Z</time></trkpt>
<trkpt lat="43.0427320000" lon="0.1164370000"><ele>988</ele><time>2026-03-21T08:11:49Z</time></trkpt>
<trkpt lat="43.0427120000" lon="0.1164300000"><ele>988</ele><time>2026-03-21T08:11:51Z</time></trkpt>
<trkpt lat="43.0426950000" lon="0.1164120000"><ele>988</ele><time>2026-03-21T08:11:53Z</time></trkpt>
<trkpt lat="43.0426800000" lon="0.1163970000"><ele>988</ele><time>2026-03-21T08:11:55Z</time></trkpt>
<trkpt lat="43.0426620000" lon="0.1163850000"><ele>989</ele><time>2026-03-21T08:11:58Z</time></trkpt>
<trkpt lat="43.0426420000" lon="0.1163820000"><ele>989</ele><time>2026-03-21T08:12:00Z</time></trkpt>
<trkpt lat="43.0426170000" lon="0.1163750000"><ele>989</ele><time>2026-03-21T08:12:02Z</time></trkpt>
<trkpt lat="43.0425950000" lon="0.1163670000"><ele>989</ele><time>2026-03-21T08:12:04Z</time></trkpt>
<trkpt lat="43.0425820000" lon="0.1163470000"><ele>989</ele><time>2026-03-21T08:12:06Z</time></trkpt>
<trkpt lat="43.0425670000" lon="0.1163250000"><ele>989</ele><time>2026-03-21T08:12:08Z</time></trkpt>
<trkpt lat="43.0425500000" lon="0.1162970000"><ele>990</ele><time>2026-03-21T08:12:11Z</time></trkpt>
<trkpt lat="43.0425470000" lon="0.1162720000"><ele>990</ele><time>2026-03-21T08:12:12Z</time></trkpt>
<trkpt lat="43.0425270000" lon="0.1162350000"><ele>990</ele><time>2026-03-21T08:12:14Z</time></trkpt>
<trkpt lat="43.0425070000" lon="0.1162050000"><ele>990</ele><time>2026-03-21T08:12:16Z</time></trkpt>
<trkpt lat="43.0424970000" lon="0.1161820000"><ele>990</ele><time>2026-03-21T08:12:18Z</time></trkpt>
<trkpt lat="43.0424750000" lon="0.1161600000"><ele>990</ele><time>2026-03-21T08:12:21Z</time></trkpt>
<trkpt lat="43.0424520000" lon="0.1161530000"><ele>991</ele><time>2026-03-21T08:12:23Z</time></trkpt>
<trkpt lat="43.0424350000" lon="0.1161400000"><ele>991</ele><time>2026-03-21T08:12:25Z</time></trkpt>
<trkpt lat="43.0424170000" lon="0.1161270000"><ele>991</ele><time>2026-03-21T08:12:27Z</time></trkpt>
<trkpt lat="43.0423970000" lon="0.1161120000"><ele>991</ele><time>2026-03-21T08:12:29Z</time></trkpt>
<trkpt lat="43.0423750000" lon="0.1161020000"><ele>991</ele><time>2026-03-21T08:12:32Z</time></trkpt>
<trkpt lat="43.0423520000" lon="0.1160920000"><ele>991</ele><time>2026-03-21T08:12:34Z</time></trkpt>
<trkpt lat="43.0423350000" lon="0.1160820000"><ele>991</ele><time>2026-03-21T08:12:35Z</time></trkpt>
<trkpt lat="43.0423120000" lon="0.1160720000"><ele>992</ele><time>2026-03-21T08:12:37Z</time></trkpt>
<trkpt lat="43.0422970000" lon="0.1160520000"><ele>992</ele><time>2026-03-21T08:12:39Z</time></trkpt>
<trkpt lat="43.0422850000" lon="0.1160350000"><ele>992</ele><time>2026-03-21T08:12:41Z</time></trkpt>
<trkpt lat="43.0422720000" lon="0.1160120000"><ele>992</ele><time>2026-03-21T08:12:43Z</time></trkpt>
<trkpt lat="43.0422470000" lon="0.1159930000"><ele>992</ele><time>2026-03-21T08:12:45Z</time></trkpt>
<trkpt lat="43.0422220000" lon="0.1159750000"><ele>992</ele><time>2026-03-21T08:12:47Z</time></trkpt>
<trkpt lat="43.0422150000" lon="0.1159470000"><ele>992</ele><time>2026-03-21T08:12:48Z</time></trkpt>
<trkpt lat="43.0421970000" lon="0.1159370000"><ele>992</ele><time>2026-03-21T08:12:50Z</time></trkpt>
<trkpt lat="43.0421720000" lon="0.1159230000"><ele>992</ele><time>2026-03-21T08:12:53Z</time></trkpt>
<trkpt lat="43.0421550000" lon="0.1159220000"><ele>993</ele><time>2026-03-21T08:12:55Z</time></trkpt>
<trkpt lat="43.0421420000" lon="0.1158970000"><ele>993</ele><time>2026-03-21T08:12:58Z</time></trkpt>
<trkpt lat="43.0421270000" lon="0.1158820000"><ele>993</ele><time>2026-03-21T08:13:01Z</time></trkpt>
<trkpt lat="43.0421020000" lon="0.1158720000"><ele>993</ele><time>2026-03-21T08:13:03Z</time></trkpt>
<trkpt lat="43.0420770000" lon="0.1158670000"><ele>993</ele><time>2026-03-21T08:13:05Z</time></trkpt>
<trkpt lat="43.0420550000" lon="0.1158520000"><ele>993</ele><time>2026-03-21T08:13:07Z</time></trkpt>
<trkpt lat="43.0420320000" lon="0.1158370000"><ele>994</ele><time>2026-03-21T08:13:09Z</time></trkpt>
<trkpt lat="43.0420100000" lon="0.1158070000"><ele>994</ele><time>2026-03-21T08:13:11Z</time></trkpt>
<trkpt lat="43.0419750000" lon="0.1157770000"><ele>994</ele><time>2026-03-21T08:13:13Z</time></trkpt>
<trkpt lat="43.0419500000" lon="0.1157570000"><ele>994</ele><time>2026-03-21T08:13:15Z</time></trkpt>
<trkpt lat="43.0419270000" lon="0.1157500000"><ele>994</ele><time>2026-03-21T08:13:17Z</time></trkpt>
<trkpt lat="43.0419020000" lon="0.1157350000"><ele>994</ele><time>2026-03-21T08:13:21Z</time></trkpt>
<trkpt lat="43.0418920000" lon="0.1157120000"><ele>995</ele><time>2026-03-21T08:13:23Z</time></trkpt>
<trkpt lat="43.0418720000" lon="0.1156870000"><ele>995</ele><time>2026-03-21T08:13:25Z</time></trkpt>
<trkpt lat="43.0418520000" lon="0.1156720000"><ele>995</ele><time>2026-03-21T08:13:26Z</time></trkpt>
<trkpt lat="43.0418320000" lon="0.1156520000"><ele>995</ele><time>2026-03-21T08:13:28Z</time></trkpt>
<trkpt lat="43.0418220000" lon="0.1156270000"><ele>995</ele><time>2026-03-21T08:13:31Z</time></trkpt>
<trkpt lat="43.0418020000" lon="0.1155980000"><ele>995</ele><time>2026-03-21T08:13:34Z</time></trkpt>
<trkpt lat="43.0417800000" lon="0.1155770000"><ele>995</ele><time>2026-03-21T08:13:37Z</time></trkpt>
<trkpt lat="43.0417570000" lon="0.1155520000"><ele>996</ele><time>2026-03-21T08:13:39Z</time></trkpt>
<trkpt lat="43.0417370000" lon="0.1155320000"><ele>996</ele><time>2026-03-21T08:13:41Z</time></trkpt>
<trkpt lat="43.0417180000" lon="0.1155170000"><ele>996</ele><time>2026-03-21T08:13:42Z</time></trkpt>
<trkpt lat="43.0417070000" lon="0.1154970000"><ele>996</ele><time>2026-03-21T08:13:43Z</time></trkpt>
<trkpt lat="43.0417000000" lon="0.1154670000"><ele>996</ele><time>2026-03-21T08:13:44Z</time></trkpt>
<trkpt lat="43.0416850000" lon="0.1154470000"><ele>996</ele><time>2026-03-21T08:13:45Z</time></trkpt>
<trkpt lat="43.0416600000" lon="0.1154150000"><ele>996</ele><time>2026-03-21T08:13:47Z</time></trkpt>
<trkpt lat="43.0416370000" lon="0.1153820000"><ele>996</ele><time>2026-03-21T08:13:49Z</time></trkpt>
<trkpt lat="43.0416300000" lon="0.1153600000"><ele>996</ele><time>2026-03-21T08:13:50Z</time></trkpt>
<trkpt lat="43.0416170000" lon="0.1153320000"><ele>996</ele><time>2026-03-21T08:13:52Z</time></trkpt>
<trkpt lat="43.0416050000" lon="0.1153150000"><ele>997</ele><time>2026-03-21T08:13:54Z</time></trkpt>
<trkpt lat="43.0415870000" lon="0.1153050000"><ele>997</ele><time>2026-03-21T08:13:57Z</time></trkpt>
<trkpt lat="43.0415770000" lon="0.1152820000"><ele>997</ele><time>2026-03-21T08:13:59Z</time></trkpt>
<trkpt lat="43.0415630000" lon="0.1152620000"><ele>997</ele><time>2026-03-21T08:14:01Z</time></trkpt>
<trkpt lat="43.0415520000" lon="0.1152420000"><ele>997</ele><time>2026-03-21T08:14:03Z</time></trkpt>
<trkpt lat="43.0415370000" lon="0.1152150000"><ele>998</ele><time>2026-03-21T08:14:06Z</time></trkpt>
<trkpt lat="43.0415220000" lon="0.1152020000"><ele>998</ele><time>2026-03-21T08:14:09Z</time></trkpt>
<trkpt lat="43.0415020000" lon="0.1151800000"><ele>998</ele><time>2026-03-21T08:14:11Z</time></trkpt>
<trkpt lat="43.0414850000" lon="0.1151650000"><ele>998</ele><time>2026-03-21T08:14:13Z</time></trkpt>
<trkpt lat="43.0414720000" lon="0.1151470000"><ele>998</ele><time>2026-03-21T08:14:15Z</time></trkpt>
<trkpt lat="43.0414570000" lon="0.1151320000"><ele>998</ele><time>2026-03-21T08:14:17Z</time></trkpt>
<trkpt lat="43.0414400000" lon="0.1151120000"><ele>999</ele><time>2026-03-21T08:14:19Z</time></trkpt>
<trkpt lat="43.0414220000" lon="0.1150870000"><ele>999</ele><time>2026-03-21T08:14:21Z</time></trkpt>
<trkpt lat="43.0414120000" lon="0.1150650000"><ele>999</ele><time>2026-03-21T08:14:23Z</time></trkpt>
<trkpt lat="43.0414000000" lon="0.1150420000"><ele>999</ele><time>2026-03-21T08:14:25Z</time></trkpt>
<trkpt lat="43.0413870000" lon="0.1150220000"><ele>999</ele><time>2026-03-21T08:14:27Z</time></trkpt>
<trkpt lat="43.0413770000" lon="0.1150020000"><ele>999</ele><time>2026-03-21T08:14:29Z</time></trkpt>
<trkpt lat="43.0413620000" lon="0.1149730000"><ele>1000</ele><time>2026-03-21T08:14:31Z</time></trkpt>
<trkpt lat="43.0413520000" lon="0.1149520000"><ele>1000</ele><time>2026-03-21T08:14:34Z</time></trkpt>
<trkpt lat="43.0413720000" lon="0.1149650000"><ele>1000</ele><time>2026-03-21T08:14:47Z</time></trkpt>
<trkpt lat="43.0413870000" lon="0.1149850000"><ele>1000</ele><time>2026-03-21T08:14:50Z</time></trkpt>
<trkpt lat="43.0413670000" lon="0.1149620000"><ele>1000</ele><time>2026-03-21T08:14:57Z</time></trkpt>
<trkpt lat="43.0413550000" lon="0.1149420000"><ele>1000</ele><time>2026-03-21T08:14:58Z</time></trkpt>
<trkpt lat="43.0413420000" lon="0.1149250000"><ele>1000</ele><time>2026-03-21T08:14:59Z</time></trkpt>
<trkpt lat="43.0413170000" lon="0.1149000000"><ele>1000</ele><time>2026-03-21T08:15:01Z</time></trkpt>
<trkpt lat="43.0412970000" lon="0.1148920000"><ele>1000</ele><time>2026-03-21T08:15:02Z</time></trkpt>
<trkpt lat="43.0412820000" lon="0.1148750000"><ele>1000</ele><time>2026-03-21T08:15:03Z</time></trkpt>
<trkpt lat="43.0412620000" lon="0.1148650000"><ele>1000</ele><time>2026-03-21T08:15:04Z</time></trkpt>
<trkpt lat="43.0412320000" lon="0.1148470000"><ele>1000</ele><time>2026-03-21T08:15:06Z</time></trkpt>
<trkpt lat="43.0412120000" lon="0.1148250000"><ele>1001</ele><time>2026-03-21T08:15:08Z</time></trkpt>
<trkpt lat="43.0411970000" lon="0.1148050000"><ele>1001</ele><time>2026-03-21T08:15:10Z</time></trkpt>
<trkpt lat="43.0411770000" lon="0.1147800000"><ele>1001</ele><time>2026-03-21T08:15:12Z</time></trkpt>
<trkpt lat="43.0411570000" lon="0.1147570000"><ele>1001</ele><time>2026-03-21T08:15:14Z</time></trkpt>
<trkpt lat="43.0411350000" lon="0.1147350000"><ele>1001</ele><time>2026-03-21T08:15:16Z</time></trkpt>
<trkpt lat="43.0411130000" lon="0.1147150000"><ele>1001</ele><time>2026-03-21T08:15:18Z</time></trkpt>
<trkpt lat="43.0410950000" lon="0.1146970000"><ele>1002</ele><time>2026-03-21T08:15:20Z</time></trkpt>
<trkpt lat="43.0410770000" lon="0.1146870000"><ele>1002</ele><time>2026-03-21T08:15:22Z</time></trkpt>
<trkpt lat="43.0410570000" lon="0.1146720000"><ele>1002</ele><time>2026-03-21T08:15:24Z</time></trkpt>
<trkpt lat="43.0410370000" lon="0.1146670000"><ele>1002</ele><time>2026-03-21T08:15:26Z</time></trkpt>
<trkpt lat="43.0410120000" lon="0.1146570000"><ele>1002</ele><time>2026-03-21T08:15:28Z</time></trkpt>
<trkpt lat="43.0409900000" lon="0.1146520000"><ele>1003</ele><time>2026-03-21T08:15:30Z</time></trkpt>
<trkpt lat="43.0409720000" lon="0.1146450000"><ele>1003</ele><time>2026-03-21T08:15:32Z</time></trkpt>
<trkpt lat="43.0409450000" lon="0.1146370000"><ele>1003</ele><time>2026-03-21T08:15:35Z</time></trkpt>
<trkpt lat="43.0409270000" lon="0.1146270000"><ele>1003</ele><time>2026-03-21T08:15:37Z</time></trkpt>
<trkpt lat="43.0409050000" lon="0.1146150000"><ele>1003</ele><time>2026-03-21T08:15:39Z</time></trkpt>
<trkpt lat="43.0408820000" lon="0.1146030000"><ele>1004</ele><time>2026-03-21T08:15:41Z</time></trkpt>
<trkpt lat="43.0408600000" lon="0.1145920000"><ele>1004</ele><time>2026-03-21T08:15:43Z</time></trkpt>
<trkpt lat="43.0408350000" lon="0.1145920000"><ele>1004</ele><time>2026-03-21T08:15:45Z</time></trkpt>
<trkpt lat="43.0408120000" lon="0.1145920000"><ele>1004</ele><time>2026-03-21T08:15:47Z</time></trkpt>
<trkpt lat="43.0407900000" lon="0.1145820000"><ele>1004</ele><time>2026-03-21T08:15:50Z</time></trkpt>
<trkpt lat="43.0407700000" lon="0.1145750000"><ele>1004</ele><time>2026-03-21T08:15:52Z</time></trkpt>
<trkpt lat="43.0407470000" lon="0.1145620000"><ele>1004</ele><time>2026-03-21T08:15:54Z</time></trkpt>
<trkpt lat="43.0407220000" lon="0.1145770000"><ele>1004</ele><time>2026-03-21T08:15:56Z</time></trkpt>
<trkpt lat="43.0406970000" lon="0.1145770000"><ele>1005</ele><time>2026-03-21T08:15:59Z</time></trkpt>
<trkpt lat="43.0406770000" lon="0.1145800000"><ele>1005</ele><time>2026-03-21T08:16:01Z</time></trkpt>
<trkpt lat="43.0406550000" lon="0.1145820000"><ele>1005</ele><time>2026-03-21T08:16:04Z</time></trkpt>
<trkpt lat="43.0406320000" lon="0.1145900000"><ele>1005</ele><time>2026-03-21T08:16:06Z</time></trkpt>
<trkpt lat="43.0405970000" lon="0.1146170000"><ele>1005</ele><time>2026-03-21T08:16:08Z</time></trkpt>
<trkpt lat="43.0405820000" lon="0.1146370000"><ele>1005</ele><time>2026-03-21T08:16:09Z</time></trkpt>
<trkpt lat="43.0405600000" lon="0.1146420000"><ele>1005</ele><time>2026-03-21T08:16:11Z</time></trkpt>
<trkpt lat="43.0405370000" lon="0.1146450000"><ele>1006</ele><time>2026-03-21T08:16:13Z</time></trkpt>
<trkpt lat="43.0405220000" lon="0.1146600000"><ele>1006</ele><time>2026-03-21T08:16:14Z</time></trkpt>
<trkpt lat="43.0404920000" lon="0.1146970000"><ele>1006</ele><time>2026-03-21T08:16:17Z</time></trkpt>
<trkpt lat="43.0404770000" lon="0.1147170000"><ele>1006</ele><time>2026-03-21T08:16:18Z</time></trkpt>
<trkpt lat="43.0404600000" lon="0.1147350000"><ele>1006</ele><time>2026-03-21T08:16:20Z</time></trkpt>
<trkpt lat="43.0404470000" lon="0.1147550000"><ele>1006</ele><time>2026-03-21T08:16:22Z</time></trkpt>
<trkpt lat="43.0404270000" lon="0.1147600000"><ele>1006</ele><time>2026-03-21T08:16:25Z</time></trkpt>
<trkpt lat="43.0404070000" lon="0.1147520000"><ele>1007</ele><time>2026-03-21T08:16:28Z</time></trkpt>
<trkpt lat="43.0403870000" lon="0.1147670000"><ele>1007</ele><time>2026-03-21T08:16:31Z</time></trkpt>
<trkpt lat="43.0403770000" lon="0.1147870000"><ele>1007</ele><time>2026-03-21T08:16:34Z</time></trkpt>
<trkpt lat="43.0403600000" lon="0.1148050000"><ele>1007</ele><time>2026-03-21T08:16:37Z</time></trkpt>
<trkpt lat="43.0403370000" lon="0.1148320000"><ele>1008</ele><time>2026-03-21T08:16:40Z</time></trkpt>
<trkpt lat="43.0403320000" lon="0.1148550000"><ele>1008</ele><time>2026-03-21T08:16:42Z</time></trkpt>
<trkpt lat="43.0403270000" lon="0.1148900000"><ele>1008</ele><time>2026-03-21T08:16:44Z</time></trkpt>
<trkpt lat="43.0403170000" lon="0.1149220000"><ele>1008</ele><time>2026-03-21T08:16:46Z</time></trkpt>
<trkpt lat="43.0403000000" lon="0.1149400000"><ele>1008</ele><time>2026-03-21T08:16:48Z</time></trkpt>
<trkpt lat="43.0402770000" lon="0.1149450000"><ele>1008</ele><time>2026-03-21T08:16:50Z</time></trkpt>
<trkpt lat="43.0402520000" lon="0.1149470000"><ele>1008</ele><time>2026-03-21T08:16:52Z</time></trkpt>
<trkpt lat="43.0402170000" lon="0.1149420000"><ele>1008</ele><time>2026-03-21T08:16:54Z</time></trkpt>
<trkpt lat="43.0401920000" lon="0.1149320000"><ele>1008</ele><time>2026-03-21T08:16:56Z</time></trkpt>
<trkpt lat="43.0401650000" lon="0.1149100000"><ele>1008</ele><time>2026-03-21T08:16:58Z</time></trkpt>
<trkpt lat="43.0401400000" lon="0.1148780000"><ele>1008</ele><time>2026-03-21T08:17:00Z</time></trkpt>
<trkpt lat="43.0401200000" lon="0.1148570000"><ele>1008</ele><time>2026-03-21T08:17:02Z</time></trkpt>
<trkpt lat="43.0401000000" lon="0.1148570000"><ele>1008</ele><time>2026-03-21T08:17:03Z</time></trkpt>
<trkpt lat="43.0400820000" lon="0.1148470000"><ele>1008</ele><time>2026-03-21T08:17:04Z</time></trkpt>
<trkpt lat="43.0400670000" lon="0.1148080000"><ele>1008</ele><time>2026-03-21T08:17:06Z</time></trkpt>
<trkpt lat="43.0400580000" lon="0.1147850000"><ele>1008</ele><time>2026-03-21T08:17:07Z</time></trkpt>
<trkpt lat="43.0400550000" lon="0.1147550000"><ele>1008</ele><time>2026-03-21T08:17:08Z</time></trkpt>
<trkpt lat="43.0400500000" lon="0.1147270000"><ele>1008</ele><time>2026-03-21T08:17:09Z</time></trkpt>
<trkpt lat="43.0400550000" lon="0.1146820000"><ele>1009</ele><time>2026-03-21T08:17:11Z</time></trkpt>
<trkpt lat="43.0400580000" lon="0.1146400000"><ele>1009</ele><time>2026-03-21T08:17:13Z</time></trkpt>
<trkpt lat="43.0400470000" lon="0.1145970000"><ele>1009</ele><time>2026-03-21T08:17:15Z</time></trkpt>
<trkpt lat="43.0400420000" lon="0.1145570000"><ele>1009</ele><time>2026-03-21T08:17:17Z</time></trkpt>
<trkpt lat="43.0400420000" lon="0.1145170000"><ele>1009</ele><time>2026-03-21T08:17:19Z</time></trkpt>
<trkpt lat="43.0400470000" lon="0.1144850000"><ele>1010</ele><time>2026-03-21T08:17:21Z</time></trkpt>
<trkpt lat="43.0400570000" lon="0.1144520000"><ele>1010</ele><time>2026-03-21T08:17:23Z</time></trkpt>
<trkpt lat="43.0400520000" lon="0.1144120000"><ele>1010</ele><time>2026-03-21T08:17:25Z</time></trkpt>
<trkpt lat="43.0400520000" lon="0.1143820000"><ele>1010</ele><time>2026-03-21T08:17:27Z</time></trkpt>
<trkpt lat="43.0400700000" lon="0.1143550000"><ele>1010</ele><time>2026-03-21T08:17:29Z</time></trkpt>
<trkpt lat="43.0400720000" lon="0.1143270000"><ele>1010</ele><time>2026-03-21T08:17:31Z</time></trkpt>
<trkpt lat="43.0400650000" lon="0.1142970000"><ele>1011</ele><time>2026-03-21T08:17:33Z</time></trkpt>
<trkpt lat="43.0400770000" lon="0.1142580000"><ele>1011</ele><time>2026-03-21T08:17:35Z</time></trkpt>
<trkpt lat="43.0400750000" lon="0.1142200000"><ele>1011</ele><time>2026-03-21T08:17:37Z</time></trkpt>
<trkpt lat="43.0400670000" lon="0.1141870000"><ele>1011</ele><time>2026-03-21T08:17:39Z</time></trkpt>
<trkpt lat="43.0400620000" lon="0.1141520000"><ele>1011</ele><time>2026-03-21T08:17:41Z</time></trkpt>
<trkpt lat="43.0400520000" lon="0.1141220000"><ele>1012</ele><time>2026-03-21T08:17:43Z</time></trkpt>
<trkpt lat="43.0400450000" lon="0.1140900000"><ele>1012</ele><time>2026-03-21T08:17:45Z</time></trkpt>
<trkpt lat="43.0400420000" lon="0.1140650000"><ele>1012</ele><time>2026-03-21T08:17:48Z</time></trkpt>
<trkpt lat="43.0400420000" lon="0.1140370000"><ele>1012</ele><time>2026-03-21T08:17:50Z</time></trkpt>
<trkpt lat="43.0400370000" lon="0.1140100000"><ele>1012</ele><time>2026-03-21T08:17:52Z</time></trkpt>
<trkpt lat="43.0400520000" lon="0.1139820000"><ele>1012</ele><time>2026-03-21T08:17:54Z</time></trkpt>
<trkpt lat="43.0400570000" lon="0.1139500000"><ele>1012</ele><time>2026-03-21T08:17:56Z</time></trkpt>
<trkpt lat="43.0400700000" lon="0.1139270000"><ele>1013</ele><time>2026-03-21T08:17:58Z</time></trkpt>
<trkpt lat="43.0400650000" lon="0.1139000000"><ele>1013</ele><time>2026-03-21T08:18:00Z</time></trkpt>
<trkpt lat="43.0400570000" lon="0.1138720000"><ele>1013</ele><time>2026-03-21T08:18:02Z</time></trkpt>
<trkpt lat="43.0400520000" lon="0.1138430000"><ele>1013</ele><time>2026-03-21T08:18:04Z</time></trkpt>
<trkpt lat="43.0400500000" lon="0.1138170000"><ele>1013</ele><time>2026-03-21T08:18:06Z</time></trkpt>
<trkpt lat="43.0400520000" lon="0.1137900000"><ele>1014</ele><time>2026-03-21T08:18:08Z</time></trkpt>
<trkpt lat="43.0400550000" lon="0.1137620000"><ele>1014</ele><time>2026-03-21T08:18:10Z</time></trkpt>
<trkpt lat="43.0400570000" lon="0.1137350000"><ele>1014</ele><time>2026-03-21T08:18:12Z</time></trkpt>
<trkpt lat="43.0400520000" lon="0.1136970000"><ele>1014</ele><time>2026-03-21T08:18:15Z</time></trkpt>
<trkpt lat="43.0400450000" lon="0.1136750000"><ele>1014</ele><time>2026-03-21T08:18:17Z</time></trkpt>
<trkpt lat="43.0400370000" lon="0.1136420000"><ele>1014</ele><time>2026-03-21T08:18:19Z</time></trkpt>
<trkpt lat="43.0400220000" lon="0.1136170000"><ele>1015</ele><time>2026-03-21T08:18:21Z</time></trkpt>
<trkpt lat="43.0400100000" lon="0.1136000000"><ele>1015</ele><time>2026-03-21T08:18:23Z</time></trkpt>
<trkpt lat="43.0399920000" lon="0.1135720000"><ele>1015</ele><time>2026-03-21T08:18:26Z</time></trkpt>
<trkpt lat="43.0399770000" lon="0.1135500000"><ele>1015</ele><time>2026-03-21T08:18:28Z</time></trkpt>
<trkpt lat="43.0399470000" lon="0.1135270000"><ele>1015</ele><time>2026-03-21T08:18:31Z</time></trkpt>
<trkpt lat="43.0399250000" lon="0.1135100000"><ele>1015</ele><time>2026-03-21T08:18:33Z</time></trkpt>
<trkpt lat="43.0399030000" lon="0.1134920000"><ele>1015</ele><time>2026-03-21T08:18:35Z</time></trkpt>
<trkpt lat="43.0398770000" lon="0.1134720000"><ele>1016</ele><time>2026-03-21T08:18:37Z</time></trkpt>
<trkpt lat="43.0398570000" lon="0.1134600000"><ele>1016</ele><time>2026-03-21T08:18:39Z</time></trkpt>
<trkpt lat="43.0398370000" lon="0.1134550000"><ele>1016</ele><time>2026-03-21T08:18:41Z</time></trkpt>
<trkpt lat="43.0398120000" lon="0.1134720000"><ele>1016</ele><time>2026-03-21T08:18:43Z</time></trkpt>
<trkpt lat="43.0397820000" lon="0.1134700000"><ele>1016</ele><time>2026-03-21T08:18:45Z</time></trkpt>
<trkpt lat="43.0397520000" lon="0.1134620000"><ele>1016</ele><time>2026-03-21T08:18:47Z</time></trkpt>
<trkpt lat="43.0397320000" lon="0.1134520000"><ele>1016</ele><time>2026-03-21T08:18:48Z</time></trkpt>
<trkpt lat="43.0397000000" lon="0.1134620000"><ele>1016</ele><time>2026-03-21T08:18:50Z</time></trkpt>
<trkpt lat="43.0396770000" lon="0.1134670000"><ele>1017</ele><time>2026-03-21T08:18:52Z</time></trkpt>
<trkpt lat="43.0396520000" lon="0.1134750000"><ele>1017</ele><time>2026-03-21T08:18:54Z</time></trkpt>
<trkpt lat="43.0396270000" lon="0.1134820000"><ele>1017</ele><time>2026-03-21T08:18:56Z</time></trkpt>
<trkpt lat="43.0396070000" lon="0.1134870000"><ele>1017</ele><time>2026-03-21T08:18:58Z</time></trkpt>
<trkpt lat="43.0395920000" lon="0.1135020000"><ele>1017</ele><time>2026-03-21T08:19:00Z</time></trkpt>
<trkpt lat="43.0395720000" lon="0.1135150000"><ele>1017</ele><time>2026-03-21T08:19:03Z</time></trkpt>
<trkpt lat="43.0395470000" lon="0.1135270000"><ele>1018</ele><time>2026-03-21T08:19:06Z</time></trkpt>
<trkpt lat="43.0395270000" lon="0.1135450000"><ele>1018</ele><time>2026-03-21T08:19:08Z</time></trkpt>
<trkpt lat="43.0394970000" lon="0.1135220000"><ele>1018</ele><time>2026-03-21T08:19:10Z</time></trkpt>
<trkpt lat="43.0394770000" lon="0.1135170000"><ele>1018</ele><time>2026-03-21T08:19:12Z</time></trkpt>
<trkpt lat="43.0394520000" lon="0.1135120000"><ele>1018</ele><time>2026-03-21T08:19:15Z</time></trkpt>
<trkpt lat="43.0394270000" lon="0.1135220000"><ele>1019</ele><time>2026-03-21T08:19:18Z</time></trkpt>
<trkpt lat="43.0394020000" lon="0.1135220000"><ele>1019</ele><time>2026-03-21T08:19:20Z</time></trkpt>
<trkpt lat="43.0393820000" lon="0.1135520000"><ele>1019</ele><time>2026-03-21T08:19:22Z</time></trkpt>
<trkpt lat="43.0393620000" lon="0.1135770000"><ele>1019</ele><time>2026-03-21T08:19:24Z</time></trkpt>
<trkpt lat="43.0393420000" lon="0.1135920000"><ele>1019</ele><time>2026-03-21T08:19:26Z</time></trkpt>
<trkpt lat="43.0393250000" lon="0.1136120000"><ele>1019</ele><time>2026-03-21T08:19:28Z</time></trkpt>
<trkpt lat="43.0393050000" lon="0.1136270000"><ele>1019</ele><time>2026-03-21T08:19:30Z</time></trkpt>
<trkpt lat="43.0392820000" lon="0.1136270000"><ele>1019</ele><time>2026-03-21T08:19:32Z</time></trkpt>
<trkpt lat="43.0392600000" lon="0.1136320000"><ele>1019</ele><time>2026-03-21T08:19:34Z</time></trkpt>
<trkpt lat="43.0392350000" lon="0.1136420000"><ele>1020</ele><time>2026-03-21T08:19:36Z</time></trkpt>
<trkpt lat="43.0392120000" lon="0.1136470000"><ele>1020</ele><time>2026-03-21T08:19:38Z</time></trkpt>
<trkpt lat="43.0391870000" lon="0.1136280000"><ele>1020</ele><time>2026-03-21T08:19:40Z</time></trkpt>
<trkpt lat="43.0391670000" lon="0.1136400000"><ele>1020</ele><time>2026-03-21T08:19:42Z</time></trkpt>
<trkpt lat="43.0391430000" lon="0.1136420000"><ele>1020</ele><time>2026-03-21T08:19:44Z</time></trkpt>
<trkpt lat="43.0391200000" lon="0.1136370000"><ele>1021</ele><time>2026-03-21T08:19:46Z</time></trkpt>
<trkpt lat="43.0391020000" lon="0.1136330000"><ele>1021</ele><time>2026-03-21T08:19:48Z</time></trkpt>
<trkpt lat="43.0390820000" lon="0.1136500000"><ele>1021</ele><time>2026-03-21T08:19:50Z</time></trkpt>
<trkpt lat="43.0390600000" lon="0.1136600000"><ele>1021</ele><time>2026-03-21T08:19:52Z</time></trkpt>
<trkpt lat="43.0390350000" lon="0.1136770000"><ele>1021</ele><time>2026-03-21T08:19:54Z</time></trkpt>
<trkpt lat="43.0390170000" lon="0.1136820000"><ele>1022</ele><time>2026-03-21T08:19:56Z</time></trkpt>
<trkpt lat="43.0389950000" lon="0.1136870000"><ele>1022</ele><time>2026-03-21T08:19:58Z</time></trkpt>
<trkpt lat="43.0389770000" lon="0.1136820000"><ele>1022</ele><time>2026-03-21T08:19:59Z</time></trkpt>
<trkpt lat="43.0389470000" lon="0.1136820000"><ele>1022</ele><time>2026-03-21T08:20:01Z</time></trkpt>
<trkpt lat="43.0389250000" lon="0.1136920000"><ele>1022</ele><time>2026-03-21T08:20:03Z</time></trkpt>
<trkpt lat="43.0389070000" lon="0.1136970000"><ele>1022</ele><time>2026-03-21T08:20:06Z</time></trkpt>
<trkpt lat="43.0388870000" lon="0.1137020000"><ele>1022</ele><time>2026-03-21T08:20:08Z</time></trkpt>
<trkpt lat="43.0388620000" lon="0.1137200000"><ele>1022</ele><time>2026-03-21T08:20:10Z</time></trkpt>
<trkpt lat="43.0388420000" lon="0.1137320000"><ele>1023</ele><time>2026-03-21T08:20:12Z</time></trkpt>
<trkpt lat="43.0388220000" lon="0.1137520000"><ele>1023</ele><time>2026-03-21T08:20:14Z</time></trkpt>
<trkpt lat="43.0388000000" lon="0.1137680000"><ele>1023</ele><time>2026-03-21T08:20:17Z</time></trkpt>
<trkpt lat="43.0387750000" lon="0.1137670000"><ele>1023</ele><time>2026-03-21T08:20:19Z</time></trkpt>
<trkpt lat="43.0387520000" lon="0.1137650000"><ele>1023</ele><time>2026-03-21T08:20:22Z</time></trkpt>
<trkpt lat="43.0387320000" lon="0.1137800000"><ele>1024</ele><time>2026-03-21T08:20:25Z</time></trkpt>
<trkpt lat="43.0387050000" lon="0.1137770000"><ele>1024</ele><time>2026-03-21T08:20:28Z</time></trkpt>
<trkpt lat="43.0386850000" lon="0.1137570000"><ele>1024</ele><time>2026-03-21T08:20:30Z</time></trkpt>
<trkpt lat="43.0386720000" lon="0.1137800000"><ele>1024</ele><time>2026-03-21T08:20:33Z</time></trkpt>
<trkpt lat="43.0386550000" lon="0.1137920000"><ele>1025</ele><time>2026-03-21T08:20:35Z</time></trkpt>
<trkpt lat="43.0386450000" lon="0.1137720000"><ele>1025</ele><time>2026-03-21T08:20:40Z</time></trkpt>
<trkpt lat="43.0386270000" lon="0.1137820000"><ele>1025</ele><time>2026-03-21T08:20:42Z</time></trkpt>
<trkpt lat="43.0386070000" lon="0.1137970000"><ele>1025</ele><time>2026-03-21T08:20:44Z</time></trkpt>
<trkpt lat="43.0385920000" lon="0.1138100000"><ele>1026</ele><time>2026-03-21T08:20:46Z</time></trkpt>
<trkpt lat="43.0385720000" lon="0.1138270000"><ele>1026</ele><time>2026-03-21T08:20:48Z</time></trkpt>
<trkpt lat="43.0385520000" lon="0.1138420000"><ele>1026</ele><time>2026-03-21T08:20:50Z</time></trkpt>
<trkpt lat="43.0385350000" lon="0.1138520000"><ele>1026</ele><time>2026-03-21T08:20:52Z</time></trkpt>
<trkpt lat="43.0385150000" lon="0.1138670000"><ele>1026</ele><time>2026-03-21T08:20:54Z</time></trkpt>
<trkpt lat="43.0384970000" lon="0.1138870000"><ele>1027</ele><time>2026-03-21T08:20:56Z</time></trkpt>
<trkpt lat="43.0384850000" lon="0.1139070000"><ele>1027</ele><time>2026-03-21T08:20:58Z</time></trkpt>
<trkpt lat="43.0384680000" lon="0.1139220000"><ele>1027</ele><time>2026-03-21T08:21:00Z</time></trkpt>
<trkpt lat="43.0384520000" lon="0.1139450000"><ele>1027</ele><time>2026-03-21T08:21:02Z</time></trkpt>
<trkpt lat="43.0384320000" lon="0.1139570000"><ele>1028</ele><time>2026-03-21T08:21:04Z</time></trkpt>
<trkpt lat="43.0384150000" lon="0.1139770000"><ele>1028</ele><time>2026-03-21T08:21:06Z</time></trkpt>
<trkpt lat="43.0383970000" lon="0.1139900000"><ele>1028</ele><time>2026-03-21T08:21:08Z</time></trkpt>
<trkpt lat="43.0383800000" lon="0.1140030000"><ele>1028</ele><time>2026-03-21T08:21:10Z</time></trkpt>
<trkpt lat="43.0383550000" lon="0.1140200000"><ele>1029</ele><time>2026-03-21T08:21:13Z</time></trkpt>
<trkpt lat="43.0383320000" lon="0.1140300000"><ele>1029</ele><time>2026-03-21T08:21:15Z</time></trkpt>
<trkpt lat="43.0383120000" lon="0.1140420000"><ele>1029</ele><time>2026-03-21T08:21:17Z</time></trkpt>
<trkpt lat="43.0382820000" lon="0.1140520000"><ele>1029</ele><time>2026-03-21T08:21:19Z</time></trkpt>
<trkpt lat="43.0382620000" lon="0.1140650000"><ele>1029</ele><time>2026-03-21T08:21:21Z</time></trkpt>
<trkpt lat="43.0382420000" lon="0.1140720000"><ele>1030</ele><time>2026-03-21T08:21:22Z</time></trkpt>
<trkpt lat="43.0382100000" lon="0.1140950000"><ele>1030</ele><time>2026-03-21T08:21:24Z</time></trkpt>
<trkpt lat="43.0381900000" lon="0.1140970000"><ele>1030</ele><time>2026-03-21T08:21:25Z</time></trkpt>
<trkpt lat="43.0381720000" lon="0.1141020000"><ele>1030</ele><time>2026-03-21T08:21:26Z</time></trkpt>
<trkpt lat="43.0381420000" lon="0.1141120000"><ele>1030</ele><time>2026-03-21T08:21:28Z</time></trkpt>
<trkpt lat="43.0381170000" lon="0.1141170000"><ele>1030</ele><time>2026-03-21T08:21:30Z</time></trkpt>
<trkpt lat="43.0380880000" lon="0.1141170000"><ele>1030</ele><time>2026-03-21T08:21:32Z</time></trkpt>
<trkpt lat="43.0380720000" lon="0.1141120000"><ele>1031</ele><time>2026-03-21T08:21:34Z</time></trkpt>
<trkpt lat="43.0380470000" lon="0.1141050000"><ele>1031</ele><time>2026-03-21T08:21:36Z</time></trkpt>
<trkpt lat="43.0380220000" lon="0.1140950000"><ele>1031</ele><time>2026-03-21T08:21:38Z</time></trkpt>
<trkpt lat="43.0380020000" lon="0.1140720000"><ele>1031</ele><time>2026-03-21T08:21:40Z</time></trkpt>
<trkpt lat="43.0379870000" lon="0.1140470000"><ele>1031</ele><time>2026-03-21T08:21:42Z</time></trkpt>
<trkpt lat="43.0379670000" lon="0.1140220000"><ele>1031</ele><time>2026-03-21T08:21:44Z</time></trkpt>
<trkpt lat="43.0379470000" lon="0.1140000000"><ele>1032</ele><time>2026-03-21T08:21:46Z</time></trkpt>
<trkpt lat="43.0379320000" lon="0.1139770000"><ele>1032</ele><time>2026-03-21T08:21:48Z</time></trkpt>
<trkpt lat="43.0379270000" lon="0.1139500000"><ele>1032</ele><time>2026-03-21T08:21:50Z</time></trkpt>
<trkpt lat="43.0379150000" lon="0.1139320000"><ele>1032</ele><time>2026-03-21T08:21:53Z</time></trkpt>
<trkpt lat="43.0379020000" lon="0.1139120000"><ele>1033</ele><time>2026-03-21T08:21:55Z</time></trkpt>
<trkpt lat="43.0378870000" lon="0.1138800000"><ele>1033</ele><time>2026-03-21T08:21:57Z</time></trkpt>
<trkpt lat="43.0378750000" lon="0.1138520000"><ele>1033</ele><time>2026-03-21T08:21:59Z</time></trkpt>
<trkpt lat="43.0378570000" lon="0.1138220000"><ele>1033</ele><time>2026-03-21T08:22:02Z</time></trkpt>
<trkpt lat="43.0378420000" lon="0.1137930000"><ele>1033</ele><time>2026-03-21T08:22:04Z</time></trkpt>
<trkpt lat="43.0378320000" lon="0.1137600000"><ele>1033</ele><time>2026-03-21T08:22:06Z</time></trkpt>
<trkpt lat="43.0378200000" lon="0.1137300000"><ele>1033</ele><time>2026-03-21T08:22:08Z</time></trkpt>
<trkpt lat="43.0378070000" lon="0.1136980000"><ele>1034</ele><time>2026-03-21T08:22:10Z</time></trkpt>
<trkpt lat="43.0377870000" lon="0.1136620000"><ele>1034</ele><time>2026-03-21T08:22:12Z</time></trkpt>
<trkpt lat="43.0377770000" lon="0.1136420000"><ele>1034</ele><time>2026-03-21T08:22:13Z</time></trkpt>
<trkpt lat="43.0377620000" lon="0.1136170000"><ele>1034</ele><time>2026-03-21T08:22:16Z</time></trkpt>
<trkpt lat="43.0377520000" lon="0.1135950000"><ele>1034</ele><time>2026-03-21T08:22:18Z</time></trkpt>
<trkpt lat="43.0377370000" lon="0.1135620000"><ele>1035</ele><time>2026-03-21T08:22:21Z</time></trkpt>
<trkpt lat="43.0377220000" lon="0.1135350000"><ele>1035</ele><time>2026-03-21T08:22:23Z</time></trkpt>
<trkpt lat="43.0377070000" lon="0.1135150000"><ele>1035</ele><time>2026-03-21T08:22:25Z</time></trkpt>
<trkpt lat="43.0376920000" lon="0.1134880000"><ele>1035</ele><time>2026-03-21T08:22:27Z</time></trkpt>
<trkpt lat="43.0376800000" lon="0.1134670000"><ele>1035</ele><time>2026-03-21T08:22:29Z</time></trkpt>
<trkpt lat="43.0376670000" lon="0.1134370000"><ele>1036</ele><time>2026-03-21T08:22:31Z</time></trkpt>
<trkpt lat="43.0376520000" lon="0.1134070000"><ele>1036</ele><time>2026-03-21T08:22:33Z</time></trkpt>
<trkpt lat="43.0376420000" lon="0.1133720000"><ele>1036</ele><time>2026-03-21T08:22:35Z</time></trkpt>
<trkpt lat="43.0376320000" lon="0.1133470000"><ele>1036</ele><time>2026-03-21T08:22:37Z</time></trkpt>
<trkpt lat="43.0376200000" lon="0.1133150000"><ele>1036</ele><time>2026-03-21T08:22:40Z</time></trkpt>
<trkpt lat="43.0376170000" lon="0.1132820000"><ele>1036</ele><time>2026-03-21T08:22:42Z</time></trkpt>
<trkpt lat="43.0376100000" lon="0.1132570000"><ele>1036</ele><time>2026-03-21T08:22:44Z</time></trkpt>
<trkpt lat="43.0376050000" lon="0.1132220000"><ele>1037</ele><time>2026-03-21T08:22:46Z</time></trkpt>
<trkpt lat="43.0375950000" lon="0.1132000000"><ele>1037</ele><time>2026-03-21T08:22:48Z</time></trkpt>
<trkpt lat="43.0375870000" lon="0.1131670000"><ele>1037</ele><time>2026-03-21T08:22:50Z</time></trkpt>
<trkpt lat="43.0375770000" lon="0.1131400000"><ele>1037</ele><time>2026-03-21T08:22:53Z</time></trkpt>
<trkpt lat="43.0375720000" lon="0.1131050000"><ele>1037</ele><time>2026-03-21T08:22:55Z</time></trkpt>
<trkpt lat="43.0375720000" lon="0.1130720000"><ele>1037</ele><time>2026-03-21T08:22:57Z</time></trkpt>
<trkpt lat="43.0375750000" lon="0.1130330000"><ele>1038</ele><time>2026-03-21T08:22:59Z</time></trkpt>
<trkpt lat="43.0375720000" lon="0.1129970000"><ele>1038</ele><time>2026-03-21T08:23:01Z</time></trkpt>
<trkpt lat="43.0375650000" lon="0.1129700000"><ele>1038</ele><time>2026-03-21T08:23:03Z</time></trkpt>
<trkpt lat="43.0375650000" lon="0.1129380000"><ele>1038</ele><time>2026-03-21T08:23:05Z</time></trkpt>
<trkpt lat="43.0375650000" lon="0.1129120000"><ele>1038</ele><time>2026-03-21T08:23:07Z</time></trkpt>
<trkpt lat="43.0375670000" lon="0.1128850000"><ele>1039</ele><time>2026-03-21T08:23:09Z</time></trkpt>
<trkpt lat="43.0375620000" lon="0.1128600000"><ele>1039</ele><time>2026-03-21T08:23:11Z</time></trkpt>
<trkpt lat="43.0375570000" lon="0.1128320000"><ele>1039</ele><time>2026-03-21T08:23:13Z</time></trkpt>
<trkpt lat="43.0375530000" lon="0.1128050000"><ele>1039</ele><time>2026-03-21T08:23:15Z</time></trkpt>
<trkpt lat="43.0375520000" lon="0.1127770000"><ele>1039</ele><time>2026-03-21T08:23:17Z</time></trkpt>
<trkpt lat="43.0375570000" lon="0.1127450000"><ele>1039</ele><time>2026-03-21T08:23:20Z</time></trkpt>
<trkpt lat="43.0375650000" lon="0.1127170000"><ele>1040</ele><time>2026-03-21T08:23:50Z</time></trkpt>
<trkpt lat="43.0375570000" lon="0.1126900000"><ele>1040</ele><time>2026-03-21T08:23:52Z</time></trkpt>
<trkpt lat="43.0375450000" lon="0.1126570000"><ele>1040</ele><time>2026-03-21T08:23:54Z</time></trkpt>
<trkpt lat="43.0375300000" lon="0.1126270000"><ele>1040</ele><time>2026-03-21T08:23:56Z</time></trkpt>
<trkpt lat="43.0375150000" lon="0.1126000000"><ele>1040</ele><time>2026-03-21T08:23:58Z</time></trkpt>
<trkpt lat="43.0375070000" lon="0.1125770000"><ele>1040</ele><time>2026-03-21T08:24:00Z</time></trkpt>
<trkpt lat="43.0374870000" lon="0.1125420000"><ele>1040</ele><time>2026-03-21T08:24:03Z</time></trkpt>
<trkpt lat="43.0374670000" lon="0.1125170000"><ele>1040</ele><time>2026-03-21T08:24:05Z</time></trkpt>
<trkpt lat="43.0374550000" lon="0.1124950000"><ele>1040</ele><time>2026-03-21T08:24:07Z</time></trkpt>
<trkpt lat="43.0374420000" lon="0.1124700000"><ele>1040</ele><time>2026-03-21T08:24:09Z</time></trkpt>
<trkpt lat="43.0374270000" lon="0.1124470000"><ele>1040</ele><time>2026-03-21T08:24:11Z</time></trkpt>
<trkpt lat="43.0374120000" lon="0.1124220000"><ele>1040</ele><time>2026-03-21T08:24:13Z</time></trkpt>
<trkpt lat="43.0373970000" lon="0.1123970000"><ele>1041</ele><time>2026-03-21T08:24:15Z</time></trkpt>
<trkpt lat="43.0373870000" lon="0.1123720000"><ele>1041</ele><time>2026-03-21T08:24:18Z</time></trkpt>
<trkpt lat="43.0373720000" lon="0.1123520000"><ele>1041</ele><time>2026-03-21T08:24:20Z</time></trkpt>
<trkpt lat="43.0373550000" lon="0.1123350000"><ele>1041</ele><time>2026-03-21T08:24:22Z</time></trkpt>
<trkpt lat="43.0373370000" lon="0.1123170000"><ele>1041</ele><time>2026-03-21T08:24:24Z</time></trkpt>
<trkpt lat="43.0373170000" lon="0.1123000000"><ele>1041</ele><time>2026-03-21T08:24:26Z</time></trkpt>
<trkpt lat="43.0373020000" lon="0.1122770000"><ele>1041</ele><time>2026-03-21T08:24:28Z</time></trkpt>
<trkpt lat="43.0372850000" lon="0.1122620000"><ele>1041</ele><time>2026-03-21T08:24:30Z</time></trkpt>
<trkpt lat="43.0372670000" lon="0.1122430000"><ele>1041</ele><time>2026-03-21T08:24:32Z</time></trkpt>
<trkpt lat="43.0372520000" lon="0.1122270000"><ele>1041</ele><time>2026-03-21T08:24:34Z</time></trkpt>
<trkpt lat="43.0372370000" lon="0.1122070000"><ele>1041</ele><time>2026-03-21T08:24:36Z</time></trkpt>
<trkpt lat="43.0372170000" lon="0.1121870000"><ele>1041</ele><time>2026-03-21T08:24:38Z</time></trkpt>
<trkpt lat="43.0372000000" lon="0.1121670000"><ele>1041</ele><time>2026-03-21T08:24:40Z</time></trkpt>
<trkpt lat="43.0371770000" lon="0.1121470000"><ele>1041</ele><time>2026-03-21T08:24:42Z</time></trkpt>
<trkpt lat="43.0371550000" lon="0.1121280000"><ele>1041</ele><time>2026-03-21T08:24:44Z</time></trkpt>
<trkpt lat="43.0371370000" lon="0.1121120000"><ele>1041</ele><time>2026-03-21T08:24:46Z</time></trkpt>
<trkpt lat="43.0371200000" lon="0.1120970000"><ele>1041</ele><time>2026-03-21T08:24:48Z</time></trkpt>
<trkpt lat="43.0371000000" lon="0.1120820000"><ele>1041</ele><time>2026-03-21T08:24:50Z</time></trkpt>
<trkpt lat="43.0370800000" lon="0.1120670000"><ele>1041</ele><time>2026-03-21T08:24:52Z</time></trkpt>
<trkpt lat="43.0370620000" lon="0.1120550000"><ele>1041</ele><time>2026-03-21T08:24:54Z</time></trkpt>
<trkpt lat="43.0370420000" lon="0.1120420000"><ele>1041</ele><time>2026-03-21T08:24:56Z</time></trkpt>
<trkpt lat="43.0370220000" lon="0.1120270000"><ele>1041</ele><time>2026-03-21T08:24:58Z</time></trkpt>
<trkpt lat="43.0370050000" lon="0.1120120000"><ele>1041</ele><time>2026-03-21T08:25:00Z</time></trkpt>
<trkpt lat="43.0369870000" lon="0.1119920000"><ele>1041</ele><time>2026-03-21T08:25:02Z</time></trkpt>
<trkpt lat="43.0369670000" lon="0.1119850000"><ele>1041</ele><time>2026-03-21T08:25:13Z</time></trkpt>
<trkpt lat="43.0369370000" lon="0.1119720000"><ele>1041</ele><time>2026-03-21T08:25:15Z</time></trkpt>
<trkpt lat="43.0369100000" lon="0.1119520000"><ele>1041</ele><time>2026-03-21T08:25:17Z</time></trkpt>
<trkpt lat="43.0368820000" lon="0.1119270000"><ele>1041</ele><time>2026-03-21T08:25:19Z</time></trkpt>
<trkpt lat="43.0368620000" lon="0.1119120000"><ele>1040</ele><time>2026-03-21T08:25:21Z</time></trkpt>
<trkpt lat="43.0368420000" lon="0.1118970000"><ele>1040</ele><time>2026-03-21T08:25:23Z</time></trkpt>
<trkpt lat="43.0368200000" lon="0.1118920000"><ele>1040</ele><time>2026-03-21T08:25:25Z</time></trkpt>
<trkpt lat="43.0367930000" lon="0.1118850000"><ele>1040</ele><time>2026-03-21T08:25:27Z</time></trkpt>
<trkpt lat="43.0367720000" lon="0.1118770000"><ele>1040</ele><time>2026-03-21T08:25:29Z</time></trkpt>
<trkpt lat="43.0367500000" lon="0.1118720000"><ele>1040</ele><time>2026-03-21T08:25:31Z</time></trkpt>
<trkpt lat="43.0367230000" lon="0.1118720000"><ele>1040</ele><time>2026-03-21T08:25:33Z</time></trkpt>
<trkpt lat="43.0367000000" lon="0.1118720000"><ele>1040</ele><time>2026-03-21T08:25:35Z</time></trkpt>
<trkpt lat="43.0366720000" lon="0.1118720000"><ele>1040</ele><time>2026-03-21T08:25:37Z</time></trkpt>
<trkpt lat="43.0366500000" lon="0.1118650000"><ele>1040</ele><time>2026-03-21T08:25:39Z</time></trkpt>
<trkpt lat="43.0366270000" lon="0.1118620000"><ele>1040</ele><time>2026-03-21T08:25:41Z</time></trkpt>
<trkpt lat="43.0366050000" lon="0.1118620000"><ele>1040</ele><time>2026-03-21T08:25:43Z</time></trkpt>
<trkpt lat="43.0365800000" lon="0.1118620000"><ele>1040</ele><time>2026-03-21T08:25:45Z</time></trkpt>
<trkpt lat="43.0365570000" lon="0.1118600000"><ele>1040</ele><time>2026-03-21T08:25:47Z</time></trkpt>
<trkpt lat="43.0365300000" lon="0.1118570000"><ele>1040</ele><time>2026-03-21T08:25:49Z</time></trkpt>
<trkpt lat="43.0365070000" lon="0.1118620000"><ele>1040</ele><time>2026-03-21T08:25:51Z</time></trkpt>
<trkpt lat="43.0364820000" lon="0.1118570000"><ele>1040</ele><time>2026-03-21T08:25:53Z</time></trkpt>
<trkpt lat="43.0364570000" lon="0.1118530000"><ele>1040</ele><time>2026-03-21T08:25:55Z</time></trkpt>
<trkpt lat="43.0364350000" lon="0.1118570000"><ele>1040</ele><time>2026-03-21T08:25:57Z</time></trkpt>
<trkpt lat="43.0364100000" lon="0.1118600000"><ele>1040</ele><time>2026-03-21T08:25:59Z</time></trkpt>
<trkpt lat="43.0363870000" lon="0.1118570000"><ele>1040</ele><time>2026-03-21T08:26:01Z</time></trkpt>
<trkpt lat="43.0363620000" lon="0.1118520000"><ele>1040</ele><time>2026-03-21T08:26:03Z</time></trkpt>
<trkpt lat="43.0363300000" lon="0.1118400000"><ele>1040</ele><time>2026-03-21T08:26:05Z</time></trkpt>
<trkpt lat="43.0363070000" lon="0.1118370000"><ele>1040</ele><time>2026-03-21T08:26:07Z</time></trkpt>
<trkpt lat="43.0362870000" lon="0.1118320000"><ele>1040</ele><time>2026-03-21T08:26:09Z</time></trkpt>
<trkpt lat="43.0362700000" lon="0.1118220000"><ele>1040</ele><time>2026-03-21T08:26:11Z</time></trkpt>
<trkpt lat="43.0362500000" lon="0.1118120000"><ele>1040</ele><time>2026-03-21T08:26:13Z</time></trkpt>
<trkpt lat="43.0362270000" lon="0.1118150000"><ele>1040</ele><time>2026-03-21T08:26:15Z</time></trkpt>
<trkpt lat="43.0361970000" lon="0.1118120000"><ele>1040</ele><time>2026-03-21T08:26:17Z</time></trkpt>
<trkpt lat="43.0361720000" lon="0.1118070000"><ele>1039</ele><time>2026-03-21T08:26:19Z</time></trkpt>
<trkpt lat="43.0361450000" lon="0.1117950000"><ele>1039</ele><time>2026-03-21T08:26:21Z</time></trkpt>
<trkpt lat="43.0361120000" lon="0.1117820000"><ele>1039</ele><time>2026-03-21T08:26:23Z</time></trkpt>
<trkpt lat="43.0360900000" lon="0.1117770000"><ele>1039</ele><time>2026-03-21T08:26:25Z</time></trkpt>
<trkpt lat="43.0360720000" lon="0.1117720000"><ele>1039</ele><time>2026-03-21T08:26:27Z</time></trkpt>
<trkpt lat="43.0360520000" lon="0.1117570000"><ele>1039</ele><time>2026-03-21T08:26:29Z</time></trkpt>
<trkpt lat="43.0360270000" lon="0.1117420000"><ele>1039</ele><time>2026-03-21T08:26:31Z</time></trkpt>
<trkpt lat="43.0360100000" lon="0.1117270000"><ele>1039</ele><time>2026-03-21T08:26:33Z</time></trkpt>
<trkpt lat="43.0359920000" lon="0.1117120000"><ele>1039</ele><time>2026-03-21T08:26:35Z</time></trkpt>
<trkpt lat="43.0359700000" lon="0.1117020000"><ele>1039</ele><time>2026-03-21T08:26:37Z</time></trkpt>
<trkpt lat="43.0359520000" lon="0.1116920000"><ele>1039</ele><time>2026-03-21T08:26:39Z</time></trkpt>
<trkpt lat="43.0359320000" lon="0.1117000000"><ele>1039</ele><time>2026-03-21T08:26:41Z</time></trkpt>
<trkpt lat="43.0359120000" lon="0.1117120000"><ele>1039</ele><time>2026-03-21T08:26:43Z</time></trkpt>
<trkpt lat="43.0358930000" lon="0.1117220000"><ele>1039</ele><time>2026-03-21T08:26:45Z</time></trkpt>
<trkpt lat="43.0359050000" lon="0.1116920000"><ele>1039</ele><time>2026-03-21T08:26:48Z</time></trkpt>
<trkpt lat="43.0358870000" lon="0.1117200000"><ele>1039</ele><time>2026-03-21T08:26:58Z</time></trkpt>
<trkpt lat="43.0358870000" lon="0.1117530000"><ele>1040</ele><time>2026-03-21T08:27:03Z</time></trkpt>
<trkpt lat="43.0358970000" lon="0.1117970000"><ele>1040</ele><time>2026-03-21T08:27:05Z</time></trkpt>
<trkpt lat="43.0359050000" lon="0.1118220000"><ele>1040</ele><time>2026-03-21T08:27:06Z</time></trkpt>
<trkpt lat="43.0359120000" lon="0.1118500000"><ele>1040</ele><time>2026-03-21T08:27:07Z</time></trkpt>
<trkpt lat="43.0359170000" lon="0.1118770000"><ele>1040</ele><time>2026-03-21T08:27:08Z</time></trkpt>
<trkpt lat="43.0359320000" lon="0.1119150000"><ele>1040</ele><time>2026-03-21T08:27:10Z</time></trkpt>
<trkpt lat="43.0359400000" lon="0.1119400000"><ele>1040</ele><time>2026-03-21T08:27:12Z</time></trkpt>
<trkpt lat="43.0359500000" lon="0.1119620000"><ele>1040</ele><time>2026-03-21T08:27:14Z</time></trkpt>
<trkpt lat="43.0359550000" lon="0.1119920000"><ele>1040</ele><time>2026-03-21T08:27:16Z</time></trkpt>
<trkpt lat="43.0359570000" lon="0.1120270000"><ele>1040</ele><time>2026-03-21T08:27:19Z</time></trkpt>
<trkpt lat="43.0359620000" lon="0.1120550000"><ele>1041</ele><time>2026-03-21T08:27:21Z</time></trkpt>
<trkpt lat="43.0359720000" lon="0.1120800000"><ele>1041</ele><time>2026-03-21T08:27:23Z</time></trkpt>
<trkpt lat="43.0359800000" lon="0.1121030000"><ele>1041</ele><time>2026-03-21T08:27:25Z</time></trkpt>
<trkpt lat="43.0359820000" lon="0.1121320000"><ele>1041</ele><time>2026-03-21T08:27:27Z</time></trkpt>
<trkpt lat="43.0359870000" lon="0.1121620000"><ele>1041</ele><time>2026-03-21T08:27:29Z</time></trkpt>
<trkpt lat="43.0359900000" lon="0.1121900000"><ele>1041</ele><time>2026-03-21T08:27:31Z</time></trkpt>
<trkpt lat="43.0359820000" lon="0.1122170000"><ele>1042</ele><time>2026-03-21T08:27:34Z</time></trkpt>
<trkpt lat="43.0359720000" lon="0.1122370000"><ele>1042</ele><time>2026-03-21T08:27:54Z</time></trkpt>
<trkpt lat="43.0359770000" lon="0.1122670000"><ele>1042</ele><time>2026-03-21T08:27:56Z</time></trkpt>
<trkpt lat="43.0359670000" lon="0.1122900000"><ele>1042</ele><time>2026-03-21T08:27:59Z</time></trkpt>
<trkpt lat="43.0359470000" lon="0.1122920000"><ele>1043</ele><time>2026-03-21T08:28:46Z</time></trkpt>
<trkpt lat="43.0359670000" lon="0.1122770000"><ele>1042</ele><time>2026-03-21T08:30:17Z</time></trkpt>
<trkpt lat="43.0359900000" lon="0.1122470000"><ele>1042</ele><time>2026-03-21T08:30:19Z</time></trkpt>
<trkpt lat="43.0360050000" lon="0.1122270000"><ele>1042</ele><time>2026-03-21T08:30:21Z</time></trkpt>
<trkpt lat="43.0359870000" lon="0.1122500000"><ele>1042</ele><time>2026-03-21T08:31:21Z</time></trkpt>
<trkpt lat="43.0359670000" lon="0.1122820000"><ele>1043</ele><time>2026-03-21T08:31:23Z</time></trkpt>
<trkpt lat="43.0359500000" lon="0.1122870000"><ele>1043</ele><time>2026-03-21T08:32:34Z</time></trkpt>
<trkpt lat="43.0359700000" lon="0.1122820000"><ele>1042</ele><time>2026-03-21T08:35:24Z</time></trkpt>
<trkpt lat="43.0359870000" lon="0.1122920000"><ele>1043</ele><time>2026-03-21T08:40:24Z</time></trkpt>
<trkpt lat="43.0360120000" lon="0.1123170000"><ele>1043</ele><time>2026-03-21T08:40:26Z</time></trkpt>
<trkpt lat="43.0360220000" lon="0.1123450000"><ele>1043</ele><time>2026-03-21T08:40:28Z</time></trkpt>
<trkpt lat="43.0359950000" lon="0.1123500000"><ele>1044</ele><time>2026-03-21T08:40:44Z</time></trkpt>
<trkpt lat="43.0359970000" lon="0.1123770000"><ele>1043</ele><time>2026-03-21T08:40:48Z</time></trkpt>
<trkpt lat="43.0360020000" lon="0.1124050000"><ele>1044</ele><time>2026-03-21T08:40:58Z</time></trkpt>
<trkpt lat="43.0360070000" lon="0.1124320000"><ele>1044</ele><time>2026-03-21T08:41:00Z</time></trkpt>
<trkpt lat="43.0360120000" lon="0.1124670000"><ele>1043</ele><time>2026-03-21T08:41:02Z</time></trkpt>
<trkpt lat="43.0360170000" lon="0.1124970000"><ele>1043</ele><time>2026-03-21T08:41:04Z</time></trkpt>
<trkpt lat="43.0360220000" lon="0.1125270000"><ele>1044</ele><time>2026-03-21T08:41:06Z</time></trkpt>
<trkpt lat="43.0360270000" lon="0.1125550000"><ele>1044</ele><time>2026-03-21T08:41:08Z</time></trkpt>
<trkpt lat="43.0360320000" lon="0.1125920000"><ele>1044</ele><time>2026-03-21T08:41:11Z</time></trkpt>
<trkpt lat="43.0360370000" lon="0.1126270000"><ele>1044</ele><time>2026-03-21T08:41:14Z</time></trkpt>
<trkpt lat="43.0360420000" lon="0.1126550000"><ele>1044</ele><time>2026-03-21T08:41:16Z</time></trkpt>
<trkpt lat="43.0360470000" lon="0.1126820000"><ele>1045</ele><time>2026-03-21T08:41:18Z</time></trkpt>
<trkpt lat="43.0360550000" lon="0.1127070000"><ele>1045</ele><time>2026-03-21T08:41:20Z</time></trkpt>
<trkpt lat="43.0360600000" lon="0.1127320000"><ele>1045</ele><time>2026-03-21T08:41:22Z</time></trkpt>
<trkpt lat="43.0360620000" lon="0.1127600000"><ele>1045</ele><time>2026-03-21T08:41:24Z</time></trkpt>
<trkpt lat="43.0360670000" lon="0.1127970000"><ele>1045</ele><time>2026-03-21T08:41:27Z</time></trkpt>
<trkpt lat="43.0360700000" lon="0.1128230000"><ele>1046</ele><time>2026-03-21T08:41:29Z</time></trkpt>
<trkpt lat="43.0360770000" lon="0.1128620000"><ele>1046</ele><time>2026-03-21T08:41:32Z</time></trkpt>
<trkpt lat="43.0360870000" lon="0.1128920000"><ele>1046</ele><time>2026-03-21T08:41:34Z</time></trkpt>
<trkpt lat="43.0361020000" lon="0.1129200000"><ele>1046</ele><time>2026-03-21T08:41:36Z</time></trkpt>
<trkpt lat="43.0361120000" lon="0.1129450000"><ele>1046</ele><time>2026-03-21T08:41:38Z</time></trkpt>
<trkpt lat="43.0361220000" lon="0.1129750000"><ele>1047</ele><time>2026-03-21T08:41:40Z</time></trkpt>
<trkpt lat="43.0361270000" lon="0.1130020000"><ele>1047</ele><time>2026-03-21T08:41:42Z</time></trkpt>
<trkpt lat="43.0361320000" lon="0.1130320000"><ele>1047</ele><time>2026-03-21T08:41:44Z</time></trkpt>
<trkpt lat="43.0361350000" lon="0.1130620000"><ele>1047</ele><time>2026-03-21T08:41:46Z</time></trkpt>
<trkpt lat="43.0361420000" lon="0.1130870000"><ele>1047</ele><time>2026-03-21T08:41:48Z</time></trkpt>
<trkpt lat="43.0361500000" lon="0.1131120000"><ele>1048</ele><time>2026-03-21T08:41:50Z</time></trkpt>
<trkpt lat="43.0361570000" lon="0.1131370000"><ele>1048</ele><time>2026-03-21T08:41:52Z</time></trkpt>
<trkpt lat="43.0361620000" lon="0.1131620000"><ele>1048</ele><time>2026-03-21T08:41:54Z</time></trkpt>
<trkpt lat="43.0361620000" lon="0.1131870000"><ele>1048</ele><time>2026-03-21T08:41:56Z</time></trkpt>
<trkpt lat="43.0361670000" lon="0.1132220000"><ele>1048</ele><time>2026-03-21T08:41:59Z</time></trkpt>
<trkpt lat="43.0361700000" lon="0.1132470000"><ele>1048</ele><time>2026-03-21T08:42:01Z</time></trkpt>
<trkpt lat="43.0361770000" lon="0.1132750000"><ele>1048</ele><time>2026-03-21T08:42:03Z</time></trkpt>
<trkpt lat="43.0361850000" lon="0.1133020000"><ele>1048</ele><time>2026-03-21T08:42:05Z</time></trkpt>
<trkpt lat="43.0361880000" lon="0.1133270000"><ele>1049</ele><time>2026-03-21T08:42:07Z</time></trkpt>
<trkpt lat="43.0361950000" lon="0.1133600000"><ele>1049</ele><time>2026-03-21T08:42:10Z</time></trkpt>
<trkpt lat="43.0361880000" lon="0.1133970000"><ele>1050</ele><time>2026-03-21T08:42:35Z</time></trkpt>
<trkpt lat="43.0361920000" lon="0.1134320000"><ele>1050</ele><time>2026-03-21T08:42:37Z</time></trkpt>
<trkpt lat="43.0361950000" lon="0.1134620000"><ele>1050</ele><time>2026-03-21T08:42:39Z</time></trkpt>
<trkpt lat="43.0361950000" lon="0.1134930000"><ele>1050</ele><time>2026-03-21T08:42:41Z</time></trkpt>
<trkpt lat="43.0361970000" lon="0.1135270000"><ele>1050</ele><time>2026-03-21T08:42:43Z</time></trkpt>
<trkpt lat="43.0362020000" lon="0.1135570000"><ele>1050</ele><time>2026-03-21T08:42:45Z</time></trkpt>
<trkpt lat="43.0362120000" lon="0.1135880000"><ele>1050</ele><time>2026-03-21T08:42:47Z</time></trkpt>
<trkpt lat="43.0362250000" lon="0.1136170000"><ele>1050</ele><time>2026-03-21T08:42:49Z</time></trkpt>
<trkpt lat="43.0362370000" lon="0.1136500000"><ele>1050</ele><time>2026-03-21T08:42:51Z</time></trkpt>
<trkpt lat="43.0362450000" lon="0.1136800000"><ele>1051</ele><time>2026-03-21T08:42:53Z</time></trkpt>
<trkpt lat="43.0362520000" lon="0.1137070000"><ele>1051</ele><time>2026-03-21T08:42:55Z</time></trkpt>
<trkpt lat="43.0362570000" lon="0.1137350000"><ele>1051</ele><time>2026-03-21T08:42:57Z</time></trkpt>
<trkpt lat="43.0362600000" lon="0.1137620000"><ele>1051</ele><time>2026-03-21T08:42:59Z</time></trkpt>
<trkpt lat="43.0362650000" lon="0.1137900000"><ele>1051</ele><time>2026-03-21T08:43:01Z</time></trkpt>
<trkpt lat="43.0362700000" lon="0.1138170000"><ele>1051</ele><time>2026-03-21T08:43:03Z</time></trkpt>
<trkpt lat="43.0362720000" lon="0.1138470000"><ele>1052</ele><time>2026-03-21T08:43:05Z</time></trkpt>
<trkpt lat="43.0362720000" lon="0.1138770000"><ele>1052</ele><time>2026-03-21T08:43:07Z</time></trkpt>
<trkpt lat="43.0362800000" lon="0.1139070000"><ele>1052</ele><time>2026-03-21T08:43:09Z</time></trkpt>
<trkpt lat="43.0362870000" lon="0.1139370000"><ele>1052</ele><time>2026-03-21T08:43:11Z</time></trkpt>
<trkpt lat="43.0362920000" lon="0.1139670000"><ele>1052</ele><time>2026-03-21T08:43:13Z</time></trkpt>
<trkpt lat="43.0362970000" lon="0.1139970000"><ele>1052</ele><time>2026-03-21T08:43:15Z</time></trkpt>
<trkpt lat="43.0363070000" lon="0.1140270000"><ele>1052</ele><time>2026-03-21T08:43:17Z</time></trkpt>
<trkpt lat="43.0363120000" lon="0.1140570000"><ele>1052</ele><time>2026-03-21T08:43:19Z</time></trkpt>
<trkpt lat="43.0363220000" lon="0.1140870000"><ele>1052</ele><time>2026-03-21T08:43:21Z</time></trkpt>
<trkpt lat="43.0363300000" lon="0.1141170000"><ele>1053</ele><time>2026-03-21T08:43:23Z</time></trkpt>
<trkpt lat="43.0363320000" lon="0.1141470000"><ele>1053</ele><time>2026-03-21T08:43:25Z</time></trkpt>
<trkpt lat="43.0363370000" lon="0.1141750000"><ele>1053</ele><time>2026-03-21T08:43:27Z</time></trkpt>
<trkpt lat="43.0363420000" lon="0.1142020000"><ele>1053</ele><time>2026-03-21T08:43:29Z</time></trkpt>
<trkpt lat="43.0363470000" lon="0.1142270000"><ele>1053</ele><time>2026-03-21T08:43:31Z</time></trkpt>
<trkpt lat="43.0363550000" lon="0.1142580000"><ele>1053</ele><time>2026-03-21T08:43:33Z</time></trkpt>
<trkpt lat="43.0363600000" lon="0.1142900000"><ele>1053</ele><time>2026-03-21T08:43:35Z</time></trkpt>
<trkpt lat="43.0363620000" lon="0.1143200000"><ele>1053</ele><time>2026-03-21T08:43:37Z</time></trkpt>
<trkpt lat="43.0363670000" lon="0.1143480000"><ele>1053</ele><time>2026-03-21T08:43:39Z</time></trkpt>
<trkpt lat="43.0363720000" lon="0.1143820000"><ele>1054</ele><time>2026-03-21T08:43:41Z</time></trkpt>
<trkpt lat="43.0363770000" lon="0.1144120000"><ele>1054</ele><time>2026-03-21T08:43:43Z</time></trkpt>
<trkpt lat="43.0363770000" lon="0.1144450000"><ele>1054</ele><time>2026-03-21T08:43:45Z</time></trkpt>
<trkpt lat="43.0363750000" lon="0.1144720000"><ele>1054</ele><time>2026-03-21T08:43:47Z</time></trkpt>
<trkpt lat="43.0363770000" lon="0.1145020000"><ele>1054</ele><time>2026-03-21T08:43:49Z</time></trkpt>
<trkpt lat="43.0363800000" lon="0.1145320000"><ele>1054</ele><time>2026-03-21T08:43:51Z</time></trkpt>
<trkpt lat="43.0363800000" lon="0.1145580000"><ele>1054</ele><time>2026-03-21T08:43:53Z</time></trkpt>
<trkpt lat="43.0363850000" lon="0.1145920000"><ele>1054</ele><time>2026-03-21T08:43:55Z</time></trkpt>
<trkpt lat="43.0363870000" lon="0.1146220000"><ele>1054</ele><time>2026-03-21T08:43:57Z</time></trkpt>
<trkpt lat="43.0363950000" lon="0.1146550000"><ele>1054</ele><time>2026-03-21T08:43:59Z</time></trkpt>
<trkpt lat="43.0364100000" lon="0.1146900000"><ele>1054</ele><time>2026-03-21T08:44:01Z</time></trkpt>
<trkpt lat="43.0364270000" lon="0.1147250000"><ele>1054</ele><time>2026-03-21T08:44:03Z</time></trkpt>
<trkpt lat="43.0364320000" lon="0.1147550000"><ele>1054</ele><time>2026-03-21T08:44:05Z</time></trkpt>
<trkpt lat="43.0364170000" lon="0.1147720000"><ele>1055</ele><time>2026-03-21T08:44:10Z</time></trkpt>
<trkpt lat="43.0364220000" lon="0.1148120000"><ele>1055</ele><time>2026-03-21T08:44:25Z</time></trkpt>
<trkpt lat="43.0364300000" lon="0.1148570000"><ele>1055</ele><time>2026-03-21T08:44:27Z</time></trkpt>
<trkpt lat="43.0364370000" lon="0.1148950000"><ele>1055</ele><time>2026-03-21T08:44:29Z</time></trkpt>
<trkpt lat="43.0364520000" lon="0.1149220000"><ele>1055</ele><time>2026-03-21T08:44:31Z</time></trkpt>
<trkpt lat="43.0364570000" lon="0.1149470000"><ele>1055</ele><time>2026-03-21T08:44:34Z</time></trkpt>
<trkpt lat="43.0364650000" lon="0.1149850000"><ele>1055</ele><time>2026-03-21T08:44:37Z</time></trkpt>
<trkpt lat="43.0364670000" lon="0.1150120000"><ele>1055</ele><time>2026-03-21T08:44:39Z</time></trkpt>
<trkpt lat="43.0364720000" lon="0.1150420000"><ele>1055</ele><time>2026-03-21T08:44:41Z</time></trkpt>
<trkpt lat="43.0364820000" lon="0.1150720000"><ele>1056</ele><time>2026-03-21T08:44:49Z</time></trkpt>
<trkpt lat="43.0364850000" lon="0.1151100000"><ele>1056</ele><time>2026-03-21T08:44:51Z</time></trkpt>
<trkpt lat="43.0364900000" lon="0.1151470000"><ele>1056</ele><time>2026-03-21T08:44:53Z</time></trkpt>
<trkpt lat="43.0364950000" lon="0.1151770000"><ele>1056</ele><time>2026-03-21T08:44:55Z</time></trkpt>
<trkpt lat="43.0364970000" lon="0.1152070000"><ele>1056</ele><time>2026-03-21T08:44:57Z</time></trkpt>
<trkpt lat="43.0364970000" lon="0.1152320000"><ele>1056</ele><time>2026-03-21T08:44:59Z</time></trkpt>
<trkpt lat="43.0365050000" lon="0.1152620000"><ele>1056</ele><time>2026-03-21T08:45:01Z</time></trkpt>
<trkpt lat="43.0365150000" lon="0.1152900000"><ele>1056</ele><time>2026-03-21T08:45:03Z</time></trkpt>
<trkpt lat="43.0365200000" lon="0.1153200000"><ele>1056</ele><time>2026-03-21T08:45:05Z</time></trkpt>
<trkpt lat="43.0365250000" lon="0.1153550000"><ele>1057</ele><time>2026-03-21T08:45:08Z</time></trkpt>
<trkpt lat="43.0365270000" lon="0.1153820000"><ele>1057</ele><time>2026-03-21T08:45:10Z</time></trkpt>
<trkpt lat="43.0365420000" lon="0.1154120000"><ele>1057</ele><time>2026-03-21T08:45:12Z</time></trkpt>
<trkpt lat="43.0365520000" lon="0.1154370000"><ele>1057</ele><time>2026-03-21T08:45:14Z</time></trkpt>
<trkpt lat="43.0365650000" lon="0.1154670000"><ele>1057</ele><time>2026-03-21T08:45:16Z</time></trkpt>
<trkpt lat="43.0365770000" lon="0.1154920000"><ele>1057</ele><time>2026-03-21T08:45:18Z</time></trkpt>
<trkpt lat="43.0365820000" lon="0.1155170000"><ele>1058</ele><time>2026-03-21T08:45:20Z</time></trkpt>
<trkpt lat="43.0365850000" lon="0.1155420000"><ele>1058</ele><time>2026-03-21T08:45:22Z</time></trkpt>
<trkpt lat="43.0365920000" lon="0.1155670000"><ele>1058</ele><time>2026-03-21T08:45:24Z</time></trkpt>
<trkpt lat="43.0366070000" lon="0.1155950000"><ele>1058</ele><time>2026-03-21T08:45:26Z</time></trkpt>
<trkpt lat="43.0366220000" lon="0.1156270000"><ele>1059</ele><time>2026-03-21T08:45:28Z</time></trkpt>
<trkpt lat="43.0366300000" lon="0.1156550000"><ele>1059</ele><time>2026-03-21T08:45:30Z</time></trkpt>
<trkpt lat="43.0366370000" lon="0.1156900000"><ele>1059</ele><time>2026-03-21T08:45:33Z</time></trkpt>
<trkpt lat="43.0366380000" lon="0.1157130000"><ele>1059</ele><time>2026-03-21T08:45:35Z</time></trkpt>
<trkpt lat="43.0366450000" lon="0.1157450000"><ele>1059</ele><time>2026-03-21T08:45:38Z</time></trkpt>
<trkpt lat="43.0366450000" lon="0.1157770000"><ele>1060</ele><time>2026-03-21T08:45:41Z</time></trkpt>
<trkpt lat="43.0366520000" lon="0.1158000000"><ele>1060</ele><time>2026-03-21T08:45:43Z</time></trkpt>
<trkpt lat="43.0366550000" lon="0.1158250000"><ele>1061</ele><time>2026-03-21T08:45:45Z</time></trkpt>
<trkpt lat="43.0366620000" lon="0.1158570000"><ele>1061</ele><time>2026-03-21T08:45:48Z</time></trkpt>
<trkpt lat="43.0366670000" lon="0.1158870000"><ele>1061</ele><time>2026-03-21T08:45:51Z</time></trkpt>
<trkpt lat="43.0366750000" lon="0.1159170000"><ele>1061</ele><time>2026-03-21T08:45:54Z</time></trkpt>
<trkpt lat="43.0366800000" lon="0.1159500000"><ele>1062</ele><time>2026-03-21T08:45:57Z</time></trkpt>
<trkpt lat="43.0366870000" lon="0.1159800000"><ele>1062</ele><time>2026-03-21T08:46:00Z</time></trkpt>
<trkpt lat="43.0366950000" lon="0.1160050000"><ele>1062</ele><time>2026-03-21T08:46:02Z</time></trkpt>
<trkpt lat="43.0367020000" lon="0.1160370000"><ele>1063</ele><time>2026-03-21T08:46:05Z</time></trkpt>
<trkpt lat="43.0367070000" lon="0.1160670000"><ele>1063</ele><time>2026-03-21T08:46:08Z</time></trkpt>
<trkpt lat="43.0367070000" lon="0.1160920000"><ele>1063</ele><time>2026-03-21T08:46:12Z</time></trkpt>
<trkpt lat="43.0366950000" lon="0.1161120000"><ele>1064</ele><time>2026-03-21T08:46:34Z</time></trkpt>
<trkpt lat="43.0366870000" lon="0.1161420000"><ele>1064</ele><time>2026-03-21T08:46:36Z</time></trkpt>
<trkpt lat="43.0366820000" lon="0.1161720000"><ele>1064</ele><time>2026-03-21T08:46:38Z</time></trkpt>
<trkpt lat="43.0366950000" lon="0.1162020000"><ele>1064</ele><time>2026-03-21T08:46:40Z</time></trkpt>
<trkpt lat="43.0367120000" lon="0.1162220000"><ele>1064</ele><time>2026-03-21T08:46:42Z</time></trkpt>
<trkpt lat="43.0367300000" lon="0.1162420000"><ele>1065</ele><time>2026-03-21T08:46:44Z</time></trkpt>
<trkpt lat="43.0367420000" lon="0.1162620000"><ele>1065</ele><time>2026-03-21T08:46:46Z</time></trkpt>
<trkpt lat="43.0367520000" lon="0.1162850000"><ele>1065</ele><time>2026-03-21T08:46:48Z</time></trkpt>
<trkpt lat="43.0367600000" lon="0.1163120000"><ele>1065</ele><time>2026-03-21T08:46:50Z</time></trkpt>
<trkpt lat="43.0367650000" lon="0.1163470000"><ele>1066</ele><time>2026-03-21T08:46:53Z</time></trkpt>
<trkpt lat="43.0367720000" lon="0.1163720000"><ele>1066</ele><time>2026-03-21T08:46:55Z</time></trkpt>
<trkpt lat="43.0367770000" lon="0.1163970000"><ele>1066</ele><time>2026-03-21T08:46:57Z</time></trkpt>
<trkpt lat="43.0367820000" lon="0.1164220000"><ele>1067</ele><time>2026-03-21T08:46:59Z</time></trkpt>
<trkpt lat="43.0367900000" lon="0.1164470000"><ele>1067</ele><time>2026-03-21T08:47:01Z</time></trkpt>
<trkpt lat="43.0367970000" lon="0.1164720000"><ele>1067</ele><time>2026-03-21T08:47:03Z</time></trkpt>
<trkpt lat="43.0368020000" lon="0.1165020000"><ele>1067</ele><time>2026-03-21T08:47:06Z</time></trkpt>
<trkpt lat="43.0368050000" lon="0.1165270000"><ele>1068</ele><time>2026-03-21T08:47:08Z</time></trkpt>
<trkpt lat="43.0368120000" lon="0.1165650000"><ele>1068</ele><time>2026-03-21T08:47:11Z</time></trkpt>
<trkpt lat="43.0368170000" lon="0.1165920000"><ele>1068</ele><time>2026-03-21T08:47:13Z</time></trkpt>
<trkpt lat="43.0368200000" lon="0.1166170000"><ele>1068</ele><time>2026-03-21T08:47:15Z</time></trkpt>
<trkpt lat="43.0368270000" lon="0.1166520000"><ele>1068</ele><time>2026-03-21T08:47:18Z</time></trkpt>
<trkpt lat="43.0368320000" lon="0.1166770000"><ele>1069</ele><time>2026-03-21T08:47:20Z</time></trkpt>
<trkpt lat="43.0368370000" lon="0.1167150000"><ele>1069</ele><time>2026-03-21T08:47:23Z</time></trkpt>
<trkpt lat="43.0368470000" lon="0.1167470000"><ele>1069</ele><time>2026-03-21T08:47:25Z</time></trkpt>
<trkpt lat="43.0368520000" lon="0.1167720000"><ele>1069</ele><time>2026-03-21T08:47:27Z</time></trkpt>
<trkpt lat="43.0368600000" lon="0.1167970000"><ele>1069</ele><time>2026-03-21T08:47:29Z</time></trkpt>
<trkpt lat="43.0368650000" lon="0.1168300000"><ele>1070</ele><time>2026-03-21T08:47:31Z</time></trkpt>
<trkpt lat="43.0368720000" lon="0.1168600000"><ele>1070</ele><time>2026-03-21T08:47:33Z</time></trkpt>
<trkpt lat="43.0368750000" lon="0.1168870000"><ele>1070</ele><time>2026-03-21T08:47:35Z</time></trkpt>
<trkpt lat="43.0368820000" lon="0.1169170000"><ele>1070</ele><time>2026-03-21T08:47:37Z</time></trkpt>
<trkpt lat="43.0368900000" lon="0.1169420000"><ele>1070</ele><time>2026-03-21T08:47:39Z</time></trkpt>
<trkpt lat="43.0368970000" lon="0.1169750000"><ele>1070</ele><time>2026-03-21T08:47:41Z</time></trkpt>
<trkpt lat="43.0369020000" lon="0.1170050000"><ele>1070</ele><time>2026-03-21T08:47:43Z</time></trkpt>
<trkpt lat="43.0369020000" lon="0.1170320000"><ele>1070</ele><time>2026-03-21T08:47:45Z</time></trkpt>
<trkpt lat="43.0369020000" lon="0.1170570000"><ele>1071</ele><time>2026-03-21T08:47:47Z</time></trkpt>
<trkpt lat="43.0368950000" lon="0.1170820000"><ele>1071</ele><time>2026-03-21T08:47:49Z</time></trkpt>
<trkpt lat="43.0368900000" lon="0.1171120000"><ele>1071</ele><time>2026-03-21T08:47:51Z</time></trkpt>
<trkpt lat="43.0369000000" lon="0.1171470000"><ele>1071</ele><time>2026-03-21T08:47:53Z</time></trkpt>
<trkpt lat="43.0369170000" lon="0.1171770000"><ele>1071</ele><time>2026-03-21T08:47:55Z</time></trkpt>
<trkpt lat="43.0369320000" lon="0.1172000000"><ele>1071</ele><time>2026-03-21T08:47:57Z</time></trkpt>
<trkpt lat="43.0369450000" lon="0.1172300000"><ele>1071</ele><time>2026-03-21T08:47:59Z</time></trkpt>
<trkpt lat="43.0369550000" lon="0.1172620000"><ele>1072</ele><time>2026-03-21T08:48:01Z</time></trkpt>
<trkpt lat="43.0369670000" lon="0.1172870000"><ele>1072</ele><time>2026-03-21T08:48:03Z</time></trkpt>
<trkpt lat="43.0369770000" lon="0.1173080000"><ele>1071</ele><time>2026-03-21T08:48:05Z</time></trkpt>
<trkpt lat="43.0369920000" lon="0.1173370000"><ele>1071</ele><time>2026-03-21T08:48:07Z</time></trkpt>
<trkpt lat="43.0370070000" lon="0.1173620000"><ele>1071</ele><time>2026-03-21T08:48:09Z</time></trkpt>
<trkpt lat="43.0370220000" lon="0.1173780000"><ele>1071</ele><time>2026-03-21T08:48:11Z</time></trkpt>
<trkpt lat="43.0370370000" lon="0.1174020000"><ele>1071</ele><time>2026-03-21T08:48:19Z</time></trkpt>
<trkpt lat="43.0370350000" lon="0.1174320000"><ele>1071</ele><time>2026-03-21T08:48:30Z</time></trkpt>
<trkpt lat="43.0370320000" lon="0.1174670000"><ele>1071</ele><time>2026-03-21T08:48:32Z</time></trkpt>
<trkpt lat="43.0370350000" lon="0.1175070000"><ele>1071</ele><time>2026-03-21T08:48:34Z</time></trkpt>
<trkpt lat="43.0370470000" lon="0.1175370000"><ele>1071</ele><time>2026-03-21T08:48:36Z</time></trkpt>
<trkpt lat="43.0370620000" lon="0.1175650000"><ele>1071</ele><time>2026-03-21T08:48:38Z</time></trkpt>
<trkpt lat="43.0370720000" lon="0.1175920000"><ele>1072</ele><time>2026-03-21T08:48:40Z</time></trkpt>
<trkpt lat="43.0370850000" lon="0.1176170000"><ele>1072</ele><time>2026-03-21T08:48:42Z</time></trkpt>
<trkpt lat="43.0370920000" lon="0.1176420000"><ele>1071</ele><time>2026-03-21T08:48:44Z</time></trkpt>
<trkpt lat="43.0370720000" lon="0.1176220000"><ele>1071</ele><time>2026-03-21T08:48:54Z</time></trkpt>
<trkpt lat="43.0370670000" lon="0.1175830000"><ele>1071</ele><time>2026-03-21T08:48:56Z</time></trkpt>
<trkpt lat="43.0370800000" lon="0.1175650000"><ele>1071</ele><time>2026-03-21T08:48:58Z</time></trkpt>
<trkpt lat="43.0370970000" lon="0.1175670000"><ele>1072</ele><time>2026-03-21T08:49:00Z</time></trkpt>
<trkpt lat="43.0371220000" lon="0.1175670000"><ele>1072</ele><time>2026-03-21T08:49:04Z</time></trkpt>
<trkpt lat="43.0371470000" lon="0.1175620000"><ele>1072</ele><time>2026-03-21T08:49:06Z</time></trkpt>
<trkpt lat="43.0371730000" lon="0.1175620000"><ele>1072</ele><time>2026-03-21T08:49:08Z</time></trkpt>
<trkpt lat="43.0372000000" lon="0.1175570000"><ele>1072</ele><time>2026-03-21T08:49:10Z</time></trkpt>
<trkpt lat="43.0372220000" lon="0.1175570000"><ele>1072</ele><time>2026-03-21T08:49:12Z</time></trkpt>
<trkpt lat="43.0372420000" lon="0.1175520000"><ele>1073</ele><time>2026-03-21T08:49:14Z</time></trkpt>
<trkpt lat="43.0372620000" lon="0.1175400000"><ele>1073</ele><time>2026-03-21T08:49:16Z</time></trkpt>
<trkpt lat="43.0372820000" lon="0.1175270000"><ele>1073</ele><time>2026-03-21T08:49:18Z</time></trkpt>
<trkpt lat="43.0373020000" lon="0.1175220000"><ele>1073</ele><time>2026-03-21T08:49:20Z</time></trkpt>
<trkpt lat="43.0373170000" lon="0.1175050000"><ele>1073</ele><time>2026-03-21T08:49:23Z</time></trkpt>
<trkpt lat="43.0373350000" lon="0.1174870000"><ele>1074</ele><time>2026-03-21T08:49:26Z</time></trkpt>
<trkpt lat="43.0373520000" lon="0.1174770000"><ele>1074</ele><time>2026-03-21T08:49:29Z</time></trkpt>
<trkpt lat="43.0373550000" lon="0.1174470000"><ele>1074</ele><time>2026-03-21T08:49:32Z</time></trkpt>
<trkpt lat="43.0373600000" lon="0.1174120000"><ele>1074</ele><time>2026-03-21T08:49:35Z</time></trkpt>
<trkpt lat="43.0373620000" lon="0.1173870000"><ele>1075</ele><time>2026-03-21T08:49:37Z</time></trkpt>
<trkpt lat="43.0373700000" lon="0.1173620000"><ele>1075</ele><time>2026-03-21T08:49:39Z</time></trkpt>
<trkpt lat="43.0373820000" lon="0.1173450000"><ele>1075</ele><time>2026-03-21T08:49:41Z</time></trkpt>
<trkpt lat="43.0373980000" lon="0.1173320000"><ele>1075</ele><time>2026-03-21T08:49:44Z</time></trkpt>
<trkpt lat="43.0374150000" lon="0.1173120000"><ele>1075</ele><time>2026-03-21T08:49:46Z</time></trkpt>
<trkpt lat="43.0374270000" lon="0.1172870000"><ele>1075</ele><time>2026-03-21T08:49:49Z</time></trkpt>
<trkpt lat="43.0374350000" lon="0.1172570000"><ele>1075</ele><time>2026-03-21T08:49:52Z</time></trkpt>
<trkpt lat="43.0374470000" lon="0.1172320000"><ele>1075</ele><time>2026-03-21T08:49:55Z</time></trkpt>
<trkpt lat="43.0374720000" lon="0.1172170000"><ele>1075</ele><time>2026-03-21T08:50:32Z</time></trkpt>
<trkpt lat="43.0374970000" lon="0.1172020000"><ele>1075</ele><time>2026-03-21T08:50:34Z</time></trkpt>
<trkpt lat="43.0375150000" lon="0.1171930000"><ele>1075</ele><time>2026-03-21T08:50:38Z</time></trkpt>
<trkpt lat="43.0375250000" lon="0.1172250000"><ele>1075</ele><time>2026-03-21T08:50:46Z</time></trkpt>
<trkpt lat="43.0375350000" lon="0.1172620000"><ele>1075</ele><time>2026-03-21T08:50:50Z</time></trkpt>
<trkpt lat="43.0375470000" lon="0.1173050000"><ele>1074</ele><time>2026-03-21T08:50:52Z</time></trkpt>
<trkpt lat="43.0375520000" lon="0.1173300000"><ele>1074</ele><time>2026-03-21T08:50:53Z</time></trkpt>
<trkpt lat="43.0375520000" lon="0.1173720000"><ele>1074</ele><time>2026-03-21T08:50:55Z</time></trkpt>
<trkpt lat="43.0375370000" lon="0.1174020000"><ele>1074</ele><time>2026-03-21T08:50:57Z</time></trkpt>
<trkpt lat="43.0375220000" lon="0.1174220000"><ele>1075</ele><time>2026-03-21T08:50:59Z</time></trkpt>
<trkpt lat="43.0375070000" lon="0.1174350000"><ele>1075</ele><time>2026-03-21T08:51:01Z</time></trkpt>
<trkpt lat="43.0374800000" lon="0.1174430000"><ele>1075</ele><time>2026-03-21T08:51:04Z</time></trkpt>
<trkpt lat="43.0374550000" lon="0.1174520000"><ele>1075</ele><time>2026-03-21T08:51:07Z</time></trkpt>
<trkpt lat="43.0374370000" lon="0.1174650000"><ele>1075</ele><time>2026-03-21T08:51:09Z</time></trkpt>
<trkpt lat="43.0374270000" lon="0.1174920000"><ele>1075</ele><time>2026-03-21T08:51:11Z</time></trkpt>
<trkpt lat="43.0374300000" lon="0.1175270000"><ele>1075</ele><time>2026-03-21T08:51:13Z</time></trkpt>
<trkpt lat="43.0374320000" lon="0.1175600000"><ele>1075</ele><time>2026-03-21T08:51:15Z</time></trkpt>
<trkpt lat="43.0374320000" lon="0.1175870000"><ele>1075</ele><time>2026-03-21T08:51:17Z</time></trkpt>
<trkpt lat="43.0374370000" lon="0.1176170000"><ele>1074</ele><time>2026-03-21T08:51:19Z</time></trkpt>
<trkpt lat="43.0374400000" lon="0.1176450000"><ele>1074</ele><time>2026-03-21T08:51:21Z</time></trkpt>
<trkpt lat="43.0374420000" lon="0.1176750000"><ele>1074</ele><time>2026-03-21T08:51:23Z</time></trkpt>
<trkpt lat="43.0374470000" lon="0.1177020000"><ele>1074</ele><time>2026-03-21T08:51:25Z</time></trkpt>
<trkpt lat="43.0374520000" lon="0.1177400000"><ele>1074</ele><time>2026-03-21T08:51:28Z</time></trkpt>
<trkpt lat="43.0374520000" lon="0.1177670000"><ele>1073</ele><time>2026-03-21T08:51:30Z</time></trkpt>
<trkpt lat="43.0374600000" lon="0.1177920000"><ele>1073</ele><time>2026-03-21T08:51:32Z</time></trkpt>
<trkpt lat="43.0374670000" lon="0.1178300000"><ele>1073</ele><time>2026-03-21T08:51:35Z</time></trkpt>
<trkpt lat="43.0374720000" lon="0.1178570000"><ele>1073</ele><time>2026-03-21T08:51:37Z</time></trkpt>
<trkpt lat="43.0374750000" lon="0.1178850000"><ele>1072</ele><time>2026-03-21T08:51:39Z</time></trkpt>
<trkpt lat="43.0374750000" lon="0.1179100000"><ele>1072</ele><time>2026-03-21T08:51:41Z</time></trkpt>
<trkpt lat="43.0374770000" lon="0.1179330000"><ele>1071</ele><time>2026-03-21T08:51:43Z</time></trkpt>
<trkpt lat="43.0374770000" lon="0.1179620000"><ele>1071</ele><time>2026-03-21T08:51:45Z</time></trkpt>
<trkpt lat="43.0374750000" lon="0.1179900000"><ele>1071</ele><time>2026-03-21T08:51:47Z</time></trkpt>
<trkpt lat="43.0374770000" lon="0.1180220000"><ele>1070</ele><time>2026-03-21T08:51:49Z</time></trkpt>
<trkpt lat="43.0374870000" lon="0.1180520000"><ele>1070</ele><time>2026-03-21T08:51:51Z</time></trkpt>
<trkpt lat="43.0374920000" lon="0.1180820000"><ele>1070</ele><time>2026-03-21T08:51:53Z</time></trkpt>
<trkpt lat="43.0374970000" lon="0.1181120000"><ele>1069</ele><time>2026-03-21T08:51:55Z</time></trkpt>
<trkpt lat="43.0375000000" lon="0.1181500000"><ele>1069</ele><time>2026-03-21T08:51:58Z</time></trkpt>
<trkpt lat="43.0375000000" lon="0.1181750000"><ele>1068</ele><time>2026-03-21T08:52:00Z</time></trkpt>
<trkpt lat="43.0375000000" lon="0.1182020000"><ele>1068</ele><time>2026-03-21T08:52:02Z</time></trkpt>
<trkpt lat="43.0375050000" lon="0.1182320000"><ele>1068</ele><time>2026-03-21T08:52:04Z</time></trkpt>
<trkpt lat="43.0375100000" lon="0.1182570000"><ele>1068</ele><time>2026-03-21T08:52:06Z</time></trkpt>
<trkpt lat="43.0375150000" lon="0.1182830000"><ele>1067</ele><time>2026-03-21T08:52:08Z</time></trkpt>
<trkpt lat="43.0375200000" lon="0.1183170000"><ele>1067</ele><time>2026-03-21T08:52:10Z</time></trkpt>
<trkpt lat="43.0375220000" lon="0.1183420000"><ele>1067</ele><time>2026-03-21T08:52:12Z</time></trkpt>
<trkpt lat="43.0375220000" lon="0.1183770000"><ele>1067</ele><time>2026-03-21T08:52:15Z</time></trkpt>
<trkpt lat="43.0375220000" lon="0.1184020000"><ele>1067</ele><time>2026-03-21T08:52:17Z</time></trkpt>
<trkpt lat="43.0375270000" lon="0.1184270000"><ele>1067</ele><time>2026-03-21T08:52:19Z</time></trkpt>
<trkpt lat="43.0375470000" lon="0.1184420000"><ele>1066</ele><time>2026-03-21T08:52:25Z</time></trkpt>
<trkpt lat="43.0375700000" lon="0.1184550000"><ele>1066</ele><time>2026-03-21T08:52:29Z</time></trkpt>
<trkpt lat="43.0375920000" lon="0.1184750000"><ele>1066</ele><time>2026-03-21T08:52:31Z</time></trkpt>
<trkpt lat="43.0376120000" lon="0.1185020000"><ele>1066</ele><time>2026-03-21T08:52:34Z</time></trkpt>
<trkpt lat="43.0376230000" lon="0.1185220000"><ele>1066</ele><time>2026-03-21T08:52:36Z</time></trkpt>
<trkpt lat="43.0376150000" lon="0.1185470000"><ele>1066</ele><time>2026-03-21T08:52:39Z</time></trkpt>
<trkpt lat="43.0375900000" lon="0.1185470000"><ele>1066</ele><time>2026-03-21T08:52:43Z</time></trkpt>
<trkpt lat="43.0376120000" lon="0.1185750000"><ele>1066</ele><time>2026-03-21T08:53:06Z</time></trkpt>
<trkpt lat="43.0376420000" lon="0.1185970000"><ele>1066</ele><time>2026-03-21T08:53:08Z</time></trkpt>
<trkpt lat="43.0376700000" lon="0.1186070000"><ele>1066</ele><time>2026-03-21T08:53:10Z</time></trkpt>
<trkpt lat="43.0376920000" lon="0.1186170000"><ele>1066</ele><time>2026-03-21T08:53:12Z</time></trkpt>
<trkpt lat="43.0377120000" lon="0.1186270000"><ele>1066</ele><time>2026-03-21T08:53:14Z</time></trkpt>
<trkpt lat="43.0377320000" lon="0.1186420000"><ele>1066</ele><time>2026-03-21T08:53:16Z</time></trkpt>
<trkpt lat="43.0377570000" lon="0.1186600000"><ele>1066</ele><time>2026-03-21T08:53:18Z</time></trkpt>
<trkpt lat="43.0377820000" lon="0.1186770000"><ele>1066</ele><time>2026-03-21T08:53:20Z</time></trkpt>
<trkpt lat="43.0378000000" lon="0.1186900000"><ele>1066</ele><time>2026-03-21T08:53:22Z</time></trkpt>
<trkpt lat="43.0378250000" lon="0.1187050000"><ele>1066</ele><time>2026-03-21T08:53:24Z</time></trkpt>
<trkpt lat="43.0378420000" lon="0.1187200000"><ele>1066</ele><time>2026-03-21T08:53:26Z</time></trkpt>
<trkpt lat="43.0378550000" lon="0.1187400000"><ele>1066</ele><time>2026-03-21T08:53:28Z</time></trkpt>
<trkpt lat="43.0378720000" lon="0.1187570000"><ele>1066</ele><time>2026-03-21T08:53:30Z</time></trkpt>
<trkpt lat="43.0378920000" lon="0.1187570000"><ele>1066</ele><time>2026-03-21T08:53:34Z</time></trkpt>
<trkpt lat="43.0379070000" lon="0.1187400000"><ele>1066</ele><time>2026-03-21T08:53:39Z</time></trkpt>
<trkpt lat="43.0379170000" lon="0.1187620000"><ele>1067</ele><time>2026-03-21T08:53:51Z</time></trkpt>
<trkpt lat="43.0379370000" lon="0.1187920000"><ele>1066</ele><time>2026-03-21T08:53:53Z</time></trkpt>
<trkpt lat="43.0379550000" lon="0.1188120000"><ele>1066</ele><time>2026-03-21T08:53:54Z</time></trkpt>
<trkpt lat="43.0379670000" lon="0.1188320000"><ele>1066</ele><time>2026-03-21T08:53:55Z</time></trkpt>
<trkpt lat="43.0379920000" lon="0.1188520000"><ele>1066</ele><time>2026-03-21T08:53:57Z</time></trkpt>
<trkpt lat="43.0380120000" lon="0.1188750000"><ele>1067</ele><time>2026-03-21T08:54:00Z</time></trkpt>
<trkpt lat="43.0380270000" lon="0.1188870000"><ele>1067</ele><time>2026-03-21T08:54:02Z</time></trkpt>
<trkpt lat="43.0380450000" lon="0.1189020000"><ele>1067</ele><time>2026-03-21T08:54:04Z</time></trkpt>
<trkpt lat="43.0380550000" lon="0.1189350000"><ele>1067</ele><time>2026-03-21T08:54:07Z</time></trkpt>
<trkpt lat="43.0380720000" lon="0.1189600000"><ele>1068</ele><time>2026-03-21T08:54:11Z</time></trkpt>
<trkpt lat="43.0380870000" lon="0.1189720000"><ele>1068</ele><time>2026-03-21T08:54:13Z</time></trkpt>
<trkpt lat="43.0381050000" lon="0.1189870000"><ele>1068</ele><time>2026-03-21T08:54:15Z</time></trkpt>
<trkpt lat="43.0381320000" lon="0.1190050000"><ele>1068</ele><time>2026-03-21T08:54:18Z</time></trkpt>
<trkpt lat="43.0381520000" lon="0.1190170000"><ele>1068</ele><time>2026-03-21T08:54:20Z</time></trkpt>
<trkpt lat="43.0381720000" lon="0.1190270000"><ele>1069</ele><time>2026-03-21T08:54:23Z</time></trkpt>
<trkpt lat="43.0381950000" lon="0.1190430000"><ele>1069</ele><time>2026-03-21T08:54:26Z</time></trkpt>
<trkpt lat="43.0382070000" lon="0.1190650000"><ele>1069</ele><time>2026-03-21T08:54:28Z</time></trkpt>
<trkpt lat="43.0382250000" lon="0.1190820000"><ele>1069</ele><time>2026-03-21T08:54:30Z</time></trkpt>
<trkpt lat="43.0382420000" lon="0.1190920000"><ele>1070</ele><time>2026-03-21T08:54:32Z</time></trkpt>
<trkpt lat="43.0382670000" lon="0.1191070000"><ele>1070</ele><time>2026-03-21T08:54:35Z</time></trkpt>
<trkpt lat="43.0382850000" lon="0.1191170000"><ele>1070</ele><time>2026-03-21T08:54:37Z</time></trkpt>
<trkpt lat="43.0383020000" lon="0.1191270000"><ele>1070</ele><time>2026-03-21T08:54:40Z</time></trkpt>
<trkpt lat="43.0383170000" lon="0.1191570000"><ele>1071</ele><time>2026-03-21T08:54:44Z</time></trkpt>
<trkpt lat="43.0383320000" lon="0.1191770000"><ele>1071</ele><time>2026-03-21T08:54:46Z</time></trkpt>
<trkpt lat="43.0383520000" lon="0.1191970000"><ele>1072</ele><time>2026-03-21T08:54:49Z</time></trkpt>
<trkpt lat="43.0383770000" lon="0.1191970000"><ele>1072</ele><time>2026-03-21T08:54:51Z</time></trkpt>
<trkpt lat="43.0384020000" lon="0.1192120000"><ele>1072</ele><time>2026-03-21T08:54:53Z</time></trkpt>
<trkpt lat="43.0384220000" lon="0.1192220000"><ele>1072</ele><time>2026-03-21T08:54:55Z</time></trkpt>
<trkpt lat="43.0384500000" lon="0.1192350000"><ele>1073</ele><time>2026-03-21T08:54:57Z</time></trkpt>
<trkpt lat="43.0384670000" lon="0.1192530000"><ele>1073</ele><time>2026-03-21T08:54:59Z</time></trkpt>
<trkpt lat="43.0384850000" lon="0.1192700000"><ele>1073</ele><time>2026-03-21T08:55:03Z</time></trkpt>
<trkpt lat="43.0385070000" lon="0.1192850000"><ele>1073</ele><time>2026-03-21T08:55:06Z</time></trkpt>
<trkpt lat="43.0385320000" lon="0.1193020000"><ele>1074</ele><time>2026-03-21T08:55:09Z</time></trkpt>
<trkpt lat="43.0385520000" lon="0.1193070000"><ele>1074</ele><time>2026-03-21T08:55:11Z</time></trkpt>
<trkpt lat="43.0385720000" lon="0.1193270000"><ele>1074</ele><time>2026-03-21T08:55:17Z</time></trkpt>
<trkpt lat="43.0385900000" lon="0.1193400000"><ele>1075</ele><time>2026-03-21T08:55:19Z</time></trkpt>
<trkpt lat="43.0386080000" lon="0.1193670000"><ele>1075</ele><time>2026-03-21T08:55:22Z</time></trkpt>
<trkpt lat="43.0386300000" lon="0.1193850000"><ele>1075</ele><time>2026-03-21T08:55:25Z</time></trkpt>
<trkpt lat="43.0386420000" lon="0.1194020000"><ele>1075</ele><time>2026-03-21T08:55:27Z</time></trkpt>
<trkpt lat="43.0386570000" lon="0.1194170000"><ele>1075</ele><time>2026-03-21T08:55:29Z</time></trkpt>
<trkpt lat="43.0386720000" lon="0.1194370000"><ele>1075</ele><time>2026-03-21T08:55:32Z</time></trkpt>
<trkpt lat="43.0386870000" lon="0.1194520000"><ele>1076</ele><time>2026-03-21T08:55:34Z</time></trkpt>
<trkpt lat="43.0387070000" lon="0.1194670000"><ele>1076</ele><time>2026-03-21T08:55:37Z</time></trkpt>
<trkpt lat="43.0387270000" lon="0.1194820000"><ele>1076</ele><time>2026-03-21T08:55:40Z</time></trkpt>
<trkpt lat="43.0387500000" lon="0.1195020000"><ele>1076</ele><time>2026-03-21T08:55:43Z</time></trkpt>
<trkpt lat="43.0387670000" lon="0.1195270000"><ele>1077</ele><time>2026-03-21T08:55:46Z</time></trkpt>
<trkpt lat="43.0387870000" lon="0.1195450000"><ele>1077</ele><time>2026-03-21T08:55:49Z</time></trkpt>
<trkpt lat="43.0388000000" lon="0.1195650000"><ele>1078</ele><time>2026-03-21T08:55:52Z</time></trkpt>
<trkpt lat="43.0388150000" lon="0.1195820000"><ele>1078</ele><time>2026-03-21T08:55:55Z</time></trkpt>
<trkpt lat="43.0388220000" lon="0.1196120000"><ele>1078</ele><time>2026-03-21T08:55:59Z</time></trkpt>
<trkpt lat="43.0388370000" lon="0.1196300000"><ele>1078</ele><time>2026-03-21T08:56:02Z</time></trkpt>
<trkpt lat="43.0388520000" lon="0.1196500000"><ele>1078</ele><time>2026-03-21T08:56:04Z</time></trkpt>
<trkpt lat="43.0388750000" lon="0.1196680000"><ele>1078</ele><time>2026-03-21T08:56:07Z</time></trkpt>
<trkpt lat="43.0388920000" lon="0.1196900000"><ele>1079</ele><time>2026-03-21T08:56:10Z</time></trkpt>
<trkpt lat="43.0389120000" lon="0.1197000000"><ele>1079</ele><time>2026-03-21T08:56:12Z</time></trkpt>
<trkpt lat="43.0389400000" lon="0.1197020000"><ele>1079</ele><time>2026-03-21T08:56:14Z</time></trkpt>
<trkpt lat="43.0389670000" lon="0.1197070000"><ele>1079</ele><time>2026-03-21T08:56:16Z</time></trkpt>
<trkpt lat="43.0389880000" lon="0.1197170000"><ele>1079</ele><time>2026-03-21T08:56:18Z</time></trkpt>
<trkpt lat="43.0390050000" lon="0.1197370000"><ele>1079</ele><time>2026-03-21T08:56:21Z</time></trkpt>
<trkpt lat="43.0390250000" lon="0.1197600000"><ele>1080</ele><time>2026-03-21T08:56:24Z</time></trkpt>
<trkpt lat="43.0390450000" lon="0.1197820000"><ele>1080</ele><time>2026-03-21T08:56:27Z</time></trkpt>
<trkpt lat="43.0390700000" lon="0.1197970000"><ele>1080</ele><time>2026-03-21T08:56:30Z</time></trkpt>
<trkpt lat="43.0390770000" lon="0.1198220000"><ele>1081</ele><time>2026-03-21T08:56:32Z</time></trkpt>
<trkpt lat="43.0390920000" lon="0.1198370000"><ele>1081</ele><time>2026-03-21T08:56:36Z</time></trkpt>
<trkpt lat="43.0391120000" lon="0.1198520000"><ele>1081</ele><time>2026-03-21T08:56:38Z</time></trkpt>
<trkpt lat="43.0391370000" lon="0.1198730000"><ele>1081</ele><time>2026-03-21T08:56:41Z</time></trkpt>
<trkpt lat="43.0391550000" lon="0.1198720000"><ele>1082</ele><time>2026-03-21T08:56:44Z</time></trkpt>
<trkpt lat="43.0391670000" lon="0.1199020000"><ele>1082</ele><time>2026-03-21T08:57:14Z</time></trkpt>
<trkpt lat="43.0391820000" lon="0.1199300000"><ele>1082</ele><time>2026-03-21T08:57:16Z</time></trkpt>
<trkpt lat="43.0391970000" lon="0.1199470000"><ele>1082</ele><time>2026-03-21T08:57:19Z</time></trkpt>
<trkpt lat="43.0392220000" lon="0.1199480000"><ele>1083</ele><time>2026-03-21T08:57:22Z</time></trkpt>
<trkpt lat="43.0392370000" lon="0.1199670000"><ele>1083</ele><time>2026-03-21T08:57:24Z</time></trkpt>
<trkpt lat="43.0392470000" lon="0.1199920000"><ele>1083</ele><time>2026-03-21T08:57:26Z</time></trkpt>
<trkpt lat="43.0392620000" lon="0.1200070000"><ele>1083</ele><time>2026-03-21T08:57:28Z</time></trkpt>
<trkpt lat="43.0392820000" lon="0.1200220000"><ele>1084</ele><time>2026-03-21T08:57:31Z</time></trkpt>
<trkpt lat="43.0393050000" lon="0.1200130000"><ele>1084</ele><time>2026-03-21T08:57:34Z</time></trkpt>
<trkpt lat="43.0393220000" lon="0.1200170000"><ele>1085</ele><time>2026-03-21T08:57:36Z</time></trkpt>
<trkpt lat="43.0393370000" lon="0.1200350000"><ele>1085</ele><time>2026-03-21T08:57:38Z</time></trkpt>
<trkpt lat="43.0393520000" lon="0.1200570000"><ele>1085</ele><time>2026-03-21T08:57:41Z</time></trkpt>
<trkpt lat="43.0393720000" lon="0.1200720000"><ele>1085</ele><time>2026-03-21T08:57:44Z</time></trkpt>
<trkpt lat="43.0393900000" lon="0.1200800000"><ele>1086</ele><time>2026-03-21T08:57:47Z</time></trkpt>
<trkpt lat="43.0394020000" lon="0.1200970000"><ele>1086</ele><time>2026-03-21T08:57:51Z</time></trkpt>
<trkpt lat="43.0394270000" lon="0.1201120000"><ele>1087</ele><time>2026-03-21T08:57:54Z</time></trkpt>
<trkpt lat="43.0394420000" lon="0.1201270000"><ele>1087</ele><time>2026-03-21T08:57:56Z</time></trkpt>
<trkpt lat="43.0394620000" lon="0.1201420000"><ele>1087</ele><time>2026-03-21T08:57:58Z</time></trkpt>
<trkpt lat="43.0394800000" lon="0.1201600000"><ele>1088</ele><time>2026-03-21T08:58:01Z</time></trkpt>
<trkpt lat="43.0395050000" lon="0.1201720000"><ele>1088</ele><time>2026-03-21T08:58:04Z</time></trkpt>
<trkpt lat="43.0395220000" lon="0.1201820000"><ele>1088</ele><time>2026-03-21T08:58:06Z</time></trkpt>
<trkpt lat="43.0395420000" lon="0.1201850000"><ele>1088</ele><time>2026-03-21T08:58:08Z</time></trkpt>
<trkpt lat="43.0395650000" lon="0.1201920000"><ele>1089</ele><time>2026-03-21T08:58:11Z</time></trkpt>
<trkpt lat="43.0395870000" lon="0.1201900000"><ele>1089</ele><time>2026-03-21T08:58:15Z</time></trkpt>
<trkpt lat="43.0396050000" lon="0.1201780000"><ele>1089</ele><time>2026-03-21T08:58:17Z</time></trkpt>
<trkpt lat="43.0396220000" lon="0.1201670000"><ele>1090</ele><time>2026-03-21T08:58:19Z</time></trkpt>
<trkpt lat="43.0396470000" lon="0.1201570000"><ele>1090</ele><time>2026-03-21T08:58:21Z</time></trkpt>
<trkpt lat="43.0396620000" lon="0.1201450000"><ele>1090</ele><time>2026-03-21T08:58:23Z</time></trkpt>
<trkpt lat="43.0396870000" lon="0.1201320000"><ele>1091</ele><time>2026-03-21T08:58:27Z</time></trkpt>
<trkpt lat="43.0397050000" lon="0.1201220000"><ele>1091</ele><time>2026-03-21T08:58:30Z</time></trkpt>
<trkpt lat="43.0397250000" lon="0.1201080000"><ele>1091</ele><time>2026-03-21T08:58:32Z</time></trkpt>
<trkpt lat="43.0397480000" lon="0.1200970000"><ele>1091</ele><time>2026-03-21T08:58:35Z</time></trkpt>
<trkpt lat="43.0397700000" lon="0.1200820000"><ele>1091</ele><time>2026-03-21T08:58:37Z</time></trkpt>
<trkpt lat="43.0397820000" lon="0.1200470000"><ele>1091</ele><time>2026-03-21T08:58:39Z</time></trkpt>
<trkpt lat="43.0398020000" lon="0.1200270000"><ele>1091</ele><time>2026-03-21T08:58:41Z</time></trkpt>
<trkpt lat="43.0398220000" lon="0.1200170000"><ele>1091</ele><time>2026-03-21T08:58:43Z</time></trkpt>
<trkpt lat="43.0398420000" lon="0.1199920000"><ele>1091</ele><time>2026-03-21T08:58:46Z</time></trkpt>
<trkpt lat="43.0398650000" lon="0.1199750000"><ele>1091</ele><time>2026-03-21T08:58:49Z</time></trkpt>
<trkpt lat="43.0398820000" lon="0.1199620000"><ele>1091</ele><time>2026-03-21T08:58:52Z</time></trkpt>
<trkpt lat="43.0399000000" lon="0.1199370000"><ele>1091</ele><time>2026-03-21T08:58:55Z</time></trkpt>
<trkpt lat="43.0399070000" lon="0.1199120000"><ele>1092</ele><time>2026-03-21T08:58:57Z</time></trkpt>
<trkpt lat="43.0399170000" lon="0.1198820000"><ele>1092</ele><time>2026-03-21T08:58:59Z</time></trkpt>
<trkpt lat="43.0399270000" lon="0.1198570000"><ele>1092</ele><time>2026-03-21T08:59:01Z</time></trkpt>
<trkpt lat="43.0399420000" lon="0.1198370000"><ele>1092</ele><time>2026-03-21T08:59:04Z</time></trkpt>
<trkpt lat="43.0399620000" lon="0.1198170000"><ele>1093</ele><time>2026-03-21T08:59:07Z</time></trkpt>
<trkpt lat="43.0399850000" lon="0.1198030000"><ele>1093</ele><time>2026-03-21T08:59:10Z</time></trkpt>
<trkpt lat="43.0400020000" lon="0.1197920000"><ele>1093</ele><time>2026-03-21T08:59:12Z</time></trkpt>
<trkpt lat="43.0400070000" lon="0.1197670000"><ele>1093</ele><time>2026-03-21T08:59:14Z</time></trkpt>
<trkpt lat="43.0400270000" lon="0.1197470000"><ele>1093</ele><time>2026-03-21T08:59:17Z</time></trkpt>
<trkpt lat="43.0400450000" lon="0.1197370000"><ele>1094</ele><time>2026-03-21T08:59:19Z</time></trkpt>
<trkpt lat="43.0400620000" lon="0.1197250000"><ele>1094</ele><time>2026-03-21T08:59:21Z</time></trkpt>
<trkpt lat="43.0400800000" lon="0.1197120000"><ele>1094</ele><time>2026-03-21T08:59:23Z</time></trkpt>
<trkpt lat="43.0400950000" lon="0.1196920000"><ele>1094</ele><time>2026-03-21T08:59:25Z</time></trkpt>
<trkpt lat="43.0401070000" lon="0.1196720000"><ele>1095</ele><time>2026-03-21T08:59:27Z</time></trkpt>
<trkpt lat="43.0401220000" lon="0.1196520000"><ele>1095</ele><time>2026-03-21T08:59:30Z</time></trkpt>
<trkpt lat="43.0401400000" lon="0.1196350000"><ele>1095</ele><time>2026-03-21T08:59:33Z</time></trkpt>
<trkpt lat="43.0401620000" lon="0.1196220000"><ele>1095</ele><time>2026-03-21T08:59:36Z</time></trkpt>
<trkpt lat="43.0401820000" lon="0.1196070000"><ele>1096</ele><time>2026-03-21T08:59:39Z</time></trkpt>
<trkpt lat="43.0402070000" lon="0.1195870000"><ele>1096</ele><time>2026-03-21T08:59:43Z</time></trkpt>
<trkpt lat="43.0402270000" lon="0.1195820000"><ele>1096</ele><time>2026-03-21T08:59:45Z</time></trkpt>
<trkpt lat="43.0402470000" lon="0.1195770000"><ele>1097</ele><time>2026-03-21T08:59:47Z</time></trkpt>
<trkpt lat="43.0402620000" lon="0.1195570000"><ele>1097</ele><time>2026-03-21T08:59:49Z</time></trkpt>
<trkpt lat="43.0402720000" lon="0.1195370000"><ele>1097</ele><time>2026-03-21T08:59:51Z</time></trkpt>
<trkpt lat="43.0402830000" lon="0.1195100000"><ele>1097</ele><time>2026-03-21T08:59:53Z</time></trkpt>
<trkpt lat="43.0402970000" lon="0.1194870000"><ele>1098</ele><time>2026-03-21T08:59:55Z</time></trkpt>
<trkpt lat="43.0403120000" lon="0.1194620000"><ele>1098</ele><time>2026-03-21T08:59:57Z</time></trkpt>
<trkpt lat="43.0403270000" lon="0.1194450000"><ele>1098</ele><time>2026-03-21T08:59:59Z</time></trkpt>
<trkpt lat="43.0403450000" lon="0.1194270000"><ele>1098</ele><time>2026-03-21T09:00:01Z</time></trkpt>
<trkpt lat="43.0403670000" lon="0.1194170000"><ele>1098</ele><time>2026-03-21T09:00:04Z</time></trkpt>
<trkpt lat="43.0403870000" lon="0.1194070000"><ele>1099</ele><time>2026-03-21T09:00:07Z</time></trkpt>
<trkpt lat="43.0404070000" lon="0.1193920000"><ele>1099</ele><time>2026-03-21T09:00:10Z</time></trkpt>
<trkpt lat="43.0404220000" lon="0.1193770000"><ele>1099</ele><time>2026-03-21T09:00:12Z</time></trkpt>
<trkpt lat="43.0404380000" lon="0.1193620000"><ele>1100</ele><time>2026-03-21T09:00:14Z</time></trkpt>
<trkpt lat="43.0404570000" lon="0.1193470000"><ele>1100</ele><time>2026-03-21T09:00:16Z</time></trkpt>
<trkpt lat="43.0404700000" lon="0.1193270000"><ele>1100</ele><time>2026-03-21T09:00:18Z</time></trkpt>
<trkpt lat="43.0404850000" lon="0.1193120000"><ele>1100</ele><time>2026-03-21T09:00:20Z</time></trkpt>
<trkpt lat="43.0405020000" lon="0.1192870000"><ele>1100</ele><time>2026-03-21T09:00:23Z</time></trkpt>
<trkpt lat="43.0405170000" lon="0.1192700000"><ele>1100</ele><time>2026-03-21T09:00:25Z</time></trkpt>
<trkpt lat="43.0405370000" lon="0.1192470000"><ele>1101</ele><time>2026-03-21T09:00:28Z</time></trkpt>
<trkpt lat="43.0405520000" lon="0.1192320000"><ele>1101</ele><time>2026-03-21T09:00:30Z</time></trkpt>
<trkpt lat="43.0405720000" lon="0.1192200000"><ele>1101</ele><time>2026-03-21T09:00:32Z</time></trkpt>
<trkpt lat="43.0405920000" lon="0.1192000000"><ele>1101</ele><time>2026-03-21T09:00:35Z</time></trkpt>
<trkpt lat="43.0406120000" lon="0.1191870000"><ele>1101</ele><time>2026-03-21T09:00:37Z</time></trkpt>
<trkpt lat="43.0406270000" lon="0.1191750000"><ele>1102</ele><time>2026-03-21T09:00:39Z</time></trkpt>
<trkpt lat="43.0406470000" lon="0.1191470000"><ele>1102</ele><time>2026-03-21T09:00:42Z</time></trkpt>
<trkpt lat="43.0406620000" lon="0.1191270000"><ele>1102</ele><time>2026-03-21T09:00:44Z</time></trkpt>
<trkpt lat="43.0406770000" lon="0.1191080000"><ele>1102</ele><time>2026-03-21T09:00:46Z</time></trkpt>
<trkpt lat="43.0406920000" lon="0.1190870000"><ele>1102</ele><time>2026-03-21T09:00:48Z</time></trkpt>
<trkpt lat="43.0407150000" lon="0.1190670000"><ele>1102</ele><time>2026-03-21T09:00:51Z</time></trkpt>
<trkpt lat="43.0407270000" lon="0.1190470000"><ele>1102</ele><time>2026-03-21T09:00:53Z</time></trkpt>
<trkpt lat="43.0407470000" lon="0.1190370000"><ele>1103</ele><time>2026-03-21T09:00:58Z</time></trkpt>
<trkpt lat="43.0407650000" lon="0.1190370000"><ele>1103</ele><time>2026-03-21T09:01:02Z</time></trkpt>
<trkpt lat="43.0407870000" lon="0.1190270000"><ele>1103</ele><time>2026-03-21T09:01:04Z</time></trkpt>
<trkpt lat="43.0408070000" lon="0.1190220000"><ele>1103</ele><time>2026-03-21T09:01:06Z</time></trkpt>
<trkpt lat="43.0408300000" lon="0.1190170000"><ele>1103</ele><time>2026-03-21T09:01:08Z</time></trkpt>
<trkpt lat="43.0408570000" lon="0.1190170000"><ele>1103</ele><time>2026-03-21T09:01:10Z</time></trkpt>
<trkpt lat="43.0408750000" lon="0.1190370000"><ele>1103</ele><time>2026-03-21T09:01:12Z</time></trkpt>
<trkpt lat="43.0409020000" lon="0.1190600000"><ele>1103</ele><time>2026-03-21T09:01:14Z</time></trkpt>
<trkpt lat="43.0409220000" lon="0.1190800000"><ele>1103</ele><time>2026-03-21T09:01:15Z</time></trkpt>
<trkpt lat="43.0409420000" lon="0.1190950000"><ele>1103</ele><time>2026-03-21T09:01:16Z</time></trkpt>
<trkpt lat="43.0409620000" lon="0.1191080000"><ele>1103</ele><time>2026-03-21T09:01:17Z</time></trkpt>
<trkpt lat="43.0409820000" lon="0.1191170000"><ele>1103</ele><time>2026-03-21T09:01:18Z</time></trkpt>
<trkpt lat="43.0410070000" lon="0.1191250000"><ele>1103</ele><time>2026-03-21T09:01:19Z</time></trkpt>
<trkpt lat="43.0410220000" lon="0.1191350000"><ele>1103</ele><time>2026-03-21T09:01:20Z</time></trkpt>
<trkpt lat="43.0410420000" lon="0.1191500000"><ele>1104</ele><time>2026-03-21T09:01:22Z</time></trkpt>
<trkpt lat="43.0410520000" lon="0.1191720000"><ele>1104</ele><time>2026-03-21T09:01:24Z</time></trkpt>
<trkpt lat="43.0410600000" lon="0.1191970000"><ele>1104</ele><time>2026-03-21T09:01:27Z</time></trkpt>
<trkpt lat="43.0410570000" lon="0.1192270000"><ele>1105</ele><time>2026-03-21T09:01:30Z</time></trkpt>
<trkpt lat="43.0410370000" lon="0.1192420000"><ele>1106</ele><time>2026-03-21T09:01:55Z</time></trkpt>
<trkpt lat="43.0410300000" lon="0.1192820000"><ele>1106</ele><time>2026-03-21T09:01:57Z</time></trkpt>
<trkpt lat="43.0410250000" lon="0.1193180000"><ele>1107</ele><time>2026-03-21T09:01:59Z</time></trkpt>
<trkpt lat="43.0410220000" lon="0.1193500000"><ele>1107</ele><time>2026-03-21T09:02:01Z</time></trkpt>
<trkpt lat="43.0410250000" lon="0.1193820000"><ele>1107</ele><time>2026-03-21T09:02:04Z</time></trkpt>
<trkpt lat="43.0410270000" lon="0.1194170000"><ele>1108</ele><time>2026-03-21T09:02:07Z</time></trkpt>
<trkpt lat="43.0410270000" lon="0.1194420000"><ele>1108</ele><time>2026-03-21T09:02:09Z</time></trkpt>
<trkpt lat="43.0410300000" lon="0.1194700000"><ele>1108</ele><time>2026-03-21T09:02:12Z</time></trkpt>
<trkpt lat="43.0410270000" lon="0.1195000000"><ele>1109</ele><time>2026-03-21T09:02:15Z</time></trkpt>
<trkpt lat="43.0410270000" lon="0.1195270000"><ele>1109</ele><time>2026-03-21T09:02:18Z</time></trkpt>
<trkpt lat="43.0410250000" lon="0.1195520000"><ele>1110</ele><time>2026-03-21T09:02:21Z</time></trkpt>
<trkpt lat="43.0410270000" lon="0.1195770000"><ele>1110</ele><time>2026-03-21T09:02:24Z</time></trkpt>
<trkpt lat="43.0410320000" lon="0.1196100000"><ele>1111</ele><time>2026-03-21T09:02:27Z</time></trkpt>
<trkpt lat="43.0410400000" lon="0.1196420000"><ele>1111</ele><time>2026-03-21T09:02:30Z</time></trkpt>
<trkpt lat="43.0410470000" lon="0.1196630000"><ele>1111</ele><time>2026-03-21T09:02:32Z</time></trkpt>
<trkpt lat="43.0410520000" lon="0.1196920000"><ele>1111</ele><time>2026-03-21T09:02:35Z</time></trkpt>
<trkpt lat="43.0410570000" lon="0.1197250000"><ele>1112</ele><time>2026-03-21T09:02:38Z</time></trkpt>
<trkpt lat="43.0410570000" lon="0.1197570000"><ele>1112</ele><time>2026-03-21T09:02:41Z</time></trkpt>
<trkpt lat="43.0410620000" lon="0.1197870000"><ele>1113</ele><time>2026-03-21T09:02:44Z</time></trkpt>
<trkpt lat="43.0410700000" lon="0.1198170000"><ele>1113</ele><time>2026-03-21T09:02:47Z</time></trkpt>
<trkpt lat="43.0410800000" lon="0.1198450000"><ele>1113</ele><time>2026-03-21T09:02:50Z</time></trkpt>
<trkpt lat="43.0410820000" lon="0.1198720000"><ele>1114</ele><time>2026-03-21T09:02:53Z</time></trkpt>
<trkpt lat="43.0410970000" lon="0.1199000000"><ele>1114</ele><time>2026-03-21T09:02:56Z</time></trkpt>
<trkpt lat="43.0411000000" lon="0.1199320000"><ele>1115</ele><time>2026-03-21T09:02:59Z</time></trkpt>
<trkpt lat="43.0411020000" lon="0.1199620000"><ele>1115</ele><time>2026-03-21T09:03:02Z</time></trkpt>
<trkpt lat="43.0411050000" lon="0.1199920000"><ele>1115</ele><time>2026-03-21T09:03:05Z</time></trkpt>
<trkpt lat="43.0411120000" lon="0.1200170000"><ele>1115</ele><time>2026-03-21T09:03:07Z</time></trkpt>
<trkpt lat="43.0411130000" lon="0.1200470000"><ele>1116</ele><time>2026-03-21T09:03:10Z</time></trkpt>
<trkpt lat="43.0411220000" lon="0.1200750000"><ele>1116</ele><time>2026-03-21T09:03:13Z</time></trkpt>
<trkpt lat="43.0411270000" lon="0.1201050000"><ele>1116</ele><time>2026-03-21T09:03:16Z</time></trkpt>
<trkpt lat="43.0411320000" lon="0.1201350000"><ele>1117</ele><time>2026-03-21T09:03:19Z</time></trkpt>
<trkpt lat="43.0411350000" lon="0.1201620000"><ele>1117</ele><time>2026-03-21T09:03:22Z</time></trkpt>
<trkpt lat="43.0411370000" lon="0.1201920000"><ele>1117</ele><time>2026-03-21T09:03:25Z</time></trkpt>
<trkpt lat="43.0411370000" lon="0.1202230000"><ele>1118</ele><time>2026-03-21T09:03:28Z</time></trkpt>
<trkpt lat="43.0411370000" lon="0.1202550000"><ele>1118</ele><time>2026-03-21T09:03:31Z</time></trkpt>
<trkpt lat="43.0411370000" lon="0.1202870000"><ele>1118</ele><time>2026-03-21T09:03:34Z</time></trkpt>
<trkpt lat="43.0411400000" lon="0.1203180000"><ele>1119</ele><time>2026-03-21T09:03:37Z</time></trkpt>
<trkpt lat="43.0411520000" lon="0.1203550000"><ele>1119</ele><time>2026-03-21T09:03:40Z</time></trkpt>
<trkpt lat="43.0411670000" lon="0.1203800000"><ele>1119</ele><time>2026-03-21T09:03:42Z</time></trkpt>
<trkpt lat="43.0411820000" lon="0.1204070000"><ele>1120</ele><time>2026-03-21T09:03:45Z</time></trkpt>
<trkpt lat="43.0411870000" lon="0.1204420000"><ele>1120</ele><time>2026-03-21T09:03:48Z</time></trkpt>
<trkpt lat="43.0411900000" lon="0.1204720000"><ele>1120</ele><time>2026-03-21T09:03:51Z</time></trkpt>
<trkpt lat="43.0411920000" lon="0.1205070000"><ele>1121</ele><time>2026-03-21T09:03:54Z</time></trkpt>
<trkpt lat="43.0411920000" lon="0.1205370000"><ele>1121</ele><time>2026-03-21T09:03:57Z</time></trkpt>
<trkpt lat="43.0411950000" lon="0.1205680000"><ele>1121</ele><time>2026-03-21T09:04:00Z</time></trkpt>
<trkpt lat="43.0411970000" lon="0.1206000000"><ele>1121</ele><time>2026-03-21T09:04:03Z</time></trkpt>
<trkpt lat="43.0412020000" lon="0.1206320000"><ele>1122</ele><time>2026-03-21T09:04:06Z</time></trkpt>
<trkpt lat="43.0412020000" lon="0.1206620000"><ele>1122</ele><time>2026-03-21T09:04:09Z</time></trkpt>
<trkpt lat="43.0412050000" lon="0.1206970000"><ele>1122</ele><time>2026-03-21T09:04:12Z</time></trkpt>
<trkpt lat="43.0412000000" lon="0.1207320000"><ele>1123</ele><time>2026-03-21T09:04:15Z</time></trkpt>
<trkpt lat="43.0411970000" lon="0.1207650000"><ele>1123</ele><time>2026-03-21T09:04:18Z</time></trkpt>
<trkpt lat="43.0411950000" lon="0.1207920000"><ele>1123</ele><time>2026-03-21T09:04:21Z</time></trkpt>
<trkpt lat="43.0411900000" lon="0.1208170000"><ele>1124</ele><time>2026-03-21T09:04:24Z</time></trkpt>
<trkpt lat="43.0411850000" lon="0.1208420000"><ele>1124</ele><time>2026-03-21T09:04:27Z</time></trkpt>
<trkpt lat="43.0411800000" lon="0.1208720000"><ele>1125</ele><time>2026-03-21T09:04:31Z</time></trkpt>
<trkpt lat="43.0411770000" lon="0.1209020000"><ele>1125</ele><time>2026-03-21T09:04:34Z</time></trkpt>
<trkpt lat="43.0411720000" lon="0.1209270000"><ele>1126</ele><time>2026-03-21T09:04:37Z</time></trkpt>
<trkpt lat="43.0411750000" lon="0.1209620000"><ele>1126</ele><time>2026-03-21T09:04:41Z</time></trkpt>
<trkpt lat="43.0411820000" lon="0.1209970000"><ele>1127</ele><time>2026-03-21T09:04:45Z</time></trkpt>
<trkpt lat="43.0411800000" lon="0.1210250000"><ele>1128</ele><time>2026-03-21T09:05:02Z</time></trkpt>
<trkpt lat="43.0411870000" lon="0.1210470000"><ele>1128</ele><time>2026-03-21T09:05:04Z</time></trkpt>
<trkpt lat="43.0411970000" lon="0.1210780000"><ele>1129</ele><time>2026-03-21T09:05:06Z</time></trkpt>
<trkpt lat="43.0412050000" lon="0.1211100000"><ele>1129</ele><time>2026-03-21T09:05:08Z</time></trkpt>
<trkpt lat="43.0412100000" lon="0.1211370000"><ele>1129</ele><time>2026-03-21T09:05:10Z</time></trkpt>
<trkpt lat="43.0412170000" lon="0.1211620000"><ele>1129</ele><time>2026-03-21T09:05:12Z</time></trkpt>
<trkpt lat="43.0412320000" lon="0.1211870000"><ele>1129</ele><time>2026-03-21T09:05:15Z</time></trkpt>
<trkpt lat="43.0412450000" lon="0.1212170000"><ele>1130</ele><time>2026-03-21T09:05:18Z</time></trkpt>
<trkpt lat="43.0412470000" lon="0.1212500000"><ele>1130</ele><time>2026-03-21T09:05:21Z</time></trkpt>
<trkpt lat="43.0412570000" lon="0.1212770000"><ele>1130</ele><time>2026-03-21T09:05:24Z</time></trkpt>
<trkpt lat="43.0412620000" lon="0.1213020000"><ele>1131</ele><time>2026-03-21T09:05:26Z</time></trkpt>
<trkpt lat="43.0412680000" lon="0.1213320000"><ele>1131</ele><time>2026-03-21T09:05:29Z</time></trkpt>
<trkpt lat="43.0412750000" lon="0.1213620000"><ele>1131</ele><time>2026-03-21T09:05:32Z</time></trkpt>
<trkpt lat="43.0412800000" lon="0.1213970000"><ele>1132</ele><time>2026-03-21T09:05:35Z</time></trkpt>
<trkpt lat="43.0412870000" lon="0.1214250000"><ele>1132</ele><time>2026-03-21T09:05:38Z</time></trkpt>
<trkpt lat="43.0412920000" lon="0.1214520000"><ele>1133</ele><time>2026-03-21T09:05:41Z</time></trkpt>
<trkpt lat="43.0413050000" lon="0.1214800000"><ele>1133</ele><time>2026-03-21T09:05:44Z</time></trkpt>
<trkpt lat="43.0413170000" lon="0.1215100000"><ele>1133</ele><time>2026-03-21T09:05:47Z</time></trkpt>
<trkpt lat="43.0413170000" lon="0.1215370000"><ele>1134</ele><time>2026-03-21T09:06:05Z</time></trkpt>
<trkpt lat="43.0413320000" lon="0.1215670000"><ele>1134</ele><time>2026-03-21T09:06:07Z</time></trkpt>
<trkpt lat="43.0413420000" lon="0.1215920000"><ele>1135</ele><time>2026-03-21T09:06:09Z</time></trkpt>
<trkpt lat="43.0413570000" lon="0.1216200000"><ele>1135</ele><time>2026-03-21T09:06:12Z</time></trkpt>
<trkpt lat="43.0413700000" lon="0.1216400000"><ele>1135</ele><time>2026-03-21T09:06:15Z</time></trkpt>
<trkpt lat="43.0413920000" lon="0.1216370000"><ele>1136</ele><time>2026-03-21T09:06:20Z</time></trkpt>
<trkpt lat="43.0414100000" lon="0.1216500000"><ele>1136</ele><time>2026-03-21T09:06:22Z</time></trkpt>
<trkpt lat="43.0414220000" lon="0.1216670000"><ele>1136</ele><time>2026-03-21T09:06:24Z</time></trkpt>
<trkpt lat="43.0414420000" lon="0.1216870000"><ele>1136</ele><time>2026-03-21T09:06:27Z</time></trkpt>
<trkpt lat="43.0414600000" lon="0.1217120000"><ele>1137</ele><time>2026-03-21T09:06:30Z</time></trkpt>
<trkpt lat="43.0414770000" lon="0.1217350000"><ele>1137</ele><time>2026-03-21T09:06:33Z</time></trkpt>
<trkpt lat="43.0414920000" lon="0.1217570000"><ele>1137</ele><time>2026-03-21T09:06:36Z</time></trkpt>
<trkpt lat="43.0415070000" lon="0.1217720000"><ele>1137</ele><time>2026-03-21T09:06:38Z</time></trkpt>
<trkpt lat="43.0415250000" lon="0.1217920000"><ele>1137</ele><time>2026-03-21T09:06:41Z</time></trkpt>
<trkpt lat="43.0415370000" lon="0.1218120000"><ele>1137</ele><time>2026-03-21T09:06:43Z</time></trkpt>
<trkpt lat="43.0415200000" lon="0.1218320000"><ele>1138</ele><time>2026-03-21T09:06:45Z</time></trkpt>
<trkpt lat="43.0415320000" lon="0.1218600000"><ele>1138</ele><time>2026-03-21T09:06:50Z</time></trkpt>
<trkpt lat="43.0415320000" lon="0.1218920000"><ele>1138</ele><time>2026-03-21T09:06:53Z</time></trkpt>
<trkpt lat="43.0415400000" lon="0.1219170000"><ele>1139</ele><time>2026-03-21T09:06:56Z</time></trkpt>
<trkpt lat="43.0415570000" lon="0.1219420000"><ele>1140</ele><time>2026-03-21T09:07:07Z</time></trkpt>
<trkpt lat="43.0415700000" lon="0.1219670000"><ele>1140</ele><time>2026-03-21T09:07:09Z</time></trkpt>
<trkpt lat="43.0415820000" lon="0.1219870000"><ele>1140</ele><time>2026-03-21T09:07:11Z</time></trkpt>
<trkpt lat="43.0415920000" lon="0.1220120000"><ele>1140</ele><time>2026-03-21T09:07:14Z</time></trkpt>
<trkpt lat="43.0415820000" lon="0.1220320000"><ele>1140</ele><time>2026-03-21T09:07:22Z</time></trkpt>
<trkpt lat="43.0415570000" lon="0.1220370000"><ele>1140</ele><time>2026-03-21T09:07:25Z</time></trkpt>
<trkpt lat="43.0415820000" lon="0.1220470000"><ele>1140</ele><time>2026-03-21T09:08:44Z</time></trkpt>
<trkpt lat="43.0416100000" lon="0.1220400000"><ele>1140</ele><time>2026-03-21T09:08:46Z</time></trkpt>
<trkpt lat="43.0416270000" lon="0.1220420000"><ele>1140</ele><time>2026-03-21T09:09:55Z</time></trkpt>
<trkpt lat="43.0416050000" lon="0.1220520000"><ele>1139</ele><time>2026-03-21T09:11:22Z</time></trkpt>
<trkpt lat="43.0415770000" lon="0.1220870000"><ele>1139</ele><time>2026-03-21T09:11:24Z</time></trkpt>
<trkpt lat="43.0415620000" lon="0.1221070000"><ele>1139</ele><time>2026-03-21T09:11:26Z</time></trkpt>
<trkpt lat="43.0415800000" lon="0.1220930000"><ele>1139</ele><time>2026-03-21T09:11:29Z</time></trkpt>
<trkpt lat="43.0415970000" lon="0.1220700000"><ele>1141</ele><time>2026-03-21T09:15:34Z</time></trkpt>
<trkpt lat="43.0416170000" lon="0.1220520000"><ele>1142</ele><time>2026-03-21T09:15:38Z</time></trkpt>
<trkpt lat="43.0416270000" lon="0.1220220000"><ele>1142</ele><time>2026-03-21T09:16:24Z</time></trkpt>
<trkpt lat="43.0416300000" lon="0.1219820000"><ele>1142</ele><time>2026-03-21T09:16:26Z</time></trkpt>
<trkpt lat="43.0416270000" lon="0.1219530000"><ele>1142</ele><time>2026-03-21T09:16:28Z</time></trkpt>
<trkpt lat="43.0416320000" lon="0.1219820000"><ele>1141</ele><time>2026-03-21T09:16:32Z</time></trkpt>
<trkpt lat="43.0416150000" lon="0.1219970000"><ele>1142</ele><time>2026-03-21T09:16:52Z</time></trkpt>
<trkpt lat="43.0416170000" lon="0.1219670000"><ele>1142</ele><time>2026-03-21T09:16:57Z</time></trkpt>
<trkpt lat="43.0416370000" lon="0.1219570000"><ele>1141</ele><time>2026-03-21T09:16:59Z</time></trkpt>
<trkpt lat="43.0416570000" lon="0.1219820000"><ele>1141</ele><time>2026-03-21T09:17:01Z</time></trkpt>
<trkpt lat="43.0416770000" lon="0.1220070000"><ele>1140</ele><time>2026-03-21T09:17:03Z</time></trkpt>
<trkpt lat="43.0416970000" lon="0.1220370000"><ele>1140</ele><time>2026-03-21T09:17:05Z</time></trkpt>
<trkpt lat="43.0417120000" lon="0.1220600000"><ele>1140</ele><time>2026-03-21T09:17:07Z</time></trkpt>
<trkpt lat="43.0417180000" lon="0.1220820000"><ele>1140</ele><time>2026-03-21T09:17:09Z</time></trkpt>
<trkpt lat="43.0417320000" lon="0.1221020000"><ele>1140</ele><time>2026-03-21T09:17:22Z</time></trkpt>
<trkpt lat="43.0417470000" lon="0.1221270000"><ele>1140</ele><time>2026-03-21T09:17:24Z</time></trkpt>
<trkpt lat="43.0417600000" lon="0.1221570000"><ele>1139</ele><time>2026-03-21T09:17:26Z</time></trkpt>
<trkpt lat="43.0417620000" lon="0.1221820000"><ele>1140</ele><time>2026-03-21T09:17:28Z</time></trkpt>
<trkpt lat="43.0417720000" lon="0.1222070000"><ele>1139</ele><time>2026-03-21T09:17:30Z</time></trkpt>
<trkpt lat="43.0417870000" lon="0.1222220000"><ele>1139</ele><time>2026-03-21T09:17:33Z</time></trkpt>
<trkpt lat="43.0418070000" lon="0.1222370000"><ele>1138</ele><time>2026-03-21T09:17:35Z</time></trkpt>
<trkpt lat="43.0418320000" lon="0.1222570000"><ele>1138</ele><time>2026-03-21T09:17:37Z</time></trkpt>
<trkpt lat="43.0418470000" lon="0.1222720000"><ele>1138</ele><time>2026-03-21T09:17:39Z</time></trkpt>
<trkpt lat="43.0418620000" lon="0.1222900000"><ele>1137</ele><time>2026-03-21T09:17:41Z</time></trkpt>
<trkpt lat="43.0418770000" lon="0.1223030000"><ele>1137</ele><time>2026-03-21T09:17:43Z</time></trkpt>
<trkpt lat="43.0418950000" lon="0.1223170000"><ele>1136</ele><time>2026-03-21T09:17:46Z</time></trkpt>
<trkpt lat="43.0419220000" lon="0.1223270000"><ele>1135</ele><time>2026-03-21T09:17:49Z</time></trkpt>
<trkpt lat="43.0419400000" lon="0.1223370000"><ele>1135</ele><time>2026-03-21T09:17:51Z</time></trkpt>
<trkpt lat="43.0419570000" lon="0.1223520000"><ele>1134</ele><time>2026-03-21T09:17:53Z</time></trkpt>
<trkpt lat="43.0419720000" lon="0.1223720000"><ele>1134</ele><time>2026-03-21T09:17:55Z</time></trkpt>
<trkpt lat="43.0419870000" lon="0.1223900000"><ele>1133</ele><time>2026-03-21T09:17:57Z</time></trkpt>
<trkpt lat="43.0420070000" lon="0.1224020000"><ele>1133</ele><time>2026-03-21T09:17:59Z</time></trkpt>
<trkpt lat="43.0420320000" lon="0.1224150000"><ele>1132</ele><time>2026-03-21T09:18:02Z</time></trkpt>
<trkpt lat="43.0420520000" lon="0.1224320000"><ele>1132</ele><time>2026-03-21T09:18:04Z</time></trkpt>
<trkpt lat="43.0420670000" lon="0.1224470000"><ele>1131</ele><time>2026-03-21T09:18:06Z</time></trkpt>
<trkpt lat="43.0420850000" lon="0.1224600000"><ele>1131</ele><time>2026-03-21T09:18:08Z</time></trkpt>
<trkpt lat="43.0421020000" lon="0.1224770000"><ele>1131</ele><time>2026-03-21T09:18:10Z</time></trkpt>
<trkpt lat="43.0421170000" lon="0.1224920000"><ele>1130</ele><time>2026-03-21T09:18:12Z</time></trkpt>
<trkpt lat="43.0421320000" lon="0.1225080000"><ele>1130</ele><time>2026-03-21T09:18:14Z</time></trkpt>
<trkpt lat="43.0421550000" lon="0.1225270000"><ele>1130</ele><time>2026-03-21T09:18:16Z</time></trkpt>
<trkpt lat="43.0421750000" lon="0.1225470000"><ele>1129</ele><time>2026-03-21T09:18:18Z</time></trkpt>
<trkpt lat="43.0421920000" lon="0.1225650000"><ele>1129</ele><time>2026-03-21T09:18:20Z</time></trkpt>
<trkpt lat="43.0422120000" lon="0.1225770000"><ele>1129</ele><time>2026-03-21T09:18:22Z</time></trkpt>
<trkpt lat="43.0422300000" lon="0.1225970000"><ele>1128</ele><time>2026-03-21T09:18:24Z</time></trkpt>
<trkpt lat="43.0422470000" lon="0.1226170000"><ele>1128</ele><time>2026-03-21T09:18:26Z</time></trkpt>
<trkpt lat="43.0422650000" lon="0.1226370000"><ele>1128</ele><time>2026-03-21T09:18:28Z</time></trkpt>
<trkpt lat="43.0422820000" lon="0.1226570000"><ele>1128</ele><time>2026-03-21T09:18:30Z</time></trkpt>
<trkpt lat="43.0423020000" lon="0.1226770000"><ele>1128</ele><time>2026-03-21T09:18:32Z</time></trkpt>
<trkpt lat="43.0423200000" lon="0.1226970000"><ele>1128</ele><time>2026-03-21T09:18:34Z</time></trkpt>
<trkpt lat="43.0423350000" lon="0.1227220000"><ele>1127</ele><time>2026-03-21T09:18:36Z</time></trkpt>
<trkpt lat="43.0423500000" lon="0.1227470000"><ele>1127</ele><time>2026-03-21T09:18:38Z</time></trkpt>
<trkpt lat="43.0423600000" lon="0.1227670000"><ele>1127</ele><time>2026-03-21T09:18:40Z</time></trkpt>
<trkpt lat="43.0423720000" lon="0.1227920000"><ele>1127</ele><time>2026-03-21T09:18:42Z</time></trkpt>
<trkpt lat="43.0423900000" lon="0.1228170000"><ele>1127</ele><time>2026-03-21T09:18:44Z</time></trkpt>
<trkpt lat="43.0424070000" lon="0.1228370000"><ele>1127</ele><time>2026-03-21T09:18:46Z</time></trkpt>
<trkpt lat="43.0424270000" lon="0.1228620000"><ele>1127</ele><time>2026-03-21T09:18:48Z</time></trkpt>
<trkpt lat="43.0424450000" lon="0.1228900000"><ele>1127</ele><time>2026-03-21T09:18:50Z</time></trkpt>
<trkpt lat="43.0424620000" lon="0.1229150000"><ele>1127</ele><time>2026-03-21T09:18:52Z</time></trkpt>
<trkpt lat="43.0424750000" lon="0.1229420000"><ele>1127</ele><time>2026-03-21T09:18:54Z</time></trkpt>
<trkpt lat="43.0424870000" lon="0.1229670000"><ele>1127</ele><time>2026-03-21T09:18:56Z</time></trkpt>
<trkpt lat="43.0425020000" lon="0.1229870000"><ele>1126</ele><time>2026-03-21T09:18:58Z</time></trkpt>
<trkpt lat="43.0425150000" lon="0.1230070000"><ele>1127</ele><time>2026-03-21T09:19:00Z</time></trkpt>
<trkpt lat="43.0425300000" lon="0.1230320000"><ele>1126</ele><time>2026-03-21T09:19:02Z</time></trkpt>
<trkpt lat="43.0425420000" lon="0.1230570000"><ele>1126</ele><time>2026-03-21T09:19:04Z</time></trkpt>
<trkpt lat="43.0425550000" lon="0.1230750000"><ele>1126</ele><time>2026-03-21T09:19:06Z</time></trkpt>
<trkpt lat="43.0425720000" lon="0.1230920000"><ele>1126</ele><time>2026-03-21T09:19:08Z</time></trkpt>
<trkpt lat="43.0425900000" lon="0.1231150000"><ele>1126</ele><time>2026-03-21T09:19:10Z</time></trkpt>
<trkpt lat="43.0426020000" lon="0.1231420000"><ele>1126</ele><time>2026-03-21T09:19:12Z</time></trkpt>
<trkpt lat="43.0426120000" lon="0.1231670000"><ele>1126</ele><time>2026-03-21T09:19:14Z</time></trkpt>
<trkpt lat="43.0426220000" lon="0.1231920000"><ele>1125</ele><time>2026-03-21T09:19:16Z</time></trkpt>
<trkpt lat="43.0426320000" lon="0.1232170000"><ele>1126</ele><time>2026-03-21T09:19:18Z</time></trkpt>
<trkpt lat="43.0426450000" lon="0.1232420000"><ele>1125</ele><time>2026-03-21T09:19:20Z</time></trkpt>
<trkpt lat="43.0426570000" lon="0.1232650000"><ele>1125</ele><time>2026-03-21T09:19:22Z</time></trkpt>
<trkpt lat="43.0426720000" lon="0.1232850000"><ele>1125</ele><time>2026-03-21T09:19:24Z</time></trkpt>
<trkpt lat="43.0426870000" lon="0.1233070000"><ele>1125</ele><time>2026-03-21T09:19:26Z</time></trkpt>
<trkpt lat="43.0427020000" lon="0.1233270000"><ele>1125</ele><time>2026-03-21T09:19:28Z</time></trkpt>
<trkpt lat="43.0427150000" lon="0.1233430000"><ele>1126</ele><time>2026-03-21T09:19:30Z</time></trkpt>
<trkpt lat="43.0427370000" lon="0.1233670000"><ele>1125</ele><time>2026-03-21T09:19:33Z</time></trkpt>
<trkpt lat="43.0427520000" lon="0.1233850000"><ele>1125</ele><time>2026-03-21T09:19:35Z</time></trkpt>
<trkpt lat="43.0427650000" lon="0.1234100000"><ele>1125</ele><time>2026-03-21T09:19:38Z</time></trkpt>
<trkpt lat="43.0427820000" lon="0.1234350000"><ele>1125</ele><time>2026-03-21T09:19:41Z</time></trkpt>
<trkpt lat="43.0427970000" lon="0.1234600000"><ele>1125</ele><time>2026-03-21T09:19:44Z</time></trkpt>
<trkpt lat="43.0428120000" lon="0.1234820000"><ele>1125</ele><time>2026-03-21T09:19:46Z</time></trkpt>
<trkpt lat="43.0428270000" lon="0.1234970000"><ele>1125</ele><time>2026-03-21T09:19:48Z</time></trkpt>
<trkpt lat="43.0428450000" lon="0.1235170000"><ele>1124</ele><time>2026-03-21T09:19:50Z</time></trkpt>
<trkpt lat="43.0428570000" lon="0.1235470000"><ele>1124</ele><time>2026-03-21T09:19:53Z</time></trkpt>
<trkpt lat="43.0428650000" lon="0.1235720000"><ele>1124</ele><time>2026-03-21T09:19:55Z</time></trkpt>
<trkpt lat="43.0428670000" lon="0.1236070000"><ele>1124</ele><time>2026-03-21T09:19:58Z</time></trkpt>
<trkpt lat="43.0428800000" lon="0.1236320000"><ele>1124</ele><time>2026-03-21T09:20:00Z</time></trkpt>
<trkpt lat="43.0428950000" lon="0.1236470000"><ele>1124</ele><time>2026-03-21T09:20:01Z</time></trkpt>
<trkpt lat="43.0429120000" lon="0.1236600000"><ele>1124</ele><time>2026-03-21T09:20:02Z</time></trkpt>
<trkpt lat="43.0429270000" lon="0.1236770000"><ele>1124</ele><time>2026-03-21T09:20:04Z</time></trkpt>
<trkpt lat="43.0429420000" lon="0.1237050000"><ele>1124</ele><time>2026-03-21T09:20:07Z</time></trkpt>
<trkpt lat="43.0429420000" lon="0.1237320000"><ele>1124</ele><time>2026-03-21T09:20:09Z</time></trkpt>
<trkpt lat="43.0429420000" lon="0.1237570000"><ele>1124</ele><time>2026-03-21T09:20:11Z</time></trkpt>
<trkpt lat="43.0429470000" lon="0.1237820000"><ele>1124</ele><time>2026-03-21T09:20:13Z</time></trkpt>
<trkpt lat="43.0429520000" lon="0.1238120000"><ele>1124</ele><time>2026-03-21T09:20:16Z</time></trkpt>
<trkpt lat="43.0429720000" lon="0.1238320000"><ele>1125</ele><time>2026-03-21T09:20:19Z</time></trkpt>
<trkpt lat="43.0429900000" lon="0.1238570000"><ele>1125</ele><time>2026-03-21T09:20:22Z</time></trkpt>
<trkpt lat="43.0430000000" lon="0.1238820000"><ele>1126</ele><time>2026-03-21T09:20:39Z</time></trkpt>
<trkpt lat="43.0430070000" lon="0.1239070000"><ele>1126</ele><time>2026-03-21T09:20:41Z</time></trkpt>
<trkpt lat="43.0430170000" lon="0.1239370000"><ele>1126</ele><time>2026-03-21T09:20:43Z</time></trkpt>
<trkpt lat="43.0430270000" lon="0.1239600000"><ele>1127</ele><time>2026-03-21T09:20:45Z</time></trkpt>
<trkpt lat="43.0430370000" lon="0.1239900000"><ele>1127</ele><time>2026-03-21T09:20:48Z</time></trkpt>
<trkpt lat="43.0430470000" lon="0.1240170000"><ele>1127</ele><time>2026-03-21T09:20:52Z</time></trkpt>
<trkpt lat="43.0430720000" lon="0.1240320000"><ele>1128</ele><time>2026-03-21T09:20:55Z</time></trkpt>
<trkpt lat="43.0430900000" lon="0.1240370000"><ele>1128</ele><time>2026-03-21T09:20:57Z</time></trkpt>
<trkpt lat="43.0431020000" lon="0.1240600000"><ele>1129</ele><time>2026-03-21T09:21:01Z</time></trkpt>
<trkpt lat="43.0431220000" lon="0.1240670000"><ele>1129</ele><time>2026-03-21T09:21:04Z</time></trkpt>
<trkpt lat="43.0431420000" lon="0.1240770000"><ele>1130</ele><time>2026-03-21T09:21:07Z</time></trkpt>
<trkpt lat="43.0431650000" lon="0.1240870000"><ele>1130</ele><time>2026-03-21T09:21:10Z</time></trkpt>
<trkpt lat="43.0431850000" lon="0.1240970000"><ele>1130</ele><time>2026-03-21T09:21:14Z</time></trkpt>
<trkpt lat="43.0432070000" lon="0.1240920000"><ele>1131</ele><time>2026-03-21T09:21:18Z</time></trkpt>
<trkpt lat="43.0432320000" lon="0.1241070000"><ele>1131</ele><time>2026-03-21T09:21:25Z</time></trkpt>
<trkpt lat="43.0432520000" lon="0.1241120000"><ele>1132</ele><time>2026-03-21T09:21:27Z</time></trkpt>
<trkpt lat="43.0432720000" lon="0.1241170000"><ele>1132</ele><time>2026-03-21T09:21:29Z</time></trkpt>
<trkpt lat="43.0432870000" lon="0.1241320000"><ele>1133</ele><time>2026-03-21T09:21:33Z</time></trkpt>
<trkpt lat="43.0433070000" lon="0.1241520000"><ele>1133</ele><time>2026-03-21T09:21:37Z</time></trkpt>
<trkpt lat="43.0433220000" lon="0.1241720000"><ele>1134</ele><time>2026-03-21T09:21:42Z</time></trkpt>
<trkpt lat="43.0433320000" lon="0.1242000000"><ele>1134</ele><time>2026-03-21T09:21:46Z</time></trkpt>
<trkpt lat="43.0433500000" lon="0.1242020000"><ele>1135</ele><time>2026-03-21T09:21:50Z</time></trkpt>
<trkpt lat="43.0433720000" lon="0.1242100000"><ele>1135</ele><time>2026-03-21T09:21:54Z</time></trkpt>
<trkpt lat="43.0433870000" lon="0.1242200000"><ele>1136</ele><time>2026-03-21T09:22:00Z</time></trkpt>
<trkpt lat="43.0434070000" lon="0.1242170000"><ele>1137</ele><time>2026-03-21T09:22:03Z</time></trkpt>
<trkpt lat="43.0434270000" lon="0.1242220000"><ele>1137</ele><time>2026-03-21T09:22:08Z</time></trkpt>
<trkpt lat="43.0434470000" lon="0.1242220000"><ele>1138</ele><time>2026-03-21T09:22:18Z</time></trkpt>
<trkpt lat="43.0434720000" lon="0.1242150000"><ele>1138</ele><time>2026-03-21T09:22:20Z</time></trkpt>
<trkpt lat="43.0435020000" lon="0.1242020000"><ele>1139</ele><time>2026-03-21T09:22:22Z</time></trkpt>
<trkpt lat="43.0435270000" lon="0.1241950000"><ele>1139</ele><time>2026-03-21T09:22:25Z</time></trkpt>
<trkpt lat="43.0435470000" lon="0.1242000000"><ele>1139</ele><time>2026-03-21T09:22:28Z</time></trkpt>
<trkpt lat="43.0435570000" lon="0.1242220000"><ele>1139</ele><time>2026-03-21T09:22:31Z</time></trkpt>
<trkpt lat="43.0435700000" lon="0.1242470000"><ele>1139</ele><time>2026-03-21T09:22:34Z</time></trkpt>
<trkpt lat="43.0435920000" lon="0.1242370000"><ele>1140</ele><time>2026-03-21T09:22:38Z</time></trkpt>
<trkpt lat="43.0436070000" lon="0.1242170000"><ele>1140</ele><time>2026-03-21T09:22:40Z</time></trkpt>
<trkpt lat="43.0436250000" lon="0.1241950000"><ele>1140</ele><time>2026-03-21T09:22:42Z</time></trkpt>
<trkpt lat="43.0436370000" lon="0.1241670000"><ele>1141</ele><time>2026-03-21T09:22:44Z</time></trkpt>
<trkpt lat="43.0436600000" lon="0.1241850000"><ele>1141</ele><time>2026-03-21T09:22:47Z</time></trkpt>
<trkpt lat="43.0436770000" lon="0.1242120000"><ele>1141</ele><time>2026-03-21T09:22:49Z</time></trkpt>
<trkpt lat="43.0436870000" lon="0.1242320000"><ele>1141</ele><time>2026-03-21T09:22:51Z</time></trkpt>
<trkpt lat="43.0437070000" lon="0.1242570000"><ele>1141</ele><time>2026-03-21T09:22:54Z</time></trkpt>
<trkpt lat="43.0437220000" lon="0.1242400000"><ele>1142</ele><time>2026-03-21T09:23:10Z</time></trkpt>
<trkpt lat="43.0437450000" lon="0.1242070000"><ele>1146</ele><time>2026-03-21T09:23:42Z</time></trkpt>
<trkpt lat="43.0437600000" lon="0.1241770000"><ele>1146</ele><time>2026-03-21T09:23:43Z</time></trkpt>
<trkpt lat="43.0437770000" lon="0.1241370000"><ele>1146</ele><time>2026-03-21T09:23:44Z</time></trkpt>
<trkpt lat="43.0437920000" lon="0.1240970000"><ele>1146</ele><time>2026-03-21T09:23:45Z</time></trkpt>
<trkpt lat="43.0438020000" lon="0.1240620000"><ele>1146</ele><time>2026-03-21T09:23:46Z</time></trkpt>
<trkpt lat="43.0438070000" lon="0.1240370000"><ele>1146</ele><time>2026-03-21T09:23:47Z</time></trkpt>
<trkpt lat="43.0438070000" lon="0.1240120000"><ele>1146</ele><time>2026-03-21T09:23:49Z</time></trkpt>
<trkpt lat="43.0437970000" lon="0.1239900000"><ele>1146</ele><time>2026-03-21T09:23:52Z</time></trkpt>
<trkpt lat="43.0437870000" lon="0.1239670000"><ele>1147</ele><time>2026-03-21T09:23:55Z</time></trkpt>
<trkpt lat="43.0437730000" lon="0.1239470000"><ele>1147</ele><time>2026-03-21T09:23:59Z</time></trkpt>
<trkpt lat="43.0437620000" lon="0.1239270000"><ele>1148</ele><time>2026-03-21T09:24:03Z</time></trkpt>
<trkpt lat="43.0437600000" lon="0.1238980000"><ele>1148</ele><time>2026-03-21T09:24:09Z</time></trkpt>
<trkpt lat="43.0437470000" lon="0.1238770000"><ele>1148</ele><time>2026-03-21T09:24:18Z</time></trkpt>
<trkpt lat="43.0437300000" lon="0.1238620000"><ele>1149</ele><time>2026-03-21T09:43:39Z</time></trkpt>
<trkpt lat="43.0437420000" lon="0.1238420000"><ele>1149</ele><time>2026-03-21T09:45:27Z</time></trkpt>
<trkpt lat="43.0437320000" lon="0.1238700000"><ele>1149</ele><time>2026-03-21T09:48:20Z</time></trkpt>
<trkpt lat="43.0437470000" lon="0.1238870000"><ele>1149</ele><time>2026-03-21T09:48:26Z</time></trkpt>
<trkpt lat="43.0437420000" lon="0.1239170000"><ele>1147</ele><time>2026-03-21T09:48:43Z</time></trkpt>
<trkpt lat="43.0437320000" lon="0.1239470000"><ele>1146</ele><time>2026-03-21T09:49:00Z</time></trkpt>
<trkpt lat="43.0437320000" lon="0.1239770000"><ele>1146</ele><time>2026-03-21T09:49:02Z</time></trkpt>
<trkpt lat="43.0437420000" lon="0.1240100000"><ele>1145</ele><time>2026-03-21T09:49:05Z</time></trkpt>
<trkpt lat="43.0437520000" lon="0.1240380000"><ele>1145</ele><time>2026-03-21T09:49:08Z</time></trkpt>
<trkpt lat="43.0437520000" lon="0.1240770000"><ele>1145</ele><time>2026-03-21T09:49:14Z</time></trkpt>
<trkpt lat="43.0437600000" lon="0.1241020000"><ele>1145</ele><time>2026-03-21T09:49:16Z</time></trkpt>
<trkpt lat="43.0437730000" lon="0.1241320000"><ele>1144</ele><time>2026-03-21T09:49:19Z</time></trkpt>
<trkpt lat="43.0437820000" lon="0.1241550000"><ele>1144</ele><time>2026-03-21T09:49:21Z</time></trkpt>
<trkpt lat="43.0437730000" lon="0.1241820000"><ele>1144</ele><time>2026-03-21T09:49:23Z</time></trkpt>
<trkpt lat="43.0437620000" lon="0.1242000000"><ele>1144</ele><time>2026-03-21T09:49:25Z</time></trkpt>
<trkpt lat="43.0437420000" lon="0.1242200000"><ele>1144</ele><time>2026-03-21T09:49:27Z</time></trkpt>
<trkpt lat="43.0437200000" lon="0.1242270000"><ele>1143</ele><time>2026-03-21T09:49:29Z</time></trkpt>
<trkpt lat="43.0437070000" lon="0.1242030000"><ele>1142</ele><time>2026-03-21T09:49:33Z</time></trkpt>
<trkpt lat="43.0436880000" lon="0.1241920000"><ele>1142</ele><time>2026-03-21T09:49:46Z</time></trkpt>
<trkpt lat="43.0436670000" lon="0.1241820000"><ele>1142</ele><time>2026-03-21T09:49:49Z</time></trkpt>
<trkpt lat="43.0436420000" lon="0.1241870000"><ele>1142</ele><time>2026-03-21T09:49:51Z</time></trkpt>
<trkpt lat="43.0436220000" lon="0.1242020000"><ele>1142</ele><time>2026-03-21T09:49:53Z</time></trkpt>
<trkpt lat="43.0436020000" lon="0.1241920000"><ele>1142</ele><time>2026-03-21T09:49:55Z</time></trkpt>
<trkpt lat="43.0435770000" lon="0.1241820000"><ele>1141</ele><time>2026-03-21T09:49:58Z</time></trkpt>
<trkpt lat="43.0435520000" lon="0.1241780000"><ele>1141</ele><time>2026-03-21T09:50:01Z</time></trkpt>
<trkpt lat="43.0435320000" lon="0.1241770000"><ele>1141</ele><time>2026-03-21T09:50:03Z</time></trkpt>
<trkpt lat="43.0435070000" lon="0.1241780000"><ele>1140</ele><time>2026-03-21T09:50:06Z</time></trkpt>
<trkpt lat="43.0434870000" lon="0.1241900000"><ele>1140</ele><time>2026-03-21T09:50:08Z</time></trkpt>
<trkpt lat="43.0434670000" lon="0.1241970000"><ele>1139</ele><time>2026-03-21T09:50:10Z</time></trkpt>
<trkpt lat="43.0434470000" lon="0.1241950000"><ele>1138</ele><time>2026-03-21T09:51:10Z</time></trkpt>
<trkpt lat="43.0434300000" lon="0.1241920000"><ele>1138</ele><time>2026-03-21T09:51:22Z</time></trkpt>
<trkpt lat="43.0434050000" lon="0.1241970000"><ele>1138</ele><time>2026-03-21T09:51:24Z</time></trkpt>
<trkpt lat="43.0433850000" lon="0.1242000000"><ele>1138</ele><time>2026-03-21T09:51:26Z</time></trkpt>
<trkpt lat="43.0433670000" lon="0.1242000000"><ele>1138</ele><time>2026-03-21T09:51:28Z</time></trkpt>
<trkpt lat="43.0433470000" lon="0.1241970000"><ele>1137</ele><time>2026-03-21T09:51:30Z</time></trkpt>
<trkpt lat="43.0433250000" lon="0.1241920000"><ele>1137</ele><time>2026-03-21T09:51:33Z</time></trkpt>
<trkpt lat="43.0433020000" lon="0.1241870000"><ele>1136</ele><time>2026-03-21T09:51:36Z</time></trkpt>
<trkpt lat="43.0432870000" lon="0.1241620000"><ele>1136</ele><time>2026-03-21T09:51:39Z</time></trkpt>
<trkpt lat="43.0432620000" lon="0.1241420000"><ele>1135</ele><time>2026-03-21T09:51:42Z</time></trkpt>
<trkpt lat="43.0432420000" lon="0.1241250000"><ele>1134</ele><time>2026-03-21T09:51:45Z</time></trkpt>
<trkpt lat="43.0432220000" lon="0.1241020000"><ele>1134</ele><time>2026-03-21T09:51:48Z</time></trkpt>
<trkpt lat="43.0432020000" lon="0.1240820000"><ele>1133</ele><time>2026-03-21T09:51:51Z</time></trkpt>
<trkpt lat="43.0431820000" lon="0.1240700000"><ele>1133</ele><time>2026-03-21T09:51:54Z</time></trkpt>
<trkpt lat="43.0431650000" lon="0.1240630000"><ele>1132</ele><time>2026-03-21T09:51:59Z</time></trkpt>
<trkpt lat="43.0431370000" lon="0.1240620000"><ele>1131</ele><time>2026-03-21T09:52:02Z</time></trkpt>
<trkpt lat="43.0431120000" lon="0.1240670000"><ele>1131</ele><time>2026-03-21T09:52:05Z</time></trkpt>
<trkpt lat="43.0430920000" lon="0.1240620000"><ele>1131</ele><time>2026-03-21T09:52:07Z</time></trkpt>
<trkpt lat="43.0430720000" lon="0.1240420000"><ele>1130</ele><time>2026-03-21T09:52:10Z</time></trkpt>
<trkpt lat="43.0430550000" lon="0.1240220000"><ele>1130</ele><time>2026-03-21T09:52:12Z</time></trkpt>
<trkpt lat="43.0430370000" lon="0.1240050000"><ele>1129</ele><time>2026-03-21T09:52:14Z</time></trkpt>
<trkpt lat="43.0430220000" lon="0.1239820000"><ele>1129</ele><time>2026-03-21T09:52:16Z</time></trkpt>
<trkpt lat="43.0430070000" lon="0.1239520000"><ele>1129</ele><time>2026-03-21T09:52:18Z</time></trkpt>
<trkpt lat="43.0429970000" lon="0.1239270000"><ele>1128</ele><time>2026-03-21T09:52:20Z</time></trkpt>
<trkpt lat="43.0429920000" lon="0.1238970000"><ele>1128</ele><time>2026-03-21T09:52:23Z</time></trkpt>
<trkpt lat="43.0429720000" lon="0.1238800000"><ele>1127</ele><time>2026-03-21T09:52:26Z</time></trkpt>
<trkpt lat="43.0429520000" lon="0.1238620000"><ele>1127</ele><time>2026-03-21T09:52:29Z</time></trkpt>
<trkpt lat="43.0429400000" lon="0.1238400000"><ele>1126</ele><time>2026-03-21T09:52:31Z</time></trkpt>
<trkpt lat="43.0429270000" lon="0.1238120000"><ele>1126</ele><time>2026-03-21T09:52:34Z</time></trkpt>
<trkpt lat="43.0429120000" lon="0.1237970000"><ele>1125</ele><time>2026-03-21T09:52:36Z</time></trkpt>
<trkpt lat="43.0429050000" lon="0.1237720000"><ele>1125</ele><time>2026-03-21T09:52:38Z</time></trkpt>
<trkpt lat="43.0429050000" lon="0.1237470000"><ele>1125</ele><time>2026-03-21T09:52:40Z</time></trkpt>
<trkpt lat="43.0429120000" lon="0.1237170000"><ele>1125</ele><time>2026-03-21T09:52:42Z</time></trkpt>
<trkpt lat="43.0429070000" lon="0.1236870000"><ele>1124</ele><time>2026-03-21T09:52:45Z</time></trkpt>
<trkpt lat="43.0428920000" lon="0.1236720000"><ele>1124</ele><time>2026-03-21T09:52:47Z</time></trkpt>
<trkpt lat="43.0428770000" lon="0.1236550000"><ele>1124</ele><time>2026-03-21T09:52:49Z</time></trkpt>
<trkpt lat="43.0428670000" lon="0.1236270000"><ele>1124</ele><time>2026-03-21T09:52:51Z</time></trkpt>
<trkpt lat="43.0428520000" lon="0.1236020000"><ele>1124</ele><time>2026-03-21T09:52:53Z</time></trkpt>
<trkpt lat="43.0428470000" lon="0.1235770000"><ele>1124</ele><time>2026-03-21T09:52:55Z</time></trkpt>
<trkpt lat="43.0428400000" lon="0.1235520000"><ele>1124</ele><time>2026-03-21T09:52:57Z</time></trkpt>
<trkpt lat="43.0428270000" lon="0.1235320000"><ele>1124</ele><time>2026-03-21T09:52:59Z</time></trkpt>
<trkpt lat="43.0428170000" lon="0.1235070000"><ele>1123</ele><time>2026-03-21T09:53:01Z</time></trkpt>
<trkpt lat="43.0428020000" lon="0.1234870000"><ele>1123</ele><time>2026-03-21T09:53:03Z</time></trkpt>
<trkpt lat="43.0427870000" lon="0.1234670000"><ele>1123</ele><time>2026-03-21T09:53:05Z</time></trkpt>
<trkpt lat="43.0427770000" lon="0.1234470000"><ele>1123</ele><time>2026-03-21T09:53:07Z</time></trkpt>
<trkpt lat="43.0427620000" lon="0.1234320000"><ele>1123</ele><time>2026-03-21T09:53:09Z</time></trkpt>
<trkpt lat="43.0427470000" lon="0.1234130000"><ele>1123</ele><time>2026-03-21T09:53:11Z</time></trkpt>
<trkpt lat="43.0427220000" lon="0.1233970000"><ele>1124</ele><time>2026-03-21T09:53:14Z</time></trkpt>
<trkpt lat="43.0427030000" lon="0.1233870000"><ele>1124</ele><time>2026-03-21T09:53:16Z</time></trkpt>
<trkpt lat="43.0426870000" lon="0.1233720000"><ele>1124</ele><time>2026-03-21T09:53:18Z</time></trkpt>
<trkpt lat="43.0426750000" lon="0.1233480000"><ele>1124</ele><time>2026-03-21T09:53:20Z</time></trkpt>
<trkpt lat="43.0426650000" lon="0.1233270000"><ele>1124</ele><time>2026-03-21T09:53:22Z</time></trkpt>
<trkpt lat="43.0426520000" lon="0.1233020000"><ele>1124</ele><time>2026-03-21T09:53:24Z</time></trkpt>
<trkpt lat="43.0426370000" lon="0.1232720000"><ele>1125</ele><time>2026-03-21T09:53:27Z</time></trkpt>
<trkpt lat="43.0426250000" lon="0.1232520000"><ele>1125</ele><time>2026-03-21T09:53:29Z</time></trkpt>
<trkpt lat="43.0426100000" lon="0.1232320000"><ele>1125</ele><time>2026-03-21T09:53:31Z</time></trkpt>
<trkpt lat="43.0425920000" lon="0.1232120000"><ele>1125</ele><time>2026-03-21T09:53:33Z</time></trkpt>
<trkpt lat="43.0425820000" lon="0.1231900000"><ele>1125</ele><time>2026-03-21T09:53:35Z</time></trkpt>
<trkpt lat="43.0425720000" lon="0.1231630000"><ele>1125</ele><time>2026-03-21T09:53:37Z</time></trkpt>
<trkpt lat="43.0425620000" lon="0.1231320000"><ele>1125</ele><time>2026-03-21T09:53:40Z</time></trkpt>
<trkpt lat="43.0425500000" lon="0.1231100000"><ele>1125</ele><time>2026-03-21T09:53:42Z</time></trkpt>
<trkpt lat="43.0425350000" lon="0.1230870000"><ele>1125</ele><time>2026-03-21T09:53:44Z</time></trkpt>
<trkpt lat="43.0425200000" lon="0.1230680000"><ele>1125</ele><time>2026-03-21T09:53:46Z</time></trkpt>
<trkpt lat="43.0425100000" lon="0.1230470000"><ele>1125</ele><time>2026-03-21T09:53:48Z</time></trkpt>
<trkpt lat="43.0425020000" lon="0.1230230000"><ele>1125</ele><time>2026-03-21T09:53:50Z</time></trkpt>
<trkpt lat="43.0424870000" lon="0.1230050000"><ele>1125</ele><time>2026-03-21T09:53:52Z</time></trkpt>
<trkpt lat="43.0424770000" lon="0.1229820000"><ele>1125</ele><time>2026-03-21T09:53:54Z</time></trkpt>
<trkpt lat="43.0424620000" lon="0.1229670000"><ele>1125</ele><time>2026-03-21T09:53:56Z</time></trkpt>
<trkpt lat="43.0424500000" lon="0.1229470000"><ele>1125</ele><time>2026-03-21T09:53:58Z</time></trkpt>
<trkpt lat="43.0424370000" lon="0.1229270000"><ele>1125</ele><time>2026-03-21T09:54:00Z</time></trkpt>
<trkpt lat="43.0424270000" lon="0.1229050000"><ele>1126</ele><time>2026-03-21T09:54:02Z</time></trkpt>
<trkpt lat="43.0424080000" lon="0.1228750000"><ele>1126</ele><time>2026-03-21T09:54:05Z</time></trkpt>
<trkpt lat="43.0423950000" lon="0.1228520000"><ele>1126</ele><time>2026-03-21T09:54:07Z</time></trkpt>
<trkpt lat="43.0423820000" lon="0.1228300000"><ele>1126</ele><time>2026-03-21T09:54:09Z</time></trkpt>
<trkpt lat="43.0423720000" lon="0.1228070000"><ele>1126</ele><time>2026-03-21T09:54:11Z</time></trkpt>
<trkpt lat="43.0423620000" lon="0.1227850000"><ele>1126</ele><time>2026-03-21T09:54:13Z</time></trkpt>
<trkpt lat="43.0423470000" lon="0.1227570000"><ele>1126</ele><time>2026-03-21T09:54:16Z</time></trkpt>
<trkpt lat="43.0423320000" lon="0.1227400000"><ele>1126</ele><time>2026-03-21T09:54:18Z</time></trkpt>
<trkpt lat="43.0423170000" lon="0.1227220000"><ele>1126</ele><time>2026-03-21T09:54:20Z</time></trkpt>
<trkpt lat="43.0423020000" lon="0.1227020000"><ele>1126</ele><time>2026-03-21T09:54:22Z</time></trkpt>
<trkpt lat="43.0422870000" lon="0.1226870000"><ele>1126</ele><time>2026-03-21T09:54:24Z</time></trkpt>
<trkpt lat="43.0422700000" lon="0.1226700000"><ele>1126</ele><time>2026-03-21T09:54:26Z</time></trkpt>
<trkpt lat="43.0422520000" lon="0.1226470000"><ele>1126</ele><time>2026-03-21T09:54:29Z</time></trkpt>
<trkpt lat="43.0422370000" lon="0.1226300000"><ele>1126</ele><time>2026-03-21T09:54:31Z</time></trkpt>
<trkpt lat="43.0422200000" lon="0.1226120000"><ele>1126</ele><time>2026-03-21T09:54:33Z</time></trkpt>
<trkpt lat="43.0422050000" lon="0.1225970000"><ele>1126</ele><time>2026-03-21T09:54:35Z</time></trkpt>
<trkpt lat="43.0421900000" lon="0.1225820000"><ele>1126</ele><time>2026-03-21T09:54:37Z</time></trkpt>
<trkpt lat="43.0421670000" lon="0.1225620000"><ele>1127</ele><time>2026-03-21T09:54:40Z</time></trkpt>
<trkpt lat="43.0421470000" lon="0.1225380000"><ele>1127</ele><time>2026-03-21T09:54:43Z</time></trkpt>
<trkpt lat="43.0421320000" lon="0.1225220000"><ele>1127</ele><time>2026-03-21T09:54:45Z</time></trkpt>
<trkpt lat="43.0421200000" lon="0.1225020000"><ele>1127</ele><time>2026-03-21T09:54:47Z</time></trkpt>
<trkpt lat="43.0421070000" lon="0.1224850000"><ele>1127</ele><time>2026-03-21T09:54:49Z</time></trkpt>
<trkpt lat="43.0420820000" lon="0.1224720000"><ele>1127</ele><time>2026-03-21T09:54:52Z</time></trkpt>
<trkpt lat="43.0420650000" lon="0.1224600000"><ele>1127</ele><time>2026-03-21T09:54:54Z</time></trkpt>
<trkpt lat="43.0420420000" lon="0.1224520000"><ele>1128</ele><time>2026-03-21T09:54:56Z</time></trkpt>
<trkpt lat="43.0420250000" lon="0.1224470000"><ele>1128</ele><time>2026-03-21T09:54:59Z</time></trkpt>
<trkpt lat="43.0420120000" lon="0.1224300000"><ele>1128</ele><time>2026-03-21T09:55:02Z</time></trkpt>
<trkpt lat="43.0419950000" lon="0.1224120000"><ele>1129</ele><time>2026-03-21T09:55:06Z</time></trkpt>
<trkpt lat="43.0419750000" lon="0.1223980000"><ele>1129</ele><time>2026-03-21T09:55:09Z</time></trkpt>
<trkpt lat="43.0419550000" lon="0.1223870000"><ele>1129</ele><time>2026-03-21T09:55:12Z</time></trkpt>
<trkpt lat="43.0419420000" lon="0.1223650000"><ele>1130</ele><time>2026-03-21T09:55:15Z</time></trkpt>
<trkpt lat="43.0419250000" lon="0.1223520000"><ele>1130</ele><time>2026-03-21T09:55:19Z</time></trkpt>
<trkpt lat="43.0419020000" lon="0.1223400000"><ele>1131</ele><time>2026-03-21T09:55:22Z</time></trkpt>
<trkpt lat="43.0418820000" lon="0.1223220000"><ele>1131</ele><time>2026-03-21T09:55:26Z</time></trkpt>
<trkpt lat="43.0418620000" lon="0.1223120000"><ele>1132</ele><time>2026-03-21T09:55:30Z</time></trkpt>
<trkpt lat="43.0418500000" lon="0.1222950000"><ele>1132</ele><time>2026-03-21T09:55:33Z</time></trkpt>
<trkpt lat="43.0418320000" lon="0.1222820000"><ele>1133</ele><time>2026-03-21T09:55:37Z</time></trkpt>
<trkpt lat="43.0418100000" lon="0.1222620000"><ele>1134</ele><time>2026-03-21T09:55:53Z</time></trkpt>
<trkpt lat="43.0417970000" lon="0.1222420000"><ele>1134</ele><time>2026-03-21T09:55:55Z</time></trkpt>
<trkpt lat="43.0417800000" lon="0.1222320000"><ele>1134</ele><time>2026-03-21T09:55:58Z</time></trkpt>
<trkpt lat="43.0417620000" lon="0.1222200000"><ele>1135</ele><time>2026-03-21T09:56:02Z</time></trkpt>
<trkpt lat="43.0417470000" lon="0.1221970000"><ele>1135</ele><time>2026-03-21T09:56:05Z</time></trkpt>
<trkpt lat="43.0417320000" lon="0.1221680000"><ele>1136</ele><time>2026-03-21T09:56:08Z</time></trkpt>
<trkpt lat="43.0417100000" lon="0.1221520000"><ele>1136</ele><time>2026-03-21T09:56:10Z</time></trkpt>
<trkpt lat="43.0416870000" lon="0.1221300000"><ele>1136</ele><time>2026-03-21T09:56:12Z</time></trkpt>
<trkpt lat="43.0416700000" lon="0.1221200000"><ele>1136</ele><time>2026-03-21T09:56:15Z</time></trkpt>
<trkpt lat="43.0416570000" lon="0.1220920000"><ele>1137</ele><time>2026-03-21T09:56:18Z</time></trkpt>
<trkpt lat="43.0416720000" lon="0.1220700000"><ele>1137</ele><time>2026-03-21T09:56:20Z</time></trkpt>
<trkpt lat="43.0416620000" lon="0.1220450000"><ele>1137</ele><time>2026-03-21T09:56:25Z</time></trkpt>
<trkpt lat="43.0416480000" lon="0.1220270000"><ele>1137</ele><time>2026-03-21T09:56:28Z</time></trkpt>
<trkpt lat="43.0416320000" lon="0.1220020000"><ele>1137</ele><time>2026-03-21T09:56:31Z</time></trkpt>
<trkpt lat="43.0416170000" lon="0.1219820000"><ele>1137</ele><time>2026-03-21T09:56:34Z</time></trkpt>
<trkpt lat="43.0416070000" lon="0.1219520000"><ele>1137</ele><time>2026-03-21T09:56:38Z</time></trkpt>
<trkpt lat="43.0415970000" lon="0.1219300000"><ele>1138</ele><time>2026-03-21T09:56:40Z</time></trkpt>
<trkpt lat="43.0415800000" lon="0.1219050000"><ele>1138</ele><time>2026-03-21T09:56:43Z</time></trkpt>
<trkpt lat="43.0415620000" lon="0.1218870000"><ele>1138</ele><time>2026-03-21T09:56:46Z</time></trkpt>
<trkpt lat="43.0415420000" lon="0.1218670000"><ele>1138</ele><time>2026-03-21T09:56:49Z</time></trkpt>
<trkpt lat="43.0415200000" lon="0.1218470000"><ele>1138</ele><time>2026-03-21T09:56:52Z</time></trkpt>
<trkpt lat="43.0414970000" lon="0.1218320000"><ele>1138</ele><time>2026-03-21T09:56:55Z</time></trkpt>
<trkpt lat="43.0414850000" lon="0.1218150000"><ele>1138</ele><time>2026-03-21T09:56:57Z</time></trkpt>
<trkpt lat="43.0414670000" lon="0.1217950000"><ele>1138</ele><time>2026-03-21T09:57:00Z</time></trkpt>
<trkpt lat="43.0414500000" lon="0.1217800000"><ele>1138</ele><time>2026-03-21T09:57:02Z</time></trkpt>
<trkpt lat="43.0414320000" lon="0.1217670000"><ele>1138</ele><time>2026-03-21T09:57:04Z</time></trkpt>
<trkpt lat="43.0414120000" lon="0.1217520000"><ele>1137</ele><time>2026-03-21T09:57:07Z</time></trkpt>
<trkpt lat="43.0413900000" lon="0.1217420000"><ele>1137</ele><time>2026-03-21T09:57:10Z</time></trkpt>
<trkpt lat="43.0413700000" lon="0.1217200000"><ele>1137</ele><time>2026-03-21T09:57:13Z</time></trkpt>
<trkpt lat="43.0413570000" lon="0.1216950000"><ele>1137</ele><time>2026-03-21T09:57:16Z</time></trkpt>
<trkpt lat="43.0413370000" lon="0.1216700000"><ele>1136</ele><time>2026-03-21T09:57:48Z</time></trkpt>
<trkpt lat="43.0413200000" lon="0.1216370000"><ele>1136</ele><time>2026-03-21T09:57:50Z</time></trkpt>
<trkpt lat="43.0413050000" lon="0.1216020000"><ele>1136</ele><time>2026-03-21T09:57:52Z</time></trkpt>
<trkpt lat="43.0412900000" lon="0.1215770000"><ele>1135</ele><time>2026-03-21T09:57:54Z</time></trkpt>
<trkpt lat="43.0412680000" lon="0.1215650000"><ele>1135</ele><time>2026-03-21T09:57:56Z</time></trkpt>
<trkpt lat="43.0412520000" lon="0.1215600000"><ele>1135</ele><time>2026-03-21T09:57:58Z</time></trkpt>
<trkpt lat="43.0412320000" lon="0.1215650000"><ele>1134</ele><time>2026-03-21T09:58:00Z</time></trkpt>
<trkpt lat="43.0412100000" lon="0.1215670000"><ele>1134</ele><time>2026-03-21T09:58:03Z</time></trkpt>
<trkpt lat="43.0411920000" lon="0.1215520000"><ele>1134</ele><time>2026-03-21T09:58:05Z</time></trkpt>
<trkpt lat="43.0411750000" lon="0.1215320000"><ele>1134</ele><time>2026-03-21T09:58:07Z</time></trkpt>
<trkpt lat="43.0411670000" lon="0.1215050000"><ele>1133</ele><time>2026-03-21T09:58:09Z</time></trkpt>
<trkpt lat="43.0411470000" lon="0.1214770000"><ele>1133</ele><time>2026-03-21T09:58:12Z</time></trkpt>
<trkpt lat="43.0411270000" lon="0.1214720000"><ele>1133</ele><time>2026-03-21T09:58:14Z</time></trkpt>
<trkpt lat="43.0411070000" lon="0.1214720000"><ele>1132</ele><time>2026-03-21T09:58:16Z</time></trkpt>
<trkpt lat="43.0410900000" lon="0.1214770000"><ele>1132</ele><time>2026-03-21T09:58:18Z</time></trkpt>
<trkpt lat="43.0410650000" lon="0.1214800000"><ele>1132</ele><time>2026-03-21T09:58:21Z</time></trkpt>
<trkpt lat="43.0410470000" lon="0.1214900000"><ele>1131</ele><time>2026-03-21T09:58:23Z</time></trkpt>
<trkpt lat="43.0410320000" lon="0.1214800000"><ele>1131</ele><time>2026-03-21T09:58:26Z</time></trkpt>
<trkpt lat="43.0410120000" lon="0.1214800000"><ele>1130</ele><time>2026-03-21T09:58:29Z</time></trkpt>
<trkpt lat="43.0409970000" lon="0.1214920000"><ele>1130</ele><time>2026-03-21T09:58:31Z</time></trkpt>
<trkpt lat="43.0409770000" lon="0.1215050000"><ele>1129</ele><time>2026-03-21T09:58:33Z</time></trkpt>
<trkpt lat="43.0409570000" lon="0.1215100000"><ele>1129</ele><time>2026-03-21T09:58:35Z</time></trkpt>
<trkpt lat="43.0409370000" lon="0.1215120000"><ele>1128</ele><time>2026-03-21T09:58:37Z</time></trkpt>
<trkpt lat="43.0409170000" lon="0.1215120000"><ele>1128</ele><time>2026-03-21T09:58:39Z</time></trkpt>
<trkpt lat="43.0409020000" lon="0.1215220000"><ele>1128</ele><time>2026-03-21T09:58:41Z</time></trkpt>
<trkpt lat="43.0408850000" lon="0.1215370000"><ele>1127</ele><time>2026-03-21T09:58:43Z</time></trkpt>
<trkpt lat="43.0408620000" lon="0.1215570000"><ele>1126</ele><time>2026-03-21T09:58:46Z</time></trkpt>
<trkpt lat="43.0408420000" lon="0.1215750000"><ele>1126</ele><time>2026-03-21T09:58:49Z</time></trkpt>
<trkpt lat="43.0408220000" lon="0.1215900000"><ele>1125</ele><time>2026-03-21T09:58:52Z</time></trkpt>
<trkpt lat="43.0407970000" lon="0.1215970000"><ele>1124</ele><time>2026-03-21T09:58:55Z</time></trkpt>
<trkpt lat="43.0407720000" lon="0.1216080000"><ele>1123</ele><time>2026-03-21T09:58:58Z</time></trkpt>
<trkpt lat="43.0407520000" lon="0.1216170000"><ele>1123</ele><time>2026-03-21T09:59:00Z</time></trkpt>
<trkpt lat="43.0407330000" lon="0.1216270000"><ele>1122</ele><time>2026-03-21T09:59:02Z</time></trkpt>
<trkpt lat="43.0407120000" lon="0.1216400000"><ele>1122</ele><time>2026-03-21T09:59:05Z</time></trkpt>
<trkpt lat="43.0406900000" lon="0.1216520000"><ele>1121</ele><time>2026-03-21T09:59:08Z</time></trkpt>
<trkpt lat="43.0406720000" lon="0.1216650000"><ele>1120</ele><time>2026-03-21T09:59:11Z</time></trkpt>
<trkpt lat="43.0406520000" lon="0.1216820000"><ele>1119</ele><time>2026-03-21T09:59:14Z</time></trkpt>
<trkpt lat="43.0406300000" lon="0.1216820000"><ele>1119</ele><time>2026-03-21T09:59:17Z</time></trkpt>
<trkpt lat="43.0406120000" lon="0.1216870000"><ele>1119</ele><time>2026-03-21T09:59:19Z</time></trkpt>
<trkpt lat="43.0405920000" lon="0.1216970000"><ele>1118</ele><time>2026-03-21T09:59:22Z</time></trkpt>
<trkpt lat="43.0405750000" lon="0.1216970000"><ele>1117</ele><time>2026-03-21T09:59:25Z</time></trkpt>
<trkpt lat="43.0405520000" lon="0.1217000000"><ele>1117</ele><time>2026-03-21T09:59:28Z</time></trkpt>
<trkpt lat="43.0405300000" lon="0.1217070000"><ele>1116</ele><time>2026-03-21T09:59:30Z</time></trkpt>
<trkpt lat="43.0405070000" lon="0.1217120000"><ele>1116</ele><time>2026-03-21T09:59:33Z</time></trkpt>
<trkpt lat="43.0404820000" lon="0.1217200000"><ele>1114</ele><time>2026-03-21T09:59:53Z</time></trkpt>
<trkpt lat="43.0404600000" lon="0.1217220000"><ele>1113</ele><time>2026-03-21T09:59:55Z</time></trkpt>
<trkpt lat="43.0404320000" lon="0.1217300000"><ele>1112</ele><time>2026-03-21T10:00:00Z</time></trkpt>
<trkpt lat="43.0404100000" lon="0.1217570000"><ele>1112</ele><time>2026-03-21T10:00:02Z</time></trkpt>
<trkpt lat="43.0403900000" lon="0.1217820000"><ele>1111</ele><time>2026-03-21T10:00:04Z</time></trkpt>
<trkpt lat="43.0403720000" lon="0.1217950000"><ele>1111</ele><time>2026-03-21T10:00:06Z</time></trkpt>
<trkpt lat="43.0403520000" lon="0.1218020000"><ele>1111</ele><time>2026-03-21T10:00:08Z</time></trkpt>
<trkpt lat="43.0403320000" lon="0.1218050000"><ele>1110</ele><time>2026-03-21T10:00:10Z</time></trkpt>
<trkpt lat="43.0403120000" lon="0.1218070000"><ele>1110</ele><time>2026-03-21T10:00:12Z</time></trkpt>
<trkpt lat="43.0402920000" lon="0.1218220000"><ele>1109</ele><time>2026-03-21T10:00:15Z</time></trkpt>
<trkpt lat="43.0402750000" lon="0.1218420000"><ele>1108</ele><time>2026-03-21T10:00:19Z</time></trkpt>
<trkpt lat="43.0402520000" lon="0.1218550000"><ele>1107</ele><time>2026-03-21T10:00:22Z</time></trkpt>
<trkpt lat="43.0402400000" lon="0.1218720000"><ele>1107</ele><time>2026-03-21T10:00:25Z</time></trkpt>
<trkpt lat="43.0402220000" lon="0.1218820000"><ele>1106</ele><time>2026-03-21T10:00:29Z</time></trkpt>
<trkpt lat="43.0402070000" lon="0.1218970000"><ele>1105</ele><time>2026-03-21T10:00:32Z</time></trkpt>
<trkpt lat="43.0401870000" lon="0.1219050000"><ele>1104</ele><time>2026-03-21T10:00:37Z</time></trkpt>
<trkpt lat="43.0401670000" lon="0.1219100000"><ele>1104</ele><time>2026-03-21T10:00:39Z</time></trkpt>
<trkpt lat="43.0401470000" lon="0.1219170000"><ele>1104</ele><time>2026-03-21T10:00:43Z</time></trkpt>
<trkpt lat="43.0401200000" lon="0.1219220000"><ele>1103</ele><time>2026-03-21T10:00:46Z</time></trkpt>
<trkpt lat="43.0401000000" lon="0.1219200000"><ele>1102</ele><time>2026-03-21T10:00:48Z</time></trkpt>
<trkpt lat="43.0400820000" lon="0.1219050000"><ele>1102</ele><time>2026-03-21T10:00:50Z</time></trkpt>
<trkpt lat="43.0400650000" lon="0.1218830000"><ele>1101</ele><time>2026-03-21T10:00:52Z</time></trkpt>
<trkpt lat="43.0400450000" lon="0.1218700000"><ele>1101</ele><time>2026-03-21T10:00:54Z</time></trkpt>
<trkpt lat="43.0400250000" lon="0.1218570000"><ele>1101</ele><time>2026-03-21T10:00:56Z</time></trkpt>
<trkpt lat="43.0400070000" lon="0.1218420000"><ele>1101</ele><time>2026-03-21T10:00:58Z</time></trkpt>
<trkpt lat="43.0399920000" lon="0.1218220000"><ele>1101</ele><time>2026-03-21T10:01:00Z</time></trkpt>
<trkpt lat="43.0399770000" lon="0.1218020000"><ele>1100</ele><time>2026-03-21T10:01:02Z</time></trkpt>
<trkpt lat="43.0399500000" lon="0.1218050000"><ele>1100</ele><time>2026-03-21T10:01:39Z</time></trkpt>
<trkpt lat="43.0399300000" lon="0.1218070000"><ele>1100</ele><time>2026-03-21T10:01:40Z</time></trkpt>
<trkpt lat="43.0399100000" lon="0.1218120000"><ele>1099</ele><time>2026-03-21T10:01:41Z</time></trkpt>
<trkpt lat="43.0398820000" lon="0.1218250000"><ele>1099</ele><time>2026-03-21T10:01:43Z</time></trkpt>
<trkpt lat="43.0398620000" lon="0.1218370000"><ele>1099</ele><time>2026-03-21T10:01:45Z</time></trkpt>
<trkpt lat="43.0398420000" lon="0.1218570000"><ele>1098</ele><time>2026-03-21T10:01:48Z</time></trkpt>
<trkpt lat="43.0398270000" lon="0.1218750000"><ele>1098</ele><time>2026-03-21T10:01:50Z</time></trkpt>
<trkpt lat="43.0398050000" lon="0.1218830000"><ele>1098</ele><time>2026-03-21T10:01:52Z</time></trkpt>
<trkpt lat="43.0397820000" lon="0.1218820000"><ele>1098</ele><time>2026-03-21T10:01:54Z</time></trkpt>
<trkpt lat="43.0397600000" lon="0.1218770000"><ele>1097</ele><time>2026-03-21T10:01:57Z</time></trkpt>
<trkpt lat="43.0397420000" lon="0.1218970000"><ele>1097</ele><time>2026-03-21T10:02:00Z</time></trkpt>
<trkpt lat="43.0397220000" lon="0.1219100000"><ele>1097</ele><time>2026-03-21T10:02:02Z</time></trkpt>
<trkpt lat="43.0397020000" lon="0.1219370000"><ele>1097</ele><time>2026-03-21T10:02:05Z</time></trkpt>
<trkpt lat="43.0396920000" lon="0.1219570000"><ele>1096</ele><time>2026-03-21T10:02:07Z</time></trkpt>
<trkpt lat="43.0396670000" lon="0.1219700000"><ele>1096</ele><time>2026-03-21T10:02:10Z</time></trkpt>
<trkpt lat="43.0396470000" lon="0.1219750000"><ele>1096</ele><time>2026-03-21T10:02:12Z</time></trkpt>
<trkpt lat="43.0396220000" lon="0.1219700000"><ele>1096</ele><time>2026-03-21T10:02:14Z</time></trkpt>
<trkpt lat="43.0396070000" lon="0.1219570000"><ele>1096</ele><time>2026-03-21T10:02:15Z</time></trkpt>
<trkpt lat="43.0395870000" lon="0.1219420000"><ele>1096</ele><time>2026-03-21T10:02:16Z</time></trkpt>
<trkpt lat="43.0395670000" lon="0.1219170000"><ele>1095</ele><time>2026-03-21T10:02:18Z</time></trkpt>
<trkpt lat="43.0395470000" lon="0.1219100000"><ele>1095</ele><time>2026-03-21T10:02:20Z</time></trkpt>
<trkpt lat="43.0395220000" lon="0.1218970000"><ele>1095</ele><time>2026-03-21T10:02:22Z</time></trkpt>
<trkpt lat="43.0395020000" lon="0.1218800000"><ele>1096</ele><time>2026-03-21T10:02:24Z</time></trkpt>
<trkpt lat="43.0394820000" lon="0.1218750000"><ele>1096</ele><time>2026-03-21T10:02:26Z</time></trkpt>
<trkpt lat="43.0394600000" lon="0.1218770000"><ele>1096</ele><time>2026-03-21T10:02:29Z</time></trkpt>
<trkpt lat="43.0394420000" lon="0.1218670000"><ele>1096</ele><time>2026-03-21T10:02:31Z</time></trkpt>
<trkpt lat="43.0394170000" lon="0.1218650000"><ele>1096</ele><time>2026-03-21T10:02:33Z</time></trkpt>
<trkpt lat="43.0393920000" lon="0.1218650000"><ele>1096</ele><time>2026-03-21T10:02:36Z</time></trkpt>
<trkpt lat="43.0393720000" lon="0.1218670000"><ele>1096</ele><time>2026-03-21T10:02:38Z</time></trkpt>
<trkpt lat="43.0393620000" lon="0.1218920000"><ele>1096</ele><time>2026-03-21T10:02:42Z</time></trkpt>
<trkpt lat="43.0393570000" lon="0.1219170000"><ele>1096</ele><time>2026-03-21T10:02:46Z</time></trkpt>
<trkpt lat="43.0393300000" lon="0.1219320000"><ele>1096</ele><time>2026-03-21T10:02:51Z</time></trkpt>
<trkpt lat="43.0393150000" lon="0.1219470000"><ele>1096</ele><time>2026-03-21T10:02:53Z</time></trkpt>
<trkpt lat="43.0393020000" lon="0.1219670000"><ele>1096</ele><time>2026-03-21T10:02:55Z</time></trkpt>
<trkpt lat="43.0392850000" lon="0.1219800000"><ele>1096</ele><time>2026-03-21T10:02:58Z</time></trkpt>
<trkpt lat="43.0392670000" lon="0.1219950000"><ele>1096</ele><time>2026-03-21T10:03:01Z</time></trkpt>
<trkpt lat="43.0392450000" lon="0.1220120000"><ele>1096</ele><time>2026-03-21T10:03:04Z</time></trkpt>
<trkpt lat="43.0392270000" lon="0.1220270000"><ele>1096</ele><time>2026-03-21T10:03:06Z</time></trkpt>
<trkpt lat="43.0392150000" lon="0.1220600000"><ele>1097</ele><time>2026-03-21T10:03:09Z</time></trkpt>
<trkpt lat="43.0392050000" lon="0.1220900000"><ele>1097</ele><time>2026-03-21T10:03:11Z</time></trkpt>
<trkpt lat="43.0391920000" lon="0.1221220000"><ele>1097</ele><time>2026-03-21T10:03:13Z</time></trkpt>
<trkpt lat="43.0391800000" lon="0.1221470000"><ele>1097</ele><time>2026-03-21T10:03:15Z</time></trkpt>
<trkpt lat="43.0391670000" lon="0.1221720000"><ele>1097</ele><time>2026-03-21T10:03:17Z</time></trkpt>
<trkpt lat="43.0391520000" lon="0.1221920000"><ele>1097</ele><time>2026-03-21T10:03:20Z</time></trkpt>
<trkpt lat="43.0391300000" lon="0.1222150000"><ele>1097</ele><time>2026-03-21T10:03:23Z</time></trkpt>
<trkpt lat="43.0391150000" lon="0.1222370000"><ele>1097</ele><time>2026-03-21T10:03:25Z</time></trkpt>
<trkpt lat="43.0390970000" lon="0.1222650000"><ele>1097</ele><time>2026-03-21T10:03:27Z</time></trkpt>
<trkpt lat="43.0390820000" lon="0.1223000000"><ele>1097</ele><time>2026-03-21T10:03:29Z</time></trkpt>
<trkpt lat="43.0390670000" lon="0.1223270000"><ele>1097</ele><time>2026-03-21T10:03:31Z</time></trkpt>
<trkpt lat="43.0390500000" lon="0.1223520000"><ele>1097</ele><time>2026-03-21T10:03:34Z</time></trkpt>
<trkpt lat="43.0390370000" lon="0.1223800000"><ele>1097</ele><time>2026-03-21T10:03:37Z</time></trkpt>
<trkpt lat="43.0390200000" lon="0.1224100000"><ele>1097</ele><time>2026-03-21T10:03:40Z</time></trkpt>
<trkpt lat="43.0390000000" lon="0.1224270000"><ele>1098</ele><time>2026-03-21T10:03:42Z</time></trkpt>
<trkpt lat="43.0389880000" lon="0.1224500000"><ele>1098</ele><time>2026-03-21T10:03:45Z</time></trkpt>
<trkpt lat="43.0389670000" lon="0.1224570000"><ele>1098</ele><time>2026-03-21T10:03:49Z</time></trkpt>
<trkpt lat="43.0389450000" lon="0.1224820000"><ele>1098</ele><time>2026-03-21T10:03:52Z</time></trkpt>
<trkpt lat="43.0389320000" lon="0.1225120000"><ele>1098</ele><time>2026-03-21T10:03:54Z</time></trkpt>
<trkpt lat="43.0389220000" lon="0.1225370000"><ele>1099</ele><time>2026-03-21T10:03:57Z</time></trkpt>
<trkpt lat="43.0389120000" lon="0.1225650000"><ele>1099</ele><time>2026-03-21T10:04:00Z</time></trkpt>
<trkpt lat="43.0389000000" lon="0.1225970000"><ele>1100</ele><time>2026-03-21T10:04:03Z</time></trkpt>
<trkpt lat="43.0388870000" lon="0.1226250000"><ele>1100</ele><time>2026-03-21T10:04:06Z</time></trkpt>
<trkpt lat="43.0388750000" lon="0.1226470000"><ele>1100</ele><time>2026-03-21T10:04:09Z</time></trkpt>
<trkpt lat="43.0388570000" lon="0.1226720000"><ele>1100</ele><time>2026-03-21T10:04:12Z</time></trkpt>
<trkpt lat="43.0388420000" lon="0.1226870000"><ele>1100</ele><time>2026-03-21T10:04:14Z</time></trkpt>
<trkpt lat="43.0388250000" lon="0.1227070000"><ele>1100</ele><time>2026-03-21T10:04:17Z</time></trkpt>
<trkpt lat="43.0388170000" lon="0.1227420000"><ele>1101</ele><time>2026-03-21T10:04:20Z</time></trkpt>
<trkpt lat="43.0388100000" lon="0.1227750000"><ele>1101</ele><time>2026-03-21T10:04:22Z</time></trkpt>
<trkpt lat="43.0388100000" lon="0.1228020000"><ele>1101</ele><time>2026-03-21T10:04:25Z</time></trkpt>
<trkpt lat="43.0387870000" lon="0.1228120000"><ele>1101</ele><time>2026-03-21T10:04:28Z</time></trkpt>
<trkpt lat="43.0387720000" lon="0.1228320000"><ele>1101</ele><time>2026-03-21T10:04:30Z</time></trkpt>
<trkpt lat="43.0387520000" lon="0.1228550000"><ele>1101</ele><time>2026-03-21T10:04:33Z</time></trkpt>
<trkpt lat="43.0387320000" lon="0.1228620000"><ele>1102</ele><time>2026-03-21T10:04:36Z</time></trkpt>
<trkpt lat="43.0387120000" lon="0.1228700000"><ele>1102</ele><time>2026-03-21T10:04:41Z</time></trkpt>
<trkpt lat="43.0386900000" lon="0.1228720000"><ele>1102</ele><time>2026-03-21T10:04:45Z</time></trkpt>
<trkpt lat="43.0386720000" lon="0.1228720000"><ele>1103</ele><time>2026-03-21T10:04:50Z</time></trkpt>
<trkpt lat="43.0386500000" lon="0.1228720000"><ele>1104</ele><time>2026-03-21T10:04:53Z</time></trkpt>
<trkpt lat="43.0386270000" lon="0.1228770000"><ele>1104</ele><time>2026-03-21T10:04:57Z</time></trkpt>
<trkpt lat="43.0386050000" lon="0.1228800000"><ele>1104</ele><time>2026-03-21T10:05:01Z</time></trkpt>
<trkpt lat="43.0385870000" lon="0.1228770000"><ele>1105</ele><time>2026-03-21T10:05:04Z</time></trkpt>
<trkpt lat="43.0385670000" lon="0.1228750000"><ele>1105</ele><time>2026-03-21T10:05:07Z</time></trkpt>
<trkpt lat="43.0385450000" lon="0.1228620000"><ele>1105</ele><time>2026-03-21T10:05:27Z</time></trkpt>
<trkpt lat="43.0385220000" lon="0.1228450000"><ele>1105</ele><time>2026-03-21T10:05:29Z</time></trkpt>
<trkpt lat="43.0385020000" lon="0.1228220000"><ele>1106</ele><time>2026-03-21T10:05:31Z</time></trkpt>
<trkpt lat="43.0384800000" lon="0.1228020000"><ele>1106</ele><time>2026-03-21T10:05:34Z</time></trkpt>
<trkpt lat="43.0384600000" lon="0.1227880000"><ele>1107</ele><time>2026-03-21T10:05:37Z</time></trkpt>
<trkpt lat="43.0384370000" lon="0.1227870000"><ele>1107</ele><time>2026-03-21T10:05:40Z</time></trkpt>
<trkpt lat="43.0384170000" lon="0.1227800000"><ele>1108</ele><time>2026-03-21T10:05:43Z</time></trkpt>
<trkpt lat="43.0383970000" lon="0.1227850000"><ele>1108</ele><time>2026-03-21T10:05:46Z</time></trkpt>
<trkpt lat="43.0383770000" lon="0.1227970000"><ele>1108</ele><time>2026-03-21T10:05:49Z</time></trkpt>
<trkpt lat="43.0383620000" lon="0.1228270000"><ele>1109</ele><time>2026-03-21T10:05:52Z</time></trkpt>
<trkpt lat="43.0383600000" lon="0.1228520000"><ele>1109</ele><time>2026-03-21T10:05:54Z</time></trkpt>
<trkpt lat="43.0383550000" lon="0.1228800000"><ele>1109</ele><time>2026-03-21T10:05:56Z</time></trkpt>
<trkpt lat="43.0383500000" lon="0.1229150000"><ele>1109</ele><time>2026-03-21T10:05:59Z</time></trkpt>
<trkpt lat="43.0383420000" lon="0.1229450000"><ele>1109</ele><time>2026-03-21T10:06:01Z</time></trkpt>
<trkpt lat="43.0383320000" lon="0.1229720000"><ele>1109</ele><time>2026-03-21T10:06:03Z</time></trkpt>
<trkpt lat="43.0383130000" lon="0.1229850000"><ele>1109</ele><time>2026-03-21T10:06:17Z</time></trkpt>
<trkpt lat="43.0382900000" lon="0.1229980000"><ele>1109</ele><time>2026-03-21T10:06:20Z</time></trkpt>
<trkpt lat="43.0383000000" lon="0.1229770000"><ele>1109</ele><time>2026-03-21T10:06:27Z</time></trkpt>
<trkpt lat="43.0382920000" lon="0.1230020000"><ele>1110</ele><time>2026-03-21T10:06:36Z</time></trkpt>
<trkpt lat="43.0382820000" lon="0.1230500000"><ele>1109</ele><time>2026-03-21T10:06:38Z</time></trkpt>
<trkpt lat="43.0382670000" lon="0.1230900000"><ele>1109</ele><time>2026-03-21T10:06:40Z</time></trkpt>
<trkpt lat="43.0382600000" lon="0.1231270000"><ele>1109</ele><time>2026-03-21T10:06:42Z</time></trkpt>
<trkpt lat="43.0382500000" lon="0.1231600000"><ele>1109</ele><time>2026-03-21T10:06:44Z</time></trkpt>
<trkpt lat="43.0382420000" lon="0.1231900000"><ele>1109</ele><time>2026-03-21T10:06:46Z</time></trkpt>
<trkpt lat="43.0382300000" lon="0.1232200000"><ele>1109</ele><time>2026-03-21T10:06:48Z</time></trkpt>
<trkpt lat="43.0382200000" lon="0.1232470000"><ele>1109</ele><time>2026-03-21T10:06:50Z</time></trkpt>
<trkpt lat="43.0382100000" lon="0.1232720000"><ele>1109</ele><time>2026-03-21T10:06:52Z</time></trkpt>
<trkpt lat="43.0381970000" lon="0.1233000000"><ele>1109</ele><time>2026-03-21T10:06:54Z</time></trkpt>
<trkpt lat="43.0381920000" lon="0.1233300000"><ele>1108</ele><time>2026-03-21T10:06:56Z</time></trkpt>
<trkpt lat="43.0381870000" lon="0.1233570000"><ele>1108</ele><time>2026-03-21T10:06:58Z</time></trkpt>
<trkpt lat="43.0381770000" lon="0.1233870000"><ele>1108</ele><time>2026-03-21T10:07:00Z</time></trkpt>
<trkpt lat="43.0381670000" lon="0.1234120000"><ele>1108</ele><time>2026-03-21T10:07:02Z</time></trkpt>
<trkpt lat="43.0381570000" lon="0.1234370000"><ele>1108</ele><time>2026-03-21T10:07:04Z</time></trkpt>
<trkpt lat="43.0381470000" lon="0.1234670000"><ele>1108</ele><time>2026-03-21T10:07:06Z</time></trkpt>
<trkpt lat="43.0381370000" lon="0.1234920000"><ele>1108</ele><time>2026-03-21T10:07:08Z</time></trkpt>
<trkpt lat="43.0381270000" lon="0.1235220000"><ele>1108</ele><time>2026-03-21T10:07:10Z</time></trkpt>
<trkpt lat="43.0381200000" lon="0.1235480000"><ele>1108</ele><time>2026-03-21T10:07:12Z</time></trkpt>
<trkpt lat="43.0381120000" lon="0.1235770000"><ele>1108</ele><time>2026-03-21T10:07:14Z</time></trkpt>
<trkpt lat="43.0381020000" lon="0.1236070000"><ele>1108</ele><time>2026-03-21T10:07:16Z</time></trkpt>
<trkpt lat="43.0380920000" lon="0.1236350000"><ele>1108</ele><time>2026-03-21T10:07:18Z</time></trkpt>
<trkpt lat="43.0380800000" lon="0.1236620000"><ele>1108</ele><time>2026-03-21T10:07:20Z</time></trkpt>
<trkpt lat="43.0380670000" lon="0.1236880000"><ele>1108</ele><time>2026-03-21T10:07:22Z</time></trkpt>
<trkpt lat="43.0380600000" lon="0.1237180000"><ele>1108</ele><time>2026-03-21T10:07:24Z</time></trkpt>
<trkpt lat="43.0380470000" lon="0.1237420000"><ele>1108</ele><time>2026-03-21T10:07:26Z</time></trkpt>
<trkpt lat="43.0380300000" lon="0.1237750000"><ele>1108</ele><time>2026-03-21T10:07:28Z</time></trkpt>
<trkpt lat="43.0380150000" lon="0.1238050000"><ele>1108</ele><time>2026-03-21T10:07:30Z</time></trkpt>
<trkpt lat="43.0380020000" lon="0.1238270000"><ele>1108</ele><time>2026-03-21T10:07:32Z</time></trkpt>
<trkpt lat="43.0379970000" lon="0.1238520000"><ele>1108</ele><time>2026-03-21T10:07:34Z</time></trkpt>
<trkpt lat="43.0379870000" lon="0.1238820000"><ele>1108</ele><time>2026-03-21T10:07:36Z</time></trkpt>
<trkpt lat="43.0379820000" lon="0.1239070000"><ele>1108</ele><time>2026-03-21T10:07:38Z</time></trkpt>
<trkpt lat="43.0379720000" lon="0.1239370000"><ele>1108</ele><time>2026-03-21T10:07:40Z</time></trkpt>
<trkpt lat="43.0379620000" lon="0.1239620000"><ele>1108</ele><time>2026-03-21T10:07:42Z</time></trkpt>
<trkpt lat="43.0379520000" lon="0.1239920000"><ele>1108</ele><time>2026-03-21T10:07:44Z</time></trkpt>
<trkpt lat="43.0379420000" lon="0.1240200000"><ele>1108</ele><time>2026-03-21T10:07:46Z</time></trkpt>
<trkpt lat="43.0379320000" lon="0.1240470000"><ele>1108</ele><time>2026-03-21T10:07:48Z</time></trkpt>
<trkpt lat="43.0379250000" lon="0.1240750000"><ele>1108</ele><time>2026-03-21T10:07:50Z</time></trkpt>
<trkpt lat="43.0379150000" lon="0.1240970000"><ele>1108</ele><time>2026-03-21T10:07:52Z</time></trkpt>
<trkpt lat="43.0379050000" lon="0.1241220000"><ele>1108</ele><time>2026-03-21T10:07:54Z</time></trkpt>
<trkpt lat="43.0378950000" lon="0.1241470000"><ele>1108</ele><time>2026-03-21T10:07:56Z</time></trkpt>
<trkpt lat="43.0378820000" lon="0.1241720000"><ele>1108</ele><time>2026-03-21T10:07:58Z</time></trkpt>
<trkpt lat="43.0378750000" lon="0.1241970000"><ele>1108</ele><time>2026-03-21T10:08:00Z</time></trkpt>
<trkpt lat="43.0378630000" lon="0.1242250000"><ele>1108</ele><time>2026-03-21T10:08:02Z</time></trkpt>
<trkpt lat="43.0378520000" lon="0.1242570000"><ele>1108</ele><time>2026-03-21T10:08:04Z</time></trkpt>
<trkpt lat="43.0378420000" lon="0.1242770000"><ele>1108</ele><time>2026-03-21T10:08:06Z</time></trkpt>
<trkpt lat="43.0378320000" lon="0.1243070000"><ele>1108</ele><time>2026-03-21T10:08:08Z</time></trkpt>
<trkpt lat="43.0378200000" lon="0.1243320000"><ele>1108</ele><time>2026-03-21T10:08:10Z</time></trkpt>
<trkpt lat="43.0378100000" lon="0.1243550000"><ele>1108</ele><time>2026-03-21T10:08:12Z</time></trkpt>
<trkpt lat="43.0378000000" lon="0.1243800000"><ele>1108</ele><time>2026-03-21T10:08:14Z</time></trkpt>
<trkpt lat="43.0377900000" lon="0.1244020000"><ele>1108</ele><time>2026-03-21T10:08:16Z</time></trkpt>
<trkpt lat="43.0377780000" lon="0.1244320000"><ele>1108</ele><time>2026-03-21T10:08:18Z</time></trkpt>
<trkpt lat="43.0377700000" lon="0.1244530000"><ele>1108</ele><time>2026-03-21T10:08:20Z</time></trkpt>
<trkpt lat="43.0377620000" lon="0.1244780000"><ele>1108</ele><time>2026-03-21T10:08:22Z</time></trkpt>
<trkpt lat="43.0377520000" lon="0.1245100000"><ele>1108</ele><time>2026-03-21T10:08:24Z</time></trkpt>
<trkpt lat="43.0377420000" lon="0.1245420000"><ele>1108</ele><time>2026-03-21T10:08:27Z</time></trkpt>
<trkpt lat="43.0377300000" lon="0.1245770000"><ele>1107</ele><time>2026-03-21T10:08:30Z</time></trkpt>
<trkpt lat="43.0377250000" lon="0.1246070000"><ele>1107</ele><time>2026-03-21T10:08:32Z</time></trkpt>
<trkpt lat="43.0377150000" lon="0.1246350000"><ele>1107</ele><time>2026-03-21T10:08:34Z</time></trkpt>
<trkpt lat="43.0377070000" lon="0.1246620000"><ele>1107</ele><time>2026-03-21T10:08:36Z</time></trkpt>
<trkpt lat="43.0376970000" lon="0.1246870000"><ele>1107</ele><time>2026-03-21T10:08:38Z</time></trkpt>
<trkpt lat="43.0376900000" lon="0.1247150000"><ele>1107</ele><time>2026-03-21T10:08:40Z</time></trkpt>
<trkpt lat="43.0376820000" lon="0.1247370000"><ele>1107</ele><time>2026-03-21T10:08:42Z</time></trkpt>
<trkpt lat="43.0376670000" lon="0.1247620000"><ele>1106</ele><time>2026-03-21T10:08:45Z</time></trkpt>
<trkpt lat="43.0376570000" lon="0.1247850000"><ele>1106</ele><time>2026-03-21T10:08:47Z</time></trkpt>
<trkpt lat="43.0376470000" lon="0.1248120000"><ele>1106</ele><time>2026-03-21T10:08:49Z</time></trkpt>
<trkpt lat="43.0376400000" lon="0.1248550000"><ele>1106</ele><time>2026-03-21T10:08:51Z</time></trkpt>
<trkpt lat="43.0376350000" lon="0.1248870000"><ele>1106</ele><time>2026-03-21T10:08:53Z</time></trkpt>
<trkpt lat="43.0376230000" lon="0.1249170000"><ele>1106</ele><time>2026-03-21T10:08:55Z</time></trkpt>
<trkpt lat="43.0376120000" lon="0.1249430000"><ele>1106</ele><time>2026-03-21T10:08:57Z</time></trkpt>
<trkpt lat="43.0376000000" lon="0.1249720000"><ele>1106</ele><time>2026-03-21T10:08:59Z</time></trkpt>
<trkpt lat="43.0375870000" lon="0.1249970000"><ele>1105</ele><time>2026-03-21T10:09:01Z</time></trkpt>
<trkpt lat="43.0375770000" lon="0.1250170000"><ele>1105</ele><time>2026-03-21T10:09:03Z</time></trkpt>
<trkpt lat="43.0375670000" lon="0.1250450000"><ele>1105</ele><time>2026-03-21T10:09:06Z</time></trkpt>
<trkpt lat="43.0375530000" lon="0.1250770000"><ele>1105</ele><time>2026-03-21T10:09:09Z</time></trkpt>
<trkpt lat="43.0375450000" lon="0.1250980000"><ele>1105</ele><time>2026-03-21T10:09:11Z</time></trkpt>
<trkpt lat="43.0375350000" lon="0.1251230000"><ele>1104</ele><time>2026-03-21T10:09:13Z</time></trkpt>
<trkpt lat="43.0375220000" lon="0.1251450000"><ele>1104</ele><time>2026-03-21T10:09:15Z</time></trkpt>
<trkpt lat="43.0375120000" lon="0.1251700000"><ele>1104</ele><time>2026-03-21T10:09:23Z</time></trkpt>
<trkpt lat="43.0375070000" lon="0.1252020000"><ele>1104</ele><time>2026-03-21T10:09:26Z</time></trkpt>
<trkpt lat="43.0375020000" lon="0.1252250000"><ele>1103</ele><time>2026-03-21T10:09:28Z</time></trkpt>
<trkpt lat="43.0374900000" lon="0.1252470000"><ele>1103</ele><time>2026-03-21T10:09:30Z</time></trkpt>
<trkpt lat="43.0374800000" lon="0.1252720000"><ele>1103</ele><time>2026-03-21T10:09:32Z</time></trkpt>
<trkpt lat="43.0374670000" lon="0.1253020000"><ele>1102</ele><time>2026-03-21T10:09:35Z</time></trkpt>
<trkpt lat="43.0374570000" lon="0.1253250000"><ele>1102</ele><time>2026-03-21T10:09:37Z</time></trkpt>
<trkpt lat="43.0374450000" lon="0.1253530000"><ele>1101</ele><time>2026-03-21T10:09:40Z</time></trkpt>
<trkpt lat="43.0374270000" lon="0.1253820000"><ele>1101</ele><time>2026-03-21T10:09:43Z</time></trkpt>
<trkpt lat="43.0374150000" lon="0.1254170000"><ele>1101</ele><time>2026-03-21T10:09:46Z</time></trkpt>
<trkpt lat="43.0374020000" lon="0.1254470000"><ele>1100</ele><time>2026-03-21T10:09:49Z</time></trkpt>
<trkpt lat="43.0373900000" lon="0.1254670000"><ele>1100</ele><time>2026-03-21T10:09:51Z</time></trkpt>
<trkpt lat="43.0373750000" lon="0.1254980000"><ele>1099</ele><time>2026-03-21T10:09:54Z</time></trkpt>
<trkpt lat="43.0373670000" lon="0.1255250000"><ele>1099</ele><time>2026-03-21T10:09:56Z</time></trkpt>
<trkpt lat="43.0373500000" lon="0.1255520000"><ele>1098</ele><time>2026-03-21T10:09:59Z</time></trkpt>
<trkpt lat="43.0373400000" lon="0.1255750000"><ele>1098</ele><time>2026-03-21T10:10:01Z</time></trkpt>
<trkpt lat="43.0373280000" lon="0.1256100000"><ele>1097</ele><time>2026-03-21T10:10:04Z</time></trkpt>
<trkpt lat="43.0373220000" lon="0.1256370000"><ele>1097</ele><time>2026-03-21T10:10:06Z</time></trkpt>
<trkpt lat="43.0373150000" lon="0.1256620000"><ele>1097</ele><time>2026-03-21T10:10:08Z</time></trkpt>
<trkpt lat="43.0373070000" lon="0.1256830000"><ele>1097</ele><time>2026-03-21T10:10:10Z</time></trkpt>
<trkpt lat="43.0372970000" lon="0.1257120000"><ele>1097</ele><time>2026-03-21T10:10:12Z</time></trkpt>
<trkpt lat="43.0372870000" lon="0.1257370000"><ele>1096</ele><time>2026-03-21T10:10:14Z</time></trkpt>
<trkpt lat="43.0372820000" lon="0.1257770000"><ele>1096</ele><time>2026-03-21T10:10:16Z</time></trkpt>
<trkpt lat="43.0372800000" lon="0.1258070000"><ele>1096</ele><time>2026-03-21T10:10:18Z</time></trkpt>
<trkpt lat="43.0372620000" lon="0.1258320000"><ele>1095</ele><time>2026-03-21T10:10:21Z</time></trkpt>
<trkpt lat="43.0372470000" lon="0.1258620000"><ele>1095</ele><time>2026-03-21T10:10:24Z</time></trkpt>
<trkpt lat="43.0372270000" lon="0.1258820000"><ele>1095</ele><time>2026-03-21T10:10:26Z</time></trkpt>
<trkpt lat="43.0372100000" lon="0.1259000000"><ele>1094</ele><time>2026-03-21T10:10:28Z</time></trkpt>
<trkpt lat="43.0371970000" lon="0.1259320000"><ele>1094</ele><time>2026-03-21T10:10:31Z</time></trkpt>
<trkpt lat="43.0371920000" lon="0.1259650000"><ele>1094</ele><time>2026-03-21T10:10:33Z</time></trkpt>
<trkpt lat="43.0371870000" lon="0.1259950000"><ele>1094</ele><time>2026-03-21T10:10:35Z</time></trkpt>
<trkpt lat="43.0371820000" lon="0.1260220000"><ele>1093</ele><time>2026-03-21T10:10:37Z</time></trkpt>
<trkpt lat="43.0371770000" lon="0.1260480000"><ele>1093</ele><time>2026-03-21T10:10:39Z</time></trkpt>
<trkpt lat="43.0371720000" lon="0.1260770000"><ele>1093</ele><time>2026-03-21T10:10:41Z</time></trkpt>
<trkpt lat="43.0371650000" lon="0.1261020000"><ele>1093</ele><time>2026-03-21T10:10:43Z</time></trkpt>
<trkpt lat="43.0371570000" lon="0.1261320000"><ele>1092</ele><time>2026-03-21T10:10:45Z</time></trkpt>
<trkpt lat="43.0371450000" lon="0.1261570000"><ele>1092</ele><time>2026-03-21T10:10:47Z</time></trkpt>
<trkpt lat="43.0371320000" lon="0.1261820000"><ele>1092</ele><time>2026-03-21T10:10:49Z</time></trkpt>
<trkpt lat="43.0371250000" lon="0.1262120000"><ele>1092</ele><time>2026-03-21T10:10:51Z</time></trkpt>
<trkpt lat="43.0371170000" lon="0.1262380000"><ele>1092</ele><time>2026-03-21T10:10:53Z</time></trkpt>
<trkpt lat="43.0371070000" lon="0.1262670000"><ele>1092</ele><time>2026-03-21T10:10:55Z</time></trkpt>
<trkpt lat="43.0370970000" lon="0.1262970000"><ele>1092</ele><time>2026-03-21T10:10:57Z</time></trkpt>
<trkpt lat="43.0370870000" lon="0.1263220000"><ele>1092</ele><time>2026-03-21T10:10:59Z</time></trkpt>
<trkpt lat="43.0370770000" lon="0.1263470000"><ele>1092</ele><time>2026-03-21T10:11:01Z</time></trkpt>
<trkpt lat="43.0370650000" lon="0.1263700000"><ele>1092</ele><time>2026-03-21T10:11:03Z</time></trkpt>
<trkpt lat="43.0370520000" lon="0.1263950000"><ele>1091</ele><time>2026-03-21T10:11:05Z</time></trkpt>
<trkpt lat="43.0370370000" lon="0.1264200000"><ele>1091</ele><time>2026-03-21T10:11:07Z</time></trkpt>
<trkpt lat="43.0370250000" lon="0.1264420000"><ele>1091</ele><time>2026-03-21T10:11:09Z</time></trkpt>
<trkpt lat="43.0370150000" lon="0.1264680000"><ele>1091</ele><time>2026-03-21T10:11:11Z</time></trkpt>
<trkpt lat="43.0370020000" lon="0.1265000000"><ele>1091</ele><time>2026-03-21T10:11:13Z</time></trkpt>
<trkpt lat="43.0369870000" lon="0.1265220000"><ele>1091</ele><time>2026-03-21T10:11:15Z</time></trkpt>
<trkpt lat="43.0369750000" lon="0.1265420000"><ele>1091</ele><time>2026-03-21T10:11:17Z</time></trkpt>
<trkpt lat="43.0369600000" lon="0.1265600000"><ele>1091</ele><time>2026-03-21T10:11:19Z</time></trkpt>
<trkpt lat="43.0369450000" lon="0.1265770000"><ele>1091</ele><time>2026-03-21T10:11:21Z</time></trkpt>
<trkpt lat="43.0369320000" lon="0.1265950000"><ele>1091</ele><time>2026-03-21T10:11:23Z</time></trkpt>
<trkpt lat="43.0369200000" lon="0.1266200000"><ele>1090</ele><time>2026-03-21T10:11:25Z</time></trkpt>
<trkpt lat="43.0369070000" lon="0.1266500000"><ele>1090</ele><time>2026-03-21T10:11:27Z</time></trkpt>
<trkpt lat="43.0368970000" lon="0.1266850000"><ele>1090</ele><time>2026-03-21T10:11:29Z</time></trkpt>
<trkpt lat="43.0368870000" lon="0.1267220000"><ele>1090</ele><time>2026-03-21T10:11:31Z</time></trkpt>
<trkpt lat="43.0368750000" lon="0.1267570000"><ele>1090</ele><time>2026-03-21T10:11:33Z</time></trkpt>
<trkpt lat="43.0368600000" lon="0.1267870000"><ele>1090</ele><time>2026-03-21T10:11:35Z</time></trkpt>
<trkpt lat="43.0368470000" lon="0.1268170000"><ele>1090</ele><time>2026-03-21T10:11:37Z</time></trkpt>
<trkpt lat="43.0368370000" lon="0.1268520000"><ele>1090</ele><time>2026-03-21T10:11:39Z</time></trkpt>
<trkpt lat="43.0368300000" lon="0.1268780000"><ele>1090</ele><time>2026-03-21T10:11:41Z</time></trkpt>
<trkpt lat="43.0368270000" lon="0.1269070000"><ele>1090</ele><time>2026-03-21T10:11:44Z</time></trkpt>
<trkpt lat="43.0368050000" lon="0.1269080000"><ele>1090</ele><time>2026-03-21T10:11:59Z</time></trkpt>
<trkpt lat="43.0367800000" lon="0.1269200000"><ele>1090</ele><time>2026-03-21T10:12:01Z</time></trkpt>
<trkpt lat="43.0367570000" lon="0.1269420000"><ele>1090</ele><time>2026-03-21T10:12:03Z</time></trkpt>
<trkpt lat="43.0367420000" lon="0.1269720000"><ele>1090</ele><time>2026-03-21T10:12:05Z</time></trkpt>
<trkpt lat="43.0367270000" lon="0.1270050000"><ele>1090</ele><time>2026-03-21T10:12:09Z</time></trkpt>
<trkpt lat="43.0367150000" lon="0.1270320000"><ele>1090</ele><time>2026-03-21T10:12:11Z</time></trkpt>
<trkpt lat="43.0367020000" lon="0.1270570000"><ele>1090</ele><time>2026-03-21T10:12:13Z</time></trkpt>
<trkpt lat="43.0366900000" lon="0.1270850000"><ele>1090</ele><time>2026-03-21T10:12:15Z</time></trkpt>
<trkpt lat="43.0366770000" lon="0.1271100000"><ele>1090</ele><time>2026-03-21T10:12:17Z</time></trkpt>
<trkpt lat="43.0366620000" lon="0.1271370000"><ele>1090</ele><time>2026-03-21T10:12:19Z</time></trkpt>
<trkpt lat="43.0366550000" lon="0.1271620000"><ele>1090</ele><time>2026-03-21T10:12:21Z</time></trkpt>
<trkpt lat="43.0366470000" lon="0.1271950000"><ele>1090</ele><time>2026-03-21T10:12:24Z</time></trkpt>
<trkpt lat="43.0366320000" lon="0.1272250000"><ele>1090</ele><time>2026-03-21T10:12:27Z</time></trkpt>
<trkpt lat="43.0366200000" lon="0.1272420000"><ele>1090</ele><time>2026-03-21T10:12:29Z</time></trkpt>
<trkpt lat="43.0366070000" lon="0.1272650000"><ele>1090</ele><time>2026-03-21T10:12:31Z</time></trkpt>
<trkpt lat="43.0365920000" lon="0.1272820000"><ele>1090</ele><time>2026-03-21T10:12:33Z</time></trkpt>
<trkpt lat="43.0365720000" lon="0.1272980000"><ele>1090</ele><time>2026-03-21T10:12:36Z</time></trkpt>
<trkpt lat="43.0365520000" lon="0.1273070000"><ele>1090</ele><time>2026-03-21T10:12:39Z</time></trkpt>
<trkpt lat="43.0365350000" lon="0.1273120000"><ele>1090</ele><time>2026-03-21T10:12:42Z</time></trkpt>
<trkpt lat="43.0365170000" lon="0.1273350000"><ele>1090</ele><time>2026-03-21T10:12:45Z</time></trkpt>
<trkpt lat="43.0365050000" lon="0.1273700000"><ele>1091</ele><time>2026-03-21T10:12:47Z</time></trkpt>
<trkpt lat="43.0364970000" lon="0.1273920000"><ele>1091</ele><time>2026-03-21T10:12:48Z</time></trkpt>
<trkpt lat="43.0364820000" lon="0.1274330000"><ele>1091</ele><time>2026-03-21T10:12:50Z</time></trkpt>
<trkpt lat="43.0364720000" lon="0.1274630000"><ele>1091</ele><time>2026-03-21T10:12:52Z</time></trkpt>
<trkpt lat="43.0364520000" lon="0.1274670000"><ele>1091</ele><time>2026-03-21T10:13:05Z</time></trkpt>
<trkpt lat="43.0364320000" lon="0.1274920000"><ele>1091</ele><time>2026-03-21T10:13:07Z</time></trkpt>
<trkpt lat="43.0364170000" lon="0.1275170000"><ele>1091</ele><time>2026-03-21T10:13:09Z</time></trkpt>
<trkpt lat="43.0364020000" lon="0.1275400000"><ele>1091</ele><time>2026-03-21T10:13:11Z</time></trkpt>
<trkpt lat="43.0363920000" lon="0.1275620000"><ele>1091</ele><time>2026-03-21T10:13:13Z</time></trkpt>
<trkpt lat="43.0363820000" lon="0.1275870000"><ele>1091</ele><time>2026-03-21T10:13:15Z</time></trkpt>
<trkpt lat="43.0363700000" lon="0.1276100000"><ele>1091</ele><time>2026-03-21T10:13:17Z</time></trkpt>
<trkpt lat="43.0363570000" lon="0.1276370000"><ele>1091</ele><time>2026-03-21T10:13:19Z</time></trkpt>
<trkpt lat="43.0363470000" lon="0.1276650000"><ele>1091</ele><time>2026-03-21T10:13:21Z</time></trkpt>
<trkpt lat="43.0363370000" lon="0.1276920000"><ele>1091</ele><time>2026-03-21T10:13:23Z</time></trkpt>
<trkpt lat="43.0363300000" lon="0.1277170000"><ele>1091</ele><time>2026-03-21T10:13:25Z</time></trkpt>
<trkpt lat="43.0363170000" lon="0.1277420000"><ele>1091</ele><time>2026-03-21T10:13:27Z</time></trkpt>
<trkpt lat="43.0363070000" lon="0.1277670000"><ele>1091</ele><time>2026-03-21T10:13:29Z</time></trkpt>
<trkpt lat="43.0362920000" lon="0.1277970000"><ele>1091</ele><time>2026-03-21T10:13:32Z</time></trkpt>
<trkpt lat="43.0362820000" lon="0.1278200000"><ele>1091</ele><time>2026-03-21T10:13:34Z</time></trkpt>
<trkpt lat="43.0362700000" lon="0.1278520000"><ele>1092</ele><time>2026-03-21T10:13:37Z</time></trkpt>
<trkpt lat="43.0362600000" lon="0.1278770000"><ele>1092</ele><time>2026-03-21T10:13:39Z</time></trkpt>
<trkpt lat="43.0362500000" lon="0.1279020000"><ele>1092</ele><time>2026-03-21T10:13:41Z</time></trkpt>
<trkpt lat="43.0362370000" lon="0.1279320000"><ele>1092</ele><time>2026-03-21T10:13:44Z</time></trkpt>
<trkpt lat="43.0362300000" lon="0.1279570000"><ele>1092</ele><time>2026-03-21T10:13:46Z</time></trkpt>
<trkpt lat="43.0362220000" lon="0.1279870000"><ele>1092</ele><time>2026-03-21T10:13:49Z</time></trkpt>
<trkpt lat="43.0362070000" lon="0.1280100000"><ele>1092</ele><time>2026-03-21T10:13:52Z</time></trkpt>
<trkpt lat="43.0361950000" lon="0.1280380000"><ele>1092</ele><time>2026-03-21T10:13:55Z</time></trkpt>
<trkpt lat="43.0361870000" lon="0.1280800000"><ele>1092</ele><time>2026-03-21T10:13:57Z</time></trkpt>
<trkpt lat="43.0361770000" lon="0.1281150000"><ele>1093</ele><time>2026-03-21T10:13:59Z</time></trkpt>
<trkpt lat="43.0361720000" lon="0.1281470000"><ele>1093</ele><time>2026-03-21T10:14:01Z</time></trkpt>
<trkpt lat="43.0361650000" lon="0.1281720000"><ele>1093</ele><time>2026-03-21T10:14:03Z</time></trkpt>
<trkpt lat="43.0361570000" lon="0.1282020000"><ele>1093</ele><time>2026-03-21T10:14:06Z</time></trkpt>
<trkpt lat="43.0361420000" lon="0.1282270000"><ele>1093</ele><time>2026-03-21T10:14:09Z</time></trkpt>
<trkpt lat="43.0361320000" lon="0.1282500000"><ele>1093</ele><time>2026-03-21T10:14:11Z</time></trkpt>
<trkpt lat="43.0361170000" lon="0.1282800000"><ele>1093</ele><time>2026-03-21T10:14:14Z</time></trkpt>
<trkpt lat="43.0361020000" lon="0.1283070000"><ele>1094</ele><time>2026-03-21T10:14:17Z</time></trkpt>
<trkpt lat="43.0360870000" lon="0.1283370000"><ele>1094</ele><time>2026-03-21T10:14:20Z</time></trkpt>
<trkpt lat="43.0360750000" lon="0.1283550000"><ele>1094</ele><time>2026-03-21T10:14:22Z</time></trkpt>
<trkpt lat="43.0360620000" lon="0.1283850000"><ele>1094</ele><time>2026-03-21T10:14:25Z</time></trkpt>
<trkpt lat="43.0360520000" lon="0.1284070000"><ele>1094</ele><time>2026-03-21T10:14:27Z</time></trkpt>
<trkpt lat="43.0360400000" lon="0.1284400000"><ele>1094</ele><time>2026-03-21T10:14:30Z</time></trkpt>
<trkpt lat="43.0360270000" lon="0.1284720000"><ele>1094</ele><time>2026-03-21T10:14:33Z</time></trkpt>
<trkpt lat="43.0360170000" lon="0.1285070000"><ele>1095</ele><time>2026-03-21T10:14:36Z</time></trkpt>
<trkpt lat="43.0360070000" lon="0.1285370000"><ele>1095</ele><time>2026-03-21T10:14:39Z</time></trkpt>
<trkpt lat="43.0359970000" lon="0.1285680000"><ele>1095</ele><time>2026-03-21T10:14:42Z</time></trkpt>
<trkpt lat="43.0359920000" lon="0.1286070000"><ele>1095</ele><time>2026-03-21T10:14:45Z</time></trkpt>
<trkpt lat="43.0359870000" lon="0.1286320000"><ele>1095</ele><time>2026-03-21T10:14:47Z</time></trkpt>
<trkpt lat="43.0359770000" lon="0.1286670000"><ele>1095</ele><time>2026-03-21T10:14:50Z</time></trkpt>
<trkpt lat="43.0359670000" lon="0.1287020000"><ele>1095</ele><time>2026-03-21T10:14:53Z</time></trkpt>
<trkpt lat="43.0359600000" lon="0.1287420000"><ele>1095</ele><time>2026-03-21T10:14:56Z</time></trkpt>
<trkpt lat="43.0359500000" lon="0.1287720000"><ele>1096</ele><time>2026-03-21T10:14:59Z</time></trkpt>
<trkpt lat="43.0359420000" lon="0.1287970000"><ele>1096</ele><time>2026-03-21T10:15:01Z</time></trkpt>
<trkpt lat="43.0359300000" lon="0.1288270000"><ele>1096</ele><time>2026-03-21T10:15:04Z</time></trkpt>
<trkpt lat="43.0359170000" lon="0.1288570000"><ele>1096</ele><time>2026-03-21T10:15:08Z</time></trkpt>
<trkpt lat="43.0359100000" lon="0.1288820000"><ele>1097</ele><time>2026-03-21T10:15:11Z</time></trkpt>
<trkpt lat="43.0359020000" lon="0.1289070000"><ele>1097</ele><time>2026-03-21T10:15:13Z</time></trkpt>
<trkpt lat="43.0358930000" lon="0.1289470000"><ele>1097</ele><time>2026-03-21T10:15:15Z</time></trkpt>
<trkpt lat="43.0358920000" lon="0.1289820000"><ele>1097</ele><time>2026-03-21T10:15:17Z</time></trkpt>
<trkpt lat="43.0358870000" lon="0.1290100000"><ele>1097</ele><time>2026-03-21T10:15:19Z</time></trkpt>
<trkpt lat="43.0358820000" lon="0.1290370000"><ele>1097</ele><time>2026-03-21T10:15:22Z</time></trkpt>
<trkpt lat="43.0358770000" lon="0.1290700000"><ele>1097</ele><time>2026-03-21T10:15:25Z</time></trkpt>
<trkpt lat="43.0358670000" lon="0.1291070000"><ele>1097</ele><time>2026-03-21T10:15:28Z</time></trkpt>
<trkpt lat="43.0358620000" lon="0.1291320000"><ele>1098</ele><time>2026-03-21T10:15:30Z</time></trkpt>
<trkpt lat="43.0358520000" lon="0.1291620000"><ele>1098</ele><time>2026-03-21T10:15:33Z</time></trkpt>
<trkpt lat="43.0358470000" lon="0.1291970000"><ele>1098</ele><time>2026-03-21T10:15:36Z</time></trkpt>
<trkpt lat="43.0358420000" lon="0.1292220000"><ele>1098</ele><time>2026-03-21T10:15:38Z</time></trkpt>
<trkpt lat="43.0358400000" lon="0.1292520000"><ele>1098</ele><time>2026-03-21T10:15:40Z</time></trkpt>
<trkpt lat="43.0358370000" lon="0.1292770000"><ele>1098</ele><time>2026-03-21T10:15:42Z</time></trkpt>
<trkpt lat="43.0358370000" lon="0.1293070000"><ele>1098</ele><time>2026-03-21T10:15:44Z</time></trkpt>
<trkpt lat="43.0358350000" lon="0.1293320000"><ele>1098</ele><time>2026-03-21T10:15:46Z</time></trkpt>
<trkpt lat="43.0358350000" lon="0.1293570000"><ele>1098</ele><time>2026-03-21T10:15:48Z</time></trkpt>
<trkpt lat="43.0358300000" lon="0.1293920000"><ele>1098</ele><time>2026-03-21T10:15:51Z</time></trkpt>
<trkpt lat="43.0358270000" lon="0.1294270000"><ele>1098</ele><time>2026-03-21T10:15:54Z</time></trkpt>
<trkpt lat="43.0358250000" lon="0.1294520000"><ele>1098</ele><time>2026-03-21T10:15:56Z</time></trkpt>
<trkpt lat="43.0358200000" lon="0.1294870000"><ele>1099</ele><time>2026-03-21T10:15:59Z</time></trkpt>
<trkpt lat="43.0358170000" lon="0.1295120000"><ele>1099</ele><time>2026-03-21T10:16:01Z</time></trkpt>
<trkpt lat="43.0358170000" lon="0.1295370000"><ele>1099</ele><time>2026-03-21T10:16:03Z</time></trkpt>
<trkpt lat="43.0358150000" lon="0.1295620000"><ele>1099</ele><time>2026-03-21T10:16:05Z</time></trkpt>
<trkpt lat="43.0358170000" lon="0.1295970000"><ele>1099</ele><time>2026-03-21T10:16:08Z</time></trkpt>
<trkpt lat="43.0358170000" lon="0.1296320000"><ele>1099</ele><time>2026-03-21T10:16:11Z</time></trkpt>
<trkpt lat="43.0358220000" lon="0.1296670000"><ele>1099</ele><time>2026-03-21T10:16:14Z</time></trkpt>
<trkpt lat="43.0358170000" lon="0.1297020000"><ele>1100</ele><time>2026-03-21T10:16:17Z</time></trkpt>
<trkpt lat="43.0358170000" lon="0.1297370000"><ele>1100</ele><time>2026-03-21T10:16:20Z</time></trkpt>
<trkpt lat="43.0358120000" lon="0.1297720000"><ele>1100</ele><time>2026-03-21T10:16:39Z</time></trkpt>
<trkpt lat="43.0358080000" lon="0.1298180000"><ele>1100</ele><time>2026-03-21T10:16:41Z</time></trkpt>
<trkpt lat="43.0358120000" lon="0.1298620000"><ele>1100</ele><time>2026-03-21T10:16:43Z</time></trkpt>
<trkpt lat="43.0358080000" lon="0.1298900000"><ele>1100</ele><time>2026-03-21T10:16:45Z</time></trkpt>
<trkpt lat="43.0358050000" lon="0.1299200000"><ele>1100</ele><time>2026-03-21T10:16:48Z</time></trkpt>
<trkpt lat="43.0358000000" lon="0.1299470000"><ele>1100</ele><time>2026-03-21T10:16:51Z</time></trkpt>
<trkpt lat="43.0357920000" lon="0.1299770000"><ele>1101</ele><time>2026-03-21T10:16:54Z</time></trkpt>
<trkpt lat="43.0357820000" lon="0.1300020000"><ele>1101</ele><time>2026-03-21T10:16:57Z</time></trkpt>
<trkpt lat="43.0357750000" lon="0.1300350000"><ele>1101</ele><time>2026-03-21T10:17:00Z</time></trkpt>
<trkpt lat="43.0357700000" lon="0.1300630000"><ele>1102</ele><time>2026-03-21T10:17:03Z</time></trkpt>
<trkpt lat="43.0357670000" lon="0.1300930000"><ele>1102</ele><time>2026-03-21T10:17:06Z</time></trkpt>
<trkpt lat="43.0357620000" lon="0.1301320000"><ele>1102</ele><time>2026-03-21T10:17:09Z</time></trkpt>
<trkpt lat="43.0357620000" lon="0.1301570000"><ele>1102</ele><time>2026-03-21T10:17:11Z</time></trkpt>
<trkpt lat="43.0357600000" lon="0.1301820000"><ele>1102</ele><time>2026-03-21T10:17:13Z</time></trkpt>
<trkpt lat="43.0357620000" lon="0.1302130000"><ele>1103</ele><time>2026-03-21T10:17:16Z</time></trkpt>
<trkpt lat="43.0357670000" lon="0.1302500000"><ele>1103</ele><time>2026-03-21T10:17:19Z</time></trkpt>
<trkpt lat="43.0357670000" lon="0.1302770000"><ele>1103</ele><time>2026-03-21T10:17:22Z</time></trkpt>
<trkpt lat="43.0357600000" lon="0.1303050000"><ele>1103</ele><time>2026-03-21T10:17:25Z</time></trkpt>
<trkpt lat="43.0357570000" lon="0.1303350000"><ele>1103</ele><time>2026-03-21T10:17:28Z</time></trkpt>
<trkpt lat="43.0357570000" lon="0.1303620000"><ele>1104</ele><time>2026-03-21T10:17:31Z</time></trkpt>
<trkpt lat="43.0357570000" lon="0.1303900000"><ele>1104</ele><time>2026-03-21T10:17:34Z</time></trkpt>
<trkpt lat="43.0357620000" lon="0.1304220000"><ele>1104</ele><time>2026-03-21T10:17:37Z</time></trkpt>
<trkpt lat="43.0357620000" lon="0.1304520000"><ele>1105</ele><time>2026-03-21T10:17:40Z</time></trkpt>
<trkpt lat="43.0357620000" lon="0.1304820000"><ele>1105</ele><time>2026-03-21T10:17:43Z</time></trkpt>
<trkpt lat="43.0357620000" lon="0.1305080000"><ele>1105</ele><time>2026-03-21T10:17:46Z</time></trkpt>
<trkpt lat="43.0357670000" lon="0.1305370000"><ele>1105</ele><time>2026-03-21T10:17:49Z</time></trkpt>
<trkpt lat="43.0357720000" lon="0.1305670000"><ele>1105</ele><time>2026-03-21T10:17:52Z</time></trkpt>
<trkpt lat="43.0357720000" lon="0.1305970000"><ele>1106</ele><time>2026-03-21T10:17:55Z</time></trkpt>
<trkpt lat="43.0357720000" lon="0.1306270000"><ele>1106</ele><time>2026-03-21T10:17:58Z</time></trkpt>
<trkpt lat="43.0357720000" lon="0.1306530000"><ele>1106</ele><time>2026-03-21T10:18:01Z</time></trkpt>
<trkpt lat="43.0357720000" lon="0.1306780000"><ele>1106</ele><time>2026-03-21T10:18:04Z</time></trkpt>
<trkpt lat="43.0357770000" lon="0.1307030000"><ele>1107</ele><time>2026-03-21T10:18:07Z</time></trkpt>
<trkpt lat="43.0357820000" lon="0.1307350000"><ele>1107</ele><time>2026-03-21T10:18:10Z</time></trkpt>
<trkpt lat="43.0357870000" lon="0.1307670000"><ele>1108</ele><time>2026-03-21T10:18:14Z</time></trkpt>
<trkpt lat="43.0357900000" lon="0.1307920000"><ele>1108</ele><time>2026-03-21T10:18:17Z</time></trkpt>
<trkpt lat="43.0358000000" lon="0.1308170000"><ele>1108</ele><time>2026-03-21T10:18:20Z</time></trkpt>
<trkpt lat="43.0358050000" lon="0.1308500000"><ele>1109</ele><time>2026-03-21T10:18:24Z</time></trkpt>
<trkpt lat="43.0358120000" lon="0.1308770000"><ele>1109</ele><time>2026-03-21T10:18:28Z</time></trkpt>
<trkpt lat="43.0358220000" lon="0.1309020000"><ele>1109</ele><time>2026-03-21T10:18:32Z</time></trkpt>
<trkpt lat="43.0358250000" lon="0.1309320000"><ele>1110</ele><time>2026-03-21T10:18:36Z</time></trkpt>
<trkpt lat="43.0358350000" lon="0.1309570000"><ele>1110</ele><time>2026-03-21T10:18:40Z</time></trkpt>
<trkpt lat="43.0358520000" lon="0.1309720000"><ele>1111</ele><time>2026-03-21T10:18:44Z</time></trkpt>
<trkpt lat="43.0358700000" lon="0.1310070000"><ele>1113</ele><time>2026-03-21T10:19:11Z</time></trkpt>
<trkpt lat="43.0358720000" lon="0.1310380000"><ele>1113</ele><time>2026-03-21T10:19:12Z</time></trkpt>
<trkpt lat="43.0358770000" lon="0.1310720000"><ele>1113</ele><time>2026-03-21T10:19:13Z</time></trkpt>
<trkpt lat="43.0358800000" lon="0.1311020000"><ele>1113</ele><time>2026-03-21T10:19:14Z</time></trkpt>
<trkpt lat="43.0358850000" lon="0.1311370000"><ele>1114</ele><time>2026-03-21T10:19:16Z</time></trkpt>
<trkpt lat="43.0358870000" lon="0.1311620000"><ele>1114</ele><time>2026-03-21T10:19:19Z</time></trkpt>
<trkpt lat="43.0359070000" lon="0.1311720000"><ele>1114</ele><time>2026-03-21T10:19:23Z</time></trkpt>
<trkpt lat="43.0359120000" lon="0.1312020000"><ele>1115</ele><time>2026-03-21T10:19:28Z</time></trkpt>
<trkpt lat="43.0359120000" lon="0.1312320000"><ele>1115</ele><time>2026-03-21T10:19:33Z</time></trkpt>
<trkpt lat="43.0359170000" lon="0.1312580000"><ele>1116</ele><time>2026-03-21T10:19:38Z</time></trkpt>
<trkpt lat="43.0359200000" lon="0.1312870000"><ele>1116</ele><time>2026-03-21T10:19:42Z</time></trkpt>
<trkpt lat="43.0359250000" lon="0.1313130000"><ele>1117</ele><time>2026-03-21T10:19:47Z</time></trkpt>
<trkpt lat="43.0359320000" lon="0.1313400000"><ele>1118</ele><time>2026-03-21T10:19:51Z</time></trkpt>
<trkpt lat="43.0359470000" lon="0.1313620000"><ele>1118</ele><time>2026-03-21T10:19:55Z</time></trkpt>
<trkpt lat="43.0359620000" lon="0.1313850000"><ele>1119</ele><time>2026-03-21T10:19:59Z</time></trkpt>
<trkpt lat="43.0359720000" lon="0.1314070000"><ele>1119</ele><time>2026-03-21T10:20:03Z</time></trkpt>
<trkpt lat="43.0359770000" lon="0.1314350000"><ele>1120</ele><time>2026-03-21T10:20:07Z</time></trkpt>
<trkpt lat="43.0359850000" lon="0.1314620000"><ele>1121</ele><time>2026-03-21T10:20:13Z</time></trkpt>
<trkpt lat="43.0359950000" lon="0.1314870000"><ele>1121</ele><time>2026-03-21T10:20:17Z</time></trkpt>
<trkpt lat="43.0359870000" lon="0.1315080000"><ele>1123</ele><time>2026-03-21T10:20:36Z</time></trkpt>
<trkpt lat="43.0360020000" lon="0.1314920000"><ele>1122</ele><time>2026-03-21T10:20:40Z</time></trkpt>
<trkpt lat="43.0360250000" lon="0.1315120000"><ele>1123</ele><time>2026-03-21T10:20:43Z</time></trkpt>
<trkpt lat="43.0360330000" lon="0.1315420000"><ele>1123</ele><time>2026-03-21T10:20:46Z</time></trkpt>
<trkpt lat="43.0360500000" lon="0.1315700000"><ele>1124</ele><time>2026-03-21T10:20:52Z</time></trkpt>
<trkpt lat="43.0360620000" lon="0.1315930000"><ele>1124</ele><time>2026-03-21T10:20:55Z</time></trkpt>
<trkpt lat="43.0360770000" lon="0.1316180000"><ele>1125</ele><time>2026-03-21T10:20:59Z</time></trkpt>
<trkpt lat="43.0360850000" lon="0.1316520000"><ele>1125</ele><time>2026-03-21T10:21:04Z</time></trkpt>
<trkpt lat="43.0360950000" lon="0.1316770000"><ele>1126</ele><time>2026-03-21T10:21:08Z</time></trkpt>
<trkpt lat="43.0361170000" lon="0.1316870000"><ele>1126</ele><time>2026-03-21T10:21:11Z</time></trkpt>
<trkpt lat="43.0361350000" lon="0.1317070000"><ele>1127</ele><time>2026-03-21T10:21:15Z</time></trkpt>
<trkpt lat="43.0361470000" lon="0.1317250000"><ele>1127</ele><time>2026-03-21T10:21:18Z</time></trkpt>
<trkpt lat="43.0361320000" lon="0.1317430000"><ele>1127</ele><time>2026-03-21T10:21:21Z</time></trkpt>
<trkpt lat="43.0361170000" lon="0.1317620000"><ele>1128</ele><time>2026-03-21T10:21:24Z</time></trkpt>
<trkpt lat="43.0361020000" lon="0.1317520000"><ele>1129</ele><time>2026-03-21T10:27:28Z</time></trkpt>
<trkpt lat="43.0360850000" lon="0.1317420000"><ele>1129</ele><time>2026-03-21T10:27:30Z</time></trkpt>
<trkpt lat="43.0360970000" lon="0.1317150000"><ele>1128</ele><time>2026-03-21T10:28:46Z</time></trkpt>
<trkpt lat="43.0361120000" lon="0.1316970000"><ele>1129</ele><time>2026-03-21T10:28:49Z</time></trkpt>
<trkpt lat="43.0361320000" lon="0.1317170000"><ele>1128</ele><time>2026-03-21T10:31:39Z</time></trkpt>
<trkpt lat="43.0361300000" lon="0.1317420000"><ele>1128</ele><time>2026-03-21T10:32:12Z</time></trkpt>
<trkpt lat="43.0361100000" lon="0.1317420000"><ele>1129</ele><time>2026-03-21T10:32:14Z</time></trkpt>
<trkpt lat="43.0360870000" lon="0.1317420000"><ele>1129</ele><time>2026-03-21T10:32:16Z</time></trkpt>
<trkpt lat="43.0360620000" lon="0.1317430000"><ele>1129</ele><time>2026-03-21T10:32:18Z</time></trkpt>
<trkpt lat="43.0360400000" lon="0.1317520000"><ele>1129</ele><time>2026-03-21T10:32:20Z</time></trkpt>
<trkpt lat="43.0360200000" lon="0.1317700000"><ele>1129</ele><time>2026-03-21T10:32:23Z</time></trkpt>
<trkpt lat="43.0360050000" lon="0.1317970000"><ele>1130</ele><time>2026-03-21T10:32:27Z</time></trkpt>
<trkpt lat="43.0360250000" lon="0.1317950000"><ele>1130</ele><time>2026-03-21T10:32:33Z</time></trkpt>
<trkpt lat="43.0360420000" lon="0.1317970000"><ele>1131</ele><time>2026-03-21T10:32:35Z</time></trkpt>
<trkpt lat="43.0360620000" lon="0.1318200000"><ele>1137</ele><time>2026-03-21T10:33:26Z</time></trkpt>
<trkpt lat="43.0360870000" lon="0.1318450000"><ele>1137</ele><time>2026-03-21T10:33:27Z</time></trkpt>
<trkpt lat="43.0361170000" lon="0.1318720000"><ele>1137</ele><time>2026-03-21T10:33:28Z</time></trkpt>
<trkpt lat="43.0361450000" lon="0.1318970000"><ele>1137</ele><time>2026-03-21T10:33:29Z</time></trkpt>
<trkpt lat="43.0361670000" lon="0.1319150000"><ele>1137</ele><time>2026-03-21T10:33:30Z</time></trkpt>
<trkpt lat="43.0361820000" lon="0.1319420000"><ele>1136</ele><time>2026-03-21T10:33:32Z</time></trkpt>
<trkpt lat="43.0361870000" lon="0.1319670000"><ele>1137</ele><time>2026-03-21T10:33:34Z</time></trkpt>
<trkpt lat="43.0361750000" lon="0.1320020000"><ele>1137</ele><time>2026-03-21T10:33:36Z</time></trkpt>
<trkpt lat="43.0361950000" lon="0.1320050000"><ele>1138</ele><time>2026-03-21T10:33:52Z</time></trkpt>
<trkpt lat="43.0362200000" lon="0.1320020000"><ele>1139</ele><time>2026-03-21T10:33:54Z</time></trkpt>
<trkpt lat="43.0362370000" lon="0.1320080000"><ele>1139</ele><time>2026-03-21T10:33:56Z</time></trkpt>
<trkpt lat="43.0362600000" lon="0.1320300000"><ele>1139</ele><time>2026-03-21T10:33:59Z</time></trkpt>
<trkpt lat="43.0362820000" lon="0.1320380000"><ele>1140</ele><time>2026-03-21T10:34:03Z</time></trkpt>
<trkpt lat="43.0363000000" lon="0.1320320000"><ele>1140</ele><time>2026-03-21T10:34:06Z</time></trkpt>
<trkpt lat="43.0362920000" lon="0.1320670000"><ele>1140</ele><time>2026-03-21T10:34:09Z</time></trkpt>
<trkpt lat="43.0362870000" lon="0.1321020000"><ele>1140</ele><time>2026-03-21T10:34:12Z</time></trkpt>
<trkpt lat="43.0362870000" lon="0.1321300000"><ele>1141</ele><time>2026-03-21T10:34:14Z</time></trkpt>
<trkpt lat="43.0363070000" lon="0.1321470000"><ele>1141</ele><time>2026-03-21T10:34:17Z</time></trkpt>
<trkpt lat="43.0363070000" lon="0.1321770000"><ele>1144</ele><time>2026-03-21T10:34:44Z</time></trkpt>
<trkpt lat="43.0363070000" lon="0.1322120000"><ele>1145</ele><time>2026-03-21T10:34:47Z</time></trkpt>
<trkpt lat="43.0363320000" lon="0.1322370000"><ele>1145</ele><time>2026-03-21T10:34:50Z</time></trkpt>
<trkpt lat="43.0363500000" lon="0.1322320000"><ele>1145</ele><time>2026-03-21T10:34:52Z</time></trkpt>
<trkpt lat="43.0363720000" lon="0.1322270000"><ele>1146</ele><time>2026-03-21T10:35:00Z</time></trkpt>
<trkpt lat="43.0363800000" lon="0.1322520000"><ele>1147</ele><time>2026-03-21T10:35:04Z</time></trkpt>
<trkpt lat="43.0363770000" lon="0.1323020000"><ele>1149</ele><time>2026-03-21T10:35:22Z</time></trkpt>
<trkpt lat="43.0363700000" lon="0.1323420000"><ele>1149</ele><time>2026-03-21T10:35:23Z</time></trkpt>
<trkpt lat="43.0363650000" lon="0.1323850000"><ele>1149</ele><time>2026-03-21T10:35:24Z</time></trkpt>
<trkpt lat="43.0363600000" lon="0.1324170000"><ele>1149</ele><time>2026-03-21T10:35:25Z</time></trkpt>
<trkpt lat="43.0363620000" lon="0.1324450000"><ele>1149</ele><time>2026-03-21T10:35:27Z</time></trkpt>
<trkpt lat="43.0363850000" lon="0.1324330000"><ele>1150</ele><time>2026-03-21T10:35:36Z</time></trkpt>
<trkpt lat="43.0364070000" lon="0.1324580000"><ele>1154</ele><time>2026-03-21T10:36:09Z</time></trkpt>
<trkpt lat="43.0364300000" lon="0.1325000000"><ele>1154</ele><time>2026-03-21T10:36:10Z</time></trkpt>
<trkpt lat="43.0364600000" lon="0.1325520000"><ele>1154</ele><time>2026-03-21T10:36:11Z</time></trkpt>
<trkpt lat="43.0364870000" lon="0.1326020000"><ele>1154</ele><time>2026-03-21T10:36:12Z</time></trkpt>
<trkpt lat="43.0365070000" lon="0.1326450000"><ele>1154</ele><time>2026-03-21T10:36:13Z</time></trkpt>
<trkpt lat="43.0365170000" lon="0.1326750000"><ele>1154</ele><time>2026-03-21T10:36:14Z</time></trkpt>
<trkpt lat="43.0365220000" lon="0.1327120000"><ele>1154</ele><time>2026-03-21T10:36:16Z</time></trkpt>
<trkpt lat="43.0365200000" lon="0.1327370000"><ele>1154</ele><time>2026-03-21T10:36:18Z</time></trkpt>
<trkpt lat="43.0365120000" lon="0.1327650000"><ele>1155</ele><time>2026-03-21T10:36:22Z</time></trkpt>
<trkpt lat="43.0365020000" lon="0.1327920000"><ele>1156</ele><time>2026-03-21T10:36:28Z</time></trkpt>
<trkpt lat="43.0365020000" lon="0.1328270000"><ele>1156</ele><time>2026-03-21T10:36:32Z</time></trkpt>
<trkpt lat="43.0364980000" lon="0.1328570000"><ele>1157</ele><time>2026-03-21T10:36:38Z</time></trkpt>
<trkpt lat="43.0364800000" lon="0.1328600000"><ele>1158</ele><time>2026-03-21T10:36:44Z</time></trkpt>
<trkpt lat="43.0364620000" lon="0.1328720000"><ele>1160</ele><time>2026-03-21T10:36:58Z</time></trkpt>
<trkpt lat="43.0364420000" lon="0.1328980000"><ele>1160</ele><time>2026-03-21T10:37:00Z</time></trkpt>
<trkpt lat="43.0364320000" lon="0.1329300000"><ele>1160</ele><time>2026-03-21T10:37:02Z</time></trkpt>
<trkpt lat="43.0364320000" lon="0.1329550000"><ele>1161</ele><time>2026-03-21T10:37:05Z</time></trkpt>
<trkpt lat="43.0364200000" lon="0.1329880000"><ele>1161</ele><time>2026-03-21T10:37:10Z</time></trkpt>
<trkpt lat="43.0364220000" lon="0.1330130000"><ele>1161</ele><time>2026-03-21T10:37:13Z</time></trkpt>
<trkpt lat="43.0364170000" lon="0.1330380000"><ele>1162</ele><time>2026-03-21T10:37:16Z</time></trkpt>
<trkpt lat="43.0364130000" lon="0.1330650000"><ele>1162</ele><time>2026-03-21T10:37:20Z</time></trkpt>
<trkpt lat="43.0364050000" lon="0.1330900000"><ele>1163</ele><time>2026-03-21T10:37:24Z</time></trkpt>
<trkpt lat="43.0364000000" lon="0.1331320000"><ele>1163</ele><time>2026-03-21T10:37:27Z</time></trkpt>
<trkpt lat="43.0364120000" lon="0.1331480000"><ele>1164</ele><time>2026-03-21T10:37:31Z</time></trkpt>
<trkpt lat="43.0364070000" lon="0.1331730000"><ele>1164</ele><time>2026-03-21T10:37:36Z</time></trkpt>
<trkpt lat="43.0364070000" lon="0.1332070000"><ele>1164</ele><time>2026-03-21T10:37:39Z</time></trkpt>
<trkpt lat="43.0364130000" lon="0.1332350000"><ele>1165</ele><time>2026-03-21T10:37:42Z</time></trkpt>
<trkpt lat="43.0364070000" lon="0.1332620000"><ele>1165</ele><time>2026-03-21T10:37:47Z</time></trkpt>
<trkpt lat="43.0364120000" lon="0.1332920000"><ele>1165</ele><time>2026-03-21T10:37:50Z</time></trkpt>
<trkpt lat="43.0364000000" lon="0.1333300000"><ele>1166</ele><time>2026-03-21T10:37:53Z</time></trkpt>
<trkpt lat="43.0363920000" lon="0.1333600000"><ele>1166</ele><time>2026-03-21T10:37:56Z</time></trkpt>
<trkpt lat="43.0363900000" lon="0.1333870000"><ele>1166</ele><time>2026-03-21T10:37:59Z</time></trkpt>
<trkpt lat="43.0363720000" lon="0.1333980000"><ele>1167</ele><time>2026-03-21T10:38:03Z</time></trkpt>
<trkpt lat="43.0363620000" lon="0.1334220000"><ele>1167</ele><time>2026-03-21T10:38:07Z</time></trkpt>
<trkpt lat="43.0363520000" lon="0.1334450000"><ele>1168</ele><time>2026-03-21T10:38:10Z</time></trkpt>
<trkpt lat="43.0363350000" lon="0.1334620000"><ele>1168</ele><time>2026-03-21T10:38:13Z</time></trkpt>
<trkpt lat="43.0363170000" lon="0.1334780000"><ele>1168</ele><time>2026-03-21T10:38:16Z</time></trkpt>
<trkpt lat="43.0362970000" lon="0.1334950000"><ele>1169</ele><time>2026-03-21T10:38:20Z</time></trkpt>
<trkpt lat="43.0362770000" lon="0.1335100000"><ele>1169</ele><time>2026-03-21T10:38:23Z</time></trkpt>
<trkpt lat="43.0362700000" lon="0.1335330000"><ele>1169</ele><time>2026-03-21T10:38:25Z</time></trkpt>
<trkpt lat="43.0362570000" lon="0.1335520000"><ele>1169</ele><time>2026-03-21T10:38:30Z</time></trkpt>
<trkpt lat="43.0362450000" lon="0.1335720000"><ele>1169</ele><time>2026-03-21T10:38:33Z</time></trkpt>
<trkpt lat="43.0362250000" lon="0.1335630000"><ele>1170</ele><time>2026-03-21T10:38:38Z</time></trkpt>
<trkpt lat="43.0362020000" lon="0.1335420000"><ele>1170</ele><time>2026-03-21T10:38:40Z</time></trkpt>
<trkpt lat="43.0361800000" lon="0.1335300000"><ele>1171</ele><time>2026-03-21T10:38:43Z</time></trkpt>
<trkpt lat="43.0361550000" lon="0.1335270000"><ele>1171</ele><time>2026-03-21T10:38:47Z</time></trkpt>
<trkpt lat="43.0361320000" lon="0.1335250000"><ele>1171</ele><time>2026-03-21T10:38:50Z</time></trkpt>
<trkpt lat="43.0361170000" lon="0.1335420000"><ele>1171</ele><time>2026-03-21T10:38:53Z</time></trkpt>
<trkpt lat="43.0360970000" lon="0.1335500000"><ele>1170</ele><time>2026-03-21T10:40:18Z</time></trkpt>
<trkpt lat="43.0360720000" lon="0.1335470000"><ele>1170</ele><time>2026-03-21T10:40:21Z</time></trkpt>
<trkpt lat="43.0360800000" lon="0.1335720000"><ele>1170</ele><time>2026-03-21T10:40:34Z</time></trkpt>
<trkpt lat="43.0360820000" lon="0.1336020000"><ele>1170</ele><time>2026-03-21T10:40:36Z</time></trkpt>
<trkpt lat="43.0360900000" lon="0.1336270000"><ele>1170</ele><time>2026-03-21T10:40:38Z</time></trkpt>
<trkpt lat="43.0360900000" lon="0.1336550000"><ele>1170</ele><time>2026-03-21T10:40:40Z</time></trkpt>
<trkpt lat="43.0360920000" lon="0.1336820000"><ele>1171</ele><time>2026-03-21T10:40:43Z</time></trkpt>
<trkpt lat="43.0360720000" lon="0.1336970000"><ele>1171</ele><time>2026-03-21T10:40:46Z</time></trkpt>
<trkpt lat="43.0360520000" lon="0.1337070000"><ele>1171</ele><time>2026-03-21T10:40:49Z</time></trkpt>
<trkpt lat="43.0360270000" lon="0.1337250000"><ele>1171</ele><time>2026-03-21T10:40:52Z</time></trkpt>
<trkpt lat="43.0360050000" lon="0.1337400000"><ele>1172</ele><time>2026-03-21T10:40:56Z</time></trkpt>
<trkpt lat="43.0359820000" lon="0.1337620000"><ele>1172</ele><time>2026-03-21T10:40:59Z</time></trkpt>
<trkpt lat="43.0359630000" lon="0.1337820000"><ele>1172</ele><time>2026-03-21T10:41:02Z</time></trkpt>
<trkpt lat="43.0359450000" lon="0.1337920000"><ele>1173</ele><time>2026-03-21T10:41:09Z</time></trkpt>
<trkpt lat="43.0359300000" lon="0.1338120000"><ele>1174</ele><time>2026-03-21T10:41:12Z</time></trkpt>
<trkpt lat="43.0359120000" lon="0.1338220000"><ele>1174</ele><time>2026-03-21T10:41:14Z</time></trkpt>
<trkpt lat="43.0359100000" lon="0.1338520000"><ele>1174</ele><time>2026-03-21T10:41:16Z</time></trkpt>
<trkpt lat="43.0359020000" lon="0.1338850000"><ele>1174</ele><time>2026-03-21T10:41:19Z</time></trkpt>
<trkpt lat="43.0358770000" lon="0.1339000000"><ele>1175</ele><time>2026-03-21T10:41:22Z</time></trkpt>
<trkpt lat="43.0358600000" lon="0.1338970000"><ele>1175</ele><time>2026-03-21T10:41:25Z</time></trkpt>
<trkpt lat="43.0358350000" lon="0.1339220000"><ele>1176</ele><time>2026-03-21T10:41:30Z</time></trkpt>
<trkpt lat="43.0358200000" lon="0.1339400000"><ele>1176</ele><time>2026-03-21T10:41:32Z</time></trkpt>
<trkpt lat="43.0358070000" lon="0.1339670000"><ele>1177</ele><time>2026-03-21T10:41:34Z</time></trkpt>
<trkpt lat="43.0357970000" lon="0.1339970000"><ele>1177</ele><time>2026-03-21T10:41:36Z</time></trkpt>
<trkpt lat="43.0358000000" lon="0.1340220000"><ele>1177</ele><time>2026-03-21T10:41:39Z</time></trkpt>
<trkpt lat="43.0358120000" lon="0.1340000000"><ele>1178</ele><time>2026-03-21T10:41:47Z</time></trkpt>
<trkpt lat="43.0358300000" lon="0.1340170000"><ele>1181</ele><time>2026-03-21T10:42:09Z</time></trkpt>
<trkpt lat="43.0358400000" lon="0.1340670000"><ele>1181</ele><time>2026-03-21T10:42:11Z</time></trkpt>
<trkpt lat="43.0358350000" lon="0.1341070000"><ele>1182</ele><time>2026-03-21T10:42:13Z</time></trkpt>
<trkpt lat="43.0358250000" lon="0.1341400000"><ele>1182</ele><time>2026-03-21T10:42:16Z</time></trkpt>
<trkpt lat="43.0358070000" lon="0.1341570000"><ele>1183</ele><time>2026-03-21T10:42:24Z</time></trkpt>
<trkpt lat="43.0358150000" lon="0.1341820000"><ele>1184</ele><time>2026-03-21T10:42:29Z</time></trkpt>
<trkpt lat="43.0358080000" lon="0.1342550000"><ele>1188</ele><time>2026-03-21T10:43:02Z</time></trkpt>
<trkpt lat="43.0357950000" lon="0.1342950000"><ele>1188</ele><time>2026-03-21T10:43:03Z</time></trkpt>
<trkpt lat="43.0357800000" lon="0.1343300000"><ele>1189</ele><time>2026-03-21T10:43:04Z</time></trkpt>
<trkpt lat="43.0357650000" lon="0.1343520000"><ele>1189</ele><time>2026-03-21T10:43:05Z</time></trkpt>
<trkpt lat="43.0357370000" lon="0.1343680000"><ele>1188</ele><time>2026-03-21T10:43:07Z</time></trkpt>
<trkpt lat="43.0357220000" lon="0.1343850000"><ele>1188</ele><time>2026-03-21T10:43:10Z</time></trkpt>
<trkpt lat="43.0357220000" lon="0.1344100000"><ele>1189</ele><time>2026-03-21T10:43:17Z</time></trkpt>
<trkpt lat="43.0356970000" lon="0.1344520000"><ele>1202</ele><time>2026-03-21T10:45:10Z</time></trkpt>
<trkpt lat="43.0356720000" lon="0.1344900000"><ele>1202</ele><time>2026-03-21T10:45:11Z</time></trkpt>
<trkpt lat="43.0356470000" lon="0.1345370000"><ele>1202</ele><time>2026-03-21T10:45:12Z</time></trkpt>
<trkpt lat="43.0356200000" lon="0.1345820000"><ele>1202</ele><time>2026-03-21T10:45:13Z</time></trkpt>
<trkpt lat="43.0356020000" lon="0.1346150000"><ele>1202</ele><time>2026-03-21T10:45:14Z</time></trkpt>
<trkpt lat="43.0355920000" lon="0.1346370000"><ele>1202</ele><time>2026-03-21T10:45:16Z</time></trkpt>
<trkpt lat="43.0355670000" lon="0.1346430000"><ele>1204</ele><time>2026-03-21T10:45:29Z</time></trkpt>
<trkpt lat="43.0355500000" lon="0.1346530000"><ele>1204</ele><time>2026-03-21T10:45:31Z</time></trkpt>
<trkpt lat="43.0355450000" lon="0.1346870000"><ele>1208</ele><time>2026-03-21T10:46:18Z</time></trkpt>
<trkpt lat="43.0355420000" lon="0.1347300000"><ele>1208</ele><time>2026-03-21T10:46:20Z</time></trkpt>
<trkpt lat="43.0355400000" lon="0.1347550000"><ele>1208</ele><time>2026-03-21T10:46:21Z</time></trkpt>
<trkpt lat="43.0355320000" lon="0.1347930000"><ele>1208</ele><time>2026-03-21T10:46:23Z</time></trkpt>
<trkpt lat="43.0355130000" lon="0.1348130000"><ele>1209</ele><time>2026-03-21T10:46:28Z</time></trkpt>
<trkpt lat="43.0355020000" lon="0.1348370000"><ele>1210</ele><time>2026-03-21T10:46:33Z</time></trkpt>
<trkpt lat="43.0354950000" lon="0.1348600000"><ele>1211</ele><time>2026-03-21T10:46:44Z</time></trkpt>
<trkpt lat="43.0354870000" lon="0.1348900000"><ele>1212</ele><time>2026-03-21T10:46:49Z</time></trkpt>
<trkpt lat="43.0354770000" lon="0.1349200000"><ele>1216</ele><time>2026-03-21T10:47:26Z</time></trkpt>
<trkpt lat="43.0354670000" lon="0.1349450000"><ele>1216</ele><time>2026-03-21T10:47:28Z</time></trkpt>
<trkpt lat="43.0354520000" lon="0.1349670000"><ele>1216</ele><time>2026-03-21T10:47:30Z</time></trkpt>
<trkpt lat="43.0354570000" lon="0.1349970000"><ele>1221</ele><time>2026-03-21T10:48:29Z</time></trkpt>
<trkpt lat="43.0354570000" lon="0.1350250000"><ele>1221</ele><time>2026-03-21T10:48:30Z</time></trkpt>
<trkpt lat="43.0354520000" lon="0.1350570000"><ele>1221</ele><time>2026-03-21T10:48:31Z</time></trkpt>
<trkpt lat="43.0354470000" lon="0.1350870000"><ele>1221</ele><time>2026-03-21T10:48:32Z</time></trkpt>
<trkpt lat="43.0354450000" lon="0.1351150000"><ele>1221</ele><time>2026-03-21T10:48:33Z</time></trkpt>
<trkpt lat="43.0354370000" lon="0.1351520000"><ele>1221</ele><time>2026-03-21T10:48:35Z</time></trkpt>
<trkpt lat="43.0354320000" lon="0.1351770000"><ele>1221</ele><time>2026-03-21T10:48:37Z</time></trkpt>
<trkpt lat="43.0354100000" lon="0.1351870000"><ele>1221</ele><time>2026-03-21T10:48:41Z</time></trkpt>
<trkpt lat="43.0353950000" lon="0.1352020000"><ele>1221</ele><time>2026-03-21T10:48:43Z</time></trkpt>
<trkpt lat="43.0354120000" lon="0.1352420000"><ele>1222</ele><time>2026-03-21T10:48:47Z</time></trkpt>
<trkpt lat="43.0354170000" lon="0.1352720000"><ele>1222</ele><time>2026-03-21T10:48:50Z</time></trkpt>
<trkpt lat="43.0354120000" lon="0.1353170000"><ele>1222</ele><time>2026-03-21T10:48:54Z</time></trkpt>
<trkpt lat="43.0354020000" lon="0.1353380000"><ele>1222</ele><time>2026-03-21T10:48:56Z</time></trkpt>
<trkpt lat="43.0354020000" lon="0.1353670000"><ele>1222</ele><time>2026-03-21T10:48:58Z</time></trkpt>
<trkpt lat="43.0354200000" lon="0.1353900000"><ele>1223</ele><time>2026-03-21T10:49:02Z</time></trkpt>
<trkpt lat="43.0354270000" lon="0.1354150000"><ele>1223</ele><time>2026-03-21T10:49:06Z</time></trkpt>
<trkpt lat="43.0354250000" lon="0.1354400000"><ele>1223</ele><time>2026-03-21T10:49:09Z</time></trkpt>
<trkpt lat="43.0354150000" lon="0.1354720000"><ele>1223</ele><time>2026-03-21T10:49:12Z</time></trkpt>
<trkpt lat="43.0354020000" lon="0.1354920000"><ele>1223</ele><time>2026-03-21T10:49:14Z</time></trkpt>
<trkpt lat="43.0353900000" lon="0.1355120000"><ele>1223</ele><time>2026-03-21T10:49:17Z</time></trkpt>
<trkpt lat="43.0353820000" lon="0.1355370000"><ele>1224</ele><time>2026-03-21T10:49:20Z</time></trkpt>
<trkpt lat="43.0353820000" lon="0.1355670000"><ele>1224</ele><time>2026-03-21T10:49:24Z</time></trkpt>
<trkpt lat="43.0353670000" lon="0.1355870000"><ele>1224</ele><time>2026-03-21T10:49:28Z</time></trkpt>
<trkpt lat="43.0353670000" lon="0.1356120000"><ele>1225</ele><time>2026-03-21T10:49:33Z</time></trkpt>
<trkpt lat="43.0353570000" lon="0.1356370000"><ele>1225</ele><time>2026-03-21T10:49:37Z</time></trkpt>
<trkpt lat="43.0353520000" lon="0.1356620000"><ele>1226</ele><time>2026-03-21T10:49:41Z</time></trkpt>
<trkpt lat="43.0353470000" lon="0.1356900000"><ele>1227</ele><time>2026-03-21T10:49:59Z</time></trkpt>
<trkpt lat="43.0353550000" lon="0.1357250000"><ele>1228</ele><time>2026-03-21T10:50:01Z</time></trkpt>
<trkpt lat="43.0353620000" lon="0.1357520000"><ele>1228</ele><time>2026-03-21T10:50:03Z</time></trkpt>
<trkpt lat="43.0353670000" lon="0.1357770000"><ele>1228</ele><time>2026-03-21T10:50:05Z</time></trkpt>
<trkpt lat="43.0353550000" lon="0.1358020000"><ele>1229</ele><time>2026-03-21T10:50:10Z</time></trkpt>
<trkpt lat="43.0353580000" lon="0.1358370000"><ele>1230</ele><time>2026-03-21T10:50:16Z</time></trkpt>
<trkpt lat="43.0353570000" lon="0.1358670000"><ele>1231</ele><time>2026-03-21T10:50:23Z</time></trkpt>
<trkpt lat="43.0353420000" lon="0.1358970000"><ele>1231</ele><time>2026-03-21T10:50:25Z</time></trkpt>
<trkpt lat="43.0353250000" lon="0.1359120000"><ele>1231</ele><time>2026-03-21T10:50:27Z</time></trkpt>
<trkpt lat="43.0353000000" lon="0.1358980000"><ele>1232</ele><time>2026-03-21T10:50:29Z</time></trkpt>
<trkpt lat="43.0352750000" lon="0.1358870000"><ele>1232</ele><time>2026-03-21T10:50:31Z</time></trkpt>
<trkpt lat="43.0352550000" lon="0.1358850000"><ele>1232</ele><time>2026-03-21T10:50:33Z</time></trkpt>
<trkpt lat="43.0352350000" lon="0.1358700000"><ele>1233</ele><time>2026-03-21T10:50:36Z</time></trkpt>
<trkpt lat="43.0352200000" lon="0.1359320000"><ele>1236</ele><time>2026-03-21T10:51:19Z</time></trkpt>
<trkpt lat="43.0352120000" lon="0.1359820000"><ele>1236</ele><time>2026-03-21T10:51:20Z</time></trkpt>
<trkpt lat="43.0352020000" lon="0.1360330000"><ele>1236</ele><time>2026-03-21T10:51:21Z</time></trkpt>
<trkpt lat="43.0351950000" lon="0.1360770000"><ele>1236</ele><time>2026-03-21T10:51:22Z</time></trkpt>
<trkpt lat="43.0351920000" lon="0.1361100000"><ele>1236</ele><time>2026-03-21T10:51:23Z</time></trkpt>
<trkpt lat="43.0351920000" lon="0.1361400000"><ele>1236</ele><time>2026-03-21T10:51:26Z</time></trkpt>
<trkpt lat="43.0351920000" lon="0.1361700000"><ele>1237</ele><time>2026-03-21T10:51:29Z</time></trkpt>
<trkpt lat="43.0351850000" lon="0.1361950000"><ele>1237</ele><time>2026-03-21T10:51:33Z</time></trkpt>
<trkpt lat="43.0351770000" lon="0.1362220000"><ele>1237</ele><time>2026-03-21T10:51:36Z</time></trkpt>
<trkpt lat="43.0351750000" lon="0.1362470000"><ele>1237</ele><time>2026-03-21T10:51:38Z</time></trkpt>
<trkpt lat="43.0351720000" lon="0.1362720000"><ele>1237</ele><time>2026-03-21T10:51:40Z</time></trkpt>
<trkpt lat="43.0351700000" lon="0.1363020000"><ele>1238</ele><time>2026-03-21T10:51:42Z</time></trkpt>
<trkpt lat="43.0351520000" lon="0.1363180000"><ele>1238</ele><time>2026-03-21T10:51:46Z</time></trkpt>
<trkpt lat="43.0351320000" lon="0.1363420000"><ele>1238</ele><time>2026-03-21T10:51:49Z</time></trkpt>
<trkpt lat="43.0351220000" lon="0.1363770000"><ele>1239</ele><time>2026-03-21T10:51:52Z</time></trkpt>
<trkpt lat="43.0351200000" lon="0.1364070000"><ele>1239</ele><time>2026-03-21T10:51:55Z</time></trkpt>
<trkpt lat="43.0351250000" lon="0.1364320000"><ele>1239</ele><time>2026-03-21T10:51:57Z</time></trkpt>
<trkpt lat="43.0351320000" lon="0.1364570000"><ele>1239</ele><time>2026-03-21T10:52:01Z</time></trkpt>
<trkpt lat="43.0351400000" lon="0.1364870000"><ele>1240</ele><time>2026-03-21T10:52:06Z</time></trkpt>
<trkpt lat="43.0351370000" lon="0.1365120000"><ele>1240</ele><time>2026-03-21T10:52:09Z</time></trkpt>
<trkpt lat="43.0351420000" lon="0.1365400000"><ele>1240</ele><time>2026-03-21T10:52:13Z</time></trkpt>
<trkpt lat="43.0351370000" lon="0.1365670000"><ele>1241</ele><time>2026-03-21T10:52:16Z</time></trkpt>
<trkpt lat="43.0351320000" lon="0.1365920000"><ele>1241</ele><time>2026-03-21T10:52:19Z</time></trkpt>
<trkpt lat="43.0351320000" lon="0.1366180000"><ele>1241</ele><time>2026-03-21T10:52:22Z</time></trkpt>
<trkpt lat="43.0351470000" lon="0.1366370000"><ele>1242</ele><time>2026-03-21T10:52:26Z</time></trkpt>
<trkpt lat="43.0351550000" lon="0.1366600000"><ele>1242</ele><time>2026-03-21T10:52:31Z</time></trkpt>
<trkpt lat="43.0351520000" lon="0.1366870000"><ele>1243</ele><time>2026-03-21T10:52:34Z</time></trkpt>
<trkpt lat="43.0351650000" lon="0.1367200000"><ele>1246</ele><time>2026-03-21T10:53:38Z</time></trkpt>
<trkpt lat="43.0351720000" lon="0.1367650000"><ele>1246</ele><time>2026-03-21T10:53:40Z</time></trkpt>
<trkpt lat="43.0351820000" lon="0.1368000000"><ele>1246</ele><time>2026-03-21T10:53:42Z</time></trkpt>
<trkpt lat="43.0351950000" lon="0.1368200000"><ele>1245</ele><time>2026-03-21T10:53:45Z</time></trkpt>
<trkpt lat="43.0352120000" lon="0.1368370000"><ele>1243</ele><time>2026-03-21T10:54:05Z</time></trkpt>
<trkpt lat="43.0352220000" lon="0.1368630000"><ele>1242</ele><time>2026-03-21T10:54:10Z</time></trkpt>
<trkpt lat="43.0352350000" lon="0.1369070000"><ele>1241</ele><time>2026-03-21T10:54:12Z</time></trkpt>
<trkpt lat="43.0352420000" lon="0.1369320000"><ele>1241</ele><time>2026-03-21T10:54:13Z</time></trkpt>
<trkpt lat="43.0352520000" lon="0.1369570000"><ele>1241</ele><time>2026-03-21T10:54:14Z</time></trkpt>
<trkpt lat="43.0352600000" lon="0.1369920000"><ele>1241</ele><time>2026-03-21T10:54:16Z</time></trkpt>
<trkpt lat="43.0352570000" lon="0.1370250000"><ele>1241</ele><time>2026-03-21T10:54:18Z</time></trkpt>
<trkpt lat="43.0352520000" lon="0.1370550000"><ele>1241</ele><time>2026-03-21T10:54:20Z</time></trkpt>
<trkpt lat="43.0352620000" lon="0.1370820000"><ele>1241</ele><time>2026-03-21T10:54:23Z</time></trkpt>
<trkpt lat="43.0352800000" lon="0.1370920000"><ele>1241</ele><time>2026-03-21T10:54:26Z</time></trkpt>
<trkpt lat="43.0353050000" lon="0.1371100000"><ele>1241</ele><time>2026-03-21T10:54:30Z</time></trkpt>
<trkpt lat="43.0353220000" lon="0.1371430000"><ele>1242</ele><time>2026-03-21T10:54:33Z</time></trkpt>
<trkpt lat="43.0353370000" lon="0.1371720000"><ele>1242</ele><time>2026-03-21T10:54:36Z</time></trkpt>
<trkpt lat="43.0353470000" lon="0.1371970000"><ele>1242</ele><time>2026-03-21T10:54:39Z</time></trkpt>
<trkpt lat="43.0353570000" lon="0.1372270000"><ele>1242</ele><time>2026-03-21T10:54:42Z</time></trkpt>
<trkpt lat="43.0353720000" lon="0.1372500000"><ele>1242</ele><time>2026-03-21T10:54:45Z</time></trkpt>
<trkpt lat="43.0353920000" lon="0.1372620000"><ele>1243</ele><time>2026-03-21T10:54:48Z</time></trkpt>
<trkpt lat="43.0354070000" lon="0.1372770000"><ele>1243</ele><time>2026-03-21T10:54:50Z</time></trkpt>
<trkpt lat="43.0354200000" lon="0.1372930000"><ele>1243</ele><time>2026-03-21T10:54:52Z</time></trkpt>
<trkpt lat="43.0354370000" lon="0.1373170000"><ele>1244</ele><time>2026-03-21T10:54:55Z</time></trkpt>
<trkpt lat="43.0354500000" lon="0.1373380000"><ele>1244</ele><time>2026-03-21T10:54:58Z</time></trkpt>
<trkpt lat="43.0354600000" lon="0.1373720000"><ele>1244</ele><time>2026-03-21T10:55:01Z</time></trkpt>
<trkpt lat="43.0354650000" lon="0.1374000000"><ele>1244</ele><time>2026-03-21T10:55:03Z</time></trkpt>
<trkpt lat="43.0354600000" lon="0.1374230000"><ele>1245</ele><time>2026-03-21T10:55:05Z</time></trkpt>
<trkpt lat="43.0354700000" lon="0.1374530000"><ele>1245</ele><time>2026-03-21T10:55:08Z</time></trkpt>
<trkpt lat="43.0354670000" lon="0.1374820000"><ele>1245</ele><time>2026-03-21T10:55:10Z</time></trkpt>
<trkpt lat="43.0354720000" lon="0.1375070000"><ele>1245</ele><time>2026-03-21T10:55:12Z</time></trkpt>
<trkpt lat="43.0354870000" lon="0.1375370000"><ele>1245</ele><time>2026-03-21T10:55:14Z</time></trkpt>
<trkpt lat="43.0354700000" lon="0.1375620000"><ele>1245</ele><time>2026-03-21T10:55:15Z</time></trkpt>
<trkpt lat="43.0354650000" lon="0.1375920000"><ele>1245</ele><time>2026-03-21T10:55:17Z</time></trkpt>
<trkpt lat="43.0354570000" lon="0.1376180000"><ele>1246</ele><time>2026-03-21T10:55:19Z</time></trkpt>
<trkpt lat="43.0354570000" lon="0.1376550000"><ele>1246</ele><time>2026-03-21T10:55:21Z</time></trkpt>
<trkpt lat="43.0354500000" lon="0.1376920000"><ele>1246</ele><time>2026-03-21T10:55:23Z</time></trkpt>
<trkpt lat="43.0354400000" lon="0.1377230000"><ele>1246</ele><time>2026-03-21T10:55:26Z</time></trkpt>
<trkpt lat="43.0354370000" lon="0.1377570000"><ele>1247</ele><time>2026-03-21T10:55:28Z</time></trkpt>
<trkpt lat="43.0354320000" lon="0.1377850000"><ele>1247</ele><time>2026-03-21T10:55:31Z</time></trkpt>
<trkpt lat="43.0354220000" lon="0.1378070000"><ele>1247</ele><time>2026-03-21T10:55:33Z</time></trkpt>
<trkpt lat="43.0354150000" lon="0.1378350000"><ele>1247</ele><time>2026-03-21T10:55:36Z</time></trkpt>
<trkpt lat="43.0354000000" lon="0.1378570000"><ele>1247</ele><time>2026-03-21T10:55:38Z</time></trkpt>
<trkpt lat="43.0353950000" lon="0.1378900000"><ele>1248</ele><time>2026-03-21T10:55:41Z</time></trkpt>
<trkpt lat="43.0353950000" lon="0.1379220000"><ele>1249</ele><time>2026-03-21T10:55:44Z</time></trkpt>
<trkpt lat="43.0354050000" lon="0.1379520000"><ele>1249</ele><time>2026-03-21T10:55:47Z</time></trkpt>
<trkpt lat="43.0354100000" lon="0.1379820000"><ele>1250</ele><time>2026-03-21T10:55:51Z</time></trkpt>
<trkpt lat="43.0353970000" lon="0.1380250000"><ele>1252</ele><time>2026-03-21T10:56:06Z</time></trkpt>
<trkpt lat="43.0353920000" lon="0.1380500000"><ele>1252</ele><time>2026-03-21T10:56:07Z</time></trkpt>
<trkpt lat="43.0353770000" lon="0.1380900000"><ele>1252</ele><time>2026-03-21T10:56:09Z</time></trkpt>
<trkpt lat="43.0353720000" lon="0.1381130000"><ele>1252</ele><time>2026-03-21T10:56:11Z</time></trkpt>
<trkpt lat="43.0353800000" lon="0.1381370000"><ele>1253</ele><time>2026-03-21T10:56:19Z</time></trkpt>
<trkpt lat="43.0353800000" lon="0.1381670000"><ele>1253</ele><time>2026-03-21T10:56:26Z</time></trkpt>
<trkpt lat="43.0353770000" lon="0.1382020000"><ele>1253</ele><time>2026-03-21T10:56:28Z</time></trkpt>
<trkpt lat="43.0353770000" lon="0.1382400000"><ele>1253</ele><time>2026-03-21T10:56:30Z</time></trkpt>
<trkpt lat="43.0353800000" lon="0.1382720000"><ele>1253</ele><time>2026-03-21T10:56:32Z</time></trkpt>
<trkpt lat="43.0353800000" lon="0.1382970000"><ele>1253</ele><time>2026-03-21T10:56:34Z</time></trkpt>
<trkpt lat="43.0353670000" lon="0.1383270000"><ele>1253</ele><time>2026-03-21T10:56:37Z</time></trkpt>
<trkpt lat="43.0353570000" lon="0.1383470000"><ele>1254</ele><time>2026-03-21T10:56:39Z</time></trkpt>
<trkpt lat="43.0353550000" lon="0.1383770000"><ele>1254</ele><time>2026-03-21T10:56:41Z</time></trkpt>
<trkpt lat="43.0353420000" lon="0.1384020000"><ele>1255</ele><time>2026-03-21T10:56:45Z</time></trkpt>
<trkpt lat="43.0353370000" lon="0.1384300000"><ele>1255</ele><time>2026-03-21T10:56:50Z</time></trkpt>
<trkpt lat="43.0353350000" lon="0.1384600000"><ele>1256</ele><time>2026-03-21T10:56:53Z</time></trkpt>
<trkpt lat="43.0353220000" lon="0.1384970000"><ele>1257</ele><time>2026-03-21T10:57:23Z</time></trkpt>
<trkpt lat="43.0353120000" lon="0.1385200000"><ele>1257</ele><time>2026-03-21T10:57:24Z</time></trkpt>
<trkpt lat="43.0353000000" lon="0.1385520000"><ele>1257</ele><time>2026-03-21T10:57:26Z</time></trkpt>
<trkpt lat="43.0353120000" lon="0.1385720000"><ele>1257</ele><time>2026-03-21T10:57:31Z</time></trkpt>
<trkpt lat="43.0353320000" lon="0.1385970000"><ele>1257</ele><time>2026-03-21T10:57:34Z</time></trkpt>
<trkpt lat="43.0353220000" lon="0.1385720000"><ele>1256</ele><time>2026-03-21T10:59:07Z</time></trkpt>
<trkpt lat="43.0353100000" lon="0.1385550000"><ele>1256</ele><time>2026-03-21T10:59:08Z</time></trkpt>
<trkpt lat="43.0352950000" lon="0.1385380000"><ele>1256</ele><time>2026-03-21T10:59:09Z</time></trkpt>
<trkpt lat="43.0352820000" lon="0.1385170000"><ele>1258</ele><time>2026-03-21T11:01:26Z</time></trkpt>
<trkpt lat="43.0352570000" lon="0.1384970000"><ele>1258</ele><time>2026-03-21T11:01:29Z</time></trkpt>
<trkpt lat="43.0352700000" lon="0.1384730000"><ele>1264</ele><time>2026-03-21T11:09:29Z</time></trkpt>
<trkpt lat="43.0352770000" lon="0.1384420000"><ele>1264</ele><time>2026-03-21T11:09:32Z</time></trkpt>
<trkpt lat="43.0352700000" lon="0.1384670000"><ele>1264</ele><time>2026-03-21T11:10:16Z</time></trkpt>
<trkpt lat="43.0352820000" lon="0.1384820000"><ele>1264</ele><time>2026-03-21T11:14:11Z</time></trkpt>
<trkpt lat="43.0353020000" lon="0.1384870000"><ele>1265</ele><time>2026-03-21T11:15:01Z</time></trkpt>
<trkpt lat="43.0352800000" lon="0.1384770000"><ele>1264</ele><time>2026-03-21T11:19:45Z</time></trkpt>
<trkpt lat="43.0352620000" lon="0.1384650000"><ele>1264</ele><time>2026-03-21T11:19:46Z</time></trkpt>
<trkpt lat="43.0352450000" lon="0.1384450000"><ele>1264</ele><time>2026-03-21T11:19:47Z</time></trkpt>
<trkpt lat="43.0352300000" lon="0.1384100000"><ele>1264</ele><time>2026-03-21T11:19:48Z</time></trkpt>
<trkpt lat="43.0352170000" lon="0.1383720000"><ele>1264</ele><time>2026-03-21T11:19:49Z</time></trkpt>
<trkpt lat="43.0352100000" lon="0.1383470000"><ele>1264</ele><time>2026-03-21T11:19:50Z</time></trkpt>
<trkpt lat="43.0352200000" lon="0.1383270000"><ele>1264</ele><time>2026-03-21T11:19:53Z</time></trkpt>
<trkpt lat="43.0352250000" lon="0.1383870000"><ele>1264</ele><time>2026-03-21T11:19:58Z</time></trkpt>
<trkpt lat="43.0352400000" lon="0.1384270000"><ele>1264</ele><time>2026-03-21T11:20:00Z</time></trkpt>
<trkpt lat="43.0352520000" lon="0.1384470000"><ele>1264</ele><time>2026-03-21T11:20:01Z</time></trkpt>
<trkpt lat="43.0352820000" lon="0.1384850000"><ele>1264</ele><time>2026-03-21T11:20:03Z</time></trkpt>
<trkpt lat="43.0352970000" lon="0.1385020000"><ele>1264</ele><time>2026-03-21T11:20:04Z</time></trkpt>
<trkpt lat="43.0353120000" lon="0.1385220000"><ele>1264</ele><time>2026-03-21T11:20:05Z</time></trkpt>
<trkpt lat="43.0353320000" lon="0.1385430000"><ele>1264</ele><time>2026-03-21T11:20:11Z</time></trkpt>
<trkpt lat="43.0353420000" lon="0.1385700000"><ele>1264</ele><time>2026-03-21T11:20:14Z</time></trkpt>
<trkpt lat="43.0353470000" lon="0.1385970000"><ele>1264</ele><time>2026-03-21T11:20:17Z</time></trkpt>
<trkpt lat="43.0353520000" lon="0.1386220000"><ele>1264</ele><time>2026-03-21T11:20:19Z</time></trkpt>
<trkpt lat="43.0353670000" lon="0.1386470000"><ele>1264</ele><time>2026-03-21T11:20:22Z</time></trkpt>
<trkpt lat="43.0353750000" lon="0.1386820000"><ele>1264</ele><time>2026-03-21T11:20:24Z</time></trkpt>
<trkpt lat="43.0353800000" lon="0.1387170000"><ele>1263</ele><time>2026-03-21T11:20:26Z</time></trkpt>
<trkpt lat="43.0353870000" lon="0.1387500000"><ele>1263</ele><time>2026-03-21T11:20:28Z</time></trkpt>
<trkpt lat="43.0353970000" lon="0.1387770000"><ele>1263</ele><time>2026-03-21T11:20:30Z</time></trkpt>
<trkpt lat="43.0353970000" lon="0.1388130000"><ele>1263</ele><time>2026-03-21T11:20:33Z</time></trkpt>
<trkpt lat="43.0353870000" lon="0.1388420000"><ele>1263</ele><time>2026-03-21T11:20:35Z</time></trkpt>
<trkpt lat="43.0353900000" lon="0.1388700000"><ele>1263</ele><time>2026-03-21T11:20:38Z</time></trkpt>
<trkpt lat="43.0354050000" lon="0.1388970000"><ele>1263</ele><time>2026-03-21T11:20:40Z</time></trkpt>
<trkpt lat="43.0354150000" lon="0.1389250000"><ele>1263</ele><time>2026-03-21T11:20:42Z</time></trkpt>
<trkpt lat="43.0354270000" lon="0.1389520000"><ele>1263</ele><time>2026-03-21T11:20:45Z</time></trkpt>
<trkpt lat="43.0353950000" lon="0.1389920000"><ele>1263</ele><time>2026-03-21T11:20:48Z</time></trkpt>
<trkpt lat="43.0353820000" lon="0.1390220000"><ele>1263</ele><time>2026-03-21T11:20:50Z</time></trkpt>
<trkpt lat="43.0353520000" lon="0.1390470000"><ele>1263</ele><time>2026-03-21T11:20:52Z</time></trkpt>
<trkpt lat="43.0353400000" lon="0.1390670000"><ele>1263</ele><time>2026-03-21T11:20:54Z</time></trkpt>
<trkpt lat="43.0353370000" lon="0.1390980000"><ele>1263</ele><time>2026-03-21T11:20:57Z</time></trkpt>
<trkpt lat="43.0353370000" lon="0.1391420000"><ele>1262</ele><time>2026-03-21T11:21:00Z</time></trkpt>
<trkpt lat="43.0353270000" lon="0.1391670000"><ele>1262</ele><time>2026-03-21T11:21:02Z</time></trkpt>
<trkpt lat="43.0353200000" lon="0.1391950000"><ele>1262</ele><time>2026-03-21T11:21:06Z</time></trkpt>
<trkpt lat="43.0353300000" lon="0.1392200000"><ele>1261</ele><time>2026-03-21T11:21:11Z</time></trkpt>
<trkpt lat="43.0353220000" lon="0.1392470000"><ele>1261</ele><time>2026-03-21T11:21:15Z</time></trkpt>
<trkpt lat="43.0353150000" lon="0.1392770000"><ele>1261</ele><time>2026-03-21T11:21:18Z</time></trkpt>
<trkpt lat="43.0353070000" lon="0.1393100000"><ele>1260</ele><time>2026-03-21T11:21:20Z</time></trkpt>
<trkpt lat="43.0353020000" lon="0.1393370000"><ele>1259</ele><time>2026-03-21T11:21:25Z</time></trkpt>
<trkpt lat="43.0353170000" lon="0.1393520000"><ele>1259</ele><time>2026-03-21T11:21:28Z</time></trkpt>
<trkpt lat="43.0353220000" lon="0.1393770000"><ele>1259</ele><time>2026-03-21T11:21:30Z</time></trkpt>
<trkpt lat="43.0353120000" lon="0.1394100000"><ele>1258</ele><time>2026-03-21T11:21:41Z</time></trkpt>
<trkpt lat="43.0353020000" lon="0.1394370000"><ele>1257</ele><time>2026-03-21T11:21:43Z</time></trkpt>
<trkpt lat="43.0352850000" lon="0.1394600000"><ele>1257</ele><time>2026-03-21T11:21:47Z</time></trkpt>
<trkpt lat="43.0352650000" lon="0.1394670000"><ele>1257</ele><time>2026-03-21T11:21:49Z</time></trkpt>
<trkpt lat="43.0352720000" lon="0.1394970000"><ele>1256</ele><time>2026-03-21T11:21:53Z</time></trkpt>
<trkpt lat="43.0352870000" lon="0.1395200000"><ele>1255</ele><time>2026-03-21T11:21:57Z</time></trkpt>
<trkpt lat="43.0352870000" lon="0.1395450000"><ele>1255</ele><time>2026-03-21T11:22:00Z</time></trkpt>
<trkpt lat="43.0352820000" lon="0.1395750000"><ele>1254</ele><time>2026-03-21T11:22:04Z</time></trkpt>
<trkpt lat="43.0352820000" lon="0.1396070000"><ele>1253</ele><time>2026-03-21T11:22:07Z</time></trkpt>
<trkpt lat="43.0352720000" lon="0.1396320000"><ele>1253</ele><time>2026-03-21T11:22:11Z</time></trkpt>
<trkpt lat="43.0352770000" lon="0.1396720000"><ele>1247</ele><time>2026-03-21T11:22:50Z</time></trkpt>
<trkpt lat="43.0352800000" lon="0.1396970000"><ele>1247</ele><time>2026-03-21T11:22:51Z</time></trkpt>
<trkpt lat="43.0352850000" lon="0.1397220000"><ele>1247</ele><time>2026-03-21T11:22:52Z</time></trkpt>
<trkpt lat="43.0352920000" lon="0.1397570000"><ele>1247</ele><time>2026-03-21T11:22:54Z</time></trkpt>
<trkpt lat="43.0352950000" lon="0.1397880000"><ele>1240</ele><time>2026-03-21T11:23:52Z</time></trkpt>
<trkpt lat="43.0352970000" lon="0.1398170000"><ele>1240</ele><time>2026-03-21T11:23:53Z</time></trkpt>
<trkpt lat="43.0353000000" lon="0.1398470000"><ele>1240</ele><time>2026-03-21T11:23:54Z</time></trkpt>
<trkpt lat="43.0352970000" lon="0.1398770000"><ele>1240</ele><time>2026-03-21T11:23:55Z</time></trkpt>
<trkpt lat="43.0352920000" lon="0.1399000000"><ele>1240</ele><time>2026-03-21T11:23:56Z</time></trkpt>
<trkpt lat="43.0352720000" lon="0.1399120000"><ele>1240</ele><time>2026-03-21T11:23:58Z</time></trkpt>
<trkpt lat="43.0352570000" lon="0.1399020000"><ele>1239</ele><time>2026-03-21T11:24:02Z</time></trkpt>
<trkpt lat="43.0352620000" lon="0.1399280000"><ele>1236</ele><time>2026-03-21T11:25:02Z</time></trkpt>
<trkpt lat="43.0352650000" lon="0.1399670000"><ele>1236</ele><time>2026-03-21T11:25:04Z</time></trkpt>
<trkpt lat="43.0352620000" lon="0.1400020000"><ele>1235</ele><time>2026-03-21T11:25:06Z</time></trkpt>
<trkpt lat="43.0352550000" lon="0.1400270000"><ele>1235</ele><time>2026-03-21T11:25:09Z</time></trkpt>
<trkpt lat="43.0352320000" lon="0.1400370000"><ele>1234</ele><time>2026-03-21T11:25:15Z</time></trkpt>
<trkpt lat="43.0352220000" lon="0.1400120000"><ele>1232</ele><time>2026-03-21T11:25:46Z</time></trkpt>
<trkpt lat="43.0352020000" lon="0.1400020000"><ele>1232</ele><time>2026-03-21T11:25:47Z</time></trkpt>
<trkpt lat="43.0351820000" lon="0.1399850000"><ele>1232</ele><time>2026-03-21T11:25:48Z</time></trkpt>
<trkpt lat="43.0351570000" lon="0.1399670000"><ele>1232</ele><time>2026-03-21T11:25:49Z</time></trkpt>
<trkpt lat="43.0351370000" lon="0.1399480000"><ele>1232</ele><time>2026-03-21T11:25:50Z</time></trkpt>
<trkpt lat="43.0351170000" lon="0.1399230000"><ele>1231</ele><time>2026-03-21T11:25:52Z</time></trkpt>
<trkpt lat="43.0351000000" lon="0.1399020000"><ele>1231</ele><time>2026-03-21T11:25:56Z</time></trkpt>
<trkpt lat="43.0350870000" lon="0.1398820000"><ele>1230</ele><time>2026-03-21T11:26:23Z</time></trkpt>
<trkpt lat="43.0350720000" lon="0.1398620000"><ele>1230</ele><time>2026-03-21T11:26:26Z</time></trkpt>
<trkpt lat="43.0350520000" lon="0.1398500000"><ele>1229</ele><time>2026-03-21T11:26:29Z</time></trkpt>
<trkpt lat="43.0350320000" lon="0.1398370000"><ele>1229</ele><time>2026-03-21T11:26:32Z</time></trkpt>
<trkpt lat="43.0350120000" lon="0.1398370000"><ele>1228</ele><time>2026-03-21T11:26:35Z</time></trkpt>
<trkpt lat="43.0349920000" lon="0.1398520000"><ele>1228</ele><time>2026-03-21T11:26:41Z</time></trkpt>
<trkpt lat="43.0349720000" lon="0.1398520000"><ele>1227</ele><time>2026-03-21T11:26:44Z</time></trkpt>
<trkpt lat="43.0349520000" lon="0.1398620000"><ele>1227</ele><time>2026-03-21T11:26:47Z</time></trkpt>
<trkpt lat="43.0349320000" lon="0.1398770000"><ele>1226</ele><time>2026-03-21T11:26:51Z</time></trkpt>
<trkpt lat="43.0349050000" lon="0.1398520000"><ele>1225</ele><time>2026-03-21T11:26:54Z</time></trkpt>
<trkpt lat="43.0348850000" lon="0.1398600000"><ele>1225</ele><time>2026-03-21T11:26:58Z</time></trkpt>
<trkpt lat="43.0348720000" lon="0.1398920000"><ele>1225</ele><time>2026-03-21T11:27:03Z</time></trkpt>
<trkpt lat="43.0348750000" lon="0.1399170000"><ele>1224</ele><time>2026-03-21T11:27:06Z</time></trkpt>
<trkpt lat="43.0348570000" lon="0.1399320000"><ele>1223</ele><time>2026-03-21T11:27:09Z</time></trkpt>
<trkpt lat="43.0348470000" lon="0.1399520000"><ele>1223</ele><time>2026-03-21T11:27:11Z</time></trkpt>
<trkpt lat="43.0348300000" lon="0.1399620000"><ele>1222</ele><time>2026-03-21T11:27:13Z</time></trkpt>
<trkpt lat="43.0348270000" lon="0.1399920000"><ele>1222</ele><time>2026-03-21T11:27:16Z</time></trkpt>
<trkpt lat="43.0348270000" lon="0.1400270000"><ele>1222</ele><time>2026-03-21T11:27:20Z</time></trkpt>
<trkpt lat="43.0348070000" lon="0.1400570000"><ele>1221</ele><time>2026-03-21T11:27:23Z</time></trkpt>
<trkpt lat="43.0348020000" lon="0.1400830000"><ele>1220</ele><time>2026-03-21T11:27:26Z</time></trkpt>
<trkpt lat="43.0347970000" lon="0.1401120000"><ele>1220</ele><time>2026-03-21T11:27:29Z</time></trkpt>
<trkpt lat="43.0347870000" lon="0.1401350000"><ele>1219</ele><time>2026-03-21T11:27:31Z</time></trkpt>
<trkpt lat="43.0347800000" lon="0.1401570000"><ele>1219</ele><time>2026-03-21T11:27:34Z</time></trkpt>
<trkpt lat="43.0347570000" lon="0.1401850000"><ele>1218</ele><time>2026-03-21T11:27:37Z</time></trkpt>
<trkpt lat="43.0347400000" lon="0.1401980000"><ele>1218</ele><time>2026-03-21T11:27:39Z</time></trkpt>
<trkpt lat="43.0347420000" lon="0.1402230000"><ele>1217</ele><time>2026-03-21T11:27:46Z</time></trkpt>
<trkpt lat="43.0347220000" lon="0.1402520000"><ele>1217</ele><time>2026-03-21T11:27:49Z</time></trkpt>
<trkpt lat="43.0347070000" lon="0.1402720000"><ele>1216</ele><time>2026-03-21T11:27:51Z</time></trkpt>
<trkpt lat="43.0346920000" lon="0.1403000000"><ele>1216</ele><time>2026-03-21T11:27:54Z</time></trkpt>
<trkpt lat="43.0346720000" lon="0.1403050000"><ele>1215</ele><time>2026-03-21T11:27:56Z</time></trkpt>
<trkpt lat="43.0346470000" lon="0.1403100000"><ele>1215</ele><time>2026-03-21T11:27:58Z</time></trkpt>
<trkpt lat="43.0346220000" lon="0.1403050000"><ele>1215</ele><time>2026-03-21T11:28:00Z</time></trkpt>
<trkpt lat="43.0345870000" lon="0.1402970000"><ele>1214</ele><time>2026-03-21T11:28:02Z</time></trkpt>
<trkpt lat="43.0345620000" lon="0.1403120000"><ele>1214</ele><time>2026-03-21T11:28:05Z</time></trkpt>
<trkpt lat="43.0345470000" lon="0.1403270000"><ele>1214</ele><time>2026-03-21T11:28:07Z</time></trkpt>
<trkpt lat="43.0345270000" lon="0.1403420000"><ele>1213</ele><time>2026-03-21T11:28:09Z</time></trkpt>
<trkpt lat="43.0345070000" lon="0.1403550000"><ele>1212</ele><time>2026-03-21T11:28:54Z</time></trkpt>
<trkpt lat="43.0344870000" lon="0.1403630000"><ele>1212</ele><time>2026-03-21T11:28:56Z</time></trkpt>
<trkpt lat="43.0344720000" lon="0.1403820000"><ele>1212</ele><time>2026-03-21T11:28:58Z</time></trkpt>
<trkpt lat="43.0344650000" lon="0.1404100000"><ele>1211</ele><time>2026-03-21T11:29:00Z</time></trkpt>
<trkpt lat="43.0344420000" lon="0.1404200000"><ele>1210</ele><time>2026-03-21T11:29:05Z</time></trkpt>
<trkpt lat="43.0344220000" lon="0.1404270000"><ele>1210</ele><time>2026-03-21T11:29:08Z</time></trkpt>
<trkpt lat="43.0343950000" lon="0.1404420000"><ele>1210</ele><time>2026-03-21T11:29:11Z</time></trkpt>
<trkpt lat="43.0343820000" lon="0.1404600000"><ele>1209</ele><time>2026-03-21T11:29:13Z</time></trkpt>
<trkpt lat="43.0343720000" lon="0.1404900000"><ele>1208</ele><time>2026-03-21T11:29:16Z</time></trkpt>
<trkpt lat="43.0343620000" lon="0.1405170000"><ele>1208</ele><time>2026-03-21T11:29:19Z</time></trkpt>
<trkpt lat="43.0343420000" lon="0.1405420000"><ele>1207</ele><time>2026-03-21T11:29:22Z</time></trkpt>
<trkpt lat="43.0343220000" lon="0.1405650000"><ele>1206</ele><time>2026-03-21T11:29:25Z</time></trkpt>
<trkpt lat="43.0343100000" lon="0.1405850000"><ele>1206</ele><time>2026-03-21T11:29:27Z</time></trkpt>
<trkpt lat="43.0342970000" lon="0.1406050000"><ele>1205</ele><time>2026-03-21T11:29:29Z</time></trkpt>
<trkpt lat="43.0342750000" lon="0.1406180000"><ele>1205</ele><time>2026-03-21T11:29:32Z</time></trkpt>
<trkpt lat="43.0342550000" lon="0.1406320000"><ele>1204</ele><time>2026-03-21T11:29:35Z</time></trkpt>
<trkpt lat="43.0342500000" lon="0.1406570000"><ele>1203</ele><time>2026-03-21T11:29:40Z</time></trkpt>
<trkpt lat="43.0342450000" lon="0.1406820000"><ele>1203</ele><time>2026-03-21T11:29:45Z</time></trkpt>
<trkpt lat="43.0342520000" lon="0.1407120000"><ele>1202</ele><time>2026-03-21T11:29:48Z</time></trkpt>
<trkpt lat="43.0342350000" lon="0.1407370000"><ele>1202</ele><time>2026-03-21T11:29:51Z</time></trkpt>
<trkpt lat="43.0342300000" lon="0.1407620000"><ele>1201</ele><time>2026-03-21T11:29:56Z</time></trkpt>
<trkpt lat="43.0342470000" lon="0.1407770000"><ele>1200</ele><time>2026-03-21T11:30:02Z</time></trkpt>
<trkpt lat="43.0342470000" lon="0.1408120000"><ele>1198</ele><time>2026-03-21T11:30:19Z</time></trkpt>
<trkpt lat="43.0342420000" lon="0.1408420000"><ele>1197</ele><time>2026-03-21T11:30:20Z</time></trkpt>
<trkpt lat="43.0342370000" lon="0.1408770000"><ele>1197</ele><time>2026-03-21T11:30:21Z</time></trkpt>
<trkpt lat="43.0342320000" lon="0.1409070000"><ele>1197</ele><time>2026-03-21T11:30:22Z</time></trkpt>
<trkpt lat="43.0342270000" lon="0.1409320000"><ele>1197</ele><time>2026-03-21T11:30:23Z</time></trkpt>
<trkpt lat="43.0342220000" lon="0.1409570000"><ele>1197</ele><time>2026-03-21T11:30:24Z</time></trkpt>
<trkpt lat="43.0342020000" lon="0.1409900000"><ele>1196</ele><time>2026-03-21T11:30:26Z</time></trkpt>
<trkpt lat="43.0341850000" lon="0.1410050000"><ele>1196</ele><time>2026-03-21T11:30:27Z</time></trkpt>
<trkpt lat="43.0341650000" lon="0.1410170000"><ele>1196</ele><time>2026-03-21T11:30:31Z</time></trkpt>
<trkpt lat="43.0341550000" lon="0.1410420000"><ele>1195</ele><time>2026-03-21T11:30:37Z</time></trkpt>
<trkpt lat="43.0341600000" lon="0.1410720000"><ele>1195</ele><time>2026-03-21T11:30:40Z</time></trkpt>
<trkpt lat="43.0341720000" lon="0.1410870000"><ele>1194</ele><time>2026-03-21T11:30:43Z</time></trkpt>
<trkpt lat="43.0341520000" lon="0.1411120000"><ele>1194</ele><time>2026-03-21T11:30:45Z</time></trkpt>
<trkpt lat="43.0341370000" lon="0.1411320000"><ele>1194</ele><time>2026-03-21T11:30:47Z</time></trkpt>
<trkpt lat="43.0341200000" lon="0.1411620000"><ele>1193</ele><time>2026-03-21T11:30:50Z</time></trkpt>
<trkpt lat="43.0341170000" lon="0.1411970000"><ele>1193</ele><time>2026-03-21T11:30:53Z</time></trkpt>
<trkpt lat="43.0341220000" lon="0.1412220000"><ele>1193</ele><time>2026-03-21T11:30:55Z</time></trkpt>
<trkpt lat="43.0341270000" lon="0.1412470000"><ele>1192</ele><time>2026-03-21T11:30:58Z</time></trkpt>
<trkpt lat="43.0341150000" lon="0.1412770000"><ele>1192</ele><time>2026-03-21T11:31:01Z</time></trkpt>
<trkpt lat="43.0340870000" lon="0.1413070000"><ele>1191</ele><time>2026-03-21T11:31:03Z</time></trkpt>
<trkpt lat="43.0340700000" lon="0.1413250000"><ele>1191</ele><time>2026-03-21T11:31:04Z</time></trkpt>
<trkpt lat="43.0340470000" lon="0.1413450000"><ele>1191</ele><time>2026-03-21T11:31:06Z</time></trkpt>
<trkpt lat="43.0340170000" lon="0.1413570000"><ele>1191</ele><time>2026-03-21T11:31:08Z</time></trkpt>
<trkpt lat="43.0340020000" lon="0.1413770000"><ele>1190</ele><time>2026-03-21T11:31:11Z</time></trkpt>
<trkpt lat="43.0340000000" lon="0.1413470000"><ele>1190</ele><time>2026-03-21T11:31:17Z</time></trkpt>
<trkpt lat="43.0339870000" lon="0.1413770000"><ele>1189</ele><time>2026-03-21T11:31:30Z</time></trkpt>
<trkpt lat="43.0339900000" lon="0.1414070000"><ele>1189</ele><time>2026-03-21T11:31:31Z</time></trkpt>
<trkpt lat="43.0339920000" lon="0.1414370000"><ele>1189</ele><time>2026-03-21T11:31:32Z</time></trkpt>
<trkpt lat="43.0339970000" lon="0.1414650000"><ele>1189</ele><time>2026-03-21T11:31:33Z</time></trkpt>
<trkpt lat="43.0340070000" lon="0.1415030000"><ele>1188</ele><time>2026-03-21T11:31:35Z</time></trkpt>
<trkpt lat="43.0340100000" lon="0.1415300000"><ele>1188</ele><time>2026-03-21T11:31:37Z</time></trkpt>
<trkpt lat="43.0339900000" lon="0.1415520000"><ele>1188</ele><time>2026-03-21T11:31:40Z</time></trkpt>
<trkpt lat="43.0339700000" lon="0.1415620000"><ele>1188</ele><time>2026-03-21T11:31:42Z</time></trkpt>
<trkpt lat="43.0339520000" lon="0.1415920000"><ele>1187</ele><time>2026-03-21T11:31:45Z</time></trkpt>
<trkpt lat="43.0339420000" lon="0.1416120000"><ele>1187</ele><time>2026-03-21T11:31:47Z</time></trkpt>
<trkpt lat="43.0339320000" lon="0.1416370000"><ele>1187</ele><time>2026-03-21T11:31:49Z</time></trkpt>
<trkpt lat="43.0339270000" lon="0.1416670000"><ele>1187</ele><time>2026-03-21T11:31:51Z</time></trkpt>
<trkpt lat="43.0339270000" lon="0.1417020000"><ele>1186</ele><time>2026-03-21T11:31:54Z</time></trkpt>
<trkpt lat="43.0339220000" lon="0.1417270000"><ele>1186</ele><time>2026-03-21T11:31:56Z</time></trkpt>
<trkpt lat="43.0339220000" lon="0.1417520000"><ele>1186</ele><time>2026-03-21T11:31:58Z</time></trkpt>
<trkpt lat="43.0339170000" lon="0.1417820000"><ele>1185</ele><time>2026-03-21T11:32:01Z</time></trkpt>
<trkpt lat="43.0339300000" lon="0.1418100000"><ele>1185</ele><time>2026-03-21T11:32:04Z</time></trkpt>
<trkpt lat="43.0339300000" lon="0.1418370000"><ele>1184</ele><time>2026-03-21T11:32:07Z</time></trkpt>
<trkpt lat="43.0339320000" lon="0.1418680000"><ele>1184</ele><time>2026-03-21T11:32:10Z</time></trkpt>
<trkpt lat="43.0339450000" lon="0.1419000000"><ele>1184</ele><time>2026-03-21T11:32:13Z</time></trkpt>
<trkpt lat="43.0339520000" lon="0.1419350000"><ele>1184</ele><time>2026-03-21T11:32:16Z</time></trkpt>
<trkpt lat="43.0339620000" lon="0.1419570000"><ele>1183</ele><time>2026-03-21T11:32:18Z</time></trkpt>
<trkpt lat="43.0339720000" lon="0.1419820000"><ele>1183</ele><time>2026-03-21T11:32:20Z</time></trkpt>
<trkpt lat="43.0339650000" lon="0.1420070000"><ele>1182</ele><time>2026-03-21T11:32:41Z</time></trkpt>
<trkpt lat="43.0339500000" lon="0.1420400000"><ele>1181</ele><time>2026-03-21T11:32:43Z</time></trkpt>
<trkpt lat="43.0339420000" lon="0.1420770000"><ele>1181</ele><time>2026-03-21T11:32:45Z</time></trkpt>
<trkpt lat="43.0339420000" lon="0.1421120000"><ele>1181</ele><time>2026-03-21T11:32:47Z</time></trkpt>
<trkpt lat="43.0339420000" lon="0.1421430000"><ele>1181</ele><time>2026-03-21T11:32:49Z</time></trkpt>
<trkpt lat="43.0339400000" lon="0.1421720000"><ele>1181</ele><time>2026-03-21T11:32:51Z</time></trkpt>
<trkpt lat="43.0339400000" lon="0.1422020000"><ele>1181</ele><time>2026-03-21T11:32:53Z</time></trkpt>
<trkpt lat="43.0339420000" lon="0.1422320000"><ele>1181</ele><time>2026-03-21T11:32:55Z</time></trkpt>
<trkpt lat="43.0339420000" lon="0.1422620000"><ele>1181</ele><time>2026-03-21T11:32:57Z</time></trkpt>
<trkpt lat="43.0339420000" lon="0.1422880000"><ele>1180</ele><time>2026-03-21T11:32:59Z</time></trkpt>
<trkpt lat="43.0339450000" lon="0.1423200000"><ele>1180</ele><time>2026-03-21T11:33:01Z</time></trkpt>
<trkpt lat="43.0339470000" lon="0.1423520000"><ele>1180</ele><time>2026-03-21T11:33:03Z</time></trkpt>
<trkpt lat="43.0339470000" lon="0.1423770000"><ele>1180</ele><time>2026-03-21T11:33:05Z</time></trkpt>
<trkpt lat="43.0339470000" lon="0.1424070000"><ele>1180</ele><time>2026-03-21T11:33:07Z</time></trkpt>
<trkpt lat="43.0339470000" lon="0.1424370000"><ele>1180</ele><time>2026-03-21T11:33:09Z</time></trkpt>
<trkpt lat="43.0339420000" lon="0.1424670000"><ele>1180</ele><time>2026-03-21T11:33:11Z</time></trkpt>
<trkpt lat="43.0339420000" lon="0.1424980000"><ele>1180</ele><time>2026-03-21T11:33:13Z</time></trkpt>
<trkpt lat="43.0339450000" lon="0.1425300000"><ele>1179</ele><time>2026-03-21T11:33:15Z</time></trkpt>
<trkpt lat="43.0339420000" lon="0.1425570000"><ele>1179</ele><time>2026-03-21T11:33:17Z</time></trkpt>
<trkpt lat="43.0339500000" lon="0.1425830000"><ele>1179</ele><time>2026-03-21T11:33:19Z</time></trkpt>
<trkpt lat="43.0339520000" lon="0.1426080000"><ele>1180</ele><time>2026-03-21T11:33:21Z</time></trkpt>
<trkpt lat="43.0339550000" lon="0.1426420000"><ele>1180</ele><time>2026-03-21T11:33:23Z</time></trkpt>
<trkpt lat="43.0339550000" lon="0.1426720000"><ele>1180</ele><time>2026-03-21T11:33:25Z</time></trkpt>
<trkpt lat="43.0339550000" lon="0.1427020000"><ele>1179</ele><time>2026-03-21T11:33:27Z</time></trkpt>
<trkpt lat="43.0339570000" lon="0.1427280000"><ele>1179</ele><time>2026-03-21T11:33:29Z</time></trkpt>
<trkpt lat="43.0339570000" lon="0.1427570000"><ele>1179</ele><time>2026-03-21T11:33:31Z</time></trkpt>
<trkpt lat="43.0339570000" lon="0.1427900000"><ele>1179</ele><time>2026-03-21T11:33:33Z</time></trkpt>
<trkpt lat="43.0339600000" lon="0.1428200000"><ele>1179</ele><time>2026-03-21T11:33:36Z</time></trkpt>
<trkpt lat="43.0339650000" lon="0.1428520000"><ele>1179</ele><time>2026-03-21T11:33:39Z</time></trkpt>
<trkpt lat="43.0339770000" lon="0.1428720000"><ele>1180</ele><time>2026-03-21T11:33:41Z</time></trkpt>
<trkpt lat="43.0339800000" lon="0.1428970000"><ele>1180</ele><time>2026-03-21T11:33:43Z</time></trkpt>
<trkpt lat="43.0339820000" lon="0.1429350000"><ele>1180</ele><time>2026-03-21T11:33:45Z</time></trkpt>
<trkpt lat="43.0339700000" lon="0.1429720000"><ele>1180</ele><time>2026-03-21T11:33:47Z</time></trkpt>
<trkpt lat="43.0339620000" lon="0.1430070000"><ele>1179</ele><time>2026-03-21T11:33:49Z</time></trkpt>
<trkpt lat="43.0339570000" lon="0.1430370000"><ele>1179</ele><time>2026-03-21T11:33:52Z</time></trkpt>
<trkpt lat="43.0339520000" lon="0.1430750000"><ele>1179</ele><time>2026-03-21T11:33:55Z</time></trkpt>
<trkpt lat="43.0339420000" lon="0.1431050000"><ele>1179</ele><time>2026-03-21T11:33:57Z</time></trkpt>
<trkpt lat="43.0339400000" lon="0.1431320000"><ele>1179</ele><time>2026-03-21T11:33:59Z</time></trkpt>
<trkpt lat="43.0339470000" lon="0.1431570000"><ele>1179</ele><time>2026-03-21T11:34:01Z</time></trkpt>
<trkpt lat="43.0339500000" lon="0.1431820000"><ele>1179</ele><time>2026-03-21T11:34:03Z</time></trkpt>
<trkpt lat="43.0339500000" lon="0.1432170000"><ele>1179</ele><time>2026-03-21T11:34:05Z</time></trkpt>
<trkpt lat="43.0339400000" lon="0.1432420000"><ele>1179</ele><time>2026-03-21T11:34:09Z</time></trkpt>
<trkpt lat="43.0339270000" lon="0.1432720000"><ele>1179</ele><time>2026-03-21T11:34:18Z</time></trkpt>
<trkpt lat="43.0339170000" lon="0.1433070000"><ele>1179</ele><time>2026-03-21T11:34:20Z</time></trkpt>
<trkpt lat="43.0339170000" lon="0.1433400000"><ele>1179</ele><time>2026-03-21T11:34:22Z</time></trkpt>
<trkpt lat="43.0339120000" lon="0.1433670000"><ele>1180</ele><time>2026-03-21T11:34:24Z</time></trkpt>
<trkpt lat="43.0339120000" lon="0.1434020000"><ele>1180</ele><time>2026-03-21T11:34:27Z</time></trkpt>
<trkpt lat="43.0339050000" lon="0.1434230000"><ele>1180</ele><time>2026-03-21T11:34:29Z</time></trkpt>
<trkpt lat="43.0339000000" lon="0.1434520000"><ele>1180</ele><time>2026-03-21T11:34:31Z</time></trkpt>
<trkpt lat="43.0338920000" lon="0.1434820000"><ele>1179</ele><time>2026-03-21T11:34:34Z</time></trkpt>
<trkpt lat="43.0338850000" lon="0.1435150000"><ele>1179</ele><time>2026-03-21T11:34:36Z</time></trkpt>
<trkpt lat="43.0338850000" lon="0.1435420000"><ele>1179</ele><time>2026-03-21T11:34:38Z</time></trkpt>
<trkpt lat="43.0338820000" lon="0.1435670000"><ele>1179</ele><time>2026-03-21T11:34:42Z</time></trkpt>
<trkpt lat="43.0338720000" lon="0.1435950000"><ele>1179</ele><time>2026-03-21T11:34:45Z</time></trkpt>
<trkpt lat="43.0338700000" lon="0.1436220000"><ele>1179</ele><time>2026-03-21T11:34:47Z</time></trkpt>
<trkpt lat="43.0338870000" lon="0.1436420000"><ele>1178</ele><time>2026-03-21T11:34:50Z</time></trkpt>
<trkpt lat="43.0338900000" lon="0.1436770000"><ele>1178</ele><time>2026-03-21T11:34:53Z</time></trkpt>
<trkpt lat="43.0338900000" lon="0.1437070000"><ele>1178</ele><time>2026-03-21T11:34:55Z</time></trkpt>
<trkpt lat="43.0338920000" lon="0.1437370000"><ele>1177</ele><time>2026-03-21T11:34:57Z</time></trkpt>
<trkpt lat="43.0339020000" lon="0.1437620000"><ele>1177</ele><time>2026-03-21T11:35:00Z</time></trkpt>
<trkpt lat="43.0339120000" lon="0.1437870000"><ele>1177</ele><time>2026-03-21T11:35:02Z</time></trkpt>
<trkpt lat="43.0339020000" lon="0.1438070000"><ele>1177</ele><time>2026-03-21T11:35:04Z</time></trkpt>
<trkpt lat="43.0338970000" lon="0.1438380000"><ele>1177</ele><time>2026-03-21T11:35:07Z</time></trkpt>
<trkpt lat="43.0338970000" lon="0.1438720000"><ele>1176</ele><time>2026-03-21T11:35:11Z</time></trkpt>
<trkpt lat="43.0339070000" lon="0.1438970000"><ele>1176</ele><time>2026-03-21T11:35:14Z</time></trkpt>
<trkpt lat="43.0339100000" lon="0.1439350000"><ele>1176</ele><time>2026-03-21T11:35:18Z</time></trkpt>
<trkpt lat="43.0339070000" lon="0.1439650000"><ele>1175</ele><time>2026-03-21T11:35:20Z</time></trkpt>
<trkpt lat="43.0339150000" lon="0.1439920000"><ele>1175</ele><time>2026-03-21T11:35:22Z</time></trkpt>
<trkpt lat="43.0339270000" lon="0.1440150000"><ele>1174</ele><time>2026-03-21T11:35:25Z</time></trkpt>
<trkpt lat="43.0339320000" lon="0.1440520000"><ele>1172</ele><time>2026-03-21T11:35:40Z</time></trkpt>
<trkpt lat="43.0339420000" lon="0.1440920000"><ele>1172</ele><time>2026-03-21T11:35:42Z</time></trkpt>
<trkpt lat="43.0339550000" lon="0.1441200000"><ele>1172</ele><time>2026-03-21T11:35:44Z</time></trkpt>
<trkpt lat="43.0339670000" lon="0.1441370000"><ele>1172</ele><time>2026-03-21T11:35:46Z</time></trkpt>
<trkpt lat="43.0339770000" lon="0.1441620000"><ele>1171</ele><time>2026-03-21T11:35:52Z</time></trkpt>
<trkpt lat="43.0340000000" lon="0.1441770000"><ele>1170</ele><time>2026-03-21T11:36:07Z</time></trkpt>
<trkpt lat="43.0340170000" lon="0.1442020000"><ele>1170</ele><time>2026-03-21T11:36:09Z</time></trkpt>
<trkpt lat="43.0340320000" lon="0.1442370000"><ele>1170</ele><time>2026-03-21T11:36:11Z</time></trkpt>
<trkpt lat="43.0340400000" lon="0.1442620000"><ele>1170</ele><time>2026-03-21T11:36:14Z</time></trkpt>
<trkpt lat="43.0340420000" lon="0.1442370000"><ele>1170</ele><time>2026-03-21T11:36:18Z</time></trkpt>
<trkpt lat="43.0340320000" lon="0.1442570000"><ele>1170</ele><time>2026-03-21T11:36:39Z</time></trkpt>
<trkpt lat="43.0340120000" lon="0.1442520000"><ele>1170</ele><time>2026-03-21T11:36:47Z</time></trkpt>
<trkpt lat="43.0340270000" lon="0.1442180000"><ele>1169</ele><time>2026-03-21T11:36:53Z</time></trkpt>
<trkpt lat="43.0340420000" lon="0.1442000000"><ele>1169</ele><time>2026-03-21T11:36:54Z</time></trkpt>
<trkpt lat="43.0340550000" lon="0.1441770000"><ele>1170</ele><time>2026-03-21T11:36:55Z</time></trkpt>
<trkpt lat="43.0340700000" lon="0.1441600000"><ele>1170</ele><time>2026-03-21T11:36:56Z</time></trkpt>
<trkpt lat="43.0340820000" lon="0.1441420000"><ele>1170</ele><time>2026-03-21T11:36:57Z</time></trkpt>
<trkpt lat="43.0341070000" lon="0.1441200000"><ele>1170</ele><time>2026-03-21T11:36:59Z</time></trkpt>
<trkpt lat="43.0341220000" lon="0.1440880000"><ele>1170</ele><time>2026-03-21T11:37:01Z</time></trkpt>
<trkpt lat="43.0341370000" lon="0.1440700000"><ele>1170</ele><time>2026-03-21T11:37:03Z</time></trkpt>
<trkpt lat="43.0341600000" lon="0.1440570000"><ele>1171</ele><time>2026-03-21T11:37:05Z</time></trkpt>
<trkpt lat="43.0341850000" lon="0.1440520000"><ele>1171</ele><time>2026-03-21T11:37:08Z</time></trkpt>
<trkpt lat="43.0341970000" lon="0.1440320000"><ele>1171</ele><time>2026-03-21T11:37:10Z</time></trkpt>
<trkpt lat="43.0342170000" lon="0.1440170000"><ele>1170</ele><time>2026-03-21T11:37:13Z</time></trkpt>
<trkpt lat="43.0342400000" lon="0.1439950000"><ele>1170</ele><time>2026-03-21T11:37:16Z</time></trkpt>
<trkpt lat="43.0342370000" lon="0.1439530000"><ele>1170</ele><time>2026-03-21T11:37:18Z</time></trkpt>
<trkpt lat="43.0342520000" lon="0.1439220000"><ele>1169</ele><time>2026-03-21T11:37:20Z</time></trkpt>
<trkpt lat="43.0342650000" lon="0.1439020000"><ele>1169</ele><time>2026-03-21T11:37:22Z</time></trkpt>
<trkpt lat="43.0342720000" lon="0.1438770000"><ele>1169</ele><time>2026-03-21T11:37:24Z</time></trkpt>
<trkpt lat="43.0342820000" lon="0.1438470000"><ele>1169</ele><time>2026-03-21T11:37:26Z</time></trkpt>
<trkpt lat="43.0343020000" lon="0.1438270000"><ele>1169</ele><time>2026-03-21T11:37:28Z</time></trkpt>
<trkpt lat="43.0343200000" lon="0.1438130000"><ele>1168</ele><time>2026-03-21T11:37:30Z</time></trkpt>
<trkpt lat="43.0343170000" lon="0.1437900000"><ele>1168</ele><time>2026-03-21T11:37:32Z</time></trkpt>
<trkpt lat="43.0343250000" lon="0.1437570000"><ele>1168</ele><time>2026-03-21T11:37:35Z</time></trkpt>
<trkpt lat="43.0343420000" lon="0.1437450000"><ele>1167</ele><time>2026-03-21T11:37:38Z</time></trkpt>
<trkpt lat="43.0343570000" lon="0.1437320000"><ele>1167</ele><time>2026-03-21T11:37:40Z</time></trkpt>
<trkpt lat="43.0343720000" lon="0.1437150000"><ele>1166</ele><time>2026-03-21T11:37:53Z</time></trkpt>
<trkpt lat="43.0343920000" lon="0.1436820000"><ele>1166</ele><time>2026-03-21T11:37:55Z</time></trkpt>
<trkpt lat="43.0344070000" lon="0.1436670000"><ele>1166</ele><time>2026-03-21T11:37:56Z</time></trkpt>
<trkpt lat="43.0344300000" lon="0.1436420000"><ele>1166</ele><time>2026-03-21T11:37:58Z</time></trkpt>
<trkpt lat="43.0344520000" lon="0.1436250000"><ele>1166</ele><time>2026-03-21T11:38:00Z</time></trkpt>
<trkpt lat="43.0344720000" lon="0.1436120000"><ele>1166</ele><time>2026-03-21T11:38:02Z</time></trkpt>
<trkpt lat="43.0344850000" lon="0.1435920000"><ele>1166</ele><time>2026-03-21T11:38:04Z</time></trkpt>
<trkpt lat="43.0344970000" lon="0.1435720000"><ele>1166</ele><time>2026-03-21T11:38:05Z</time></trkpt>
<trkpt lat="43.0345150000" lon="0.1435370000"><ele>1165</ele><time>2026-03-21T11:38:07Z</time></trkpt>
<trkpt lat="43.0345170000" lon="0.1435020000"><ele>1165</ele><time>2026-03-21T11:38:09Z</time></trkpt>
<trkpt lat="43.0345280000" lon="0.1434870000"><ele>1165</ele><time>2026-03-21T11:38:11Z</time></trkpt>
<trkpt lat="43.0345450000" lon="0.1434620000"><ele>1164</ele><time>2026-03-21T11:38:15Z</time></trkpt>
<trkpt lat="43.0345400000" lon="0.1434300000"><ele>1164</ele><time>2026-03-21T11:38:17Z</time></trkpt>
<trkpt lat="43.0345470000" lon="0.1433970000"><ele>1164</ele><time>2026-03-21T11:38:21Z</time></trkpt>
<trkpt lat="43.0345570000" lon="0.1433770000"><ele>1164</ele><time>2026-03-21T11:38:23Z</time></trkpt>
<trkpt lat="43.0345720000" lon="0.1433520000"><ele>1164</ele><time>2026-03-21T11:38:25Z</time></trkpt>
<trkpt lat="43.0345970000" lon="0.1433170000"><ele>1163</ele><time>2026-03-21T11:38:29Z</time></trkpt>
<trkpt lat="43.0346070000" lon="0.1432820000"><ele>1163</ele><time>2026-03-21T11:38:33Z</time></trkpt>
<trkpt lat="43.0346170000" lon="0.1432520000"><ele>1163</ele><time>2026-03-21T11:38:35Z</time></trkpt>
<trkpt lat="43.0346220000" lon="0.1432250000"><ele>1163</ele><time>2026-03-21T11:38:37Z</time></trkpt>
<trkpt lat="43.0346370000" lon="0.1432000000"><ele>1162</ele><time>2026-03-21T11:38:41Z</time></trkpt>
<trkpt lat="43.0346470000" lon="0.1431720000"><ele>1161</ele><time>2026-03-21T11:38:44Z</time></trkpt>
<trkpt lat="43.0346770000" lon="0.1431570000"><ele>1161</ele><time>2026-03-21T11:38:46Z</time></trkpt>
<trkpt lat="43.0346970000" lon="0.1431420000"><ele>1161</ele><time>2026-03-21T11:38:48Z</time></trkpt>
<trkpt lat="43.0347170000" lon="0.1431170000"><ele>1161</ele><time>2026-03-21T11:38:50Z</time></trkpt>
<trkpt lat="43.0347300000" lon="0.1430970000"><ele>1160</ele><time>2026-03-21T11:38:52Z</time></trkpt>
<trkpt lat="43.0347370000" lon="0.1430650000"><ele>1160</ele><time>2026-03-21T11:38:55Z</time></trkpt>
<trkpt lat="43.0347570000" lon="0.1430270000"><ele>1159</ele><time>2026-03-21T11:38:58Z</time></trkpt>
<trkpt lat="43.0347720000" lon="0.1430100000"><ele>1159</ele><time>2026-03-21T11:38:59Z</time></trkpt>
<trkpt lat="43.0347920000" lon="0.1429730000"><ele>1159</ele><time>2026-03-21T11:39:01Z</time></trkpt>
<trkpt lat="43.0348020000" lon="0.1429470000"><ele>1159</ele><time>2026-03-21T11:39:03Z</time></trkpt>
<trkpt lat="43.0348100000" lon="0.1429220000"><ele>1159</ele><time>2026-03-21T11:39:06Z</time></trkpt>
<trkpt lat="43.0348120000" lon="0.1428920000"><ele>1158</ele><time>2026-03-21T11:39:08Z</time></trkpt>
<trkpt lat="43.0348270000" lon="0.1428720000"><ele>1158</ele><time>2026-03-21T11:39:10Z</time></trkpt>
<trkpt lat="43.0348420000" lon="0.1428520000"><ele>1158</ele><time>2026-03-21T11:39:12Z</time></trkpt>
<trkpt lat="43.0348600000" lon="0.1428250000"><ele>1157</ele><time>2026-03-21T11:39:15Z</time></trkpt>
<trkpt lat="43.0348620000" lon="0.1427920000"><ele>1157</ele><time>2026-03-21T11:39:17Z</time></trkpt>
<trkpt lat="43.0348750000" lon="0.1427720000"><ele>1157</ele><time>2026-03-21T11:39:19Z</time></trkpt>
<trkpt lat="43.0348870000" lon="0.1427470000"><ele>1157</ele><time>2026-03-21T11:39:21Z</time></trkpt>
<trkpt lat="43.0348970000" lon="0.1427230000"><ele>1156</ele><time>2026-03-21T11:39:23Z</time></trkpt>
<trkpt lat="43.0349050000" lon="0.1426930000"><ele>1156</ele><time>2026-03-21T11:39:25Z</time></trkpt>
<trkpt lat="43.0349070000" lon="0.1426670000"><ele>1156</ele><time>2026-03-21T11:39:27Z</time></trkpt>
<trkpt lat="43.0349220000" lon="0.1426520000"><ele>1156</ele><time>2026-03-21T11:39:29Z</time></trkpt>
<trkpt lat="43.0349400000" lon="0.1426320000"><ele>1156</ele><time>2026-03-21T11:39:32Z</time></trkpt>
<trkpt lat="43.0349470000" lon="0.1426070000"><ele>1155</ele><time>2026-03-21T11:39:35Z</time></trkpt>
<trkpt lat="43.0349570000" lon="0.1425820000"><ele>1155</ele><time>2026-03-21T11:39:37Z</time></trkpt>
<trkpt lat="43.0349720000" lon="0.1425630000"><ele>1155</ele><time>2026-03-21T11:39:40Z</time></trkpt>
<trkpt lat="43.0349900000" lon="0.1425370000"><ele>1154</ele><time>2026-03-21T11:39:43Z</time></trkpt>
<trkpt lat="43.0350100000" lon="0.1425220000"><ele>1154</ele><time>2026-03-21T11:39:45Z</time></trkpt>
<trkpt lat="43.0350200000" lon="0.1424870000"><ele>1154</ele><time>2026-03-21T11:39:48Z</time></trkpt>
<trkpt lat="43.0350320000" lon="0.1424650000"><ele>1154</ele><time>2026-03-21T11:39:51Z</time></trkpt>
<trkpt lat="43.0350520000" lon="0.1424430000"><ele>1153</ele><time>2026-03-21T11:39:54Z</time></trkpt>
<trkpt lat="43.0350670000" lon="0.1424150000"><ele>1153</ele><time>2026-03-21T11:39:56Z</time></trkpt>
<trkpt lat="43.0350700000" lon="0.1423820000"><ele>1153</ele><time>2026-03-21T11:39:57Z</time></trkpt>
<trkpt lat="43.0350850000" lon="0.1423450000"><ele>1153</ele><time>2026-03-21T11:39:59Z</time></trkpt>
<trkpt lat="43.0350970000" lon="0.1423250000"><ele>1153</ele><time>2026-03-21T11:40:01Z</time></trkpt>
<trkpt lat="43.0351120000" lon="0.1423020000"><ele>1152</ele><time>2026-03-21T11:40:03Z</time></trkpt>
<trkpt lat="43.0351320000" lon="0.1422750000"><ele>1152</ele><time>2026-03-21T11:40:06Z</time></trkpt>
<trkpt lat="43.0351470000" lon="0.1422470000"><ele>1152</ele><time>2026-03-21T11:40:09Z</time></trkpt>
<trkpt lat="43.0351520000" lon="0.1422170000"><ele>1151</ele><time>2026-03-21T11:40:11Z</time></trkpt>
<trkpt lat="43.0351700000" lon="0.1421920000"><ele>1151</ele><time>2026-03-21T11:40:13Z</time></trkpt>
<trkpt lat="43.0351770000" lon="0.1421570000"><ele>1151</ele><time>2026-03-21T11:40:16Z</time></trkpt>
<trkpt lat="43.0351920000" lon="0.1421420000"><ele>1150</ele><time>2026-03-21T11:40:19Z</time></trkpt>
<trkpt lat="43.0352120000" lon="0.1421220000"><ele>1150</ele><time>2026-03-21T11:40:22Z</time></trkpt>
<trkpt lat="43.0352270000" lon="0.1421020000"><ele>1150</ele><time>2026-03-21T11:40:24Z</time></trkpt>
<trkpt lat="43.0352370000" lon="0.1420820000"><ele>1150</ele><time>2026-03-21T11:40:26Z</time></trkpt>
<trkpt lat="43.0352570000" lon="0.1420620000"><ele>1150</ele><time>2026-03-21T11:40:29Z</time></trkpt>
<trkpt lat="43.0352670000" lon="0.1420320000"><ele>1149</ele><time>2026-03-21T11:40:31Z</time></trkpt>
<trkpt lat="43.0352820000" lon="0.1420170000"><ele>1149</ele><time>2026-03-21T11:40:34Z</time></trkpt>
<trkpt lat="43.0353050000" lon="0.1420070000"><ele>1149</ele><time>2026-03-21T11:40:36Z</time></trkpt>
<trkpt lat="43.0353320000" lon="0.1419970000"><ele>1149</ele><time>2026-03-21T11:40:38Z</time></trkpt>
<trkpt lat="43.0353400000" lon="0.1419720000"><ele>1148</ele><time>2026-03-21T11:40:40Z</time></trkpt>
<trkpt lat="43.0353470000" lon="0.1419470000"><ele>1148</ele><time>2026-03-21T11:40:42Z</time></trkpt>
<trkpt lat="43.0353770000" lon="0.1419350000"><ele>1148</ele><time>2026-03-21T11:40:46Z</time></trkpt>
<trkpt lat="43.0354020000" lon="0.1419020000"><ele>1147</ele><time>2026-03-21T11:40:48Z</time></trkpt>
<trkpt lat="43.0354220000" lon="0.1418820000"><ele>1147</ele><time>2026-03-21T11:40:50Z</time></trkpt>
<trkpt lat="43.0354320000" lon="0.1418570000"><ele>1147</ele><time>2026-03-21T11:40:52Z</time></trkpt>
<trkpt lat="43.0354520000" lon="0.1418370000"><ele>1146</ele><time>2026-03-21T11:40:55Z</time></trkpt>
<trkpt lat="43.0354700000" lon="0.1418170000"><ele>1146</ele><time>2026-03-21T11:40:57Z</time></trkpt>
<trkpt lat="43.0354770000" lon="0.1417920000"><ele>1145</ele><time>2026-03-21T11:41:00Z</time></trkpt>
<trkpt lat="43.0354970000" lon="0.1417750000"><ele>1145</ele><time>2026-03-21T11:41:05Z</time></trkpt>
<trkpt lat="43.0355170000" lon="0.1417620000"><ele>1145</ele><time>2026-03-21T11:41:07Z</time></trkpt>
<trkpt lat="43.0355350000" lon="0.1417270000"><ele>1145</ele><time>2026-03-21T11:41:09Z</time></trkpt>
<trkpt lat="43.0355520000" lon="0.1416920000"><ele>1145</ele><time>2026-03-21T11:41:11Z</time></trkpt>
<trkpt lat="43.0355720000" lon="0.1416770000"><ele>1144</ele><time>2026-03-21T11:41:13Z</time></trkpt>
<trkpt lat="43.0355970000" lon="0.1416600000"><ele>1144</ele><time>2026-03-21T11:41:16Z</time></trkpt>
<trkpt lat="43.0356100000" lon="0.1416320000"><ele>1143</ele><time>2026-03-21T11:41:18Z</time></trkpt>
<trkpt lat="43.0356320000" lon="0.1416170000"><ele>1143</ele><time>2026-03-21T11:41:20Z</time></trkpt>
<trkpt lat="43.0356570000" lon="0.1416050000"><ele>1143</ele><time>2026-03-21T11:41:22Z</time></trkpt>
<trkpt lat="43.0356750000" lon="0.1415750000"><ele>1142</ele><time>2026-03-21T11:41:26Z</time></trkpt>
<trkpt lat="43.0357000000" lon="0.1415570000"><ele>1142</ele><time>2026-03-21T11:41:29Z</time></trkpt>
<trkpt lat="43.0357170000" lon="0.1415450000"><ele>1142</ele><time>2026-03-21T11:41:31Z</time></trkpt>
<trkpt lat="43.0357380000" lon="0.1415420000"><ele>1142</ele><time>2026-03-21T11:41:33Z</time></trkpt>
<trkpt lat="43.0357550000" lon="0.1415220000"><ele>1141</ele><time>2026-03-21T11:41:35Z</time></trkpt>
<trkpt lat="43.0357620000" lon="0.1414970000"><ele>1141</ele><time>2026-03-21T11:41:37Z</time></trkpt>
<trkpt lat="43.0357800000" lon="0.1414770000"><ele>1141</ele><time>2026-03-21T11:41:40Z</time></trkpt>
<trkpt lat="43.0358020000" lon="0.1414670000"><ele>1141</ele><time>2026-03-21T11:41:42Z</time></trkpt>
<trkpt lat="43.0358170000" lon="0.1414520000"><ele>1141</ele><time>2026-03-21T11:41:45Z</time></trkpt>
<trkpt lat="43.0358420000" lon="0.1414420000"><ele>1141</ele><time>2026-03-21T11:41:48Z</time></trkpt>
<trkpt lat="43.0358600000" lon="0.1414300000"><ele>1141</ele><time>2026-03-21T11:41:50Z</time></trkpt>
<trkpt lat="43.0358770000" lon="0.1414220000"><ele>1140</ele><time>2026-03-21T11:41:53Z</time></trkpt>
<trkpt lat="43.0358920000" lon="0.1414020000"><ele>1140</ele><time>2026-03-21T11:41:56Z</time></trkpt>
<trkpt lat="43.0359150000" lon="0.1413950000"><ele>1140</ele><time>2026-03-21T11:41:59Z</time></trkpt>
<trkpt lat="43.0359320000" lon="0.1413850000"><ele>1140</ele><time>2026-03-21T11:42:01Z</time></trkpt>
<trkpt lat="43.0359550000" lon="0.1413870000"><ele>1139</ele><time>2026-03-21T11:42:03Z</time></trkpt>
<trkpt lat="43.0359750000" lon="0.1413950000"><ele>1139</ele><time>2026-03-21T11:42:05Z</time></trkpt>
<trkpt lat="43.0359970000" lon="0.1414020000"><ele>1139</ele><time>2026-03-21T11:42:08Z</time></trkpt>
<trkpt lat="43.0360150000" lon="0.1413920000"><ele>1138</ele><time>2026-03-21T11:42:12Z</time></trkpt>
<trkpt lat="43.0360300000" lon="0.1413720000"><ele>1138</ele><time>2026-03-21T11:42:15Z</time></trkpt>
<trkpt lat="43.0360470000" lon="0.1413500000"><ele>1137</ele><time>2026-03-21T11:42:21Z</time></trkpt>
<trkpt lat="43.0360670000" lon="0.1413320000"><ele>1138</ele><time>2026-03-21T11:42:24Z</time></trkpt>
<trkpt lat="43.0360920000" lon="0.1413320000"><ele>1137</ele><time>2026-03-21T11:42:26Z</time></trkpt>
<trkpt lat="43.0361070000" lon="0.1413220000"><ele>1137</ele><time>2026-03-21T11:42:28Z</time></trkpt>
<trkpt lat="43.0361320000" lon="0.1413120000"><ele>1137</ele><time>2026-03-21T11:42:31Z</time></trkpt>
<trkpt lat="43.0361550000" lon="0.1413020000"><ele>1136</ele><time>2026-03-21T11:42:35Z</time></trkpt>
<trkpt lat="43.0361720000" lon="0.1412900000"><ele>1136</ele><time>2026-03-21T11:42:37Z</time></trkpt>
<trkpt lat="43.0361920000" lon="0.1412720000"><ele>1136</ele><time>2026-03-21T11:42:39Z</time></trkpt>
<trkpt lat="43.0362120000" lon="0.1412670000"><ele>1136</ele><time>2026-03-21T11:42:41Z</time></trkpt>
<trkpt lat="43.0362320000" lon="0.1412700000"><ele>1136</ele><time>2026-03-21T11:42:43Z</time></trkpt>
<trkpt lat="43.0362570000" lon="0.1412750000"><ele>1135</ele><time>2026-03-21T11:42:45Z</time></trkpt>
<trkpt lat="43.0362770000" lon="0.1412620000"><ele>1135</ele><time>2026-03-21T11:42:47Z</time></trkpt>
<trkpt lat="43.0362920000" lon="0.1412470000"><ele>1135</ele><time>2026-03-21T11:42:49Z</time></trkpt>
<trkpt lat="43.0363070000" lon="0.1412350000"><ele>1134</ele><time>2026-03-21T11:42:52Z</time></trkpt>
<trkpt lat="43.0363320000" lon="0.1412400000"><ele>1134</ele><time>2026-03-21T11:42:56Z</time></trkpt>
<trkpt lat="43.0363570000" lon="0.1412300000"><ele>1134</ele><time>2026-03-21T11:42:59Z</time></trkpt>
<trkpt lat="43.0363750000" lon="0.1412170000"><ele>1134</ele><time>2026-03-21T11:43:01Z</time></trkpt>
<trkpt lat="43.0364070000" lon="0.1411920000"><ele>1133</ele><time>2026-03-21T11:43:03Z</time></trkpt>
<trkpt lat="43.0364250000" lon="0.1411820000"><ele>1133</ele><time>2026-03-21T11:43:07Z</time></trkpt>
<trkpt lat="43.0364420000" lon="0.1411900000"><ele>1133</ele><time>2026-03-21T11:43:12Z</time></trkpt>
<trkpt lat="43.0364670000" lon="0.1411780000"><ele>1132</ele><time>2026-03-21T11:43:13Z</time></trkpt>
<trkpt lat="43.0364950000" lon="0.1411620000"><ele>1132</ele><time>2026-03-21T11:43:15Z</time></trkpt>
<trkpt lat="43.0365200000" lon="0.1411470000"><ele>1132</ele><time>2026-03-21T11:43:17Z</time></trkpt>
<trkpt lat="43.0365400000" lon="0.1411420000"><ele>1132</ele><time>2026-03-21T11:43:19Z</time></trkpt>
<trkpt lat="43.0365620000" lon="0.1411550000"><ele>1132</ele><time>2026-03-21T11:43:21Z</time></trkpt>
<trkpt lat="43.0365850000" lon="0.1411570000"><ele>1132</ele><time>2026-03-21T11:43:23Z</time></trkpt>
<trkpt lat="43.0366050000" lon="0.1411670000"><ele>1132</ele><time>2026-03-21T11:43:25Z</time></trkpt>
<trkpt lat="43.0366220000" lon="0.1411670000"><ele>1131</ele><time>2026-03-21T11:43:27Z</time></trkpt>
<trkpt lat="43.0366450000" lon="0.1411820000"><ele>1131</ele><time>2026-03-21T11:43:30Z</time></trkpt>
<trkpt lat="43.0366720000" lon="0.1411820000"><ele>1131</ele><time>2026-03-21T11:43:33Z</time></trkpt>
<trkpt lat="43.0366920000" lon="0.1411770000"><ele>1130</ele><time>2026-03-21T11:43:35Z</time></trkpt>
<trkpt lat="43.0367070000" lon="0.1411570000"><ele>1130</ele><time>2026-03-21T11:43:37Z</time></trkpt>
<trkpt lat="43.0367230000" lon="0.1411730000"><ele>1129</ele><time>2026-03-21T11:43:40Z</time></trkpt>
<trkpt lat="43.0367400000" lon="0.1411920000"><ele>1129</ele><time>2026-03-21T11:43:42Z</time></trkpt>
<trkpt lat="43.0367570000" lon="0.1412020000"><ele>1129</ele><time>2026-03-21T11:43:44Z</time></trkpt>
<trkpt lat="43.0367850000" lon="0.1411980000"><ele>1128</ele><time>2026-03-21T11:43:47Z</time></trkpt>
<trkpt lat="43.0368120000" lon="0.1411920000"><ele>1127</ele><time>2026-03-21T11:43:49Z</time></trkpt>
<trkpt lat="43.0368350000" lon="0.1412120000"><ele>1127</ele><time>2026-03-21T11:43:53Z</time></trkpt>
<trkpt lat="43.0368520000" lon="0.1412320000"><ele>1127</ele><time>2026-03-21T11:43:55Z</time></trkpt>
<trkpt lat="43.0368750000" lon="0.1412420000"><ele>1127</ele><time>2026-03-21T11:43:57Z</time></trkpt>
<trkpt lat="43.0368950000" lon="0.1412420000"><ele>1127</ele><time>2026-03-21T11:43:59Z</time></trkpt>
<trkpt lat="43.0369150000" lon="0.1412420000"><ele>1127</ele><time>2026-03-21T11:44:01Z</time></trkpt>
<trkpt lat="43.0369370000" lon="0.1412520000"><ele>1126</ele><time>2026-03-21T11:44:03Z</time></trkpt>
<trkpt lat="43.0369600000" lon="0.1412620000"><ele>1126</ele><time>2026-03-21T11:44:05Z</time></trkpt>
<trkpt lat="43.0369820000" lon="0.1412700000"><ele>1126</ele><time>2026-03-21T11:44:08Z</time></trkpt>
<trkpt lat="43.0370070000" lon="0.1412670000"><ele>1125</ele><time>2026-03-21T11:44:10Z</time></trkpt>
<trkpt lat="43.0370320000" lon="0.1412620000"><ele>1125</ele><time>2026-03-21T11:44:13Z</time></trkpt>
<trkpt lat="43.0370570000" lon="0.1412570000"><ele>1125</ele><time>2026-03-21T11:44:17Z</time></trkpt>
<trkpt lat="43.0370800000" lon="0.1412600000"><ele>1124</ele><time>2026-03-21T11:44:19Z</time></trkpt>
<trkpt lat="43.0371000000" lon="0.1412480000"><ele>1124</ele><time>2026-03-21T11:44:21Z</time></trkpt>
<trkpt lat="43.0371170000" lon="0.1412620000"><ele>1123</ele><time>2026-03-21T11:44:24Z</time></trkpt>
<trkpt lat="43.0371320000" lon="0.1412770000"><ele>1122</ele><time>2026-03-21T11:44:28Z</time></trkpt>
<trkpt lat="43.0371470000" lon="0.1413000000"><ele>1122</ele><time>2026-03-21T11:44:31Z</time></trkpt>
<trkpt lat="43.0371670000" lon="0.1413250000"><ele>1121</ele><time>2026-03-21T11:44:34Z</time></trkpt>
<trkpt lat="43.0371850000" lon="0.1413470000"><ele>1121</ele><time>2026-03-21T11:44:36Z</time></trkpt>
<trkpt lat="43.0372120000" lon="0.1413670000"><ele>1121</ele><time>2026-03-21T11:44:38Z</time></trkpt>
<trkpt lat="43.0372420000" lon="0.1413870000"><ele>1120</ele><time>2026-03-21T11:44:40Z</time></trkpt>
<trkpt lat="43.0372600000" lon="0.1413970000"><ele>1120</ele><time>2026-03-21T11:44:44Z</time></trkpt>
<trkpt lat="43.0372820000" lon="0.1414070000"><ele>1119</ele><time>2026-03-21T11:44:47Z</time></trkpt>
<trkpt lat="43.0373050000" lon="0.1414200000"><ele>1119</ele><time>2026-03-21T11:44:49Z</time></trkpt>
<trkpt lat="43.0373250000" lon="0.1414320000"><ele>1119</ele><time>2026-03-21T11:44:51Z</time></trkpt>
<trkpt lat="43.0373250000" lon="0.1414620000"><ele>1119</ele><time>2026-03-21T11:44:54Z</time></trkpt>
<trkpt lat="43.0373420000" lon="0.1414920000"><ele>1118</ele><time>2026-03-21T11:44:57Z</time></trkpt>
<trkpt lat="43.0373700000" lon="0.1415120000"><ele>1118</ele><time>2026-03-21T11:44:59Z</time></trkpt>
<trkpt lat="43.0373900000" lon="0.1415070000"><ele>1118</ele><time>2026-03-21T11:45:01Z</time></trkpt>
<trkpt lat="43.0374050000" lon="0.1414870000"><ele>1118</ele><time>2026-03-21T11:45:06Z</time></trkpt>
<trkpt lat="43.0374050000" lon="0.1415200000"><ele>1117</ele><time>2026-03-21T11:46:14Z</time></trkpt>
<trkpt lat="43.0374270000" lon="0.1415120000"><ele>1117</ele><time>2026-03-21T11:46:20Z</time></trkpt>
<trkpt lat="43.0374470000" lon="0.1415070000"><ele>1117</ele><time>2026-03-21T11:46:24Z</time></trkpt>
<trkpt lat="43.0374570000" lon="0.1415350000"><ele>1117</ele><time>2026-03-21T11:46:37Z</time></trkpt>
<trkpt lat="43.0374620000" lon="0.1415600000"><ele>1117</ele><time>2026-03-21T11:46:38Z</time></trkpt>
<trkpt lat="43.0374650000" lon="0.1415830000"><ele>1117</ele><time>2026-03-21T11:46:39Z</time></trkpt>
<trkpt lat="43.0374720000" lon="0.1416250000"><ele>1117</ele><time>2026-03-21T11:46:41Z</time></trkpt>
<trkpt lat="43.0374920000" lon="0.1416470000"><ele>1117</ele><time>2026-03-21T11:46:44Z</time></trkpt>
<trkpt lat="43.0375120000" lon="0.1416450000"><ele>1117</ele><time>2026-03-21T11:46:47Z</time></trkpt>
<trkpt lat="43.0375350000" lon="0.1416470000"><ele>1117</ele><time>2026-03-21T11:46:52Z</time></trkpt>
<trkpt lat="43.0375520000" lon="0.1416450000"><ele>1118</ele><time>2026-03-21T11:46:55Z</time></trkpt>
<trkpt lat="43.0375720000" lon="0.1416370000"><ele>1118</ele><time>2026-03-21T11:46:59Z</time></trkpt>
<trkpt lat="43.0375900000" lon="0.1416300000"><ele>1119</ele><time>2026-03-21T11:47:04Z</time></trkpt>
<trkpt lat="43.0376020000" lon="0.1416470000"><ele>1119</ele><time>2026-03-21T11:47:07Z</time></trkpt>
<trkpt lat="43.0376120000" lon="0.1416700000"><ele>1119</ele><time>2026-03-21T11:47:10Z</time></trkpt>
<trkpt lat="43.0376200000" lon="0.1416970000"><ele>1119</ele><time>2026-03-21T11:47:13Z</time></trkpt>
<trkpt lat="43.0376150000" lon="0.1417220000"><ele>1120</ele><time>2026-03-21T11:47:18Z</time></trkpt>
<trkpt lat="43.0376020000" lon="0.1417400000"><ele>1120</ele><time>2026-03-21T11:47:22Z</time></trkpt>
<trkpt lat="43.0376420000" lon="0.1417670000"><ele>1125</ele><time>2026-03-21T11:48:32Z</time></trkpt>
<trkpt lat="43.0376720000" lon="0.1417950000"><ele>1125</ele><time>2026-03-21T11:48:33Z</time></trkpt>
<trkpt lat="43.0377120000" lon="0.1418270000"><ele>1125</ele><time>2026-03-21T11:48:34Z</time></trkpt>
<trkpt lat="43.0377500000" lon="0.1418600000"><ele>1125</ele><time>2026-03-21T11:48:35Z</time></trkpt>
<trkpt lat="43.0377820000" lon="0.1418850000"><ele>1125</ele><time>2026-03-21T11:48:36Z</time></trkpt>
<trkpt lat="43.0377970000" lon="0.1419020000"><ele>1125</ele><time>2026-03-21T11:48:37Z</time></trkpt>
<trkpt lat="43.0378050000" lon="0.1419320000"><ele>1128</ele><time>2026-03-21T11:49:16Z</time></trkpt>
<trkpt lat="43.0378100000" lon="0.1419570000"><ele>1128</ele><time>2026-03-21T11:49:18Z</time></trkpt>
<trkpt lat="43.0377970000" lon="0.1419900000"><ele>1128</ele><time>2026-03-21T11:49:23Z</time></trkpt>
<trkpt lat="43.0378020000" lon="0.1419570000"><ele>1128</ele><time>2026-03-21T11:50:03Z</time></trkpt>
<trkpt lat="43.0378150000" lon="0.1419300000"><ele>1129</ele><time>2026-03-21T11:50:04Z</time></trkpt>
<trkpt lat="43.0378250000" lon="0.1419020000"><ele>1129</ele><time>2026-03-21T11:50:05Z</time></trkpt>
<trkpt lat="43.0378420000" lon="0.1418680000"><ele>1129</ele><time>2026-03-21T11:50:07Z</time></trkpt>
<trkpt lat="43.0378630000" lon="0.1418550000"><ele>1129</ele><time>2026-03-21T11:50:09Z</time></trkpt>
<trkpt lat="43.0378850000" lon="0.1418270000"><ele>1132</ele><time>2026-03-21T11:51:10Z</time></trkpt>
<trkpt lat="43.0379070000" lon="0.1417780000"><ele>1133</ele><time>2026-03-21T11:51:12Z</time></trkpt>
<trkpt lat="43.0379170000" lon="0.1417520000"><ele>1133</ele><time>2026-03-21T11:51:13Z</time></trkpt>
<trkpt lat="43.0379330000" lon="0.1417120000"><ele>1133</ele><time>2026-03-21T11:51:15Z</time></trkpt>
<trkpt lat="43.0379520000" lon="0.1417070000"><ele>1134</ele><time>2026-03-21T11:51:18Z</time></trkpt>
<trkpt lat="43.0379670000" lon="0.1416770000"><ele>1140</ele><time>2026-03-21T11:52:39Z</time></trkpt>
<trkpt lat="43.0379770000" lon="0.1416420000"><ele>1140</ele><time>2026-03-21T11:52:40Z</time></trkpt>
<trkpt lat="43.0379870000" lon="0.1416020000"><ele>1140</ele><time>2026-03-21T11:52:41Z</time></trkpt>
<trkpt lat="43.0379970000" lon="0.1415620000"><ele>1140</ele><time>2026-03-21T11:52:42Z</time></trkpt>
<trkpt lat="43.0380100000" lon="0.1415270000"><ele>1139</ele><time>2026-03-21T11:53:10Z</time></trkpt>
<trkpt lat="43.0380120000" lon="0.1414980000"><ele>1139</ele><time>2026-03-21T11:53:12Z</time></trkpt>
<trkpt lat="43.0380070000" lon="0.1414730000"><ele>1135</ele><time>2026-03-21T12:02:32Z</time></trkpt>
<trkpt lat="43.0380220000" lon="0.1414950000"><ele>1135</ele><time>2026-03-21T12:03:02Z</time></trkpt>
<trkpt lat="43.0380120000" lon="0.1414670000"><ele>1135</ele><time>2026-03-21T12:03:52Z</time></trkpt>
<trkpt lat="43.0380070000" lon="0.1414980000"><ele>1135</ele><time>2026-03-21T12:04:20Z</time></trkpt>
<trkpt lat="43.0379870000" lon="0.1415170000"><ele>1135</ele><time>2026-03-21T12:04:22Z</time></trkpt>
<trkpt lat="43.0379850000" lon="0.1414920000"><ele>1135</ele><time>2026-03-21T12:07:28Z</time></trkpt>
<trkpt lat="43.0379920000" lon="0.1415170000"><ele>1135</ele><time>2026-03-21T12:07:32Z</time></trkpt>
<trkpt lat="43.0380150000" lon="0.1415020000"><ele>1134</ele><time>2026-03-21T12:09:31Z</time></trkpt>
<trkpt lat="43.0380070000" lon="0.1414780000"><ele>1134</ele><time>2026-03-21T12:09:37Z</time></trkpt>
<trkpt lat="43.0380320000" lon="0.1414970000"><ele>1136</ele><time>2026-03-21T12:13:15Z</time></trkpt>
<trkpt lat="43.0380520000" lon="0.1414980000"><ele>1136</ele><time>2026-03-21T12:13:17Z</time></trkpt>
<trkpt lat="43.0380720000" lon="0.1414970000"><ele>1136</ele><time>2026-03-21T12:13:19Z</time></trkpt>
<trkpt lat="43.0380520000" lon="0.1415220000"><ele>1136</ele><time>2026-03-21T12:14:29Z</time></trkpt>
<trkpt lat="43.0380320000" lon="0.1415400000"><ele>1136</ele><time>2026-03-21T12:14:31Z</time></trkpt>
<trkpt lat="43.0380170000" lon="0.1415620000"><ele>1136</ele><time>2026-03-21T12:15:14Z</time></trkpt>
<trkpt lat="43.0380020000" lon="0.1415820000"><ele>1135</ele><time>2026-03-21T12:15:16Z</time></trkpt>
<trkpt lat="43.0379970000" lon="0.1416120000"><ele>1135</ele><time>2026-03-21T12:15:19Z</time></trkpt>
<trkpt lat="43.0379820000" lon="0.1416300000"><ele>1135</ele><time>2026-03-21T12:15:22Z</time></trkpt>
<trkpt lat="43.0379750000" lon="0.1416570000"><ele>1134</ele><time>2026-03-21T12:15:26Z</time></trkpt>
<trkpt lat="43.0379720000" lon="0.1416850000"><ele>1133</ele><time>2026-03-21T12:15:31Z</time></trkpt>
<trkpt lat="43.0379600000" lon="0.1417170000"><ele>1124</ele><time>2026-03-21T12:17:06Z</time></trkpt>
<trkpt lat="43.0379420000" lon="0.1417620000"><ele>1124</ele><time>2026-03-21T12:17:07Z</time></trkpt>
<trkpt lat="43.0379170000" lon="0.1418120000"><ele>1124</ele><time>2026-03-21T12:17:08Z</time></trkpt>
<trkpt lat="43.0378950000" lon="0.1418620000"><ele>1124</ele><time>2026-03-21T12:17:09Z</time></trkpt>
<trkpt lat="43.0378770000" lon="0.1419000000"><ele>1124</ele><time>2026-03-21T12:17:10Z</time></trkpt>
<trkpt lat="43.0378620000" lon="0.1419170000"><ele>1124</ele><time>2026-03-21T12:17:11Z</time></trkpt>
<trkpt lat="43.0378470000" lon="0.1419020000"><ele>1124</ele><time>2026-03-21T12:17:14Z</time></trkpt>
<trkpt lat="43.0378320000" lon="0.1419170000"><ele>1124</ele><time>2026-03-21T12:17:17Z</time></trkpt>
<trkpt lat="43.0378170000" lon="0.1419020000"><ele>1123</ele><time>2026-03-21T12:17:21Z</time></trkpt>
<trkpt lat="43.0378100000" lon="0.1418720000"><ele>1123</ele><time>2026-03-21T12:17:25Z</time></trkpt>
<trkpt lat="43.0377970000" lon="0.1418470000"><ele>1122</ele><time>2026-03-21T12:17:29Z</time></trkpt>
<trkpt lat="43.0377770000" lon="0.1418370000"><ele>1122</ele><time>2026-03-21T12:17:32Z</time></trkpt>
<trkpt lat="43.0377570000" lon="0.1418350000"><ele>1121</ele><time>2026-03-21T12:17:36Z</time></trkpt>
<trkpt lat="43.0377420000" lon="0.1418220000"><ele>1120</ele><time>2026-03-21T12:17:41Z</time></trkpt>
<trkpt lat="43.0377220000" lon="0.1418250000"><ele>1119</ele><time>2026-03-21T12:17:45Z</time></trkpt>
<trkpt lat="43.0377150000" lon="0.1418020000"><ele>1118</ele><time>2026-03-21T12:17:48Z</time></trkpt>
<trkpt lat="43.0377000000" lon="0.1417750000"><ele>1118</ele><time>2026-03-21T12:17:51Z</time></trkpt>
<trkpt lat="43.0376820000" lon="0.1417520000"><ele>1117</ele><time>2026-03-21T12:17:54Z</time></trkpt>
<trkpt lat="43.0376620000" lon="0.1417450000"><ele>1117</ele><time>2026-03-21T12:17:57Z</time></trkpt>
<trkpt lat="43.0376420000" lon="0.1417330000"><ele>1116</ele><time>2026-03-21T12:18:00Z</time></trkpt>
<trkpt lat="43.0376170000" lon="0.1417320000"><ele>1116</ele><time>2026-03-21T12:18:03Z</time></trkpt>
<trkpt lat="43.0376000000" lon="0.1417050000"><ele>1115</ele><time>2026-03-21T12:18:05Z</time></trkpt>
<trkpt lat="43.0375900000" lon="0.1416800000"><ele>1115</ele><time>2026-03-21T12:18:07Z</time></trkpt>
<trkpt lat="43.0375720000" lon="0.1416550000"><ele>1115</ele><time>2026-03-21T12:18:10Z</time></trkpt>
<trkpt lat="43.0375600000" lon="0.1416220000"><ele>1114</ele><time>2026-03-21T12:18:13Z</time></trkpt>
<trkpt lat="43.0375520000" lon="0.1415920000"><ele>1114</ele><time>2026-03-21T12:18:15Z</time></trkpt>
<trkpt lat="43.0375370000" lon="0.1415770000"><ele>1114</ele><time>2026-03-21T12:18:18Z</time></trkpt>
<trkpt lat="43.0375100000" lon="0.1415620000"><ele>1114</ele><time>2026-03-21T12:18:20Z</time></trkpt>
<trkpt lat="43.0374950000" lon="0.1415420000"><ele>1114</ele><time>2026-03-21T12:18:22Z</time></trkpt>
<trkpt lat="43.0374820000" lon="0.1415200000"><ele>1113</ele><time>2026-03-21T12:18:24Z</time></trkpt>
<trkpt lat="43.0374700000" lon="0.1414970000"><ele>1113</ele><time>2026-03-21T12:18:26Z</time></trkpt>
<trkpt lat="43.0374620000" lon="0.1414620000"><ele>1113</ele><time>2026-03-21T12:18:29Z</time></trkpt>
<trkpt lat="43.0374670000" lon="0.1414320000"><ele>1113</ele><time>2026-03-21T12:18:31Z</time></trkpt>
<trkpt lat="43.0374720000" lon="0.1414070000"><ele>1112</ele><time>2026-03-21T12:18:33Z</time></trkpt>
<trkpt lat="43.0374720000" lon="0.1413770000"><ele>1112</ele><time>2026-03-21T12:18:35Z</time></trkpt>
<trkpt lat="43.0374770000" lon="0.1413470000"><ele>1112</ele><time>2026-03-21T12:18:37Z</time></trkpt>
<trkpt lat="43.0374750000" lon="0.1413170000"><ele>1112</ele><time>2026-03-21T12:18:39Z</time></trkpt>
<trkpt lat="43.0374770000" lon="0.1412900000"><ele>1112</ele><time>2026-03-21T12:18:41Z</time></trkpt>
<trkpt lat="43.0374770000" lon="0.1412620000"><ele>1112</ele><time>2026-03-21T12:18:43Z</time></trkpt>
<trkpt lat="43.0374720000" lon="0.1412320000"><ele>1112</ele><time>2026-03-21T12:18:45Z</time></trkpt>
<trkpt lat="43.0374800000" lon="0.1411970000"><ele>1112</ele><time>2026-03-21T12:18:48Z</time></trkpt>
<trkpt lat="43.0374830000" lon="0.1411720000"><ele>1112</ele><time>2026-03-21T12:18:50Z</time></trkpt>
<trkpt lat="43.0374920000" lon="0.1411450000"><ele>1111</ele><time>2026-03-21T12:18:52Z</time></trkpt>
<trkpt lat="43.0374920000" lon="0.1411120000"><ele>1111</ele><time>2026-03-21T12:18:54Z</time></trkpt>
<trkpt lat="43.0374970000" lon="0.1410830000"><ele>1111</ele><time>2026-03-21T12:18:56Z</time></trkpt>
<trkpt lat="43.0375020000" lon="0.1410570000"><ele>1111</ele><time>2026-03-21T12:18:58Z</time></trkpt>
<trkpt lat="43.0375050000" lon="0.1410320000"><ele>1110</ele><time>2026-03-21T12:19:00Z</time></trkpt>
<trkpt lat="43.0375070000" lon="0.1409920000"><ele>1110</ele><time>2026-03-21T12:19:13Z</time></trkpt>
<trkpt lat="43.0375100000" lon="0.1409570000"><ele>1110</ele><time>2026-03-21T12:19:15Z</time></trkpt>
<trkpt lat="43.0375170000" lon="0.1409320000"><ele>1110</ele><time>2026-03-21T12:19:17Z</time></trkpt>
<trkpt lat="43.0375170000" lon="0.1409020000"><ele>1109</ele><time>2026-03-21T12:19:19Z</time></trkpt>
<trkpt lat="43.0375150000" lon="0.1408720000"><ele>1109</ele><time>2026-03-21T12:19:21Z</time></trkpt>
<trkpt lat="43.0375100000" lon="0.1408420000"><ele>1109</ele><time>2026-03-21T12:19:23Z</time></trkpt>
<trkpt lat="43.0375120000" lon="0.1408050000"><ele>1109</ele><time>2026-03-21T12:19:26Z</time></trkpt>
<trkpt lat="43.0375270000" lon="0.1407830000"><ele>1108</ele><time>2026-03-21T12:19:29Z</time></trkpt>
<trkpt lat="43.0375370000" lon="0.1407620000"><ele>1108</ele><time>2026-03-21T12:19:31Z</time></trkpt>
<trkpt lat="43.0375270000" lon="0.1407320000"><ele>1108</ele><time>2026-03-21T12:19:34Z</time></trkpt>
<trkpt lat="43.0375300000" lon="0.1407000000"><ele>1108</ele><time>2026-03-21T12:19:36Z</time></trkpt>
<trkpt lat="43.0375300000" lon="0.1406670000"><ele>1107</ele><time>2026-03-21T12:19:38Z</time></trkpt>
<trkpt lat="43.0375400000" lon="0.1406320000"><ele>1107</ele><time>2026-03-21T12:19:40Z</time></trkpt>
<trkpt lat="43.0375320000" lon="0.1405920000"><ele>1107</ele><time>2026-03-21T12:19:42Z</time></trkpt>
<trkpt lat="43.0375250000" lon="0.1405620000"><ele>1106</ele><time>2026-03-21T12:19:44Z</time></trkpt>
<trkpt lat="43.0375220000" lon="0.1405370000"><ele>1106</ele><time>2026-03-21T12:19:46Z</time></trkpt>
<trkpt lat="43.0375370000" lon="0.1405120000"><ele>1106</ele><time>2026-03-21T12:19:48Z</time></trkpt>
<trkpt lat="43.0375620000" lon="0.1405030000"><ele>1105</ele><time>2026-03-21T12:19:50Z</time></trkpt>
<trkpt lat="43.0375900000" lon="0.1405280000"><ele>1105</ele><time>2026-03-21T12:19:52Z</time></trkpt>
<trkpt lat="43.0376070000" lon="0.1405520000"><ele>1105</ele><time>2026-03-21T12:19:53Z</time></trkpt>
<trkpt lat="43.0376350000" lon="0.1405900000"><ele>1104</ele><time>2026-03-21T12:19:55Z</time></trkpt>
<trkpt lat="43.0376570000" lon="0.1406130000"><ele>1104</ele><time>2026-03-21T12:19:57Z</time></trkpt>
<trkpt lat="43.0376720000" lon="0.1406320000"><ele>1104</ele><time>2026-03-21T12:19:59Z</time></trkpt>
<trkpt lat="43.0376900000" lon="0.1406550000"><ele>1104</ele><time>2026-03-21T12:20:01Z</time></trkpt>
<trkpt lat="43.0377070000" lon="0.1406720000"><ele>1103</ele><time>2026-03-21T12:20:03Z</time></trkpt>
<trkpt lat="43.0377220000" lon="0.1406900000"><ele>1103</ele><time>2026-03-21T12:20:05Z</time></trkpt>
<trkpt lat="43.0377400000" lon="0.1407070000"><ele>1103</ele><time>2026-03-21T12:20:07Z</time></trkpt>
<trkpt lat="43.0377570000" lon="0.1407220000"><ele>1103</ele><time>2026-03-21T12:20:09Z</time></trkpt>
<trkpt lat="43.0377670000" lon="0.1407520000"><ele>1103</ele><time>2026-03-21T12:20:11Z</time></trkpt>
<trkpt lat="43.0377850000" lon="0.1407700000"><ele>1103</ele><time>2026-03-21T12:20:13Z</time></trkpt>
<trkpt lat="43.0378020000" lon="0.1407920000"><ele>1103</ele><time>2026-03-21T12:20:34Z</time></trkpt>
<trkpt lat="43.0378170000" lon="0.1408070000"><ele>1103</ele><time>2026-03-21T12:20:36Z</time></trkpt>
<trkpt lat="43.0378520000" lon="0.1408250000"><ele>1104</ele><time>2026-03-21T12:20:41Z</time></trkpt>
<trkpt lat="43.0378770000" lon="0.1408300000"><ele>1104</ele><time>2026-03-21T12:20:43Z</time></trkpt>
<trkpt lat="43.0378950000" lon="0.1408420000"><ele>1104</ele><time>2026-03-21T12:20:46Z</time></trkpt>
<trkpt lat="43.0378720000" lon="0.1408320000"><ele>1104</ele><time>2026-03-21T12:20:51Z</time></trkpt>
<trkpt lat="43.0379050000" lon="0.1408250000"><ele>1105</ele><time>2026-03-21T12:21:05Z</time></trkpt>
<trkpt lat="43.0379250000" lon="0.1408220000"><ele>1105</ele><time>2026-03-21T12:21:06Z</time></trkpt>
<trkpt lat="43.0379500000" lon="0.1408170000"><ele>1105</ele><time>2026-03-21T12:21:07Z</time></trkpt>
<trkpt lat="43.0379750000" lon="0.1408120000"><ele>1105</ele><time>2026-03-21T12:21:08Z</time></trkpt>
<trkpt lat="43.0379950000" lon="0.1408070000"><ele>1105</ele><time>2026-03-21T12:21:09Z</time></trkpt>
<trkpt lat="43.0380220000" lon="0.1408050000"><ele>1105</ele><time>2026-03-21T12:21:11Z</time></trkpt>
<trkpt lat="43.0380420000" lon="0.1408050000"><ele>1105</ele><time>2026-03-21T12:21:13Z</time></trkpt>
<trkpt lat="43.0380620000" lon="0.1408220000"><ele>1106</ele><time>2026-03-21T12:21:18Z</time></trkpt>
<trkpt lat="43.0380820000" lon="0.1408170000"><ele>1106</ele><time>2026-03-21T12:21:21Z</time></trkpt>
<trkpt lat="43.0381070000" lon="0.1408120000"><ele>1106</ele><time>2026-03-21T12:21:25Z</time></trkpt>
<trkpt lat="43.0381270000" lon="0.1408080000"><ele>1107</ele><time>2026-03-21T12:21:27Z</time></trkpt>
<trkpt lat="43.0381520000" lon="0.1408170000"><ele>1107</ele><time>2026-03-21T12:21:30Z</time></trkpt>
<trkpt lat="43.0381750000" lon="0.1408270000"><ele>1107</ele><time>2026-03-21T12:21:32Z</time></trkpt>
<trkpt lat="43.0381970000" lon="0.1408320000"><ele>1107</ele><time>2026-03-21T12:21:34Z</time></trkpt>
<trkpt lat="43.0382150000" lon="0.1408470000"><ele>1107</ele><time>2026-03-21T12:21:36Z</time></trkpt>
<trkpt lat="43.0382350000" lon="0.1408670000"><ele>1107</ele><time>2026-03-21T12:21:38Z</time></trkpt>
<trkpt lat="43.0382520000" lon="0.1408820000"><ele>1107</ele><time>2026-03-21T12:21:40Z</time></trkpt>
<trkpt lat="43.0382720000" lon="0.1408820000"><ele>1106</ele><time>2026-03-21T12:21:44Z</time></trkpt>
<trkpt lat="43.0383000000" lon="0.1408920000"><ele>1106</ele><time>2026-03-21T12:21:47Z</time></trkpt>
<trkpt lat="43.0383270000" lon="0.1409020000"><ele>1105</ele><time>2026-03-21T12:21:50Z</time></trkpt>
<trkpt lat="43.0383500000" lon="0.1409170000"><ele>1105</ele><time>2026-03-21T12:21:53Z</time></trkpt>
<trkpt lat="43.0383670000" lon="0.1409320000"><ele>1104</ele><time>2026-03-21T12:21:55Z</time></trkpt>
<trkpt lat="43.0383830000" lon="0.1409480000"><ele>1104</ele><time>2026-03-21T12:21:57Z</time></trkpt>
<trkpt lat="43.0384100000" lon="0.1409800000"><ele>1104</ele><time>2026-03-21T12:21:59Z</time></trkpt>
<trkpt lat="43.0384320000" lon="0.1410020000"><ele>1104</ele><time>2026-03-21T12:22:01Z</time></trkpt>
<trkpt lat="43.0384450000" lon="0.1410250000"><ele>1103</ele><time>2026-03-21T12:22:03Z</time></trkpt>
<trkpt lat="43.0384500000" lon="0.1410520000"><ele>1103</ele><time>2026-03-21T12:22:09Z</time></trkpt>
<trkpt lat="43.0384670000" lon="0.1410770000"><ele>1103</ele><time>2026-03-21T12:22:11Z</time></trkpt>
<trkpt lat="43.0384970000" lon="0.1410870000"><ele>1103</ele><time>2026-03-21T12:22:13Z</time></trkpt>
<trkpt lat="43.0385120000" lon="0.1411020000"><ele>1103</ele><time>2026-03-21T12:22:15Z</time></trkpt>
<trkpt lat="43.0385320000" lon="0.1411220000"><ele>1103</ele><time>2026-03-21T12:22:19Z</time></trkpt>
<trkpt lat="43.0385450000" lon="0.1411420000"><ele>1102</ele><time>2026-03-21T12:22:21Z</time></trkpt>
<trkpt lat="43.0385720000" lon="0.1411600000"><ele>1102</ele><time>2026-03-21T12:22:23Z</time></trkpt>
<trkpt lat="43.0385920000" lon="0.1411770000"><ele>1102</ele><time>2026-03-21T12:22:25Z</time></trkpt>
<trkpt lat="43.0386120000" lon="0.1411780000"><ele>1101</ele><time>2026-03-21T12:22:27Z</time></trkpt>
<trkpt lat="43.0386270000" lon="0.1412020000"><ele>1101</ele><time>2026-03-21T12:22:30Z</time></trkpt>
<trkpt lat="43.0386370000" lon="0.1412300000"><ele>1101</ele><time>2026-03-21T12:22:32Z</time></trkpt>
<trkpt lat="43.0386470000" lon="0.1412620000"><ele>1100</ele><time>2026-03-21T12:22:34Z</time></trkpt>
<trkpt lat="43.0386570000" lon="0.1412920000"><ele>1100</ele><time>2026-03-21T12:22:36Z</time></trkpt>
<trkpt lat="43.0386720000" lon="0.1413130000"><ele>1100</ele><time>2026-03-21T12:22:38Z</time></trkpt>
<trkpt lat="43.0386750000" lon="0.1413420000"><ele>1099</ele><time>2026-03-21T12:22:40Z</time></trkpt>
<trkpt lat="43.0386700000" lon="0.1413720000"><ele>1099</ele><time>2026-03-21T12:22:42Z</time></trkpt>
<trkpt lat="43.0386720000" lon="0.1414050000"><ele>1099</ele><time>2026-03-21T12:22:44Z</time></trkpt>
<trkpt lat="43.0386820000" lon="0.1414320000"><ele>1098</ele><time>2026-03-21T12:22:47Z</time></trkpt>
<trkpt lat="43.0386970000" lon="0.1414480000"><ele>1098</ele><time>2026-03-21T12:22:49Z</time></trkpt>
<trkpt lat="43.0387100000" lon="0.1414720000"><ele>1098</ele><time>2026-03-21T12:22:51Z</time></trkpt>
<trkpt lat="43.0387270000" lon="0.1415030000"><ele>1097</ele><time>2026-03-21T12:22:54Z</time></trkpt>
<trkpt lat="43.0387450000" lon="0.1415350000"><ele>1097</ele><time>2026-03-21T12:22:56Z</time></trkpt>
<trkpt lat="43.0387520000" lon="0.1415600000"><ele>1096</ele><time>2026-03-21T12:22:58Z</time></trkpt>
<trkpt lat="43.0387630000" lon="0.1415800000"><ele>1096</ele><time>2026-03-21T12:23:00Z</time></trkpt>
<trkpt lat="43.0387820000" lon="0.1416070000"><ele>1096</ele><time>2026-03-21T12:23:03Z</time></trkpt>
<trkpt lat="43.0387950000" lon="0.1416250000"><ele>1095</ele><time>2026-03-21T12:23:05Z</time></trkpt>
<trkpt lat="43.0388070000" lon="0.1416470000"><ele>1095</ele><time>2026-03-21T12:23:07Z</time></trkpt>
<trkpt lat="43.0388270000" lon="0.1416670000"><ele>1095</ele><time>2026-03-21T12:23:10Z</time></trkpt>
<trkpt lat="43.0388450000" lon="0.1416900000"><ele>1094</ele><time>2026-03-21T12:23:14Z</time></trkpt>
<trkpt lat="43.0388650000" lon="0.1416970000"><ele>1094</ele><time>2026-03-21T12:23:16Z</time></trkpt>
<trkpt lat="43.0388870000" lon="0.1417050000"><ele>1093</ele><time>2026-03-21T12:23:19Z</time></trkpt>
<trkpt lat="43.0389120000" lon="0.1417100000"><ele>1093</ele><time>2026-03-21T12:23:22Z</time></trkpt>
<trkpt lat="43.0389300000" lon="0.1417070000"><ele>1093</ele><time>2026-03-21T12:23:24Z</time></trkpt>
<trkpt lat="43.0389520000" lon="0.1417050000"><ele>1093</ele><time>2026-03-21T12:23:26Z</time></trkpt>
<trkpt lat="43.0389770000" lon="0.1417170000"><ele>1092</ele><time>2026-03-21T12:23:28Z</time></trkpt>
<trkpt lat="43.0389970000" lon="0.1417270000"><ele>1092</ele><time>2026-03-21T12:23:30Z</time></trkpt>
<trkpt lat="43.0390170000" lon="0.1417280000"><ele>1092</ele><time>2026-03-21T12:23:32Z</time></trkpt>
<trkpt lat="43.0390400000" lon="0.1417450000"><ele>1091</ele><time>2026-03-21T12:23:34Z</time></trkpt>
<trkpt lat="43.0390620000" lon="0.1417520000"><ele>1091</ele><time>2026-03-21T12:23:52Z</time></trkpt>
<trkpt lat="43.0390970000" lon="0.1417480000"><ele>1091</ele><time>2026-03-21T12:23:54Z</time></trkpt>
<trkpt lat="43.0391220000" lon="0.1417470000"><ele>1091</ele><time>2026-03-21T12:23:56Z</time></trkpt>
<trkpt lat="43.0391420000" lon="0.1417480000"><ele>1091</ele><time>2026-03-21T12:23:58Z</time></trkpt>
<trkpt lat="43.0391620000" lon="0.1417470000"><ele>1091</ele><time>2026-03-21T12:24:00Z</time></trkpt>
<trkpt lat="43.0391820000" lon="0.1417420000"><ele>1090</ele><time>2026-03-21T12:24:02Z</time></trkpt>
<trkpt lat="43.0392070000" lon="0.1417520000"><ele>1090</ele><time>2026-03-21T12:24:04Z</time></trkpt>
<trkpt lat="43.0392320000" lon="0.1417470000"><ele>1090</ele><time>2026-03-21T12:24:06Z</time></trkpt>
<trkpt lat="43.0392570000" lon="0.1417470000"><ele>1090</ele><time>2026-03-21T12:24:08Z</time></trkpt>
<trkpt lat="43.0392820000" lon="0.1417570000"><ele>1090</ele><time>2026-03-21T12:24:10Z</time></trkpt>
<trkpt lat="43.0393120000" lon="0.1417670000"><ele>1090</ele><time>2026-03-21T12:24:13Z</time></trkpt>
<trkpt lat="43.0393450000" lon="0.1417700000"><ele>1090</ele><time>2026-03-21T12:24:15Z</time></trkpt>
<trkpt lat="43.0393720000" lon="0.1417750000"><ele>1090</ele><time>2026-03-21T12:24:17Z</time></trkpt>
<trkpt lat="43.0393950000" lon="0.1417750000"><ele>1090</ele><time>2026-03-21T12:24:19Z</time></trkpt>
<trkpt lat="43.0394220000" lon="0.1417670000"><ele>1090</ele><time>2026-03-21T12:24:21Z</time></trkpt>
<trkpt lat="43.0394420000" lon="0.1417620000"><ele>1090</ele><time>2026-03-21T12:24:23Z</time></trkpt>
<trkpt lat="43.0394650000" lon="0.1417570000"><ele>1090</ele><time>2026-03-21T12:24:27Z</time></trkpt>
<trkpt lat="43.0394900000" lon="0.1417470000"><ele>1090</ele><time>2026-03-21T12:24:29Z</time></trkpt>
<trkpt lat="43.0395220000" lon="0.1417320000"><ele>1090</ele><time>2026-03-21T12:24:31Z</time></trkpt>
<trkpt lat="43.0395400000" lon="0.1417270000"><ele>1090</ele><time>2026-03-21T12:24:32Z</time></trkpt>
<trkpt lat="43.0395620000" lon="0.1417200000"><ele>1090</ele><time>2026-03-21T12:24:34Z</time></trkpt>
<trkpt lat="43.0395850000" lon="0.1417100000"><ele>1090</ele><time>2026-03-21T12:24:36Z</time></trkpt>
<trkpt lat="43.0396020000" lon="0.1417120000"><ele>1090</ele><time>2026-03-21T12:24:39Z</time></trkpt>
<trkpt lat="43.0396270000" lon="0.1417120000"><ele>1090</ele><time>2026-03-21T12:24:41Z</time></trkpt>
<trkpt lat="43.0396520000" lon="0.1417070000"><ele>1090</ele><time>2026-03-21T12:24:43Z</time></trkpt>
<trkpt lat="43.0396750000" lon="0.1416900000"><ele>1090</ele><time>2026-03-21T12:24:45Z</time></trkpt>
<trkpt lat="43.0397070000" lon="0.1416850000"><ele>1090</ele><time>2026-03-21T12:24:47Z</time></trkpt>
<trkpt lat="43.0397250000" lon="0.1416670000"><ele>1090</ele><time>2026-03-21T12:24:49Z</time></trkpt>
<trkpt lat="43.0397450000" lon="0.1416600000"><ele>1090</ele><time>2026-03-21T12:24:51Z</time></trkpt>
<trkpt lat="43.0397670000" lon="0.1416470000"><ele>1090</ele><time>2026-03-21T12:24:53Z</time></trkpt>
<trkpt lat="43.0397920000" lon="0.1416370000"><ele>1090</ele><time>2026-03-21T12:24:56Z</time></trkpt>
<trkpt lat="43.0398120000" lon="0.1416270000"><ele>1090</ele><time>2026-03-21T12:24:58Z</time></trkpt>
<trkpt lat="43.0398370000" lon="0.1416170000"><ele>1090</ele><time>2026-03-21T12:25:00Z</time></trkpt>
<trkpt lat="43.0398720000" lon="0.1416120000"><ele>1090</ele><time>2026-03-21T12:25:02Z</time></trkpt>
<trkpt lat="43.0398970000" lon="0.1416070000"><ele>1090</ele><time>2026-03-21T12:25:03Z</time></trkpt>
<trkpt lat="43.0399250000" lon="0.1416000000"><ele>1090</ele><time>2026-03-21T12:25:05Z</time></trkpt>
<trkpt lat="43.0399420000" lon="0.1415920000"><ele>1090</ele><time>2026-03-21T12:25:07Z</time></trkpt>
<trkpt lat="43.0399670000" lon="0.1415820000"><ele>1090</ele><time>2026-03-21T12:25:10Z</time></trkpt>
<trkpt lat="43.0399900000" lon="0.1415750000"><ele>1090</ele><time>2026-03-21T12:25:12Z</time></trkpt>
<trkpt lat="43.0400120000" lon="0.1415770000"><ele>1090</ele><time>2026-03-21T12:25:14Z</time></trkpt>
<trkpt lat="43.0400320000" lon="0.1415750000"><ele>1090</ele><time>2026-03-21T12:25:16Z</time></trkpt>
<trkpt lat="43.0400520000" lon="0.1415720000"><ele>1090</ele><time>2026-03-21T12:25:18Z</time></trkpt>
<trkpt lat="43.0400720000" lon="0.1415720000"><ele>1090</ele><time>2026-03-21T12:25:20Z</time></trkpt>
<trkpt lat="43.0401000000" lon="0.1415800000"><ele>1091</ele><time>2026-03-21T12:25:22Z</time></trkpt>
<trkpt lat="43.0401220000" lon="0.1415800000"><ele>1091</ele><time>2026-03-21T12:25:24Z</time></trkpt>
<trkpt lat="43.0401500000" lon="0.1415670000"><ele>1091</ele><time>2026-03-21T12:25:27Z</time></trkpt>
<trkpt lat="43.0401670000" lon="0.1415720000"><ele>1091</ele><time>2026-03-21T12:25:29Z</time></trkpt>
<trkpt lat="43.0401900000" lon="0.1415670000"><ele>1091</ele><time>2026-03-21T12:25:31Z</time></trkpt>
<trkpt lat="43.0402020000" lon="0.1415450000"><ele>1091</ele><time>2026-03-21T12:26:02Z</time></trkpt>
<trkpt lat="43.0402200000" lon="0.1415370000"><ele>1091</ele><time>2026-03-21T12:26:05Z</time></trkpt>
<trkpt lat="43.0402370000" lon="0.1415300000"><ele>1091</ele><time>2026-03-21T12:26:07Z</time></trkpt>
<trkpt lat="43.0402520000" lon="0.1415120000"><ele>1091</ele><time>2026-03-21T12:26:09Z</time></trkpt>
<trkpt lat="43.0402650000" lon="0.1414920000"><ele>1091</ele><time>2026-03-21T12:26:14Z</time></trkpt>
<trkpt lat="43.0402770000" lon="0.1414720000"><ele>1091</ele><time>2026-03-21T12:26:16Z</time></trkpt>
<trkpt lat="43.0402920000" lon="0.1414570000"><ele>1091</ele><time>2026-03-21T12:26:18Z</time></trkpt>
<trkpt lat="43.0403070000" lon="0.1414400000"><ele>1090</ele><time>2026-03-21T12:26:20Z</time></trkpt>
<trkpt lat="43.0403300000" lon="0.1414170000"><ele>1090</ele><time>2026-03-21T12:26:22Z</time></trkpt>
<trkpt lat="43.0403500000" lon="0.1414000000"><ele>1090</ele><time>2026-03-21T12:26:25Z</time></trkpt>
<trkpt lat="43.0403650000" lon="0.1413750000"><ele>1090</ele><time>2026-03-21T12:26:28Z</time></trkpt>
<trkpt lat="43.0403820000" lon="0.1413570000"><ele>1090</ele><time>2026-03-21T12:26:30Z</time></trkpt>
<trkpt lat="43.0403970000" lon="0.1413370000"><ele>1089</ele><time>2026-03-21T12:26:32Z</time></trkpt>
<trkpt lat="43.0404020000" lon="0.1413120000"><ele>1089</ele><time>2026-03-21T12:26:34Z</time></trkpt>
<trkpt lat="43.0404270000" lon="0.1413020000"><ele>1089</ele><time>2026-03-21T12:26:37Z</time></trkpt>
<trkpt lat="43.0404420000" lon="0.1412820000"><ele>1088</ele><time>2026-03-21T12:26:39Z</time></trkpt>
<trkpt lat="43.0404550000" lon="0.1412550000"><ele>1088</ele><time>2026-03-21T12:26:41Z</time></trkpt>
<trkpt lat="43.0404620000" lon="0.1412300000"><ele>1088</ele><time>2026-03-21T12:26:43Z</time></trkpt>
<trkpt lat="43.0404720000" lon="0.1412020000"><ele>1087</ele><time>2026-03-21T12:26:46Z</time></trkpt>
<trkpt lat="43.0404900000" lon="0.1411780000"><ele>1087</ele><time>2026-03-21T12:26:49Z</time></trkpt>
<trkpt lat="43.0405120000" lon="0.1411720000"><ele>1087</ele><time>2026-03-21T12:26:51Z</time></trkpt>
<trkpt lat="43.0405370000" lon="0.1411570000"><ele>1087</ele><time>2026-03-21T12:26:53Z</time></trkpt>
<trkpt lat="43.0405570000" lon="0.1411520000"><ele>1087</ele><time>2026-03-21T12:26:56Z</time></trkpt>
<trkpt lat="43.0405770000" lon="0.1411520000"><ele>1087</ele><time>2026-03-21T12:26:58Z</time></trkpt>
<trkpt lat="43.0405970000" lon="0.1411500000"><ele>1087</ele><time>2026-03-21T12:27:00Z</time></trkpt>
<trkpt lat="43.0406170000" lon="0.1411400000"><ele>1087</ele><time>2026-03-21T12:27:03Z</time></trkpt>
<trkpt lat="43.0406350000" lon="0.1411300000"><ele>1087</ele><time>2026-03-21T12:27:06Z</time></trkpt>
<trkpt lat="43.0406470000" lon="0.1411070000"><ele>1087</ele><time>2026-03-21T12:27:08Z</time></trkpt>
<trkpt lat="43.0406670000" lon="0.1410820000"><ele>1087</ele><time>2026-03-21T12:27:10Z</time></trkpt>
<trkpt lat="43.0406850000" lon="0.1410520000"><ele>1087</ele><time>2026-03-21T12:27:12Z</time></trkpt>
<trkpt lat="43.0407000000" lon="0.1410280000"><ele>1087</ele><time>2026-03-21T12:27:14Z</time></trkpt>
<trkpt lat="43.0407150000" lon="0.1410020000"><ele>1087</ele><time>2026-03-21T12:27:16Z</time></trkpt>
<trkpt lat="43.0407300000" lon="0.1409820000"><ele>1087</ele><time>2026-03-21T12:27:18Z</time></trkpt>
<trkpt lat="43.0407470000" lon="0.1409620000"><ele>1086</ele><time>2026-03-21T12:27:20Z</time></trkpt>
<trkpt lat="43.0407620000" lon="0.1409420000"><ele>1086</ele><time>2026-03-21T12:27:22Z</time></trkpt>
<trkpt lat="43.0407770000" lon="0.1409170000"><ele>1086</ele><time>2026-03-21T12:27:24Z</time></trkpt>
<trkpt lat="43.0407920000" lon="0.1408980000"><ele>1086</ele><time>2026-03-21T12:27:26Z</time></trkpt>
<trkpt lat="43.0408070000" lon="0.1408820000"><ele>1086</ele><time>2026-03-21T12:27:28Z</time></trkpt>
<trkpt lat="43.0408220000" lon="0.1408620000"><ele>1086</ele><time>2026-03-21T12:27:30Z</time></trkpt>
<trkpt lat="43.0408350000" lon="0.1408450000"><ele>1086</ele><time>2026-03-21T12:27:32Z</time></trkpt>
<trkpt lat="43.0408520000" lon="0.1408250000"><ele>1085</ele><time>2026-03-21T12:27:35Z</time></trkpt>
<trkpt lat="43.0408720000" lon="0.1408000000"><ele>1086</ele><time>2026-03-21T12:27:37Z</time></trkpt>
<trkpt lat="43.0408920000" lon="0.1407820000"><ele>1086</ele><time>2026-03-21T12:27:39Z</time></trkpt>
<trkpt lat="43.0409120000" lon="0.1407620000"><ele>1085</ele><time>2026-03-21T12:27:42Z</time></trkpt>
<trkpt lat="43.0409270000" lon="0.1407420000"><ele>1085</ele><time>2026-03-21T12:27:44Z</time></trkpt>
<trkpt lat="43.0409470000" lon="0.1407270000"><ele>1085</ele><time>2026-03-21T12:27:46Z</time></trkpt>
<trkpt lat="43.0409670000" lon="0.1407150000"><ele>1085</ele><time>2026-03-21T12:27:49Z</time></trkpt>
<trkpt lat="43.0409920000" lon="0.1407050000"><ele>1085</ele><time>2026-03-21T12:27:52Z</time></trkpt>
<trkpt lat="43.0410100000" lon="0.1406870000"><ele>1085</ele><time>2026-03-21T12:27:54Z</time></trkpt>
<trkpt lat="43.0410220000" lon="0.1406670000"><ele>1085</ele><time>2026-03-21T12:27:56Z</time></trkpt>
<trkpt lat="43.0410420000" lon="0.1406520000"><ele>1085</ele><time>2026-03-21T12:27:59Z</time></trkpt>
<trkpt lat="43.0410620000" lon="0.1406350000"><ele>1085</ele><time>2026-03-21T12:28:01Z</time></trkpt>
<trkpt lat="43.0410770000" lon="0.1406170000"><ele>1085</ele><time>2026-03-21T12:28:03Z</time></trkpt>
<trkpt lat="43.0410950000" lon="0.1405970000"><ele>1085</ele><time>2026-03-21T12:28:05Z</time></trkpt>
<trkpt lat="43.0411070000" lon="0.1405720000"><ele>1085</ele><time>2026-03-21T12:28:07Z</time></trkpt>
<trkpt lat="43.0411200000" lon="0.1405470000"><ele>1085</ele><time>2026-03-21T12:28:09Z</time></trkpt>
<trkpt lat="43.0411420000" lon="0.1405270000"><ele>1085</ele><time>2026-03-21T12:28:12Z</time></trkpt>
<trkpt lat="43.0411600000" lon="0.1405170000"><ele>1084</ele><time>2026-03-21T12:28:15Z</time></trkpt>
<trkpt lat="43.0411720000" lon="0.1405020000"><ele>1084</ele><time>2026-03-21T12:28:17Z</time></trkpt>
<trkpt lat="43.0411900000" lon="0.1404830000"><ele>1084</ele><time>2026-03-21T12:28:19Z</time></trkpt>
<trkpt lat="43.0412070000" lon="0.1404720000"><ele>1083</ele><time>2026-03-21T12:28:22Z</time></trkpt>
<trkpt lat="43.0412170000" lon="0.1404320000"><ele>1083</ele><time>2026-03-21T12:28:25Z</time></trkpt>
<trkpt lat="43.0412250000" lon="0.1404020000"><ele>1082</ele><time>2026-03-21T12:28:27Z</time></trkpt>
<trkpt lat="43.0412370000" lon="0.1403670000"><ele>1082</ele><time>2026-03-21T12:28:29Z</time></trkpt>
<trkpt lat="43.0412500000" lon="0.1403470000"><ele>1082</ele><time>2026-03-21T12:28:31Z</time></trkpt>
<trkpt lat="43.0412670000" lon="0.1403300000"><ele>1082</ele><time>2026-03-21T12:28:33Z</time></trkpt>
<trkpt lat="43.0412850000" lon="0.1403070000"><ele>1081</ele><time>2026-03-21T12:28:35Z</time></trkpt>
<trkpt lat="43.0412970000" lon="0.1402850000"><ele>1081</ele><time>2026-03-21T12:28:37Z</time></trkpt>
<trkpt lat="43.0413070000" lon="0.1402620000"><ele>1081</ele><time>2026-03-21T12:28:40Z</time></trkpt>
<trkpt lat="43.0413020000" lon="0.1402320000"><ele>1080</ele><time>2026-03-21T12:28:43Z</time></trkpt>
<trkpt lat="43.0413170000" lon="0.1402030000"><ele>1080</ele><time>2026-03-21T12:28:46Z</time></trkpt>
<trkpt lat="43.0413350000" lon="0.1401850000"><ele>1080</ele><time>2026-03-21T12:28:48Z</time></trkpt>
<trkpt lat="43.0413520000" lon="0.1401700000"><ele>1080</ele><time>2026-03-21T12:28:50Z</time></trkpt>
<trkpt lat="43.0413720000" lon="0.1401670000"><ele>1080</ele><time>2026-03-21T12:28:52Z</time></trkpt>
<trkpt lat="43.0413920000" lon="0.1401470000"><ele>1079</ele><time>2026-03-21T12:28:55Z</time></trkpt>
<trkpt lat="43.0414070000" lon="0.1401270000"><ele>1079</ele><time>2026-03-21T12:28:57Z</time></trkpt>
<trkpt lat="43.0414200000" lon="0.1400970000"><ele>1079</ele><time>2026-03-21T12:29:00Z</time></trkpt>
<trkpt lat="43.0414370000" lon="0.1400770000"><ele>1078</ele><time>2026-03-21T12:29:03Z</time></trkpt>
<trkpt lat="43.0414470000" lon="0.1400520000"><ele>1078</ele><time>2026-03-21T12:29:05Z</time></trkpt>
<trkpt lat="43.0414600000" lon="0.1400250000"><ele>1078</ele><time>2026-03-21T12:29:08Z</time></trkpt>
<trkpt lat="43.0414770000" lon="0.1399970000"><ele>1077</ele><time>2026-03-21T12:29:11Z</time></trkpt>
<trkpt lat="43.0414920000" lon="0.1399730000"><ele>1076</ele><time>2026-03-21T12:29:14Z</time></trkpt>
<trkpt lat="43.0415170000" lon="0.1399480000"><ele>1076</ele><time>2026-03-21T12:29:17Z</time></trkpt>
<trkpt lat="43.0415370000" lon="0.1399320000"><ele>1076</ele><time>2026-03-21T12:29:19Z</time></trkpt>
<trkpt lat="43.0415520000" lon="0.1399170000"><ele>1075</ele><time>2026-03-21T12:29:21Z</time></trkpt>
<trkpt lat="43.0415670000" lon="0.1398950000"><ele>1075</ele><time>2026-03-21T12:29:24Z</time></trkpt>
<trkpt lat="43.0415820000" lon="0.1398770000"><ele>1074</ele><time>2026-03-21T12:29:26Z</time></trkpt>
<trkpt lat="43.0416020000" lon="0.1398700000"><ele>1074</ele><time>2026-03-21T12:29:28Z</time></trkpt>
<trkpt lat="43.0416270000" lon="0.1398570000"><ele>1074</ele><time>2026-03-21T12:29:31Z</time></trkpt>
<trkpt lat="43.0416520000" lon="0.1398550000"><ele>1073</ele><time>2026-03-21T12:29:34Z</time></trkpt>
<trkpt lat="43.0416670000" lon="0.1398320000"><ele>1073</ele><time>2026-03-21T12:29:37Z</time></trkpt>
<trkpt lat="43.0416800000" lon="0.1398070000"><ele>1073</ele><time>2026-03-21T12:29:39Z</time></trkpt>
<trkpt lat="43.0417020000" lon="0.1397820000"><ele>1072</ele><time>2026-03-21T12:29:42Z</time></trkpt>
<trkpt lat="43.0417180000" lon="0.1397570000"><ele>1072</ele><time>2026-03-21T12:29:44Z</time></trkpt>
<trkpt lat="43.0417320000" lon="0.1397350000"><ele>1071</ele><time>2026-03-21T12:29:47Z</time></trkpt>
<trkpt lat="43.0417450000" lon="0.1396920000"><ele>1071</ele><time>2026-03-21T12:29:50Z</time></trkpt>
<trkpt lat="43.0417570000" lon="0.1396470000"><ele>1071</ele><time>2026-03-21T12:29:52Z</time></trkpt>
<trkpt lat="43.0417620000" lon="0.1396120000"><ele>1070</ele><time>2026-03-21T12:29:54Z</time></trkpt>
<trkpt lat="43.0417720000" lon="0.1395900000"><ele>1070</ele><time>2026-03-21T12:29:56Z</time></trkpt>
<trkpt lat="43.0417900000" lon="0.1395620000"><ele>1070</ele><time>2026-03-21T12:29:58Z</time></trkpt>
<trkpt lat="43.0418150000" lon="0.1395450000"><ele>1069</ele><time>2026-03-21T12:30:01Z</time></trkpt>
<trkpt lat="43.0418320000" lon="0.1395420000"><ele>1069</ele><time>2026-03-21T12:30:03Z</time></trkpt>
<trkpt lat="43.0418520000" lon="0.1395320000"><ele>1069</ele><time>2026-03-21T12:30:06Z</time></trkpt>
<trkpt lat="43.0418700000" lon="0.1395170000"><ele>1068</ele><time>2026-03-21T12:30:09Z</time></trkpt>
<trkpt lat="43.0418850000" lon="0.1394970000"><ele>1068</ele><time>2026-03-21T12:30:11Z</time></trkpt>
<trkpt lat="43.0418970000" lon="0.1394750000"><ele>1068</ele><time>2026-03-21T12:30:13Z</time></trkpt>
<trkpt lat="43.0419170000" lon="0.1394600000"><ele>1067</ele><time>2026-03-21T12:30:16Z</time></trkpt>
<trkpt lat="43.0419400000" lon="0.1394420000"><ele>1067</ele><time>2026-03-21T12:30:19Z</time></trkpt>
<trkpt lat="43.0419570000" lon="0.1394270000"><ele>1067</ele><time>2026-03-21T12:30:22Z</time></trkpt>
<trkpt lat="43.0419720000" lon="0.1394070000"><ele>1066</ele><time>2026-03-21T12:30:29Z</time></trkpt>
<trkpt lat="43.0419900000" lon="0.1393920000"><ele>1066</ele><time>2026-03-21T12:30:32Z</time></trkpt>
<trkpt lat="43.0420070000" lon="0.1393720000"><ele>1066</ele><time>2026-03-21T12:30:34Z</time></trkpt>
<trkpt lat="43.0420270000" lon="0.1393620000"><ele>1065</ele><time>2026-03-21T12:30:37Z</time></trkpt>
<trkpt lat="43.0420500000" lon="0.1393550000"><ele>1065</ele><time>2026-03-21T12:30:40Z</time></trkpt>
<trkpt lat="43.0420720000" lon="0.1393400000"><ele>1065</ele><time>2026-03-21T12:30:42Z</time></trkpt>
<trkpt lat="43.0420920000" lon="0.1393270000"><ele>1065</ele><time>2026-03-21T12:30:44Z</time></trkpt>
<trkpt lat="43.0421100000" lon="0.1393070000"><ele>1064</ele><time>2026-03-21T12:30:47Z</time></trkpt>
<trkpt lat="43.0421220000" lon="0.1392870000"><ele>1064</ele><time>2026-03-21T12:30:50Z</time></trkpt>
<trkpt lat="43.0421470000" lon="0.1392620000"><ele>1064</ele><time>2026-03-21T12:30:53Z</time></trkpt>
<trkpt lat="43.0421650000" lon="0.1392450000"><ele>1064</ele><time>2026-03-21T12:30:55Z</time></trkpt>
<trkpt lat="43.0421820000" lon="0.1392270000"><ele>1064</ele><time>2026-03-21T12:30:57Z</time></trkpt>
<trkpt lat="43.0421970000" lon="0.1392020000"><ele>1063</ele><time>2026-03-21T12:30:59Z</time></trkpt>
<trkpt lat="43.0422070000" lon="0.1391770000"><ele>1063</ele><time>2026-03-21T12:31:01Z</time></trkpt>
<trkpt lat="43.0422100000" lon="0.1391370000"><ele>1063</ele><time>2026-03-21T12:31:03Z</time></trkpt>
<trkpt lat="43.0422170000" lon="0.1391070000"><ele>1063</ele><time>2026-03-21T12:31:05Z</time></trkpt>
<trkpt lat="43.0422270000" lon="0.1390800000"><ele>1062</ele><time>2026-03-21T12:31:07Z</time></trkpt>
<trkpt lat="43.0422370000" lon="0.1390570000"><ele>1062</ele><time>2026-03-21T12:31:09Z</time></trkpt>
<trkpt lat="43.0422470000" lon="0.1390320000"><ele>1062</ele><time>2026-03-21T12:31:11Z</time></trkpt>
<trkpt lat="43.0422600000" lon="0.1390120000"><ele>1062</ele><time>2026-03-21T12:31:13Z</time></trkpt>
<trkpt lat="43.0422720000" lon="0.1389920000"><ele>1061</ele><time>2026-03-21T12:31:15Z</time></trkpt>
<trkpt lat="43.0422870000" lon="0.1389700000"><ele>1061</ele><time>2026-03-21T12:31:17Z</time></trkpt>
<trkpt lat="43.0423020000" lon="0.1389450000"><ele>1061</ele><time>2026-03-21T12:31:20Z</time></trkpt>
<trkpt lat="43.0423050000" lon="0.1389120000"><ele>1061</ele><time>2026-03-21T12:31:23Z</time></trkpt>
<trkpt lat="43.0423100000" lon="0.1388850000"><ele>1061</ele><time>2026-03-21T12:31:25Z</time></trkpt>
<trkpt lat="43.0423120000" lon="0.1388470000"><ele>1061</ele><time>2026-03-21T12:31:27Z</time></trkpt>
<trkpt lat="43.0423150000" lon="0.1388170000"><ele>1061</ele><time>2026-03-21T12:31:29Z</time></trkpt>
<trkpt lat="43.0423200000" lon="0.1387900000"><ele>1061</ele><time>2026-03-21T12:31:31Z</time></trkpt>
<trkpt lat="43.0423220000" lon="0.1387570000"><ele>1060</ele><time>2026-03-21T12:31:33Z</time></trkpt>
<trkpt lat="43.0423220000" lon="0.1387220000"><ele>1060</ele><time>2026-03-21T12:31:35Z</time></trkpt>
<trkpt lat="43.0423220000" lon="0.1386950000"><ele>1060</ele><time>2026-03-21T12:31:37Z</time></trkpt>
<trkpt lat="43.0423220000" lon="0.1386670000"><ele>1059</ele><time>2026-03-21T12:31:39Z</time></trkpt>
<trkpt lat="43.0423270000" lon="0.1386400000"><ele>1059</ele><time>2026-03-21T12:31:42Z</time></trkpt>
<trkpt lat="43.0423370000" lon="0.1386150000"><ele>1058</ele><time>2026-03-21T12:31:44Z</time></trkpt>
<trkpt lat="43.0423420000" lon="0.1385870000"><ele>1058</ele><time>2026-03-21T12:31:46Z</time></trkpt>
<trkpt lat="43.0423450000" lon="0.1385520000"><ele>1058</ele><time>2026-03-21T12:31:49Z</time></trkpt>
<trkpt lat="43.0423570000" lon="0.1385250000"><ele>1057</ele><time>2026-03-21T12:31:52Z</time></trkpt>
<trkpt lat="43.0423570000" lon="0.1384950000"><ele>1057</ele><time>2026-03-21T12:31:55Z</time></trkpt>
<trkpt lat="43.0423550000" lon="0.1384700000"><ele>1057</ele><time>2026-03-21T12:31:57Z</time></trkpt>
<trkpt lat="43.0423570000" lon="0.1384450000"><ele>1056</ele><time>2026-03-21T12:31:59Z</time></trkpt>
<trkpt lat="43.0423650000" lon="0.1384170000"><ele>1056</ele><time>2026-03-21T12:32:01Z</time></trkpt>
<trkpt lat="43.0423720000" lon="0.1383920000"><ele>1056</ele><time>2026-03-21T12:32:03Z</time></trkpt>
<trkpt lat="43.0423820000" lon="0.1383620000"><ele>1055</ele><time>2026-03-21T12:32:05Z</time></trkpt>
<trkpt lat="43.0423850000" lon="0.1383320000"><ele>1055</ele><time>2026-03-21T12:32:07Z</time></trkpt>
<trkpt lat="43.0423900000" lon="0.1383020000"><ele>1055</ele><time>2026-03-21T12:32:09Z</time></trkpt>
<trkpt lat="43.0423870000" lon="0.1382750000"><ele>1054</ele><time>2026-03-21T12:32:11Z</time></trkpt>
<trkpt lat="43.0423770000" lon="0.1382450000"><ele>1054</ele><time>2026-03-21T12:32:13Z</time></trkpt>
<trkpt lat="43.0423820000" lon="0.1382120000"><ele>1054</ele><time>2026-03-21T12:32:16Z</time></trkpt>
<trkpt lat="43.0423750000" lon="0.1381870000"><ele>1054</ele><time>2026-03-21T12:32:18Z</time></trkpt>
<trkpt lat="43.0423700000" lon="0.1381620000"><ele>1054</ele><time>2026-03-21T12:32:21Z</time></trkpt>
<trkpt lat="43.0423820000" lon="0.1381430000"><ele>1053</ele><time>2026-03-21T12:33:04Z</time></trkpt>
<trkpt lat="43.0423770000" lon="0.1381170000"><ele>1053</ele><time>2026-03-21T12:33:36Z</time></trkpt>
<trkpt lat="43.0424050000" lon="0.1381350000"><ele>1052</ele><time>2026-03-21T12:34:39Z</time></trkpt>
<trkpt lat="43.0424350000" lon="0.1381400000"><ele>1051</ele><time>2026-03-21T12:34:41Z</time></trkpt>
<trkpt lat="43.0424600000" lon="0.1381370000"><ele>1051</ele><time>2026-03-21T12:34:43Z</time></trkpt>
<trkpt lat="43.0424770000" lon="0.1381270000"><ele>1051</ele><time>2026-03-21T12:34:45Z</time></trkpt>
<trkpt lat="43.0424820000" lon="0.1381020000"><ele>1050</ele><time>2026-03-21T12:36:33Z</time></trkpt>
<trkpt lat="43.0425000000" lon="0.1380850000"><ele>1050</ele><time>2026-03-21T12:36:35Z</time></trkpt>
<trkpt lat="43.0425220000" lon="0.1380620000"><ele>1050</ele><time>2026-03-21T12:36:37Z</time></trkpt>
<trkpt lat="43.0425450000" lon="0.1380420000"><ele>1050</ele><time>2026-03-21T12:36:39Z</time></trkpt>
<trkpt lat="43.0425570000" lon="0.1380270000"><ele>1049</ele><time>2026-03-21T12:36:41Z</time></trkpt>
<trkpt lat="43.0425750000" lon="0.1380150000"><ele>1049</ele><time>2026-03-21T12:36:43Z</time></trkpt>
<trkpt lat="43.0426000000" lon="0.1380150000"><ele>1048</ele><time>2026-03-21T12:36:46Z</time></trkpt>
<trkpt lat="43.0426200000" lon="0.1380120000"><ele>1048</ele><time>2026-03-21T12:36:48Z</time></trkpt>
<trkpt lat="43.0426370000" lon="0.1380000000"><ele>1047</ele><time>2026-03-21T12:36:50Z</time></trkpt>
<trkpt lat="43.0426600000" lon="0.1379830000"><ele>1046</ele><time>2026-03-21T12:36:53Z</time></trkpt>
<trkpt lat="43.0426820000" lon="0.1379770000"><ele>1045</ele><time>2026-03-21T12:36:56Z</time></trkpt>
<trkpt lat="43.0427070000" lon="0.1379620000"><ele>1044</ele><time>2026-03-21T12:36:59Z</time></trkpt>
<trkpt lat="43.0427270000" lon="0.1379420000"><ele>1044</ele><time>2026-03-21T12:37:02Z</time></trkpt>
<trkpt lat="43.0427520000" lon="0.1379270000"><ele>1043</ele><time>2026-03-21T12:37:05Z</time></trkpt>
<trkpt lat="43.0427750000" lon="0.1379220000"><ele>1042</ele><time>2026-03-21T12:37:08Z</time></trkpt>
<trkpt lat="43.0427920000" lon="0.1379100000"><ele>1041</ele><time>2026-03-21T12:37:10Z</time></trkpt>
<trkpt lat="43.0428100000" lon="0.1379070000"><ele>1040</ele><time>2026-03-21T12:37:12Z</time></trkpt>
<trkpt lat="43.0428320000" lon="0.1379050000"><ele>1040</ele><time>2026-03-21T12:37:15Z</time></trkpt>
<trkpt lat="43.0428520000" lon="0.1379020000"><ele>1039</ele><time>2026-03-21T12:37:18Z</time></trkpt>
<trkpt lat="43.0428720000" lon="0.1378850000"><ele>1038</ele><time>2026-03-21T12:37:21Z</time></trkpt>
<trkpt lat="43.0428920000" lon="0.1378720000"><ele>1037</ele><time>2026-03-21T12:37:24Z</time></trkpt>
<trkpt lat="43.0429050000" lon="0.1378470000"><ele>1036</ele><time>2026-03-21T12:37:26Z</time></trkpt>
<trkpt lat="43.0429120000" lon="0.1378170000"><ele>1036</ele><time>2026-03-21T12:37:28Z</time></trkpt>
<trkpt lat="43.0429220000" lon="0.1377970000"><ele>1035</ele><time>2026-03-21T12:37:30Z</time></trkpt>
<trkpt lat="43.0429420000" lon="0.1378020000"><ele>1034</ele><time>2026-03-21T12:37:32Z</time></trkpt>
<trkpt lat="43.0429650000" lon="0.1378020000"><ele>1033</ele><time>2026-03-21T12:37:35Z</time></trkpt>
<trkpt lat="43.0429870000" lon="0.1377920000"><ele>1032</ele><time>2026-03-21T12:37:38Z</time></trkpt>
<trkpt lat="43.0430070000" lon="0.1377770000"><ele>1032</ele><time>2026-03-21T12:37:41Z</time></trkpt>
<trkpt lat="43.0430300000" lon="0.1377750000"><ele>1031</ele><time>2026-03-21T12:37:44Z</time></trkpt>
<trkpt lat="43.0430470000" lon="0.1377620000"><ele>1029</ele><time>2026-03-21T12:37:47Z</time></trkpt>
<trkpt lat="43.0430670000" lon="0.1377420000"><ele>1028</ele><time>2026-03-21T12:37:50Z</time></trkpt>
<trkpt lat="43.0430870000" lon="0.1377370000"><ele>1028</ele><time>2026-03-21T12:37:52Z</time></trkpt>
<trkpt lat="43.0431070000" lon="0.1377420000"><ele>1027</ele><time>2026-03-21T12:37:54Z</time></trkpt>
<trkpt lat="43.0431270000" lon="0.1377500000"><ele>1027</ele><time>2026-03-21T12:37:56Z</time></trkpt>
<trkpt lat="43.0431500000" lon="0.1377420000"><ele>1026</ele><time>2026-03-21T12:37:59Z</time></trkpt>
<trkpt lat="43.0431670000" lon="0.1377520000"><ele>1026</ele><time>2026-03-21T12:38:01Z</time></trkpt>
<trkpt lat="43.0431850000" lon="0.1377400000"><ele>1025</ele><time>2026-03-21T12:38:04Z</time></trkpt>
<trkpt lat="43.0431970000" lon="0.1377200000"><ele>1025</ele><time>2026-03-21T12:38:06Z</time></trkpt>
<trkpt lat="43.0432170000" lon="0.1377030000"><ele>1024</ele><time>2026-03-21T12:38:09Z</time></trkpt>
<trkpt lat="43.0432380000" lon="0.1376920000"><ele>1023</ele><time>2026-03-21T12:38:12Z</time></trkpt>
<trkpt lat="43.0432570000" lon="0.1376720000"><ele>1022</ele><time>2026-03-21T12:38:15Z</time></trkpt>
<trkpt lat="43.0432770000" lon="0.1376550000"><ele>1022</ele><time>2026-03-21T12:38:18Z</time></trkpt>
<trkpt lat="43.0432920000" lon="0.1376370000"><ele>1021</ele><time>2026-03-21T12:38:21Z</time></trkpt>
<trkpt lat="43.0433120000" lon="0.1376170000"><ele>1020</ele><time>2026-03-21T12:38:24Z</time></trkpt>
<trkpt lat="43.0433320000" lon="0.1376120000"><ele>1019</ele><time>2026-03-21T12:38:26Z</time></trkpt>
<trkpt lat="43.0433500000" lon="0.1376170000"><ele>1019</ele><time>2026-03-21T12:38:28Z</time></trkpt>
<trkpt lat="43.0433770000" lon="0.1376250000"><ele>1018</ele><time>2026-03-21T12:38:31Z</time></trkpt>
<trkpt lat="43.0434020000" lon="0.1376180000"><ele>1017</ele><time>2026-03-21T12:38:34Z</time></trkpt>
<trkpt lat="43.0434270000" lon="0.1376180000"><ele>1017</ele><time>2026-03-21T12:38:37Z</time></trkpt>
<trkpt lat="43.0434520000" lon="0.1376220000"><ele>1016</ele><time>2026-03-21T12:38:40Z</time></trkpt>
<trkpt lat="43.0434720000" lon="0.1376120000"><ele>1015</ele><time>2026-03-21T12:38:43Z</time></trkpt>
<trkpt lat="43.0434970000" lon="0.1376130000"><ele>1014</ele><time>2026-03-21T12:38:46Z</time></trkpt>
<trkpt lat="43.0435220000" lon="0.1376180000"><ele>1014</ele><time>2026-03-21T12:38:49Z</time></trkpt>
<trkpt lat="43.0435470000" lon="0.1376120000"><ele>1013</ele><time>2026-03-21T12:38:52Z</time></trkpt>
<trkpt lat="43.0435700000" lon="0.1375920000"><ele>1012</ele><time>2026-03-21T12:38:55Z</time></trkpt>
<trkpt lat="43.0435870000" lon="0.1375630000"><ele>1011</ele><time>2026-03-21T12:38:58Z</time></trkpt>
<trkpt lat="43.0436070000" lon="0.1375670000"><ele>1011</ele><time>2026-03-21T12:39:00Z</time></trkpt>
<trkpt lat="43.0436170000" lon="0.1375970000"><ele>1009</ele><time>2026-03-21T12:39:35Z</time></trkpt>
<trkpt lat="43.0436320000" lon="0.1376120000"><ele>1009</ele><time>2026-03-21T12:39:37Z</time></trkpt>
<trkpt lat="43.0436570000" lon="0.1376050000"><ele>1009</ele><time>2026-03-21T12:39:40Z</time></trkpt>
<trkpt lat="43.0436770000" lon="0.1376000000"><ele>1008</ele><time>2026-03-21T12:39:42Z</time></trkpt>
<trkpt lat="43.0436970000" lon="0.1376050000"><ele>1008</ele><time>2026-03-21T12:39:44Z</time></trkpt>
<trkpt lat="43.0437120000" lon="0.1375930000"><ele>1007</ele><time>2026-03-21T12:39:46Z</time></trkpt>
<trkpt lat="43.0437320000" lon="0.1375800000"><ele>1007</ele><time>2026-03-21T12:39:48Z</time></trkpt>
<trkpt lat="43.0437500000" lon="0.1375680000"><ele>1006</ele><time>2026-03-21T12:39:50Z</time></trkpt>
<trkpt lat="43.0437670000" lon="0.1375570000"><ele>1006</ele><time>2026-03-21T12:39:52Z</time></trkpt>
<trkpt lat="43.0437870000" lon="0.1375520000"><ele>1005</ele><time>2026-03-21T12:39:55Z</time></trkpt>
<trkpt lat="43.0438100000" lon="0.1375520000"><ele>1004</ele><time>2026-03-21T12:39:58Z</time></trkpt>
<trkpt lat="43.0438350000" lon="0.1375570000"><ele>1003</ele><time>2026-03-21T12:40:01Z</time></trkpt>
<trkpt lat="43.0438520000" lon="0.1375470000"><ele>1003</ele><time>2026-03-21T12:40:03Z</time></trkpt>
<trkpt lat="43.0438720000" lon="0.1375570000"><ele>1002</ele><time>2026-03-21T12:40:05Z</time></trkpt>
<trkpt lat="43.0438950000" lon="0.1375580000"><ele>1001</ele><time>2026-03-21T12:40:08Z</time></trkpt>
<trkpt lat="43.0439120000" lon="0.1375470000"><ele>1001</ele><time>2026-03-21T12:40:11Z</time></trkpt>
<trkpt lat="43.0439350000" lon="0.1375370000"><ele>1000</ele><time>2026-03-21T12:40:14Z</time></trkpt>
<trkpt lat="43.0439550000" lon="0.1375400000"><ele>1000</ele><time>2026-03-21T12:40:16Z</time></trkpt>
<trkpt lat="43.0439820000" lon="0.1375470000"><ele>999</ele><time>2026-03-21T12:40:19Z</time></trkpt>
<trkpt lat="43.0440020000" lon="0.1375400000"><ele>999</ele><time>2026-03-21T12:40:22Z</time></trkpt>
<trkpt lat="43.0440270000" lon="0.1375270000"><ele>998</ele><time>2026-03-21T12:40:25Z</time></trkpt>
<trkpt lat="43.0440470000" lon="0.1375320000"><ele>997</ele><time>2026-03-21T12:40:27Z</time></trkpt>
<trkpt lat="43.0440650000" lon="0.1375370000"><ele>997</ele><time>2026-03-21T12:40:29Z</time></trkpt>
<trkpt lat="43.0440900000" lon="0.1375400000"><ele>996</ele><time>2026-03-21T12:40:32Z</time></trkpt>
<trkpt lat="43.0441070000" lon="0.1375320000"><ele>996</ele><time>2026-03-21T12:40:34Z</time></trkpt>
<trkpt lat="43.0441320000" lon="0.1375150000"><ele>995</ele><time>2026-03-21T12:40:37Z</time></trkpt>
<trkpt lat="43.0441520000" lon="0.1374950000"><ele>994</ele><time>2026-03-21T12:40:40Z</time></trkpt>
<trkpt lat="43.0441770000" lon="0.1374820000"><ele>993</ele><time>2026-03-21T12:40:43Z</time></trkpt>
<trkpt lat="43.0442000000" lon="0.1374720000"><ele>992</ele><time>2026-03-21T12:40:46Z</time></trkpt>
<trkpt lat="43.0442270000" lon="0.1374620000"><ele>992</ele><time>2026-03-21T12:40:49Z</time></trkpt>
<trkpt lat="43.0442420000" lon="0.1374470000"><ele>991</ele><time>2026-03-21T12:40:51Z</time></trkpt>
<trkpt lat="43.0442600000" lon="0.1374370000"><ele>991</ele><time>2026-03-21T12:40:53Z</time></trkpt>
<trkpt lat="43.0442800000" lon="0.1374220000"><ele>990</ele><time>2026-03-21T12:40:55Z</time></trkpt>
<trkpt lat="43.0442970000" lon="0.1374270000"><ele>990</ele><time>2026-03-21T12:40:57Z</time></trkpt>
<trkpt lat="43.0443170000" lon="0.1374220000"><ele>989</ele><time>2026-03-21T12:40:59Z</time></trkpt>
<trkpt lat="43.0443320000" lon="0.1374100000"><ele>989</ele><time>2026-03-21T12:41:01Z</time></trkpt>
<trkpt lat="43.0443520000" lon="0.1374120000"><ele>988</ele><time>2026-03-21T12:41:03Z</time></trkpt>
<trkpt lat="43.0443700000" lon="0.1374100000"><ele>988</ele><time>2026-03-21T12:41:05Z</time></trkpt>
<trkpt lat="43.0443900000" lon="0.1374050000"><ele>987</ele><time>2026-03-21T12:41:07Z</time></trkpt>
<trkpt lat="43.0444120000" lon="0.1374020000"><ele>987</ele><time>2026-03-21T12:41:09Z</time></trkpt>
<trkpt lat="43.0444300000" lon="0.1373920000"><ele>986</ele><time>2026-03-21T12:41:12Z</time></trkpt>
<trkpt lat="43.0444480000" lon="0.1373770000"><ele>986</ele><time>2026-03-21T12:41:15Z</time></trkpt>
<trkpt lat="43.0444670000" lon="0.1373570000"><ele>985</ele><time>2026-03-21T12:41:17Z</time></trkpt>
<trkpt lat="43.0444820000" lon="0.1373370000"><ele>985</ele><time>2026-03-21T12:41:19Z</time></trkpt>
<trkpt lat="43.0444920000" lon="0.1373130000"><ele>984</ele><time>2026-03-21T12:41:21Z</time></trkpt>
<trkpt lat="43.0445050000" lon="0.1372830000"><ele>984</ele><time>2026-03-21T12:41:24Z</time></trkpt>
<trkpt lat="43.0445070000" lon="0.1372550000"><ele>983</ele><time>2026-03-21T12:41:26Z</time></trkpt>
<trkpt lat="43.0445220000" lon="0.1372420000"><ele>983</ele><time>2026-03-21T12:41:28Z</time></trkpt>
<trkpt lat="43.0445420000" lon="0.1372470000"><ele>983</ele><time>2026-03-21T12:41:30Z</time></trkpt>
<trkpt lat="43.0445700000" lon="0.1372500000"><ele>982</ele><time>2026-03-21T12:41:33Z</time></trkpt>
<trkpt lat="43.0445870000" lon="0.1372400000"><ele>982</ele><time>2026-03-21T12:41:35Z</time></trkpt>
<trkpt lat="43.0446070000" lon="0.1372320000"><ele>981</ele><time>2026-03-21T12:41:37Z</time></trkpt>
<trkpt lat="43.0446250000" lon="0.1372320000"><ele>981</ele><time>2026-03-21T12:41:39Z</time></trkpt>
<trkpt lat="43.0446450000" lon="0.1372320000"><ele>981</ele><time>2026-03-21T12:41:41Z</time></trkpt>
<trkpt lat="43.0446650000" lon="0.1372270000"><ele>980</ele><time>2026-03-21T12:41:43Z</time></trkpt>
<trkpt lat="43.0446820000" lon="0.1372170000"><ele>980</ele><time>2026-03-21T12:41:45Z</time></trkpt>
<trkpt lat="43.0447020000" lon="0.1372100000"><ele>979</ele><time>2026-03-21T12:41:47Z</time></trkpt>
<trkpt lat="43.0447200000" lon="0.1371970000"><ele>979</ele><time>2026-03-21T12:41:49Z</time></trkpt>
<trkpt lat="43.0447370000" lon="0.1371870000"><ele>979</ele><time>2026-03-21T12:41:51Z</time></trkpt>
<trkpt lat="43.0447620000" lon="0.1371720000"><ele>979</ele><time>2026-03-21T12:41:54Z</time></trkpt>
<trkpt lat="43.0447820000" lon="0.1371620000"><ele>978</ele><time>2026-03-21T12:41:56Z</time></trkpt>
<trkpt lat="43.0447970000" lon="0.1371420000"><ele>978</ele><time>2026-03-21T12:41:58Z</time></trkpt>
<trkpt lat="43.0448120000" lon="0.1371270000"><ele>978</ele><time>2026-03-21T12:42:00Z</time></trkpt>
<trkpt lat="43.0448270000" lon="0.1371120000"><ele>977</ele><time>2026-03-21T12:42:02Z</time></trkpt>
<trkpt lat="43.0448420000" lon="0.1370920000"><ele>977</ele><time>2026-03-21T12:42:04Z</time></trkpt>
<trkpt lat="43.0448570000" lon="0.1370770000"><ele>976</ele><time>2026-03-21T12:42:06Z</time></trkpt>
<trkpt lat="43.0448820000" lon="0.1370550000"><ele>976</ele><time>2026-03-21T12:42:09Z</time></trkpt>
<trkpt lat="43.0448980000" lon="0.1370420000"><ele>976</ele><time>2026-03-21T12:42:12Z</time></trkpt>
<trkpt lat="43.0449200000" lon="0.1370320000"><ele>974</ele><time>2026-03-21T12:42:27Z</time></trkpt>
<trkpt lat="43.0449470000" lon="0.1370120000"><ele>974</ele><time>2026-03-21T12:42:29Z</time></trkpt>
<trkpt lat="43.0449770000" lon="0.1369850000"><ele>974</ele><time>2026-03-21T12:42:31Z</time></trkpt>
<trkpt lat="43.0450050000" lon="0.1369620000"><ele>973</ele><time>2026-03-21T12:42:33Z</time></trkpt>
<trkpt lat="43.0450270000" lon="0.1369470000"><ele>973</ele><time>2026-03-21T12:42:35Z</time></trkpt>
<trkpt lat="43.0450470000" lon="0.1369370000"><ele>973</ele><time>2026-03-21T12:42:37Z</time></trkpt>
<trkpt lat="43.0450670000" lon="0.1369270000"><ele>972</ele><time>2026-03-21T12:42:39Z</time></trkpt>
<trkpt lat="43.0450920000" lon="0.1369230000"><ele>972</ele><time>2026-03-21T12:42:41Z</time></trkpt>
<trkpt lat="43.0451150000" lon="0.1369220000"><ele>972</ele><time>2026-03-21T12:42:43Z</time></trkpt>
<trkpt lat="43.0451370000" lon="0.1369270000"><ele>972</ele><time>2026-03-21T12:42:45Z</time></trkpt>
<trkpt lat="43.0451570000" lon="0.1369320000"><ele>971</ele><time>2026-03-21T12:42:47Z</time></trkpt>
<trkpt lat="43.0451820000" lon="0.1369470000"><ele>971</ele><time>2026-03-21T12:42:49Z</time></trkpt>
<trkpt lat="43.0452050000" lon="0.1369670000"><ele>971</ele><time>2026-03-21T12:42:51Z</time></trkpt>
<trkpt lat="43.0452220000" lon="0.1369900000"><ele>971</ele><time>2026-03-21T12:42:53Z</time></trkpt>
<trkpt lat="43.0452420000" lon="0.1370030000"><ele>971</ele><time>2026-03-21T12:42:55Z</time></trkpt>
<trkpt lat="43.0452620000" lon="0.1370130000"><ele>970</ele><time>2026-03-21T12:42:57Z</time></trkpt>
<trkpt lat="43.0452870000" lon="0.1370130000"><ele>970</ele><time>2026-03-21T12:43:00Z</time></trkpt>
<trkpt lat="43.0453070000" lon="0.1370120000"><ele>970</ele><time>2026-03-21T12:43:02Z</time></trkpt>
<trkpt lat="43.0453350000" lon="0.1370020000"><ele>969</ele><time>2026-03-21T12:43:05Z</time></trkpt>
<trkpt lat="43.0453520000" lon="0.1369920000"><ele>969</ele><time>2026-03-21T12:43:07Z</time></trkpt>
<trkpt lat="43.0453720000" lon="0.1369800000"><ele>969</ele><time>2026-03-21T12:43:09Z</time></trkpt>
<trkpt lat="43.0453900000" lon="0.1369670000"><ele>968</ele><time>2026-03-21T12:43:11Z</time></trkpt>
<trkpt lat="43.0454020000" lon="0.1369450000"><ele>968</ele><time>2026-03-21T12:43:13Z</time></trkpt>
<trkpt lat="43.0454220000" lon="0.1369300000"><ele>968</ele><time>2026-03-21T12:43:15Z</time></trkpt>
<trkpt lat="43.0454420000" lon="0.1369170000"><ele>967</ele><time>2026-03-21T12:43:18Z</time></trkpt>
<trkpt lat="43.0454600000" lon="0.1369020000"><ele>967</ele><time>2026-03-21T12:43:20Z</time></trkpt>
<trkpt lat="43.0454800000" lon="0.1368930000"><ele>966</ele><time>2026-03-21T12:43:22Z</time></trkpt>
<trkpt lat="43.0455000000" lon="0.1368930000"><ele>966</ele><time>2026-03-21T12:43:24Z</time></trkpt>
<trkpt lat="43.0455200000" lon="0.1369050000"><ele>966</ele><time>2026-03-21T12:43:26Z</time></trkpt>
<trkpt lat="43.0455370000" lon="0.1369170000"><ele>965</ele><time>2026-03-21T12:43:28Z</time></trkpt>
<trkpt lat="43.0455520000" lon="0.1369350000"><ele>964</ele><time>2026-03-21T12:43:37Z</time></trkpt>
<trkpt lat="43.0455750000" lon="0.1369270000"><ele>964</ele><time>2026-03-21T12:43:40Z</time></trkpt>
<trkpt lat="43.0455950000" lon="0.1369170000"><ele>964</ele><time>2026-03-21T12:43:42Z</time></trkpt>
<trkpt lat="43.0456200000" lon="0.1369100000"><ele>964</ele><time>2026-03-21T12:43:44Z</time></trkpt>
<trkpt lat="43.0456420000" lon="0.1369020000"><ele>964</ele><time>2026-03-21T12:43:46Z</time></trkpt>
<trkpt lat="43.0456650000" lon="0.1369050000"><ele>963</ele><time>2026-03-21T12:43:49Z</time></trkpt>
<trkpt lat="43.0456820000" lon="0.1369070000"><ele>963</ele><time>2026-03-21T12:43:51Z</time></trkpt>
<trkpt lat="43.0456970000" lon="0.1369320000"><ele>963</ele><time>2026-03-21T12:43:54Z</time></trkpt>
<trkpt lat="43.0457170000" lon="0.1369350000"><ele>962</ele><time>2026-03-21T12:43:57Z</time></trkpt>
<trkpt lat="43.0457370000" lon="0.1369320000"><ele>961</ele><time>2026-03-21T12:43:59Z</time></trkpt>
<trkpt lat="43.0457650000" lon="0.1369170000"><ele>961</ele><time>2026-03-21T12:44:02Z</time></trkpt>
<trkpt lat="43.0457820000" lon="0.1369070000"><ele>961</ele><time>2026-03-21T12:44:04Z</time></trkpt>
<trkpt lat="43.0457970000" lon="0.1368920000"><ele>961</ele><time>2026-03-21T12:44:06Z</time></trkpt>
<trkpt lat="43.0458120000" lon="0.1368820000"><ele>960</ele><time>2026-03-21T12:44:08Z</time></trkpt>
<trkpt lat="43.0458320000" lon="0.1368770000"><ele>960</ele><time>2026-03-21T12:44:10Z</time></trkpt>
<trkpt lat="43.0458550000" lon="0.1368670000"><ele>960</ele><time>2026-03-21T12:44:13Z</time></trkpt>
<trkpt lat="43.0458720000" lon="0.1368620000"><ele>959</ele><time>2026-03-21T12:44:15Z</time></trkpt>
<trkpt lat="43.0459000000" lon="0.1368550000"><ele>959</ele><time>2026-03-21T12:44:18Z</time></trkpt>
<trkpt lat="43.0459220000" lon="0.1368470000"><ele>958</ele><time>2026-03-21T12:44:20Z</time></trkpt>
<trkpt lat="43.0459420000" lon="0.1368400000"><ele>958</ele><time>2026-03-21T12:44:22Z</time></trkpt>
<trkpt lat="43.0459650000" lon="0.1368350000"><ele>958</ele><time>2026-03-21T12:44:24Z</time></trkpt>
<trkpt lat="43.0459870000" lon="0.1368320000"><ele>958</ele><time>2026-03-21T12:44:26Z</time></trkpt>
<trkpt lat="43.0460070000" lon="0.1368270000"><ele>957</ele><time>2026-03-21T12:44:28Z</time></trkpt>
<trkpt lat="43.0460250000" lon="0.1368270000"><ele>957</ele><time>2026-03-21T12:44:30Z</time></trkpt>
<trkpt lat="43.0460470000" lon="0.1368150000"><ele>957</ele><time>2026-03-21T12:44:33Z</time></trkpt>
<trkpt lat="43.0460720000" lon="0.1368120000"><ele>956</ele><time>2026-03-21T12:44:36Z</time></trkpt>
<trkpt lat="43.0460920000" lon="0.1368120000"><ele>956</ele><time>2026-03-21T12:44:38Z</time></trkpt>
<trkpt lat="43.0461200000" lon="0.1368070000"><ele>955</ele><time>2026-03-21T12:44:41Z</time></trkpt>
<trkpt lat="43.0461400000" lon="0.1368020000"><ele>955</ele><time>2026-03-21T12:44:43Z</time></trkpt>
<trkpt lat="43.0461600000" lon="0.1367950000"><ele>954</ele><time>2026-03-21T12:44:45Z</time></trkpt>
<trkpt lat="43.0461850000" lon="0.1367820000"><ele>954</ele><time>2026-03-21T12:44:48Z</time></trkpt>
<trkpt lat="43.0462120000" lon="0.1367720000"><ele>953</ele><time>2026-03-21T12:44:51Z</time></trkpt>
<trkpt lat="43.0462300000" lon="0.1367650000"><ele>953</ele><time>2026-03-21T12:44:53Z</time></trkpt>
<trkpt lat="43.0462470000" lon="0.1367470000"><ele>953</ele><time>2026-03-21T12:44:55Z</time></trkpt>
<trkpt lat="43.0462670000" lon="0.1367320000"><ele>952</ele><time>2026-03-21T12:44:57Z</time></trkpt>
<trkpt lat="43.0462850000" lon="0.1367170000"><ele>952</ele><time>2026-03-21T12:44:59Z</time></trkpt>
<trkpt lat="43.0463100000" lon="0.1367100000"><ele>952</ele><time>2026-03-21T12:45:02Z</time></trkpt>
<trkpt lat="43.0463270000" lon="0.1367120000"><ele>951</ele><time>2026-03-21T12:45:04Z</time></trkpt>
<trkpt lat="43.0463520000" lon="0.1367070000"><ele>951</ele><time>2026-03-21T12:45:07Z</time></trkpt>
<trkpt lat="43.0463720000" lon="0.1366900000"><ele>950</ele><time>2026-03-21T12:45:10Z</time></trkpt>
<trkpt lat="43.0463920000" lon="0.1366750000"><ele>950</ele><time>2026-03-21T12:45:13Z</time></trkpt>
<trkpt lat="43.0464100000" lon="0.1366720000"><ele>949</ele><time>2026-03-21T12:45:16Z</time></trkpt>
<trkpt lat="43.0464270000" lon="0.1366720000"><ele>949</ele><time>2026-03-21T12:45:19Z</time></trkpt>
<trkpt lat="43.0464470000" lon="0.1366570000"><ele>948</ele><time>2026-03-21T12:45:22Z</time></trkpt>
<trkpt lat="43.0464650000" lon="0.1366470000"><ele>948</ele><time>2026-03-21T12:45:24Z</time></trkpt>
<trkpt lat="43.0464820000" lon="0.1366420000"><ele>948</ele><time>2026-03-21T12:45:26Z</time></trkpt>
<trkpt lat="43.0465020000" lon="0.1366500000"><ele>947</ele><time>2026-03-21T12:45:28Z</time></trkpt>
<trkpt lat="43.0465200000" lon="0.1366570000"><ele>947</ele><time>2026-03-21T12:45:31Z</time></trkpt>
<trkpt lat="43.0465420000" lon="0.1366550000"><ele>946</ele><time>2026-03-21T12:45:34Z</time></trkpt>
<trkpt lat="43.0465620000" lon="0.1366370000"><ele>946</ele><time>2026-03-21T12:45:37Z</time></trkpt>
<trkpt lat="43.0465770000" lon="0.1366070000"><ele>946</ele><time>2026-03-21T12:45:40Z</time></trkpt>
<trkpt lat="43.0465820000" lon="0.1365820000"><ele>945</ele><time>2026-03-21T12:45:43Z</time></trkpt>
<trkpt lat="43.0466000000" lon="0.1365670000"><ele>945</ele><time>2026-03-21T12:45:46Z</time></trkpt>
<trkpt lat="43.0466170000" lon="0.1365500000"><ele>945</ele><time>2026-03-21T12:45:50Z</time></trkpt>
<trkpt lat="43.0466370000" lon="0.1365420000"><ele>944</ele><time>2026-03-21T12:45:53Z</time></trkpt>
<trkpt lat="43.0466600000" lon="0.1365370000"><ele>944</ele><time>2026-03-21T12:45:56Z</time></trkpt>
<trkpt lat="43.0466720000" lon="0.1365170000"><ele>943</ele><time>2026-03-21T12:45:59Z</time></trkpt>
<trkpt lat="43.0466900000" lon="0.1365020000"><ele>943</ele><time>2026-03-21T12:46:02Z</time></trkpt>
<trkpt lat="43.0467120000" lon="0.1364820000"><ele>943</ele><time>2026-03-21T12:46:05Z</time></trkpt>
<trkpt lat="43.0467350000" lon="0.1364770000"><ele>943</ele><time>2026-03-21T12:46:08Z</time></trkpt>
<trkpt lat="43.0467520000" lon="0.1364820000"><ele>943</ele><time>2026-03-21T12:46:10Z</time></trkpt>
<trkpt lat="43.0467720000" lon="0.1364720000"><ele>943</ele><time>2026-03-21T12:46:12Z</time></trkpt>
<trkpt lat="43.0467920000" lon="0.1364520000"><ele>942</ele><time>2026-03-21T12:46:15Z</time></trkpt>
<trkpt lat="43.0468120000" lon="0.1364300000"><ele>942</ele><time>2026-03-21T12:46:18Z</time></trkpt>
<trkpt lat="43.0468270000" lon="0.1364050000"><ele>941</ele><time>2026-03-21T12:46:21Z</time></trkpt>
<trkpt lat="43.0468370000" lon="0.1363820000"><ele>941</ele><time>2026-03-21T12:46:24Z</time></trkpt>
<trkpt lat="43.0468620000" lon="0.1363750000"><ele>941</ele><time>2026-03-21T12:46:29Z</time></trkpt>
<trkpt lat="43.0468820000" lon="0.1363750000"><ele>941</ele><time>2026-03-21T12:46:32Z</time></trkpt>
<trkpt lat="43.0469000000" lon="0.1363750000"><ele>941</ele><time>2026-03-21T12:46:35Z</time></trkpt>
<trkpt lat="43.0469220000" lon="0.1363750000"><ele>940</ele><time>2026-03-21T12:46:38Z</time></trkpt>
<trkpt lat="43.0469370000" lon="0.1363630000"><ele>940</ele><time>2026-03-21T12:46:40Z</time></trkpt>
<trkpt lat="43.0469620000" lon="0.1363420000"><ele>940</ele><time>2026-03-21T12:46:43Z</time></trkpt>
<trkpt lat="43.0469800000" lon="0.1363320000"><ele>939</ele><time>2026-03-21T12:46:45Z</time></trkpt>
<trkpt lat="43.0470000000" lon="0.1363120000"><ele>939</ele><time>2026-03-21T12:46:48Z</time></trkpt>
<trkpt lat="43.0470170000" lon="0.1362970000"><ele>939</ele><time>2026-03-21T12:46:50Z</time></trkpt>
<trkpt lat="43.0470420000" lon="0.1362900000"><ele>939</ele><time>2026-03-21T12:46:53Z</time></trkpt>
<trkpt lat="43.0470600000" lon="0.1362820000"><ele>938</ele><time>2026-03-21T12:46:55Z</time></trkpt>
<trkpt lat="43.0470770000" lon="0.1362620000"><ele>938</ele><time>2026-03-21T12:46:57Z</time></trkpt>
<trkpt lat="43.0470920000" lon="0.1362470000"><ele>938</ele><time>2026-03-21T12:46:59Z</time></trkpt>
<trkpt lat="43.0471120000" lon="0.1362420000"><ele>938</ele><time>2026-03-21T12:47:01Z</time></trkpt>
<trkpt lat="43.0471320000" lon="0.1362420000"><ele>938</ele><time>2026-03-21T12:47:03Z</time></trkpt>
<trkpt lat="43.0471520000" lon="0.1362420000"><ele>938</ele><time>2026-03-21T12:47:05Z</time></trkpt>
<trkpt lat="43.0471700000" lon="0.1362280000"><ele>938</ele><time>2026-03-21T12:47:07Z</time></trkpt>
<trkpt lat="43.0471870000" lon="0.1362170000"><ele>937</ele><time>2026-03-21T12:47:09Z</time></trkpt>
<trkpt lat="43.0472070000" lon="0.1362100000"><ele>937</ele><time>2026-03-21T12:47:11Z</time></trkpt>
<trkpt lat="43.0472250000" lon="0.1362020000"><ele>937</ele><time>2026-03-21T12:47:13Z</time></trkpt>
<trkpt lat="43.0472520000" lon="0.1361970000"><ele>937</ele><time>2026-03-21T12:47:16Z</time></trkpt>
<trkpt lat="43.0472700000" lon="0.1361900000"><ele>937</ele><time>2026-03-21T12:47:18Z</time></trkpt>
<trkpt lat="43.0472870000" lon="0.1361770000"><ele>937</ele><time>2026-03-21T12:47:20Z</time></trkpt>
<trkpt lat="43.0473070000" lon="0.1361650000"><ele>937</ele><time>2026-03-21T12:47:22Z</time></trkpt>
<trkpt lat="43.0473270000" lon="0.1361520000"><ele>937</ele><time>2026-03-21T12:47:24Z</time></trkpt>
<trkpt lat="43.0473450000" lon="0.1361350000"><ele>937</ele><time>2026-03-21T12:47:26Z</time></trkpt>
<trkpt lat="43.0473570000" lon="0.1361070000"><ele>937</ele><time>2026-03-21T12:47:29Z</time></trkpt>
<trkpt lat="43.0473570000" lon="0.1360820000"><ele>937</ele><time>2026-03-21T12:47:31Z</time></trkpt>
<trkpt lat="43.0473670000" lon="0.1360520000"><ele>937</ele><time>2026-03-21T12:47:34Z</time></trkpt>
<trkpt lat="43.0473870000" lon="0.1360320000"><ele>938</ele><time>2026-03-21T12:47:37Z</time></trkpt>
<trkpt lat="43.0474070000" lon="0.1360250000"><ele>938</ele><time>2026-03-21T12:47:40Z</time></trkpt>
<trkpt lat="43.0474270000" lon="0.1360220000"><ele>938</ele><time>2026-03-21T12:47:42Z</time></trkpt>
<trkpt lat="43.0474470000" lon="0.1360200000"><ele>938</ele><time>2026-03-21T12:47:45Z</time></trkpt>
<trkpt lat="43.0474670000" lon="0.1360070000"><ele>939</ele><time>2026-03-21T12:47:48Z</time></trkpt>
<trkpt lat="43.0474870000" lon="0.1360020000"><ele>939</ele><time>2026-03-21T12:47:51Z</time></trkpt>
<trkpt lat="43.0475100000" lon="0.1359970000"><ele>939</ele><time>2026-03-21T12:47:54Z</time></trkpt>
<trkpt lat="43.0475320000" lon="0.1359850000"><ele>939</ele><time>2026-03-21T12:47:57Z</time></trkpt>
<trkpt lat="43.0475500000" lon="0.1359670000"><ele>940</ele><time>2026-03-21T12:48:01Z</time></trkpt>
<trkpt lat="43.0475720000" lon="0.1359470000"><ele>940</ele><time>2026-03-21T12:48:06Z</time></trkpt>
<trkpt lat="43.0475850000" lon="0.1359280000"><ele>940</ele><time>2026-03-21T12:48:09Z</time></trkpt>
<trkpt lat="43.0476020000" lon="0.1359170000"><ele>940</ele><time>2026-03-21T12:48:12Z</time></trkpt>
<trkpt lat="43.0476170000" lon="0.1359020000"><ele>940</ele><time>2026-03-21T12:48:15Z</time></trkpt>
<trkpt lat="43.0476350000" lon="0.1358850000"><ele>941</ele><time>2026-03-21T12:48:18Z</time></trkpt>
<trkpt lat="43.0476550000" lon="0.1358720000"><ele>941</ele><time>2026-03-21T12:48:21Z</time></trkpt>
<trkpt lat="43.0476770000" lon="0.1358620000"><ele>941</ele><time>2026-03-21T12:48:24Z</time></trkpt>
<trkpt lat="43.0476920000" lon="0.1358520000"><ele>942</ele><time>2026-03-21T12:48:26Z</time></trkpt>
<trkpt lat="43.0477130000" lon="0.1358400000"><ele>942</ele><time>2026-03-21T12:48:29Z</time></trkpt>
<trkpt lat="43.0477320000" lon="0.1358220000"><ele>942</ele><time>2026-03-21T12:48:32Z</time></trkpt>
<trkpt lat="43.0477550000" lon="0.1358080000"><ele>942</ele><time>2026-03-21T12:48:35Z</time></trkpt>
<trkpt lat="43.0477800000" lon="0.1358020000"><ele>942</ele><time>2026-03-21T12:48:38Z</time></trkpt>
<trkpt lat="43.0477970000" lon="0.1357970000"><ele>943</ele><time>2026-03-21T12:48:40Z</time></trkpt>
<trkpt lat="43.0478220000" lon="0.1357870000"><ele>942</ele><time>2026-03-21T12:48:43Z</time></trkpt>
<trkpt lat="43.0478400000" lon="0.1357770000"><ele>942</ele><time>2026-03-21T12:48:45Z</time></trkpt>
<trkpt lat="43.0478620000" lon="0.1357700000"><ele>942</ele><time>2026-03-21T12:48:48Z</time></trkpt>
<trkpt lat="43.0478820000" lon="0.1357520000"><ele>943</ele><time>2026-03-21T12:48:52Z</time></trkpt>
<trkpt lat="43.0478970000" lon="0.1357370000"><ele>943</ele><time>2026-03-21T12:48:57Z</time></trkpt>
<trkpt lat="43.0479150000" lon="0.1357220000"><ele>943</ele><time>2026-03-21T12:49:00Z</time></trkpt>
<trkpt lat="43.0479320000" lon="0.1357070000"><ele>944</ele><time>2026-03-21T12:49:03Z</time></trkpt>
<trkpt lat="43.0479550000" lon="0.1357270000"><ele>944</ele><time>2026-03-21T12:49:06Z</time></trkpt>
<trkpt lat="43.0479620000" lon="0.1357520000"><ele>945</ele><time>2026-03-21T12:49:09Z</time></trkpt>
<trkpt lat="43.0479770000" lon="0.1357670000"><ele>945</ele><time>2026-03-21T12:49:12Z</time></trkpt>
<trkpt lat="43.0480000000" lon="0.1357700000"><ele>946</ele><time>2026-03-21T12:49:16Z</time></trkpt>
<trkpt lat="43.0480150000" lon="0.1357870000"><ele>946</ele><time>2026-03-21T12:49:19Z</time></trkpt>
<trkpt lat="43.0480350000" lon="0.1357800000"><ele>947</ele><time>2026-03-21T12:49:24Z</time></trkpt>
<trkpt lat="43.0480570000" lon="0.1357770000"><ele>947</ele><time>2026-03-21T12:49:27Z</time></trkpt>
<trkpt lat="43.0480820000" lon="0.1357800000"><ele>947</ele><time>2026-03-21T12:49:30Z</time></trkpt>
<trkpt lat="43.0481020000" lon="0.1357820000"><ele>947</ele><time>2026-03-21T12:49:33Z</time></trkpt>
<trkpt lat="43.0481220000" lon="0.1357820000"><ele>948</ele><time>2026-03-21T12:49:36Z</time></trkpt>
<trkpt lat="43.0481420000" lon="0.1357880000"><ele>948</ele><time>2026-03-21T12:49:39Z</time></trkpt>
<trkpt lat="43.0481520000" lon="0.1358120000"><ele>948</ele><time>2026-03-21T12:49:43Z</time></trkpt>
<trkpt lat="43.0481600000" lon="0.1358420000"><ele>949</ele><time>2026-03-21T12:49:56Z</time></trkpt>
<trkpt lat="43.0481670000" lon="0.1358750000"><ele>948</ele><time>2026-03-21T12:51:23Z</time></trkpt>
<trkpt lat="43.0481520000" lon="0.1358550000"><ele>950</ele><time>2026-03-21T12:57:45Z</time></trkpt>
<trkpt lat="43.0481320000" lon="0.1358470000"><ele>950</ele><time>2026-03-21T12:57:48Z</time></trkpt>
<trkpt lat="43.0481070000" lon="0.1358470000"><ele>949</ele><time>2026-03-21T12:58:58Z</time></trkpt>
<trkpt lat="43.0480870000" lon="0.1358350000"><ele>949</ele><time>2026-03-21T12:59:01Z</time></trkpt>
<trkpt lat="43.0480670000" lon="0.1358320000"><ele>949</ele><time>2026-03-21T12:59:04Z</time></trkpt>
<trkpt lat="43.0480470000" lon="0.1358400000"><ele>948</ele><time>2026-03-21T12:59:07Z</time></trkpt>
<trkpt lat="43.0480220000" lon="0.1358370000"><ele>948</ele><time>2026-03-21T12:59:10Z</time></trkpt>
<trkpt lat="43.0480020000" lon="0.1358250000"><ele>948</ele><time>2026-03-21T12:59:13Z</time></trkpt>
<trkpt lat="43.0479820000" lon="0.1358080000"><ele>947</ele><time>2026-03-21T12:59:23Z</time></trkpt>
<trkpt lat="43.0479650000" lon="0.1357920000"><ele>947</ele><time>2026-03-21T12:59:25Z</time></trkpt>
<trkpt lat="43.0479520000" lon="0.1357670000"><ele>947</ele><time>2026-03-21T12:59:28Z</time></trkpt>
<trkpt lat="43.0479300000" lon="0.1357580000"><ele>946</ele><time>2026-03-21T12:59:31Z</time></trkpt>
<trkpt lat="43.0479120000" lon="0.1357720000"><ele>946</ele><time>2026-03-21T12:59:33Z</time></trkpt>
<trkpt lat="43.0478920000" lon="0.1357880000"><ele>945</ele><time>2026-03-21T12:59:36Z</time></trkpt>
<trkpt lat="43.0478770000" lon="0.1358050000"><ele>945</ele><time>2026-03-21T12:59:38Z</time></trkpt>
<trkpt lat="43.0478570000" lon="0.1358120000"><ele>945</ele><time>2026-03-21T12:59:40Z</time></trkpt>
<trkpt lat="43.0478370000" lon="0.1358130000"><ele>944</ele><time>2026-03-21T12:59:42Z</time></trkpt>
<trkpt lat="43.0478200000" lon="0.1358200000"><ele>944</ele><time>2026-03-21T12:59:44Z</time></trkpt>
<trkpt lat="43.0477970000" lon="0.1358220000"><ele>943</ele><time>2026-03-21T12:59:46Z</time></trkpt>
<trkpt lat="43.0477720000" lon="0.1358270000"><ele>943</ele><time>2026-03-21T12:59:48Z</time></trkpt>
<trkpt lat="43.0477550000" lon="0.1358320000"><ele>943</ele><time>2026-03-21T12:59:50Z</time></trkpt>
<trkpt lat="43.0477350000" lon="0.1358420000"><ele>942</ele><time>2026-03-21T12:59:52Z</time></trkpt>
<trkpt lat="43.0477170000" lon="0.1358520000"><ele>942</ele><time>2026-03-21T12:59:54Z</time></trkpt>
<trkpt lat="43.0476970000" lon="0.1358670000"><ele>942</ele><time>2026-03-21T12:59:56Z</time></trkpt>
<trkpt lat="43.0476770000" lon="0.1358750000"><ele>942</ele><time>2026-03-21T12:59:58Z</time></trkpt>
<trkpt lat="43.0476570000" lon="0.1358820000"><ele>942</ele><time>2026-03-21T13:00:00Z</time></trkpt>
<trkpt lat="43.0476370000" lon="0.1358870000"><ele>942</ele><time>2026-03-21T13:00:03Z</time></trkpt>
<trkpt lat="43.0476170000" lon="0.1359030000"><ele>942</ele><time>2026-03-21T13:00:06Z</time></trkpt>
<trkpt lat="43.0476020000" lon="0.1359270000"><ele>942</ele><time>2026-03-21T13:00:09Z</time></trkpt>
<trkpt lat="43.0475900000" lon="0.1359470000"><ele>941</ele><time>2026-03-21T13:00:14Z</time></trkpt>
<trkpt lat="43.0475870000" lon="0.1359720000"><ele>941</ele><time>2026-03-21T13:00:16Z</time></trkpt>
<trkpt lat="43.0475770000" lon="0.1359970000"><ele>941</ele><time>2026-03-21T13:00:18Z</time></trkpt>
<trkpt lat="43.0475550000" lon="0.1360050000"><ele>940</ele><time>2026-03-21T13:00:20Z</time></trkpt>
<trkpt lat="43.0475370000" lon="0.1360150000"><ele>940</ele><time>2026-03-21T13:00:23Z</time></trkpt>
<trkpt lat="43.0475220000" lon="0.1360420000"><ele>940</ele><time>2026-03-21T13:00:27Z</time></trkpt>
<trkpt lat="43.0475000000" lon="0.1360420000"><ele>940</ele><time>2026-03-21T13:00:30Z</time></trkpt>
<trkpt lat="43.0474820000" lon="0.1360420000"><ele>939</ele><time>2026-03-21T13:00:32Z</time></trkpt>
<trkpt lat="43.0474620000" lon="0.1360520000"><ele>939</ele><time>2026-03-21T13:00:35Z</time></trkpt>
<trkpt lat="43.0474500000" lon="0.1360680000"><ele>939</ele><time>2026-03-21T13:00:37Z</time></trkpt>
<trkpt lat="43.0474350000" lon="0.1360850000"><ele>939</ele><time>2026-03-21T13:00:39Z</time></trkpt>
<trkpt lat="43.0474170000" lon="0.1360920000"><ele>938</ele><time>2026-03-21T13:00:41Z</time></trkpt>
<trkpt lat="43.0473970000" lon="0.1360970000"><ele>938</ele><time>2026-03-21T13:00:44Z</time></trkpt>
<trkpt lat="43.0473820000" lon="0.1361170000"><ele>938</ele><time>2026-03-21T13:00:47Z</time></trkpt>
<trkpt lat="43.0473670000" lon="0.1361370000"><ele>937</ele><time>2026-03-21T13:01:00Z</time></trkpt>
<trkpt lat="43.0473570000" lon="0.1361670000"><ele>936</ele><time>2026-03-21T13:01:03Z</time></trkpt>
<trkpt lat="43.0473520000" lon="0.1361920000"><ele>936</ele><time>2026-03-21T13:01:05Z</time></trkpt>
<trkpt lat="43.0473620000" lon="0.1362250000"><ele>935</ele><time>2026-03-21T13:01:09Z</time></trkpt>
<trkpt lat="43.0473770000" lon="0.1362450000"><ele>934</ele><time>2026-03-21T13:01:13Z</time></trkpt>
<trkpt lat="43.0473950000" lon="0.1362650000"><ele>934</ele><time>2026-03-21T13:01:15Z</time></trkpt>
<trkpt lat="43.0474070000" lon="0.1362950000"><ele>934</ele><time>2026-03-21T13:01:18Z</time></trkpt>
<trkpt lat="43.0474250000" lon="0.1363070000"><ele>933</ele><time>2026-03-21T13:01:21Z</time></trkpt>
<trkpt lat="43.0474500000" lon="0.1363000000"><ele>933</ele><time>2026-03-21T13:01:24Z</time></trkpt>
<trkpt lat="43.0474670000" lon="0.1363130000"><ele>933</ele><time>2026-03-21T13:01:28Z</time></trkpt>
<trkpt lat="43.0474870000" lon="0.1363220000"><ele>932</ele><time>2026-03-21T13:01:31Z</time></trkpt>
<trkpt lat="43.0475070000" lon="0.1363320000"><ele>932</ele><time>2026-03-21T13:01:34Z</time></trkpt>
<trkpt lat="43.0475120000" lon="0.1363620000"><ele>931</ele><time>2026-03-21T13:01:38Z</time></trkpt>
<trkpt lat="43.0475320000" lon="0.1363630000"><ele>930</ele><time>2026-03-21T13:01:42Z</time></trkpt>
<trkpt lat="43.0475520000" lon="0.1363380000"><ele>929</ele><time>2026-03-21T13:01:45Z</time></trkpt>
<trkpt lat="43.0475620000" lon="0.1363130000"><ele>929</ele><time>2026-03-21T13:01:47Z</time></trkpt>
<trkpt lat="43.0475770000" lon="0.1363000000"><ele>929</ele><time>2026-03-21T13:01:49Z</time></trkpt>
<trkpt lat="43.0475970000" lon="0.1362870000"><ele>929</ele><time>2026-03-21T13:01:52Z</time></trkpt>
<trkpt lat="43.0476150000" lon="0.1363180000"><ele>928</ele><time>2026-03-21T13:02:02Z</time></trkpt>
<trkpt lat="43.0476370000" lon="0.1363370000"><ele>928</ele><time>2026-03-21T13:02:04Z</time></trkpt>
<trkpt lat="43.0476620000" lon="0.1363380000"><ele>927</ele><time>2026-03-21T13:02:06Z</time></trkpt>
<trkpt lat="43.0476870000" lon="0.1363470000"><ele>927</ele><time>2026-03-21T13:02:08Z</time></trkpt>
<trkpt lat="43.0477050000" lon="0.1363600000"><ele>926</ele><time>2026-03-21T13:02:10Z</time></trkpt>
<trkpt lat="43.0477270000" lon="0.1363750000"><ele>926</ele><time>2026-03-21T13:02:12Z</time></trkpt>
<trkpt lat="43.0477420000" lon="0.1363920000"><ele>925</ele><time>2026-03-21T13:02:14Z</time></trkpt>
<trkpt lat="43.0477620000" lon="0.1364070000"><ele>925</ele><time>2026-03-21T13:02:16Z</time></trkpt>
<trkpt lat="43.0477820000" lon="0.1364270000"><ele>924</ele><time>2026-03-21T13:02:19Z</time></trkpt>
<trkpt lat="43.0477920000" lon="0.1364580000"><ele>923</ele><time>2026-03-21T13:02:22Z</time></trkpt>
<trkpt lat="43.0478050000" lon="0.1364820000"><ele>923</ele><time>2026-03-21T13:02:24Z</time></trkpt>
<trkpt lat="43.0478300000" lon="0.1365000000"><ele>922</ele><time>2026-03-21T13:02:27Z</time></trkpt>
<trkpt lat="43.0478520000" lon="0.1365070000"><ele>922</ele><time>2026-03-21T13:02:29Z</time></trkpt>
<trkpt lat="43.0478650000" lon="0.1365250000"><ele>921</ele><time>2026-03-21T13:02:31Z</time></trkpt>
<trkpt lat="43.0478800000" lon="0.1365400000"><ele>921</ele><time>2026-03-21T13:02:33Z</time></trkpt>
<trkpt lat="43.0478970000" lon="0.1365700000"><ele>920</ele><time>2026-03-21T13:02:36Z</time></trkpt>
<trkpt lat="43.0478850000" lon="0.1366050000"><ele>920</ele><time>2026-03-21T13:02:39Z</time></trkpt>
<trkpt lat="43.0478720000" lon="0.1366270000"><ele>919</ele><time>2026-03-21T13:02:41Z</time></trkpt>
<trkpt lat="43.0478750000" lon="0.1366620000"><ele>919</ele><time>2026-03-21T13:02:44Z</time></trkpt>
<trkpt lat="43.0478820000" lon="0.1366870000"><ele>918</ele><time>2026-03-21T13:02:49Z</time></trkpt>
<trkpt lat="43.0478720000" lon="0.1367170000"><ele>918</ele><time>2026-03-21T13:02:51Z</time></trkpt>
<trkpt lat="43.0478770000" lon="0.1367420000"><ele>917</ele><time>2026-03-21T13:02:53Z</time></trkpt>
<trkpt lat="43.0478870000" lon="0.1367650000"><ele>917</ele><time>2026-03-21T13:02:55Z</time></trkpt>
<trkpt lat="43.0478920000" lon="0.1367900000"><ele>917</ele><time>2026-03-21T13:02:57Z</time></trkpt>
<trkpt lat="43.0479020000" lon="0.1368220000"><ele>916</ele><time>2026-03-21T13:03:00Z</time></trkpt>
<trkpt lat="43.0479150000" lon="0.1368420000"><ele>916</ele><time>2026-03-21T13:03:02Z</time></trkpt>
<trkpt lat="43.0479070000" lon="0.1368720000"><ele>915</ele><time>2026-03-21T13:03:04Z</time></trkpt>
<trkpt lat="43.0478950000" lon="0.1368980000"><ele>915</ele><time>2026-03-21T13:03:06Z</time></trkpt>
<trkpt lat="43.0478850000" lon="0.1369230000"><ele>914</ele><time>2026-03-21T13:03:08Z</time></trkpt>
<trkpt lat="43.0478720000" lon="0.1369520000"><ele>914</ele><time>2026-03-21T13:03:11Z</time></trkpt>
<trkpt lat="43.0478770000" lon="0.1369820000"><ele>913</ele><time>2026-03-21T13:03:22Z</time></trkpt>
<trkpt lat="43.0478720000" lon="0.1370200000"><ele>913</ele><time>2026-03-21T13:03:24Z</time></trkpt>
<trkpt lat="43.0478700000" lon="0.1370470000"><ele>911</ele><time>2026-03-21T13:03:29Z</time></trkpt>
<trkpt lat="43.0478670000" lon="0.1370800000"><ele>911</ele><time>2026-03-21T13:03:31Z</time></trkpt>
<trkpt lat="43.0478670000" lon="0.1371070000"><ele>910</ele><time>2026-03-21T13:03:33Z</time></trkpt>
<trkpt lat="43.0478720000" lon="0.1371350000"><ele>910</ele><time>2026-03-21T13:03:35Z</time></trkpt>
<trkpt lat="43.0478870000" lon="0.1371520000"><ele>909</ele><time>2026-03-21T13:03:37Z</time></trkpt>
<trkpt lat="43.0478970000" lon="0.1371720000"><ele>908</ele><time>2026-03-21T13:03:39Z</time></trkpt>
<trkpt lat="43.0479070000" lon="0.1372020000"><ele>907</ele><time>2026-03-21T13:03:42Z</time></trkpt>
<trkpt lat="43.0479270000" lon="0.1372300000"><ele>907</ele><time>2026-03-21T13:03:45Z</time></trkpt>
<trkpt lat="43.0479370000" lon="0.1372620000"><ele>906</ele><time>2026-03-21T13:03:48Z</time></trkpt>
<trkpt lat="43.0479370000" lon="0.1372870000"><ele>905</ele><time>2026-03-21T13:03:50Z</time></trkpt>
<trkpt lat="43.0479370000" lon="0.1373120000"><ele>904</ele><time>2026-03-21T13:03:52Z</time></trkpt>
<trkpt lat="43.0479500000" lon="0.1373420000"><ele>904</ele><time>2026-03-21T13:03:55Z</time></trkpt>
<trkpt lat="43.0479720000" lon="0.1373570000"><ele>903</ele><time>2026-03-21T13:03:57Z</time></trkpt>
<trkpt lat="43.0479920000" lon="0.1373620000"><ele>902</ele><time>2026-03-21T13:03:59Z</time></trkpt>
<trkpt lat="43.0480070000" lon="0.1373850000"><ele>902</ele><time>2026-03-21T13:04:02Z</time></trkpt>
<trkpt lat="43.0480020000" lon="0.1374070000"><ele>901</ele><time>2026-03-21T13:04:04Z</time></trkpt>
<trkpt lat="43.0480170000" lon="0.1374180000"><ele>900</ele><time>2026-03-21T13:04:10Z</time></trkpt>
<trkpt lat="43.0480370000" lon="0.1373970000"><ele>899</ele><time>2026-03-21T13:04:13Z</time></trkpt>
<trkpt lat="43.0480600000" lon="0.1373820000"><ele>899</ele><time>2026-03-21T13:04:17Z</time></trkpt>
<trkpt lat="43.0480820000" lon="0.1373630000"><ele>898</ele><time>2026-03-21T13:04:20Z</time></trkpt>
<trkpt lat="43.0481020000" lon="0.1373470000"><ele>898</ele><time>2026-03-21T13:04:23Z</time></trkpt>
<trkpt lat="43.0481220000" lon="0.1373300000"><ele>898</ele><time>2026-03-21T13:04:26Z</time></trkpt>
<trkpt lat="43.0481420000" lon="0.1373080000"><ele>897</ele><time>2026-03-21T13:04:29Z</time></trkpt>
<trkpt lat="43.0481570000" lon="0.1372830000"><ele>897</ele><time>2026-03-21T13:04:32Z</time></trkpt>
<trkpt lat="43.0481700000" lon="0.1372570000"><ele>897</ele><time>2026-03-21T13:04:35Z</time></trkpt>
<trkpt lat="43.0481820000" lon="0.1372370000"><ele>897</ele><time>2026-03-21T13:04:38Z</time></trkpt>
<trkpt lat="43.0482020000" lon="0.1372220000"><ele>896</ele><time>2026-03-21T13:04:43Z</time></trkpt>
<trkpt lat="43.0482200000" lon="0.1372050000"><ele>896</ele><time>2026-03-21T13:04:48Z</time></trkpt>
<trkpt lat="43.0482320000" lon="0.1371820000"><ele>895</ele><time>2026-03-21T13:04:51Z</time></trkpt>
<trkpt lat="43.0482520000" lon="0.1371600000"><ele>895</ele><time>2026-03-21T13:04:54Z</time></trkpt>
<trkpt lat="43.0482620000" lon="0.1371370000"><ele>895</ele><time>2026-03-21T13:04:57Z</time></trkpt>
<trkpt lat="43.0482800000" lon="0.1371320000"><ele>895</ele><time>2026-03-21T13:05:01Z</time></trkpt>
<trkpt lat="43.0482970000" lon="0.1371070000"><ele>894</ele><time>2026-03-21T13:05:05Z</time></trkpt>
<trkpt lat="43.0483120000" lon="0.1370920000"><ele>894</ele><time>2026-03-21T13:05:07Z</time></trkpt>
<trkpt lat="43.0483320000" lon="0.1370770000"><ele>894</ele><time>2026-03-21T13:05:10Z</time></trkpt>
<trkpt lat="43.0483520000" lon="0.1370580000"><ele>893</ele><time>2026-03-21T13:05:13Z</time></trkpt>
<trkpt lat="43.0483670000" lon="0.1370370000"><ele>892</ele><time>2026-03-21T13:05:17Z</time></trkpt>
<trkpt lat="43.0483820000" lon="0.1370220000"><ele>892</ele><time>2026-03-21T13:05:21Z</time></trkpt>
<trkpt lat="43.0483870000" lon="0.1369950000"><ele>891</ele><time>2026-03-21T13:05:24Z</time></trkpt>
<trkpt lat="43.0484120000" lon="0.1369850000"><ele>890</ele><time>2026-03-21T13:05:32Z</time></trkpt>
<trkpt lat="43.0484350000" lon="0.1369600000"><ele>890</ele><time>2026-03-21T13:05:35Z</time></trkpt>
<trkpt lat="43.0484520000" lon="0.1369470000"><ele>889</ele><time>2026-03-21T13:05:37Z</time></trkpt>
<trkpt lat="43.0484750000" lon="0.1369320000"><ele>889</ele><time>2026-03-21T13:05:39Z</time></trkpt>
<trkpt lat="43.0484920000" lon="0.1369170000"><ele>889</ele><time>2026-03-21T13:05:41Z</time></trkpt>
<trkpt lat="43.0485070000" lon="0.1368970000"><ele>888</ele><time>2026-03-21T13:05:43Z</time></trkpt>
<trkpt lat="43.0485220000" lon="0.1368720000"><ele>888</ele><time>2026-03-21T13:05:46Z</time></trkpt>
<trkpt lat="43.0485370000" lon="0.1368550000"><ele>888</ele><time>2026-03-21T13:05:48Z</time></trkpt>
<trkpt lat="43.0485520000" lon="0.1368350000"><ele>888</ele><time>2026-03-21T13:05:50Z</time></trkpt>
<trkpt lat="43.0485650000" lon="0.1368080000"><ele>887</ele><time>2026-03-21T13:05:54Z</time></trkpt>
<trkpt lat="43.0485820000" lon="0.1367820000"><ele>887</ele><time>2026-03-21T13:05:57Z</time></trkpt>
<trkpt lat="43.0485970000" lon="0.1367620000"><ele>887</ele><time>2026-03-21T13:05:59Z</time></trkpt>
<trkpt lat="43.0486120000" lon="0.1367520000"><ele>887</ele><time>2026-03-21T13:06:01Z</time></trkpt>
<trkpt lat="43.0486320000" lon="0.1367280000"><ele>887</ele><time>2026-03-21T13:06:04Z</time></trkpt>
<trkpt lat="43.0486420000" lon="0.1367050000"><ele>886</ele><time>2026-03-21T13:06:07Z</time></trkpt>
<trkpt lat="43.0486570000" lon="0.1366870000"><ele>886</ele><time>2026-03-21T13:06:09Z</time></trkpt>
<trkpt lat="43.0486750000" lon="0.1366720000"><ele>886</ele><time>2026-03-21T13:06:12Z</time></trkpt>
<trkpt lat="43.0486920000" lon="0.1366650000"><ele>886</ele><time>2026-03-21T13:06:14Z</time></trkpt>
<trkpt lat="43.0487120000" lon="0.1366470000"><ele>886</ele><time>2026-03-21T13:06:17Z</time></trkpt>
<trkpt lat="43.0487320000" lon="0.1366400000"><ele>886</ele><time>2026-03-21T13:06:20Z</time></trkpt>
<trkpt lat="43.0487550000" lon="0.1366300000"><ele>886</ele><time>2026-03-21T13:06:25Z</time></trkpt>
<trkpt lat="43.0487680000" lon="0.1366120000"><ele>885</ele><time>2026-03-21T13:06:27Z</time></trkpt>
<trkpt lat="43.0487920000" lon="0.1365970000"><ele>885</ele><time>2026-03-21T13:06:30Z</time></trkpt>
<trkpt lat="43.0488100000" lon="0.1365820000"><ele>885</ele><time>2026-03-21T13:06:32Z</time></trkpt>
<trkpt lat="43.0488270000" lon="0.1365520000"><ele>885</ele><time>2026-03-21T13:06:34Z</time></trkpt>
<trkpt lat="43.0488380000" lon="0.1365220000"><ele>885</ele><time>2026-03-21T13:06:36Z</time></trkpt>
<trkpt lat="43.0488570000" lon="0.1365020000"><ele>885</ele><time>2026-03-21T13:06:38Z</time></trkpt>
<trkpt lat="43.0488770000" lon="0.1364870000"><ele>885</ele><time>2026-03-21T13:06:40Z</time></trkpt>
<trkpt lat="43.0489000000" lon="0.1364820000"><ele>884</ele><time>2026-03-21T13:06:43Z</time></trkpt>
<trkpt lat="43.0489200000" lon="0.1364750000"><ele>884</ele><time>2026-03-21T13:06:45Z</time></trkpt>
<trkpt lat="43.0489420000" lon="0.1364620000"><ele>884</ele><time>2026-03-21T13:06:48Z</time></trkpt>
<trkpt lat="43.0489670000" lon="0.1364520000"><ele>883</ele><time>2026-03-21T13:06:51Z</time></trkpt>
<trkpt lat="43.0489850000" lon="0.1364420000"><ele>883</ele><time>2026-03-21T13:06:53Z</time></trkpt>
<trkpt lat="43.0490000000" lon="0.1364270000"><ele>882</ele><time>2026-03-21T13:06:55Z</time></trkpt>
<trkpt lat="43.0490150000" lon="0.1364120000"><ele>882</ele><time>2026-03-21T13:06:57Z</time></trkpt>
<trkpt lat="43.0490320000" lon="0.1363950000"><ele>882</ele><time>2026-03-21T13:06:59Z</time></trkpt>
<trkpt lat="43.0490500000" lon="0.1363750000"><ele>882</ele><time>2026-03-21T13:07:01Z</time></trkpt>
<trkpt lat="43.0490620000" lon="0.1363570000"><ele>881</ele><time>2026-03-21T13:07:03Z</time></trkpt>
<trkpt lat="43.0490820000" lon="0.1363420000"><ele>881</ele><time>2026-03-21T13:07:06Z</time></trkpt>
<trkpt lat="43.0491020000" lon="0.1363180000"><ele>880</ele><time>2026-03-21T13:07:09Z</time></trkpt>
<trkpt lat="43.0491200000" lon="0.1363070000"><ele>880</ele><time>2026-03-21T13:07:11Z</time></trkpt>
<trkpt lat="43.0491320000" lon="0.1362850000"><ele>880</ele><time>2026-03-21T13:07:13Z</time></trkpt>
<trkpt lat="43.0491470000" lon="0.1362620000"><ele>879</ele><time>2026-03-21T13:07:15Z</time></trkpt>
<trkpt lat="43.0491620000" lon="0.1362370000"><ele>879</ele><time>2026-03-21T13:07:17Z</time></trkpt>
<trkpt lat="43.0491770000" lon="0.1362220000"><ele>879</ele><time>2026-03-21T13:07:19Z</time></trkpt>
<trkpt lat="43.0492000000" lon="0.1362020000"><ele>879</ele><time>2026-03-21T13:07:22Z</time></trkpt>
<trkpt lat="43.0492170000" lon="0.1361830000"><ele>879</ele><time>2026-03-21T13:07:24Z</time></trkpt>
<trkpt lat="43.0492320000" lon="0.1361670000"><ele>878</ele><time>2026-03-21T13:07:26Z</time></trkpt>
<trkpt lat="43.0492470000" lon="0.1361520000"><ele>878</ele><time>2026-03-21T13:07:28Z</time></trkpt>
<trkpt lat="43.0492650000" lon="0.1361370000"><ele>878</ele><time>2026-03-21T13:07:30Z</time></trkpt>
<trkpt lat="43.0492820000" lon="0.1361250000"><ele>878</ele><time>2026-03-21T13:07:32Z</time></trkpt>
<trkpt lat="43.0493030000" lon="0.1361170000"><ele>877</ele><time>2026-03-21T13:07:35Z</time></trkpt>
<trkpt lat="43.0493270000" lon="0.1361000000"><ele>877</ele><time>2026-03-21T13:07:38Z</time></trkpt>
<trkpt lat="43.0493470000" lon="0.1360970000"><ele>876</ele><time>2026-03-21T13:07:40Z</time></trkpt>
<trkpt lat="43.0493700000" lon="0.1360950000"><ele>876</ele><time>2026-03-21T13:07:43Z</time></trkpt>
<trkpt lat="43.0493970000" lon="0.1360820000"><ele>875</ele><time>2026-03-21T13:07:46Z</time></trkpt>
<trkpt lat="43.0494150000" lon="0.1360870000"><ele>874</ele><time>2026-03-21T13:08:00Z</time></trkpt>
<trkpt lat="43.0494400000" lon="0.1360880000"><ele>873</ele><time>2026-03-21T13:08:03Z</time></trkpt>
<trkpt lat="43.0494620000" lon="0.1360950000"><ele>873</ele><time>2026-03-21T13:08:06Z</time></trkpt>
<trkpt lat="43.0494820000" lon="0.1360850000"><ele>872</ele><time>2026-03-21T13:08:08Z</time></trkpt>
<trkpt lat="43.0495020000" lon="0.1360720000"><ele>872</ele><time>2026-03-21T13:08:10Z</time></trkpt>
<trkpt lat="43.0495270000" lon="0.1360580000"><ele>871</ele><time>2026-03-21T13:08:13Z</time></trkpt>
<trkpt lat="43.0495500000" lon="0.1360500000"><ele>871</ele><time>2026-03-21T13:08:15Z</time></trkpt>
<trkpt lat="43.0495770000" lon="0.1360380000"><ele>870</ele><time>2026-03-21T13:08:18Z</time></trkpt>
<trkpt lat="43.0495970000" lon="0.1360270000"><ele>869</ele><time>2026-03-21T13:08:20Z</time></trkpt>
<trkpt lat="43.0496170000" lon="0.1360200000"><ele>869</ele><time>2026-03-21T13:08:22Z</time></trkpt>
<trkpt lat="43.0496400000" lon="0.1360150000"><ele>868</ele><time>2026-03-21T13:08:24Z</time></trkpt>
<trkpt lat="43.0496570000" lon="0.1360120000"><ele>868</ele><time>2026-03-21T13:08:26Z</time></trkpt>
<trkpt lat="43.0496820000" lon="0.1360050000"><ele>867</ele><time>2026-03-21T13:08:29Z</time></trkpt>
<trkpt lat="43.0497070000" lon="0.1359920000"><ele>866</ele><time>2026-03-21T13:08:32Z</time></trkpt>
<trkpt lat="43.0497220000" lon="0.1359750000"><ele>866</ele><time>2026-03-21T13:08:34Z</time></trkpt>
<trkpt lat="43.0497370000" lon="0.1359570000"><ele>865</ele><time>2026-03-21T13:08:36Z</time></trkpt>
<trkpt lat="43.0497570000" lon="0.1359550000"><ele>865</ele><time>2026-03-21T13:08:38Z</time></trkpt>
<trkpt lat="43.0497820000" lon="0.1359420000"><ele>864</ele><time>2026-03-21T13:08:41Z</time></trkpt>
<trkpt lat="43.0498020000" lon="0.1359450000"><ele>864</ele><time>2026-03-21T13:08:44Z</time></trkpt>
<trkpt lat="43.0498220000" lon="0.1359350000"><ele>863</ele><time>2026-03-21T13:08:46Z</time></trkpt>
<trkpt lat="43.0498400000" lon="0.1359320000"><ele>863</ele><time>2026-03-21T13:08:48Z</time></trkpt>
<trkpt lat="43.0498570000" lon="0.1359230000"><ele>862</ele><time>2026-03-21T13:08:51Z</time></trkpt>
<trkpt lat="43.0498720000" lon="0.1359070000"><ele>861</ele><time>2026-03-21T13:09:02Z</time></trkpt>
<trkpt lat="43.0498920000" lon="0.1358900000"><ele>860</ele><time>2026-03-21T13:09:10Z</time></trkpt>
<trkpt lat="43.0499070000" lon="0.1358650000"><ele>860</ele><time>2026-03-21T13:09:12Z</time></trkpt>
<trkpt lat="43.0499200000" lon="0.1358370000"><ele>859</ele><time>2026-03-21T13:09:14Z</time></trkpt>
<trkpt lat="43.0499170000" lon="0.1358670000"><ele>859</ele><time>2026-03-21T13:09:55Z</time></trkpt>
<trkpt lat="43.0499220000" lon="0.1358920000"><ele>859</ele><time>2026-03-21T13:09:57Z</time></trkpt>
<trkpt lat="43.0499400000" lon="0.1359070000"><ele>859</ele><time>2026-03-21T13:09:59Z</time></trkpt>
<trkpt lat="43.0499650000" lon="0.1359120000"><ele>859</ele><time>2026-03-21T13:10:02Z</time></trkpt>
<trkpt lat="43.0499870000" lon="0.1358970000"><ele>858</ele><time>2026-03-21T13:10:05Z</time></trkpt>
<trkpt lat="43.0500070000" lon="0.1358900000"><ele>857</ele><time>2026-03-21T13:10:22Z</time></trkpt>
<trkpt lat="43.0500350000" lon="0.1358670000"><ele>857</ele><time>2026-03-21T13:10:24Z</time></trkpt>
<trkpt lat="43.0500620000" lon="0.1358500000"><ele>857</ele><time>2026-03-21T13:10:26Z</time></trkpt>
<trkpt lat="43.0500820000" lon="0.1358300000"><ele>856</ele><time>2026-03-21T13:10:28Z</time></trkpt>
<trkpt lat="43.0501020000" lon="0.1358170000"><ele>856</ele><time>2026-03-21T13:10:30Z</time></trkpt>
<trkpt lat="43.0501220000" lon="0.1358050000"><ele>856</ele><time>2026-03-21T13:10:32Z</time></trkpt>
<trkpt lat="43.0501470000" lon="0.1357950000"><ele>855</ele><time>2026-03-21T13:10:35Z</time></trkpt>
<trkpt lat="43.0501670000" lon="0.1357830000"><ele>855</ele><time>2026-03-21T13:10:37Z</time></trkpt>
<trkpt lat="43.0501870000" lon="0.1357720000"><ele>855</ele><time>2026-03-21T13:10:39Z</time></trkpt>
<trkpt lat="43.0502070000" lon="0.1357620000"><ele>854</ele><time>2026-03-21T13:10:41Z</time></trkpt>
<trkpt lat="43.0502270000" lon="0.1357530000"><ele>854</ele><time>2026-03-21T13:10:43Z</time></trkpt>
<trkpt lat="43.0502520000" lon="0.1357400000"><ele>853</ele><time>2026-03-21T13:10:46Z</time></trkpt>
<trkpt lat="43.0502720000" lon="0.1357220000"><ele>853</ele><time>2026-03-21T13:10:48Z</time></trkpt>
<trkpt lat="43.0502920000" lon="0.1357120000"><ele>853</ele><time>2026-03-21T13:10:50Z</time></trkpt>
<trkpt lat="43.0503170000" lon="0.1356970000"><ele>852</ele><time>2026-03-21T13:10:53Z</time></trkpt>
<trkpt lat="43.0503350000" lon="0.1356850000"><ele>852</ele><time>2026-03-21T13:10:55Z</time></trkpt>
<trkpt lat="43.0503470000" lon="0.1356620000"><ele>851</ele><time>2026-03-21T13:10:57Z</time></trkpt>
<trkpt lat="43.0503550000" lon="0.1356370000"><ele>851</ele><time>2026-03-21T13:10:59Z</time></trkpt>
<trkpt lat="43.0503670000" lon="0.1356180000"><ele>851</ele><time>2026-03-21T13:11:01Z</time></trkpt>
<trkpt lat="43.0503850000" lon="0.1356100000"><ele>850</ele><time>2026-03-21T13:11:03Z</time></trkpt>
<trkpt lat="43.0504020000" lon="0.1355970000"><ele>850</ele><time>2026-03-21T13:11:05Z</time></trkpt>
<trkpt lat="43.0504170000" lon="0.1355800000"><ele>850</ele><time>2026-03-21T13:11:07Z</time></trkpt>
<trkpt lat="43.0504350000" lon="0.1355670000"><ele>849</ele><time>2026-03-21T13:11:09Z</time></trkpt>
<trkpt lat="43.0504520000" lon="0.1355520000"><ele>849</ele><time>2026-03-21T13:11:11Z</time></trkpt>
<trkpt lat="43.0504670000" lon="0.1355370000"><ele>849</ele><time>2026-03-21T13:11:13Z</time></trkpt>
<trkpt lat="43.0504820000" lon="0.1355200000"><ele>848</ele><time>2026-03-21T13:11:15Z</time></trkpt>
<trkpt lat="43.0505050000" lon="0.1354970000"><ele>848</ele><time>2026-03-21T13:11:18Z</time></trkpt>
<trkpt lat="43.0505170000" lon="0.1354620000"><ele>847</ele><time>2026-03-21T13:11:21Z</time></trkpt>
<trkpt lat="43.0505370000" lon="0.1354500000"><ele>847</ele><time>2026-03-21T13:11:23Z</time></trkpt>
<trkpt lat="43.0505570000" lon="0.1354350000"><ele>847</ele><time>2026-03-21T13:11:25Z</time></trkpt>
<trkpt lat="43.0505720000" lon="0.1354170000"><ele>847</ele><time>2026-03-21T13:11:27Z</time></trkpt>
<trkpt lat="43.0505870000" lon="0.1353920000"><ele>846</ele><time>2026-03-21T13:11:29Z</time></trkpt>
<trkpt lat="43.0506020000" lon="0.1353720000"><ele>846</ele><time>2026-03-21T13:11:31Z</time></trkpt>
<trkpt lat="43.0506170000" lon="0.1353570000"><ele>846</ele><time>2026-03-21T13:11:33Z</time></trkpt>
<trkpt lat="43.0506370000" lon="0.1353430000"><ele>845</ele><time>2026-03-21T13:11:35Z</time></trkpt>
<trkpt lat="43.0506520000" lon="0.1353170000"><ele>845</ele><time>2026-03-21T13:11:37Z</time></trkpt>
<trkpt lat="43.0506670000" lon="0.1352920000"><ele>845</ele><time>2026-03-21T13:11:39Z</time></trkpt>
<trkpt lat="43.0506820000" lon="0.1352670000"><ele>844</ele><time>2026-03-21T13:11:41Z</time></trkpt>
<trkpt lat="43.0506970000" lon="0.1352470000"><ele>844</ele><time>2026-03-21T13:11:43Z</time></trkpt>
<trkpt lat="43.0507100000" lon="0.1352270000"><ele>844</ele><time>2026-03-21T13:11:45Z</time></trkpt>
<trkpt lat="43.0507270000" lon="0.1352070000"><ele>843</ele><time>2026-03-21T13:11:47Z</time></trkpt>
<trkpt lat="43.0507420000" lon="0.1351920000"><ele>843</ele><time>2026-03-21T13:11:49Z</time></trkpt>
<trkpt lat="43.0507570000" lon="0.1351770000"><ele>843</ele><time>2026-03-21T13:11:51Z</time></trkpt>
<trkpt lat="43.0507770000" lon="0.1351600000"><ele>843</ele><time>2026-03-21T13:11:53Z</time></trkpt>
<trkpt lat="43.0507920000" lon="0.1351430000"><ele>842</ele><time>2026-03-21T13:11:55Z</time></trkpt>
<trkpt lat="43.0508070000" lon="0.1351270000"><ele>842</ele><time>2026-03-21T13:11:57Z</time></trkpt>
<trkpt lat="43.0508200000" lon="0.1351070000"><ele>842</ele><time>2026-03-21T13:11:59Z</time></trkpt>
<trkpt lat="43.0508320000" lon="0.1350850000"><ele>841</ele><time>2026-03-21T13:12:01Z</time></trkpt>
<trkpt lat="43.0508470000" lon="0.1350520000"><ele>841</ele><time>2026-03-21T13:12:03Z</time></trkpt>
<trkpt lat="43.0508650000" lon="0.1350370000"><ele>840</ele><time>2026-03-21T13:12:05Z</time></trkpt>
<trkpt lat="43.0508800000" lon="0.1350200000"><ele>840</ele><time>2026-03-21T13:12:07Z</time></trkpt>
<trkpt lat="43.0508970000" lon="0.1350020000"><ele>840</ele><time>2026-03-21T13:12:09Z</time></trkpt>
<trkpt lat="43.0509170000" lon="0.1349870000"><ele>839</ele><time>2026-03-21T13:12:11Z</time></trkpt>
<trkpt lat="43.0509400000" lon="0.1349770000"><ele>839</ele><time>2026-03-21T13:12:13Z</time></trkpt>
<trkpt lat="43.0509570000" lon="0.1349650000"><ele>838</ele><time>2026-03-21T13:12:15Z</time></trkpt>
<trkpt lat="43.0509770000" lon="0.1349370000"><ele>838</ele><time>2026-03-21T13:12:17Z</time></trkpt>
<trkpt lat="43.0510000000" lon="0.1349220000"><ele>838</ele><time>2026-03-21T13:12:19Z</time></trkpt>
<trkpt lat="43.0510200000" lon="0.1349200000"><ele>838</ele><time>2026-03-21T13:12:21Z</time></trkpt>
<trkpt lat="43.0510370000" lon="0.1349220000"><ele>837</ele><time>2026-03-21T13:12:23Z</time></trkpt>
<trkpt lat="43.0510570000" lon="0.1349270000"><ele>837</ele><time>2026-03-21T13:12:25Z</time></trkpt>
<trkpt lat="43.0510770000" lon="0.1349320000"><ele>837</ele><time>2026-03-21T13:12:27Z</time></trkpt>
<trkpt lat="43.0510970000" lon="0.1349470000"><ele>836</ele><time>2026-03-21T13:12:29Z</time></trkpt>
<trkpt lat="43.0511150000" lon="0.1349580000"><ele>836</ele><time>2026-03-21T13:12:31Z</time></trkpt>
<trkpt lat="43.0511400000" lon="0.1349750000"><ele>836</ele><time>2026-03-21T13:12:34Z</time></trkpt>
<trkpt lat="43.0511570000" lon="0.1349970000"><ele>835</ele><time>2026-03-21T13:12:36Z</time></trkpt>
<trkpt lat="43.0511670000" lon="0.1350220000"><ele>835</ele><time>2026-03-21T13:12:38Z</time></trkpt>
<trkpt lat="43.0511850000" lon="0.1350400000"><ele>835</ele><time>2026-03-21T13:12:40Z</time></trkpt>
<trkpt lat="43.0512020000" lon="0.1350620000"><ele>835</ele><time>2026-03-21T13:12:42Z</time></trkpt>
<trkpt lat="43.0512220000" lon="0.1350770000"><ele>834</ele><time>2026-03-21T13:12:44Z</time></trkpt>
<trkpt lat="43.0512420000" lon="0.1350920000"><ele>834</ele><time>2026-03-21T13:12:46Z</time></trkpt>
<trkpt lat="43.0512600000" lon="0.1351120000"><ele>834</ele><time>2026-03-21T13:12:48Z</time></trkpt>
<trkpt lat="43.0512770000" lon="0.1351400000"><ele>834</ele><time>2026-03-21T13:12:50Z</time></trkpt>
<trkpt lat="43.0512920000" lon="0.1351650000"><ele>834</ele><time>2026-03-21T13:12:52Z</time></trkpt>
<trkpt lat="43.0513100000" lon="0.1351870000"><ele>834</ele><time>2026-03-21T13:12:54Z</time></trkpt>
<trkpt lat="43.0513220000" lon="0.1352070000"><ele>833</ele><time>2026-03-21T13:12:56Z</time></trkpt>
<trkpt lat="43.0513300000" lon="0.1352320000"><ele>833</ele><time>2026-03-21T13:12:58Z</time></trkpt>
<trkpt lat="43.0513370000" lon="0.1352570000"><ele>833</ele><time>2026-03-21T13:13:00Z</time></trkpt>
<trkpt lat="43.0513470000" lon="0.1352820000"><ele>833</ele><time>2026-03-21T13:13:02Z</time></trkpt>
<trkpt lat="43.0513620000" lon="0.1353020000"><ele>833</ele><time>2026-03-21T13:13:04Z</time></trkpt>
<trkpt lat="43.0513720000" lon="0.1353300000"><ele>833</ele><time>2026-03-21T13:13:06Z</time></trkpt>
<trkpt lat="43.0513820000" lon="0.1353570000"><ele>833</ele><time>2026-03-21T13:13:08Z</time></trkpt>
<trkpt lat="43.0513900000" lon="0.1353800000"><ele>832</ele><time>2026-03-21T13:13:10Z</time></trkpt>
<trkpt lat="43.0514020000" lon="0.1354020000"><ele>832</ele><time>2026-03-21T13:13:12Z</time></trkpt>
<trkpt lat="43.0514120000" lon="0.1354250000"><ele>832</ele><time>2026-03-21T13:13:14Z</time></trkpt>
<trkpt lat="43.0514270000" lon="0.1354520000"><ele>832</ele><time>2026-03-21T13:13:16Z</time></trkpt>
<trkpt lat="43.0514370000" lon="0.1354770000"><ele>831</ele><time>2026-03-21T13:13:18Z</time></trkpt>
<trkpt lat="43.0514450000" lon="0.1355070000"><ele>831</ele><time>2026-03-21T13:13:20Z</time></trkpt>
<trkpt lat="43.0514520000" lon="0.1355330000"><ele>831</ele><time>2026-03-21T13:13:22Z</time></trkpt>
<trkpt lat="43.0514670000" lon="0.1355600000"><ele>831</ele><time>2026-03-21T13:13:24Z</time></trkpt>
<trkpt lat="43.0514720000" lon="0.1355950000"><ele>830</ele><time>2026-03-21T13:13:27Z</time></trkpt>
<trkpt lat="43.0514720000" lon="0.1356180000"><ele>830</ele><time>2026-03-21T13:13:29Z</time></trkpt>
<trkpt lat="43.0514720000" lon="0.1356480000"><ele>830</ele><time>2026-03-21T13:13:32Z</time></trkpt>
<trkpt lat="43.0514720000" lon="0.1356730000"><ele>830</ele><time>2026-03-21T13:13:34Z</time></trkpt>
<trkpt lat="43.0514720000" lon="0.1357050000"><ele>830</ele><time>2026-03-21T13:13:36Z</time></trkpt>
<trkpt lat="43.0514770000" lon="0.1357300000"><ele>830</ele><time>2026-03-21T13:13:38Z</time></trkpt>
<trkpt lat="43.0514770000" lon="0.1357620000"><ele>830</ele><time>2026-03-21T13:13:41Z</time></trkpt>
<trkpt lat="43.0514750000" lon="0.1357880000"><ele>829</ele><time>2026-03-21T13:13:44Z</time></trkpt>
<trkpt lat="43.0514800000" lon="0.1358200000"><ele>829</ele><time>2026-03-21T13:13:47Z</time></trkpt>
<trkpt lat="43.0514850000" lon="0.1358470000"><ele>829</ele><time>2026-03-21T13:13:50Z</time></trkpt>
<trkpt lat="43.0514820000" lon="0.1358720000"><ele>829</ele><time>2026-03-21T13:13:52Z</time></trkpt>
<trkpt lat="43.0514850000" lon="0.1359020000"><ele>828</ele><time>2026-03-21T13:13:55Z</time></trkpt>
<trkpt lat="43.0514870000" lon="0.1359280000"><ele>828</ele><time>2026-03-21T13:13:57Z</time></trkpt>
<trkpt lat="43.0514770000" lon="0.1359620000"><ele>828</ele><time>2026-03-21T13:13:59Z</time></trkpt>
<trkpt lat="43.0514750000" lon="0.1359900000"><ele>828</ele><time>2026-03-21T13:14:01Z</time></trkpt>
<trkpt lat="43.0514870000" lon="0.1360170000"><ele>828</ele><time>2026-03-21T13:14:03Z</time></trkpt>
<trkpt lat="43.0514920000" lon="0.1360420000"><ele>828</ele><time>2026-03-21T13:14:05Z</time></trkpt>
<trkpt lat="43.0514900000" lon="0.1360680000"><ele>828</ele><time>2026-03-21T13:14:07Z</time></trkpt>
<trkpt lat="43.0514820000" lon="0.1360970000"><ele>828</ele><time>2026-03-21T13:14:09Z</time></trkpt>
<trkpt lat="43.0514770000" lon="0.1361250000"><ele>828</ele><time>2026-03-21T13:14:11Z</time></trkpt>
<trkpt lat="43.0514650000" lon="0.1361470000"><ele>828</ele><time>2026-03-21T13:14:13Z</time></trkpt>
<trkpt lat="43.0514570000" lon="0.1361770000"><ele>828</ele><time>2026-03-21T13:14:16Z</time></trkpt>
<trkpt lat="43.0514550000" lon="0.1362070000"><ele>828</ele><time>2026-03-21T13:14:20Z</time></trkpt>
<trkpt lat="43.0514520000" lon="0.1362350000"><ele>827</ele><time>2026-03-21T13:14:22Z</time></trkpt>
<trkpt lat="43.0514500000" lon="0.1362670000"><ele>827</ele><time>2026-03-21T13:14:25Z</time></trkpt>
<trkpt lat="43.0514520000" lon="0.1363070000"><ele>827</ele><time>2026-03-21T13:14:28Z</time></trkpt>
<trkpt lat="43.0514500000" lon="0.1363320000"><ele>827</ele><time>2026-03-21T13:14:30Z</time></trkpt>
<trkpt lat="43.0514470000" lon="0.1363620000"><ele>827</ele><time>2026-03-21T13:14:32Z</time></trkpt>
<trkpt lat="43.0514420000" lon="0.1363870000"><ele>826</ele><time>2026-03-21T13:14:34Z</time></trkpt>
<trkpt lat="43.0514370000" lon="0.1364220000"><ele>826</ele><time>2026-03-21T13:14:37Z</time></trkpt>
<trkpt lat="43.0514300000" lon="0.1364520000"><ele>826</ele><time>2026-03-21T13:14:40Z</time></trkpt>
<trkpt lat="43.0514270000" lon="0.1364820000"><ele>826</ele><time>2026-03-21T13:14:43Z</time></trkpt>
<trkpt lat="43.0514220000" lon="0.1365170000"><ele>825</ele><time>2026-03-21T13:14:46Z</time></trkpt>
<trkpt lat="43.0514220000" lon="0.1365470000"><ele>825</ele><time>2026-03-21T13:14:49Z</time></trkpt>
<trkpt lat="43.0514270000" lon="0.1365750000"><ele>825</ele><time>2026-03-21T13:14:51Z</time></trkpt>
<trkpt lat="43.0514320000" lon="0.1365980000"><ele>824</ele><time>2026-03-21T13:14:54Z</time></trkpt>
<trkpt lat="43.0514570000" lon="0.1365920000"><ele>824</ele><time>2026-03-21T13:16:05Z</time></trkpt>
<trkpt lat="43.0514820000" lon="0.1365850000"><ele>824</ele><time>2026-03-21T13:16:07Z</time></trkpt>
<trkpt lat="43.0514980000" lon="0.1365550000"><ele>824</ele><time>2026-03-21T13:16:09Z</time></trkpt>
<trkpt lat="43.0515150000" lon="0.1365220000"><ele>823</ele><time>2026-03-21T13:16:11Z</time></trkpt>
<trkpt lat="43.0515320000" lon="0.1364970000"><ele>823</ele><time>2026-03-21T13:16:13Z</time></trkpt>
<trkpt lat="43.0515500000" lon="0.1364770000"><ele>823</ele><time>2026-03-21T13:16:15Z</time></trkpt>
<trkpt lat="43.0515600000" lon="0.1364520000"><ele>823</ele><time>2026-03-21T13:16:17Z</time></trkpt>
<trkpt lat="43.0515720000" lon="0.1364270000"><ele>822</ele><time>2026-03-21T13:16:19Z</time></trkpt>
<trkpt lat="43.0515800000" lon="0.1364020000"><ele>822</ele><time>2026-03-21T13:16:21Z</time></trkpt>
<trkpt lat="43.0515870000" lon="0.1363720000"><ele>822</ele><time>2026-03-21T13:16:23Z</time></trkpt>
<trkpt lat="43.0515950000" lon="0.1363430000"><ele>821</ele><time>2026-03-21T13:16:25Z</time></trkpt>
<trkpt lat="43.0516070000" lon="0.1363220000"><ele>821</ele><time>2026-03-21T13:16:27Z</time></trkpt>
<trkpt lat="43.0516170000" lon="0.1362920000"><ele>821</ele><time>2026-03-21T13:16:29Z</time></trkpt>
<trkpt lat="43.0516320000" lon="0.1362620000"><ele>821</ele><time>2026-03-21T13:16:31Z</time></trkpt>
<trkpt lat="43.0516470000" lon="0.1362400000"><ele>821</ele><time>2026-03-21T13:16:33Z</time></trkpt>
<trkpt lat="43.0516600000" lon="0.1362150000"><ele>820</ele><time>2026-03-21T13:16:35Z</time></trkpt>
<trkpt lat="43.0516720000" lon="0.1361920000"><ele>820</ele><time>2026-03-21T13:16:37Z</time></trkpt>
<trkpt lat="43.0516800000" lon="0.1361600000"><ele>820</ele><time>2026-03-21T13:16:39Z</time></trkpt>
<trkpt lat="43.0516900000" lon="0.1361320000"><ele>820</ele><time>2026-03-21T13:16:41Z</time></trkpt>
<trkpt lat="43.0517070000" lon="0.1361100000"><ele>820</ele><time>2026-03-21T13:16:43Z</time></trkpt>
<trkpt lat="43.0517230000" lon="0.1360970000"><ele>819</ele><time>2026-03-21T13:16:45Z</time></trkpt>
<trkpt lat="43.0517420000" lon="0.1360820000"><ele>819</ele><time>2026-03-21T13:16:47Z</time></trkpt>
<trkpt lat="43.0517520000" lon="0.1360550000"><ele>819</ele><time>2026-03-21T13:16:49Z</time></trkpt>
<trkpt lat="43.0517650000" lon="0.1360270000"><ele>819</ele><time>2026-03-21T13:16:51Z</time></trkpt>
<trkpt lat="43.0517700000" lon="0.1360020000"><ele>819</ele><time>2026-03-21T13:16:53Z</time></trkpt>
<trkpt lat="43.0517770000" lon="0.1359720000"><ele>818</ele><time>2026-03-21T13:16:55Z</time></trkpt>
<trkpt lat="43.0517870000" lon="0.1359420000"><ele>818</ele><time>2026-03-21T13:16:57Z</time></trkpt>
<trkpt lat="43.0518000000" lon="0.1359220000"><ele>818</ele><time>2026-03-21T13:16:59Z</time></trkpt>
<trkpt lat="43.0518120000" lon="0.1359070000"><ele>818</ele><time>2026-03-21T13:17:01Z</time></trkpt>
<trkpt lat="43.0518320000" lon="0.1358870000"><ele>818</ele><time>2026-03-21T13:17:03Z</time></trkpt>
<trkpt lat="43.0518520000" lon="0.1358720000"><ele>818</ele><time>2026-03-21T13:17:05Z</time></trkpt>
<trkpt lat="43.0518620000" lon="0.1358500000"><ele>818</ele><time>2026-03-21T13:17:07Z</time></trkpt>
<trkpt lat="43.0518770000" lon="0.1358170000"><ele>817</ele><time>2026-03-21T13:17:09Z</time></trkpt>
<trkpt lat="43.0518920000" lon="0.1357880000"><ele>817</ele><time>2026-03-21T13:17:11Z</time></trkpt>
<trkpt lat="43.0519020000" lon="0.1357570000"><ele>817</ele><time>2026-03-21T13:17:13Z</time></trkpt>
<trkpt lat="43.0519120000" lon="0.1357270000"><ele>816</ele><time>2026-03-21T13:17:15Z</time></trkpt>
<trkpt lat="43.0519170000" lon="0.1357020000"><ele>816</ele><time>2026-03-21T13:17:17Z</time></trkpt>
<trkpt lat="43.0519350000" lon="0.1356730000"><ele>816</ele><time>2026-03-21T13:17:19Z</time></trkpt>
<trkpt lat="43.0519520000" lon="0.1356470000"><ele>816</ele><time>2026-03-21T13:17:21Z</time></trkpt>
<trkpt lat="43.0519650000" lon="0.1356280000"><ele>816</ele><time>2026-03-21T13:17:23Z</time></trkpt>
<trkpt lat="43.0519700000" lon="0.1356020000"><ele>816</ele><time>2026-03-21T13:17:25Z</time></trkpt>
<trkpt lat="43.0519720000" lon="0.1355720000"><ele>815</ele><time>2026-03-21T13:17:27Z</time></trkpt>
<trkpt lat="43.0519720000" lon="0.1355420000"><ele>815</ele><time>2026-03-21T13:17:29Z</time></trkpt>
<trkpt lat="43.0519850000" lon="0.1355120000"><ele>815</ele><time>2026-03-21T13:17:31Z</time></trkpt>
<trkpt lat="43.0519950000" lon="0.1354720000"><ele>815</ele><time>2026-03-21T13:17:33Z</time></trkpt>
<trkpt lat="43.0520000000" lon="0.1354420000"><ele>815</ele><time>2026-03-21T13:17:35Z</time></trkpt>
<trkpt lat="43.0520070000" lon="0.1354120000"><ele>814</ele><time>2026-03-21T13:17:37Z</time></trkpt>
<trkpt lat="43.0520220000" lon="0.1353800000"><ele>814</ele><time>2026-03-21T13:17:40Z</time></trkpt>
<trkpt lat="43.0520320000" lon="0.1353520000"><ele>814</ele><time>2026-03-21T13:17:42Z</time></trkpt>
<trkpt lat="43.0520420000" lon="0.1353200000"><ele>814</ele><time>2026-03-21T13:17:45Z</time></trkpt>
<trkpt lat="43.0520450000" lon="0.1352900000"><ele>813</ele><time>2026-03-21T13:17:47Z</time></trkpt>
<trkpt lat="43.0520520000" lon="0.1352530000"><ele>813</ele><time>2026-03-21T13:17:49Z</time></trkpt>
<trkpt lat="43.0520670000" lon="0.1352250000"><ele>813</ele><time>2026-03-21T13:17:51Z</time></trkpt>
<trkpt lat="43.0520750000" lon="0.1351920000"><ele>813</ele><time>2026-03-21T13:17:53Z</time></trkpt>
<trkpt lat="43.0520820000" lon="0.1351650000"><ele>813</ele><time>2026-03-21T13:17:55Z</time></trkpt>
<trkpt lat="43.0520820000" lon="0.1351370000"><ele>812</ele><time>2026-03-21T13:17:57Z</time></trkpt>
<trkpt lat="43.0520850000" lon="0.1351100000"><ele>812</ele><time>2026-03-21T13:17:59Z</time></trkpt>
<trkpt lat="43.0520970000" lon="0.1350820000"><ele>812</ele><time>2026-03-21T13:18:02Z</time></trkpt>
<trkpt lat="43.0521220000" lon="0.1350570000"><ele>811</ele><time>2026-03-21T13:18:05Z</time></trkpt>
<trkpt lat="43.0521420000" lon="0.1350320000"><ele>811</ele><time>2026-03-21T13:18:07Z</time></trkpt>
<trkpt lat="43.0521600000" lon="0.1350100000"><ele>811</ele><time>2026-03-21T13:18:10Z</time></trkpt>
<trkpt lat="43.0521850000" lon="0.1349900000"><ele>810</ele><time>2026-03-21T13:18:12Z</time></trkpt>
<trkpt lat="43.0521920000" lon="0.1349570000"><ele>810</ele><time>2026-03-21T13:18:14Z</time></trkpt>
<trkpt lat="43.0522050000" lon="0.1349370000"><ele>810</ele><time>2026-03-21T13:18:15Z</time></trkpt>
<trkpt lat="43.0522050000" lon="0.1349020000"><ele>810</ele><time>2026-03-21T13:18:17Z</time></trkpt>
<trkpt lat="43.0522020000" lon="0.1348770000"><ele>809</ele><time>2026-03-21T13:18:19Z</time></trkpt>
<trkpt lat="43.0522050000" lon="0.1348470000"><ele>809</ele><time>2026-03-21T13:18:21Z</time></trkpt>
<trkpt lat="43.0522050000" lon="0.1348170000"><ele>809</ele><time>2026-03-21T13:18:23Z</time></trkpt>
<trkpt lat="43.0522120000" lon="0.1347930000"><ele>809</ele><time>2026-03-21T13:18:25Z</time></trkpt>
<trkpt lat="43.0522170000" lon="0.1347620000"><ele>809</ele><time>2026-03-21T13:18:27Z</time></trkpt>
<trkpt lat="43.0522300000" lon="0.1347320000"><ele>808</ele><time>2026-03-21T13:18:30Z</time></trkpt>
<trkpt lat="43.0522350000" lon="0.1346950000"><ele>808</ele><time>2026-03-21T13:18:32Z</time></trkpt>
<trkpt lat="43.0522450000" lon="0.1346600000"><ele>808</ele><time>2026-03-21T13:18:34Z</time></trkpt>
<trkpt lat="43.0522520000" lon="0.1346220000"><ele>807</ele><time>2026-03-21T13:18:37Z</time></trkpt>
<trkpt lat="43.0522620000" lon="0.1345950000"><ele>807</ele><time>2026-03-21T13:18:39Z</time></trkpt>
<trkpt lat="43.0522720000" lon="0.1345700000"><ele>806</ele><time>2026-03-21T13:18:41Z</time></trkpt>
<trkpt lat="43.0522770000" lon="0.1345330000"><ele>806</ele><time>2026-03-21T13:18:44Z</time></trkpt>
<trkpt lat="43.0522850000" lon="0.1345050000"><ele>806</ele><time>2026-03-21T13:18:46Z</time></trkpt>
<trkpt lat="43.0522870000" lon="0.1344720000"><ele>805</ele><time>2026-03-21T13:18:48Z</time></trkpt>
<trkpt lat="43.0522750000" lon="0.1344420000"><ele>805</ele><time>2026-03-21T13:18:50Z</time></trkpt>
<trkpt lat="43.0522720000" lon="0.1344030000"><ele>805</ele><time>2026-03-21T13:18:52Z</time></trkpt>
<trkpt lat="43.0522850000" lon="0.1343770000"><ele>804</ele><time>2026-03-21T13:18:55Z</time></trkpt>
<trkpt lat="43.0523020000" lon="0.1343670000"><ele>804</ele><time>2026-03-21T13:18:57Z</time></trkpt>
<trkpt lat="43.0523170000" lon="0.1343500000"><ele>803</ele><time>2026-03-21T13:18:59Z</time></trkpt>
<trkpt lat="43.0523320000" lon="0.1343320000"><ele>803</ele><time>2026-03-21T13:19:02Z</time></trkpt>
<trkpt lat="43.0523470000" lon="0.1343120000"><ele>802</ele><time>2026-03-21T13:19:04Z</time></trkpt>
<trkpt lat="43.0523650000" lon="0.1342820000"><ele>802</ele><time>2026-03-21T13:19:07Z</time></trkpt>
<trkpt lat="43.0523850000" lon="0.1342700000"><ele>801</ele><time>2026-03-21T13:19:10Z</time></trkpt>
<trkpt lat="43.0523900000" lon="0.1342370000"><ele>799</ele><time>2026-03-21T13:19:22Z</time></trkpt>
<trkpt lat="43.0524170000" lon="0.1342170000"><ele>799</ele><time>2026-03-21T13:19:25Z</time></trkpt>
<trkpt lat="43.0524420000" lon="0.1342170000"><ele>799</ele><time>2026-03-21T13:19:26Z</time></trkpt>
<trkpt lat="43.0524600000" lon="0.1342150000"><ele>799</ele><time>2026-03-21T13:19:27Z</time></trkpt>
<trkpt lat="43.0524870000" lon="0.1342170000"><ele>799</ele><time>2026-03-21T13:19:28Z</time></trkpt>
<trkpt lat="43.0525120000" lon="0.1342250000"><ele>798</ele><time>2026-03-21T13:19:30Z</time></trkpt>
<trkpt lat="43.0525400000" lon="0.1342320000"><ele>798</ele><time>2026-03-21T13:19:32Z</time></trkpt>
<trkpt lat="43.0525670000" lon="0.1342250000"><ele>798</ele><time>2026-03-21T13:19:34Z</time></trkpt>
<trkpt lat="43.0525870000" lon="0.1342220000"><ele>798</ele><time>2026-03-21T13:19:36Z</time></trkpt>
<trkpt lat="43.0526170000" lon="0.1342220000"><ele>797</ele><time>2026-03-21T13:19:38Z</time></trkpt>
<trkpt lat="43.0526380000" lon="0.1342200000"><ele>797</ele><time>2026-03-21T13:19:40Z</time></trkpt>
<trkpt lat="43.0526570000" lon="0.1342120000"><ele>797</ele><time>2026-03-21T13:19:42Z</time></trkpt>
<trkpt lat="43.0526870000" lon="0.1341970000"><ele>797</ele><time>2026-03-21T13:19:44Z</time></trkpt>
<trkpt lat="43.0527070000" lon="0.1341920000"><ele>797</ele><time>2026-03-21T13:19:46Z</time></trkpt>
<trkpt lat="43.0527350000" lon="0.1341920000"><ele>797</ele><time>2026-03-21T13:19:48Z</time></trkpt>
<trkpt lat="43.0527600000" lon="0.1342050000"><ele>796</ele><time>2026-03-21T13:19:51Z</time></trkpt>
<trkpt lat="43.0527820000" lon="0.1342120000"><ele>796</ele><time>2026-03-21T13:19:53Z</time></trkpt>
<trkpt lat="43.0528020000" lon="0.1342050000"><ele>796</ele><time>2026-03-21T13:19:55Z</time></trkpt>
<trkpt lat="43.0528300000" lon="0.1342020000"><ele>795</ele><time>2026-03-21T13:19:59Z</time></trkpt>
<trkpt lat="43.0528470000" lon="0.1341850000"><ele>795</ele><time>2026-03-21T13:20:01Z</time></trkpt>
<trkpt lat="43.0528750000" lon="0.1341750000"><ele>794</ele><time>2026-03-21T13:20:04Z</time></trkpt>
<trkpt lat="43.0529020000" lon="0.1341670000"><ele>794</ele><time>2026-03-21T13:20:06Z</time></trkpt>
<trkpt lat="43.0529200000" lon="0.1341550000"><ele>794</ele><time>2026-03-21T13:20:10Z</time></trkpt>
<trkpt lat="43.0529370000" lon="0.1341270000"><ele>793</ele><time>2026-03-21T13:20:13Z</time></trkpt>
<trkpt lat="43.0529520000" lon="0.1341120000"><ele>793</ele><time>2026-03-21T13:20:15Z</time></trkpt>
<trkpt lat="43.0529700000" lon="0.1341120000"><ele>792</ele><time>2026-03-21T13:20:18Z</time></trkpt>
<trkpt lat="43.0529970000" lon="0.1340980000"><ele>791</ele><time>2026-03-21T13:20:21Z</time></trkpt>
<trkpt lat="43.0530180000" lon="0.1340980000"><ele>791</ele><time>2026-03-21T13:20:23Z</time></trkpt>
<trkpt lat="43.0530470000" lon="0.1341100000"><ele>790</ele><time>2026-03-21T13:20:25Z</time></trkpt>
<trkpt lat="43.0530670000" lon="0.1341320000"><ele>790</ele><time>2026-03-21T13:20:27Z</time></trkpt>
<trkpt lat="43.0530880000" lon="0.1341570000"><ele>789</ele><time>2026-03-21T13:20:29Z</time></trkpt>
<trkpt lat="43.0531070000" lon="0.1341870000"><ele>789</ele><time>2026-03-21T13:20:31Z</time></trkpt>
<trkpt lat="43.0531250000" lon="0.1342150000"><ele>789</ele><time>2026-03-21T13:20:33Z</time></trkpt>
<trkpt lat="43.0531400000" lon="0.1342370000"><ele>788</ele><time>2026-03-21T13:20:35Z</time></trkpt>
<trkpt lat="43.0531570000" lon="0.1342670000"><ele>788</ele><time>2026-03-21T13:20:38Z</time></trkpt>
<trkpt lat="43.0531720000" lon="0.1342900000"><ele>787</ele><time>2026-03-21T13:20:41Z</time></trkpt>
<trkpt lat="43.0531820000" lon="0.1343150000"><ele>787</ele><time>2026-03-21T13:20:43Z</time></trkpt>
<trkpt lat="43.0531970000" lon="0.1343420000"><ele>787</ele><time>2026-03-21T13:20:45Z</time></trkpt>
<trkpt lat="43.0532050000" lon="0.1343770000"><ele>786</ele><time>2026-03-21T13:20:47Z</time></trkpt>
<trkpt lat="43.0532200000" lon="0.1343970000"><ele>786</ele><time>2026-03-21T13:20:50Z</time></trkpt>
<trkpt lat="43.0532430000" lon="0.1343720000"><ele>785</ele><time>2026-03-21T13:20:53Z</time></trkpt>
<trkpt lat="43.0532570000" lon="0.1343450000"><ele>785</ele><time>2026-03-21T13:20:55Z</time></trkpt>
<trkpt lat="43.0532650000" lon="0.1343200000"><ele>785</ele><time>2026-03-21T13:20:57Z</time></trkpt>
<trkpt lat="43.0532720000" lon="0.1342950000"><ele>784</ele><time>2026-03-21T13:20:59Z</time></trkpt>
<trkpt lat="43.0532670000" lon="0.1342580000"><ele>784</ele><time>2026-03-21T13:21:02Z</time></trkpt>
<trkpt lat="43.0532820000" lon="0.1342320000"><ele>784</ele><time>2026-03-21T13:21:05Z</time></trkpt>
<trkpt lat="43.0533050000" lon="0.1342100000"><ele>783</ele><time>2026-03-21T13:21:07Z</time></trkpt>
<trkpt lat="43.0533170000" lon="0.1341870000"><ele>783</ele><time>2026-03-21T13:21:09Z</time></trkpt>
<trkpt lat="43.0533270000" lon="0.1341650000"><ele>783</ele><time>2026-03-21T13:21:11Z</time></trkpt>
<trkpt lat="43.0533320000" lon="0.1341320000"><ele>782</ele><time>2026-03-21T13:21:13Z</time></trkpt>
<trkpt lat="43.0533270000" lon="0.1340970000"><ele>782</ele><time>2026-03-21T13:21:15Z</time></trkpt>
<trkpt lat="43.0533130000" lon="0.1340670000"><ele>782</ele><time>2026-03-21T13:21:17Z</time></trkpt>
<trkpt lat="43.0533100000" lon="0.1340420000"><ele>781</ele><time>2026-03-21T13:21:19Z</time></trkpt>
<trkpt lat="43.0533050000" lon="0.1340000000"><ele>781</ele><time>2026-03-21T13:21:22Z</time></trkpt>
<trkpt lat="43.0532870000" lon="0.1339700000"><ele>781</ele><time>2026-03-21T13:21:24Z</time></trkpt>
<trkpt lat="43.0532770000" lon="0.1339320000"><ele>780</ele><time>2026-03-21T13:21:27Z</time></trkpt>
<trkpt lat="43.0532820000" lon="0.1339050000"><ele>779</ele><time>2026-03-21T13:21:29Z</time></trkpt>
<trkpt lat="43.0532820000" lon="0.1338750000"><ele>779</ele><time>2026-03-21T13:21:31Z</time></trkpt>
<trkpt lat="43.0532900000" lon="0.1338470000"><ele>779</ele><time>2026-03-21T13:21:33Z</time></trkpt>
<trkpt lat="43.0533120000" lon="0.1338370000"><ele>778</ele><time>2026-03-21T13:21:35Z</time></trkpt>
<trkpt lat="43.0533350000" lon="0.1338380000"><ele>778</ele><time>2026-03-21T13:21:37Z</time></trkpt>
<trkpt lat="43.0533600000" lon="0.1338570000"><ele>778</ele><time>2026-03-21T13:21:39Z</time></trkpt>
<trkpt lat="43.0533820000" lon="0.1338720000"><ele>777</ele><time>2026-03-21T13:21:41Z</time></trkpt>
<trkpt lat="43.0534020000" lon="0.1338800000"><ele>777</ele><time>2026-03-21T13:21:43Z</time></trkpt>
<trkpt lat="43.0534270000" lon="0.1338900000"><ele>777</ele><time>2026-03-21T13:21:45Z</time></trkpt>
<trkpt lat="43.0534520000" lon="0.1339020000"><ele>776</ele><time>2026-03-21T13:21:47Z</time></trkpt>
<trkpt lat="43.0534750000" lon="0.1339120000"><ele>776</ele><time>2026-03-21T13:21:49Z</time></trkpt>
<trkpt lat="43.0534970000" lon="0.1339300000"><ele>776</ele><time>2026-03-21T13:21:51Z</time></trkpt>
<trkpt lat="43.0535120000" lon="0.1339400000"><ele>776</ele><time>2026-03-21T13:21:52Z</time></trkpt>
<trkpt lat="43.0535350000" lon="0.1339630000"><ele>775</ele><time>2026-03-21T13:21:55Z</time></trkpt>
<trkpt lat="43.0535570000" lon="0.1339820000"><ele>775</ele><time>2026-03-21T13:21:57Z</time></trkpt>
<trkpt lat="43.0535750000" lon="0.1340020000"><ele>774</ele><time>2026-03-21T13:21:59Z</time></trkpt>
<trkpt lat="43.0535870000" lon="0.1340270000"><ele>774</ele><time>2026-03-21T13:22:01Z</time></trkpt>
<trkpt lat="43.0535970000" lon="0.1340570000"><ele>774</ele><time>2026-03-21T13:22:04Z</time></trkpt>
<trkpt lat="43.0536200000" lon="0.1340820000"><ele>773</ele><time>2026-03-21T13:22:06Z</time></trkpt>
<trkpt lat="43.0536470000" lon="0.1341020000"><ele>773</ele><time>2026-03-21T13:22:08Z</time></trkpt>
<trkpt lat="43.0536670000" lon="0.1341270000"><ele>772</ele><time>2026-03-21T13:22:10Z</time></trkpt>
<trkpt lat="43.0536870000" lon="0.1341520000"><ele>772</ele><time>2026-03-21T13:22:12Z</time></trkpt>
<trkpt lat="43.0537070000" lon="0.1341770000"><ele>772</ele><time>2026-03-21T13:22:15Z</time></trkpt>
<trkpt lat="43.0537220000" lon="0.1341970000"><ele>771</ele><time>2026-03-21T13:22:17Z</time></trkpt>
<trkpt lat="43.0537370000" lon="0.1342220000"><ele>771</ele><time>2026-03-21T13:22:19Z</time></trkpt>
<trkpt lat="43.0537470000" lon="0.1342470000"><ele>771</ele><time>2026-03-21T13:22:21Z</time></trkpt>
<trkpt lat="43.0537630000" lon="0.1342620000"><ele>771</ele><time>2026-03-21T13:22:23Z</time></trkpt>
<trkpt lat="43.0537820000" lon="0.1342750000"><ele>770</ele><time>2026-03-21T13:22:25Z</time></trkpt>
<trkpt lat="43.0537920000" lon="0.1342970000"><ele>770</ele><time>2026-03-21T13:22:27Z</time></trkpt>
<trkpt lat="43.0538070000" lon="0.1343150000"><ele>770</ele><time>2026-03-21T13:22:29Z</time></trkpt>
<trkpt lat="43.0538250000" lon="0.1343420000"><ele>769</ele><time>2026-03-21T13:22:31Z</time></trkpt>
<trkpt lat="43.0538420000" lon="0.1343600000"><ele>769</ele><time>2026-03-21T13:22:33Z</time></trkpt>
<trkpt lat="43.0538670000" lon="0.1343820000"><ele>768</ele><time>2026-03-21T13:22:36Z</time></trkpt>
<trkpt lat="43.0538870000" lon="0.1343980000"><ele>768</ele><time>2026-03-21T13:22:39Z</time></trkpt>
<trkpt lat="43.0539070000" lon="0.1344150000"><ele>768</ele><time>2026-03-21T13:22:41Z</time></trkpt>
<trkpt lat="43.0539270000" lon="0.1344350000"><ele>767</ele><time>2026-03-21T13:22:43Z</time></trkpt>
<trkpt lat="43.0539370000" lon="0.1344550000"><ele>767</ele><time>2026-03-21T13:22:45Z</time></trkpt>
<trkpt lat="43.0539520000" lon="0.1344770000"><ele>767</ele><time>2026-03-21T13:22:47Z</time></trkpt>
<trkpt lat="43.0539670000" lon="0.1344920000"><ele>767</ele><time>2026-03-21T13:22:49Z</time></trkpt>
<trkpt lat="43.0539870000" lon="0.1345220000"><ele>767</ele><time>2026-03-21T13:22:52Z</time></trkpt>
<trkpt lat="43.0540070000" lon="0.1345370000"><ele>766</ele><time>2026-03-21T13:22:54Z</time></trkpt>
<trkpt lat="43.0540320000" lon="0.1345550000"><ele>766</ele><time>2026-03-21T13:22:57Z</time></trkpt>
<trkpt lat="43.0540500000" lon="0.1345700000"><ele>766</ele><time>2026-03-21T13:22:59Z</time></trkpt>
<trkpt lat="43.0540670000" lon="0.1345820000"><ele>766</ele><time>2026-03-21T13:23:01Z</time></trkpt>
<trkpt lat="43.0540870000" lon="0.1345950000"><ele>765</ele><time>2026-03-21T13:23:03Z</time></trkpt>
<trkpt lat="43.0541120000" lon="0.1346100000"><ele>765</ele><time>2026-03-21T13:23:06Z</time></trkpt>
<trkpt lat="43.0541350000" lon="0.1346250000"><ele>765</ele><time>2026-03-21T13:23:08Z</time></trkpt>
<trkpt lat="43.0541570000" lon="0.1346420000"><ele>764</ele><time>2026-03-21T13:23:10Z</time></trkpt>
<trkpt lat="43.0541770000" lon="0.1346520000"><ele>764</ele><time>2026-03-21T13:23:12Z</time></trkpt>
<trkpt lat="43.0541970000" lon="0.1346650000"><ele>764</ele><time>2026-03-21T13:23:14Z</time></trkpt>
<trkpt lat="43.0542170000" lon="0.1346870000"><ele>764</ele><time>2026-03-21T13:23:17Z</time></trkpt>
<trkpt lat="43.0542350000" lon="0.1346980000"><ele>764</ele><time>2026-03-21T13:23:19Z</time></trkpt>
<trkpt lat="43.0542620000" lon="0.1347120000"><ele>763</ele><time>2026-03-21T13:23:21Z</time></trkpt>
<trkpt lat="43.0542870000" lon="0.1347250000"><ele>763</ele><time>2026-03-21T13:23:23Z</time></trkpt>
<trkpt lat="43.0543070000" lon="0.1347370000"><ele>763</ele><time>2026-03-21T13:23:25Z</time></trkpt>
<trkpt lat="43.0543220000" lon="0.1347550000"><ele>763</ele><time>2026-03-21T13:23:27Z</time></trkpt>
<trkpt lat="43.0543520000" lon="0.1347620000"><ele>763</ele><time>2026-03-21T13:23:30Z</time></trkpt>
<trkpt lat="43.0543750000" lon="0.1347750000"><ele>762</ele><time>2026-03-21T13:23:32Z</time></trkpt>
<trkpt lat="43.0544000000" lon="0.1347830000"><ele>762</ele><time>2026-03-21T13:23:34Z</time></trkpt>
<trkpt lat="43.0544250000" lon="0.1347930000"><ele>762</ele><time>2026-03-21T13:23:36Z</time></trkpt>
<trkpt lat="43.0544470000" lon="0.1347970000"><ele>762</ele><time>2026-03-21T13:23:38Z</time></trkpt>
<trkpt lat="43.0544420000" lon="0.1348220000"><ele>761</ele><time>2026-03-21T13:23:59Z</time></trkpt>
<trkpt lat="43.0544530000" lon="0.1348520000"><ele>761</ele><time>2026-03-21T13:24:01Z</time></trkpt>
<trkpt lat="43.0544800000" lon="0.1348850000"><ele>761</ele><time>2026-03-21T13:24:03Z</time></trkpt>
<trkpt lat="43.0545120000" lon="0.1348870000"><ele>761</ele><time>2026-03-21T13:24:05Z</time></trkpt>
<trkpt lat="43.0545420000" lon="0.1348650000"><ele>761</ele><time>2026-03-21T13:24:07Z</time></trkpt>
<trkpt lat="43.0545650000" lon="0.1348550000"><ele>761</ele><time>2026-03-21T13:24:09Z</time></trkpt>
<trkpt lat="43.0545800000" lon="0.1348380000"><ele>760</ele><time>2026-03-21T13:24:11Z</time></trkpt>
<trkpt lat="43.0545950000" lon="0.1348180000"><ele>760</ele><time>2026-03-21T13:24:13Z</time></trkpt>
<trkpt lat="43.0546120000" lon="0.1347970000"><ele>760</ele><time>2026-03-21T13:24:16Z</time></trkpt>
<trkpt lat="43.0546320000" lon="0.1347970000"><ele>759</ele><time>2026-03-21T13:24:19Z</time></trkpt>
</trkseg>
</trk>
</gpx>